<?xml version='1.0' encoding='UTF-8'?><gpx version="1.1" creator="JPX - https://github.com/jenetics/jpx" xmlns="http://www.topografix.com/GPX/1/1"><trk><trkseg><trkpt lat="44.83057151299395" lon="4.809342382318338"><ele>96.83333333333334</ele><time>2026-04-25T08:08:14.003Z</time></trkpt><trkpt lat="44.83062365211795" lon="4.8092860882257735"><ele>96.66666666666667</ele><time>2026-04-25T08:08:16.003Z</time></trkpt><trkpt lat="44.830686860464255" lon="4.809229417129115"><ele>96.5</ele><time>2026-04-25T08:08:18.003Z</time></trkpt><trkpt lat="44.83075567968039" lon="4.809190092974259"><ele>96.33333333333334</ele><time>2026-04-25T08:08:20.003Z</time></trkpt><trkpt lat="44.83082735283577" lon="4.809131571012437"><ele>96.16666666666667</ele><time>2026-04-25T08:08:22.003Z</time></trkpt><trkpt lat="44.83089881755539" lon="4.8090796895002255"><ele>96.0</ele><time>2026-04-25T08:08:24.003Z</time></trkpt><trkpt lat="44.83096343722829" lon="4.809029134733012"><ele>96.19999999999999</ele><time>2026-04-25T08:08:26.003Z</time></trkpt><trkpt lat="44.83103834085701" lon="4.808997087570129"><ele>96.39999999999999</ele><time>2026-04-25T08:08:28.003Z</time></trkpt><trkpt lat="44.831143799340154" lon="4.808958370063691"><ele>96.6</ele><time>2026-04-25T08:08:30.003Z</time></trkpt><trkpt lat="44.83122801554732" lon="4.808883477122523"><ele>96.8</ele><time>2026-04-25T08:08:32.003Z</time></trkpt><trkpt lat="44.831295080204065" lon="4.808794005595984"><ele>97.0</ele><time>2026-04-25T08:08:34.003Z</time></trkpt><trkpt lat="44.831380037836276" lon="4.808712044257148"><ele>97.00000000000001</ele><time>2026-04-25T08:08:36.003Z</time></trkpt><trkpt lat="44.83145637879211" lon="4.808628651376938"><ele>97.0</ele><time>2026-04-25T08:08:38.003Z</time></trkpt><trkpt lat="44.831534490973254" lon="4.808552875486949"><ele>97.0</ele><time>2026-04-25T08:08:40.003Z</time></trkpt><trkpt lat="44.831599594177405" lon="4.808483913924228"><ele>97.0</ele><time>2026-04-25T08:08:42.004Z</time></trkpt><trkpt lat="44.83166454006628" lon="4.80840977055863"><ele>97.00000000000001</ele><time>2026-04-25T08:08:44.004Z</time></trkpt><trkpt lat="44.831726318359884" lon="4.808360455084286"><ele>97.0</ele><time>2026-04-25T08:08:46.004Z</time></trkpt><trkpt lat="44.83172563117555" lon="4.808234093928529"><ele>97.28571428571428</ele><time>2026-04-25T08:08:50.004Z</time></trkpt><trkpt lat="44.83168079784753" lon="4.808166219214883"><ele>97.57142857142858</ele><time>2026-04-25T08:08:52.004Z</time></trkpt><trkpt lat="44.83163829896965" lon="4.808084264433567"><ele>97.85714285714286</ele><time>2026-04-25T08:08:54.004Z</time></trkpt><trkpt lat="44.831586303679586" lon="4.808000689709576"><ele>98.14285714285714</ele><time>2026-04-25T08:08:56.004Z</time></trkpt><trkpt lat="44.83153515545201" lon="4.80792160201971"><ele>98.42857142857142</ele><time>2026-04-25T08:08:58.004Z</time></trkpt><trkpt lat="44.83148274453527" lon="4.80784810463113"><ele>98.71428571428572</ele><time>2026-04-25T08:09:00.004Z</time></trkpt><trkpt lat="44.83142730775574" lon="4.807788542753783"><ele>99.0</ele><time>2026-04-25T08:09:02.004Z</time></trkpt><trkpt lat="44.83137199518675" lon="4.807724735774122"><ele>99.0</ele><time>2026-04-25T08:09:04.004Z</time></trkpt><trkpt lat="44.831313861725754" lon="4.807669232843475"><ele>99.0</ele><time>2026-04-25T08:09:06.004Z</time></trkpt><trkpt lat="44.831241319121666" lon="4.807600838886765"><ele>99.0</ele><time>2026-04-25T08:09:09.004Z</time></trkpt><trkpt lat="44.831194985643656" lon="4.807534277987376"><ele>99.0</ele><time>2026-04-25T08:09:29.004Z</time></trkpt><trkpt lat="44.831158262472414" lon="4.8074345735351764"><ele>99.0</ele><time>2026-04-25T08:09:32.004Z</time></trkpt><trkpt lat="44.83110073121824" lon="4.807368575955809"><ele>99.0</ele><time>2026-04-25T08:09:34.004Z</time></trkpt><trkpt lat="44.831022890680984" lon="4.807302062801107"><ele>98.80000000000001</ele><time>2026-04-25T08:09:36.005Z</time></trkpt><trkpt lat="44.830941729622865" lon="4.807244625357454"><ele>98.60000000000001</ele><time>2026-04-25T08:09:38.005Z</time></trkpt><trkpt lat="44.830860749514834" lon="4.807183529928644"><ele>98.4</ele><time>2026-04-25T08:09:40.005Z</time></trkpt><trkpt lat="44.83078518063055" lon="4.807109676375688"><ele>98.2</ele><time>2026-04-25T08:09:42.005Z</time></trkpt><trkpt lat="44.83070347591279" lon="4.8070422807887665"><ele>98.0</ele><time>2026-04-25T08:09:44.005Z</time></trkpt><trkpt lat="44.83062545853309" lon="4.806974837006588"><ele>98.0</ele><time>2026-04-25T08:09:46.005Z</time></trkpt><trkpt lat="44.83054760610138" lon="4.8068947397856086"><ele>98.0</ele><time>2026-04-25T08:09:48.005Z</time></trkpt><trkpt lat="44.83046358562061" lon="4.806836364266913"><ele>98.0</ele><time>2026-04-25T08:09:50.005Z</time></trkpt><trkpt lat="44.830390589715144" lon="4.806753983737882"><ele>98.0</ele><time>2026-04-25T08:09:52.005Z</time></trkpt><trkpt lat="44.83031600114452" lon="4.806678696887216"><ele>98.0</ele><time>2026-04-25T08:09:54.005Z</time></trkpt><trkpt lat="44.83022750273043" lon="4.806620139959576"><ele>98.60000000000001</ele><time>2026-04-25T08:09:56.005Z</time></trkpt><trkpt lat="44.83014072753129" lon="4.806541665570357"><ele>99.2</ele><time>2026-04-25T08:09:58.005Z</time></trkpt><trkpt lat="44.830055539737685" lon="4.80646682104652"><ele>99.8</ele><time>2026-04-25T08:10:00.005Z</time></trkpt><trkpt lat="44.82997620060431" lon="4.80639494307692"><ele>100.4</ele><time>2026-04-25T08:10:02.005Z</time></trkpt><trkpt lat="44.82987889300998" lon="4.806322860606345"><ele>101.0</ele><time>2026-04-25T08:10:04.005Z</time></trkpt><trkpt lat="44.82978489698618" lon="4.8062485820859875"><ele>101.0</ele><time>2026-04-25T08:10:06.005Z</time></trkpt><trkpt lat="44.82969718560807" lon="4.806180522719718"><ele>101.0</ele><time>2026-04-25T08:10:08.005Z</time></trkpt><trkpt lat="44.82961126201637" lon="4.8061009994883195"><ele>101.0</ele><time>2026-04-25T08:10:10.005Z</time></trkpt><trkpt lat="44.82951664402897" lon="4.806033090041621"><ele>101.0</ele><time>2026-04-25T08:10:12.005Z</time></trkpt><trkpt lat="44.82942007577148" lon="4.805965124335212"><ele>101.0</ele><time>2026-04-25T08:10:14.005Z</time></trkpt><trkpt lat="44.82932429919322" lon="4.8058935208449665"><ele>102.19999999999999</ele><time>2026-04-25T08:10:16.005Z</time></trkpt><trkpt lat="44.829222757620485" lon="4.805831092319347"><ele>103.39999999999999</ele><time>2026-04-25T08:10:18.005Z</time></trkpt><trkpt lat="44.829121312648525" lon="4.805772141355112"><ele>104.6</ele><time>2026-04-25T08:10:20.005Z</time></trkpt><trkpt lat="44.829021987811466" lon="4.805700438465489"><ele>105.8</ele><time>2026-04-25T08:10:22.005Z</time></trkpt><trkpt lat="44.82892251930286" lon="4.805645842005954"><ele>107.0</ele><time>2026-04-25T08:10:24.005Z</time></trkpt><trkpt lat="44.828829025574784" lon="4.805576173715424"><ele>107.0</ele><time>2026-04-25T08:10:26.005Z</time></trkpt><trkpt lat="44.828736534014205" lon="4.805507603925399"><ele>106.99999999999999</ele><time>2026-04-25T08:10:28.005Z</time></trkpt><trkpt lat="44.828646665217015" lon="4.805444419853747"><ele>106.99999999999999</ele><time>2026-04-25T08:10:30.006Z</time></trkpt><trkpt lat="44.82856042463429" lon="4.805380887692278"><ele>107.0</ele><time>2026-04-25T08:10:32.006Z</time></trkpt><trkpt lat="44.82848766184558" lon="4.8053066111634575"><ele>107.0</ele><time>2026-04-25T08:10:34.006Z</time></trkpt><trkpt lat="44.82840650744851" lon="4.805224351283628"><ele>107.8</ele><time>2026-04-25T08:10:36.006Z</time></trkpt><trkpt lat="44.82832017501058" lon="4.805157769360198"><ele>108.6</ele><time>2026-04-25T08:10:38.006Z</time></trkpt><trkpt lat="44.82824119501378" lon="4.805087215189182"><ele>109.39999999999999</ele><time>2026-04-25T08:10:40.006Z</time></trkpt><trkpt lat="44.828160783071965" lon="4.805004195953458"><ele>110.19999999999999</ele><time>2026-04-25T08:10:42.006Z</time></trkpt><trkpt lat="44.82807248475407" lon="4.8049389863917815"><ele>111.0</ele><time>2026-04-25T08:10:44.006Z</time></trkpt><trkpt lat="44.82799415063829" lon="4.804857663270283"><ele>111.0</ele><time>2026-04-25T08:10:46.006Z</time></trkpt><trkpt lat="44.827907247433394" lon="4.804789951342946"><ele>111.0</ele><time>2026-04-25T08:10:48.006Z</time></trkpt><trkpt lat="44.82782948562388" lon="4.80470675420654"><ele>111.0</ele><time>2026-04-25T08:10:50.006Z</time></trkpt><trkpt lat="44.8277391672981" lon="4.804648776183724"><ele>111.0</ele><time>2026-04-25T08:10:52.006Z</time></trkpt><trkpt lat="44.82765429143225" lon="4.80457635188998"><ele>111.0</ele><time>2026-04-25T08:10:54.006Z</time></trkpt><trkpt lat="44.82757629884129" lon="4.804503189790546"><ele>110.8</ele><time>2026-04-25T08:10:56.006Z</time></trkpt><trkpt lat="44.827490176300444" lon="4.804430731098804"><ele>110.6</ele><time>2026-04-25T08:10:58.006Z</time></trkpt><trkpt lat="44.82740732200392" lon="4.804350442278506"><ele>110.4</ele><time>2026-04-25T08:11:00.006Z</time></trkpt><trkpt lat="44.82732927513241" lon="4.804260265987684"><ele>110.2</ele><time>2026-04-25T08:11:02.006Z</time></trkpt><trkpt lat="44.82724761887359" lon="4.804171023680696"><ele>110.0</ele><time>2026-04-25T08:11:04.006Z</time></trkpt><trkpt lat="44.82717342317764" lon="4.804068130884534"><ele>109.99999999999999</ele><time>2026-04-25T08:11:06.006Z</time></trkpt><trkpt lat="44.82710474025141" lon="4.80395456290896"><ele>110.0</ele><time>2026-04-25T08:11:08.006Z</time></trkpt><trkpt lat="44.827035855688514" lon="4.803860095919222"><ele>110.0</ele><time>2026-04-25T08:11:10.006Z</time></trkpt><trkpt lat="44.82698498187635" lon="4.803791328341737"><ele>110.0</ele><time>2026-04-25T08:11:12.006Z</time></trkpt><trkpt lat="44.82690516115833" lon="4.803758192673795"><ele>109.99999999999999</ele><time>2026-04-25T08:11:21.006Z</time></trkpt><trkpt lat="44.82683175848777" lon="4.803722457249915"><ele>110.0</ele><time>2026-04-25T08:11:23.007Z</time></trkpt><trkpt lat="44.82677951565467" lon="4.803641075573652"><ele>108.99999999999999</ele><time>2026-04-25T08:11:25.007Z</time></trkpt><trkpt lat="44.82672099383073" lon="4.803549717274422"><ele>108.0</ele><time>2026-04-25T08:11:27.007Z</time></trkpt><trkpt lat="44.82665341103873" lon="4.803474948851269"><ele>107.0</ele><time>2026-04-25T08:11:29.007Z</time></trkpt><trkpt lat="44.82659878842046" lon="4.803373761491447"><ele>106.0</ele><time>2026-04-25T08:11:31.007Z</time></trkpt><trkpt lat="44.82652703701311" lon="4.803290107579444"><ele>104.99999999999999</ele><time>2026-04-25T08:11:33.007Z</time></trkpt><trkpt lat="44.82647264901936" lon="4.80318530001779"><ele>104.0</ele><time>2026-04-25T08:11:35.007Z</time></trkpt><trkpt lat="44.82641608957522" lon="4.803077657967171"><ele>103.99999999999999</ele><time>2026-04-25T08:11:37.007Z</time></trkpt><trkpt lat="44.82635386432503" lon="4.8029723706344845"><ele>104.0</ele><time>2026-04-25T08:11:39.007Z</time></trkpt><trkpt lat="44.82629547100346" lon="4.8028724190674605"><ele>104.0</ele><time>2026-04-25T08:11:41.007Z</time></trkpt><trkpt lat="44.82623520370483" lon="4.802825709664329"><ele>104.0</ele><time>2026-04-25T08:11:44.007Z</time></trkpt><trkpt lat="44.82616162370015" lon="4.802844122249377"><ele>103.99999999999999</ele><time>2026-04-25T08:11:48.007Z</time></trkpt><trkpt lat="44.82609011870785" lon="4.802809941134164"><ele>104.0</ele><time>2026-04-25T08:11:51.007Z</time></trkpt><trkpt lat="44.826020911195585" lon="4.8028014664625145"><ele>103.0</ele><time>2026-04-25T08:11:53.007Z</time></trkpt><trkpt lat="44.82593200847982" lon="4.802886907880107"><ele>102.0</ele><time>2026-04-25T08:11:55.007Z</time></trkpt><trkpt lat="44.825847101172855" lon="4.802980321561899"><ele>101.0</ele><time>2026-04-25T08:11:57.007Z</time></trkpt><trkpt lat="44.825753904937216" lon="4.803064695245987"><ele>100.0</ele><time>2026-04-25T08:11:59.007Z</time></trkpt><trkpt lat="44.82564756513333" lon="4.80301943716258"><ele>99.0</ele><time>2026-04-25T08:12:01.007Z</time></trkpt><trkpt lat="44.82559488596248" lon="4.802868564486269"><ele>99.0</ele><time>2026-04-25T08:12:03.007Z</time></trkpt><trkpt lat="44.82553780861253" lon="4.802726700129265"><ele>99.0</ele><time>2026-04-25T08:12:05.007Z</time></trkpt><trkpt lat="44.82548503508736" lon="4.802592705398614"><ele>99.0</ele><time>2026-04-25T08:12:07.007Z</time></trkpt><trkpt lat="44.825430269221584" lon="4.802475329182199"><ele>99.0</ele><time>2026-04-25T08:12:09.007Z</time></trkpt><trkpt lat="44.82538280507228" lon="4.802332619840542"><ele>99.0</ele><time>2026-04-25T08:12:11.007Z</time></trkpt><trkpt lat="44.8253075264045" lon="4.802207209816926"><ele>98.80000000000001</ele><time>2026-04-25T08:12:13.007Z</time></trkpt><trkpt lat="44.82522084753001" lon="4.802104081389059"><ele>98.60000000000001</ele><time>2026-04-25T08:12:15.007Z</time></trkpt><trkpt lat="44.82514319275273" lon="4.801991652279187"><ele>98.4</ele><time>2026-04-25T08:12:17.007Z</time></trkpt><trkpt lat="44.825059890222256" lon="4.801883233800074"><ele>98.2</ele><time>2026-04-25T08:12:19.008Z</time></trkpt><trkpt lat="44.824980927090245" lon="4.801778594385661"><ele>98.0</ele><time>2026-04-25T08:12:21.008Z</time></trkpt><trkpt lat="44.82489052843996" lon="4.80168196042118"><ele>97.80000000000001</ele><time>2026-04-25T08:12:23.008Z</time></trkpt><trkpt lat="44.82479741763863" lon="4.801588344938013"><ele>97.6</ele><time>2026-04-25T08:12:25.008Z</time></trkpt><trkpt lat="44.82471081022645" lon="4.801489710414062"><ele>97.4</ele><time>2026-04-25T08:12:27.008Z</time></trkpt><trkpt lat="44.82462100287631" lon="4.801398602563223"><ele>97.19999999999999</ele><time>2026-04-25T08:12:29.008Z</time></trkpt><trkpt lat="44.824536047571236" lon="4.801303774299128"><ele>97.0</ele><time>2026-04-25T08:12:31.008Z</time></trkpt><trkpt lat="44.82444755562279" lon="4.801204027250055"><ele>97.0</ele><time>2026-04-25T08:12:33.008Z</time></trkpt><trkpt lat="44.8243593404498" lon="4.80110860890546"><ele>97.0</ele><time>2026-04-25T08:12:35.008Z</time></trkpt><trkpt lat="44.82426798131572" lon="4.801006150204924"><ele>97.0</ele><time>2026-04-25T08:12:37.008Z</time></trkpt><trkpt lat="44.82417040483204" lon="4.800920882526578"><ele>97.0</ele><time>2026-04-25T08:12:39.008Z</time></trkpt><trkpt lat="44.82407438642728" lon="4.800834559878221"><ele>97.19999999999999</ele><time>2026-04-25T08:12:41.008Z</time></trkpt><trkpt lat="44.82396281374615" lon="4.800797584604622"><ele>97.4</ele><time>2026-04-25T08:12:43.008Z</time></trkpt><trkpt lat="44.823852381626054" lon="4.800810435374976"><ele>97.6</ele><time>2026-04-25T08:12:45.008Z</time></trkpt><trkpt lat="44.8237550455283" lon="4.800833296667666"><ele>97.80000000000001</ele><time>2026-04-25T08:12:47.008Z</time></trkpt><trkpt lat="44.82365234842658" lon="4.800842177414654"><ele>98.0</ele><time>2026-04-25T08:12:49.008Z</time></trkpt><trkpt lat="44.82354359756656" lon="4.800874817911816"><ele>97.99999999999999</ele><time>2026-04-25T08:12:51.008Z</time></trkpt><trkpt lat="44.82343716935872" lon="4.800900124337443"><ele>98.0</ele><time>2026-04-25T08:12:53.008Z</time></trkpt><trkpt lat="44.823364524632126" lon="4.8009093924615565"><ele>98.0</ele><time>2026-04-25T08:12:55.008Z</time></trkpt><trkpt lat="44.82340573492915" lon="4.80082318401964"><ele>98.0</ele><time>2026-04-25T08:12:59.008Z</time></trkpt><trkpt lat="44.823472463474" lon="4.800844651232902"><ele>97.99999999999999</ele><time>2026-04-25T08:13:01.008Z</time></trkpt><trkpt lat="44.823543337969" lon="4.800812744130216"><ele>98.0</ele><time>2026-04-25T08:13:03.008Z</time></trkpt><trkpt lat="44.82361792408447" lon="4.800782687312693"><ele>98.0</ele><time>2026-04-25T08:13:05.008Z</time></trkpt><trkpt lat="44.823691334254335" lon="4.800739948765643"><ele>98.0</ele><time>2026-04-25T08:13:07.008Z</time></trkpt><trkpt lat="44.82376295041896" lon="4.800682174554149"><ele>98.0</ele><time>2026-04-25T08:13:09.008Z</time></trkpt><trkpt lat="44.82384888050412" lon="4.800631961404398"><ele>98.0</ele><time>2026-04-25T08:13:11.008Z</time></trkpt><trkpt lat="44.82393215318951" lon="4.800565803284594"><ele>98.0</ele><time>2026-04-25T08:13:13.009Z</time></trkpt><trkpt lat="44.82402121645768" lon="4.800492612941699"><ele>98.0</ele><time>2026-04-25T08:13:15.009Z</time></trkpt><trkpt lat="44.824107919232034" lon="4.800422215533644"><ele>98.0</ele><time>2026-04-25T08:13:17.009Z</time></trkpt><trkpt lat="44.82419520700338" lon="4.800358192251201"><ele>98.0</ele><time>2026-04-25T08:13:19.009Z</time></trkpt><trkpt lat="44.8242810347025" lon="4.800299948562731"><ele>98.0</ele><time>2026-04-25T08:13:21.009Z</time></trkpt><trkpt lat="44.824354537135626" lon="4.8002334082170135"><ele>98.0</ele><time>2026-04-25T08:13:23.009Z</time></trkpt><trkpt lat="44.82442051072853" lon="4.800184969413633"><ele>97.66666666666666</ele><time>2026-04-25T08:13:25.009Z</time></trkpt><trkpt lat="44.8245132534572" lon="4.800119279742741"><ele>97.33333333333333</ele><time>2026-04-25T08:13:27.009Z</time></trkpt><trkpt lat="44.82459930492266" lon="4.800050903086996"><ele>97.0</ele><time>2026-04-25T08:13:29.009Z</time></trkpt><trkpt lat="44.82468161774868" lon="4.799987193329595"><ele>96.66666666666666</ele><time>2026-04-25T08:13:31.009Z</time></trkpt><trkpt lat="44.82475727489249" lon="4.799979783970281"><ele>96.33333333333333</ele><time>2026-04-25T08:13:33.009Z</time></trkpt><trkpt lat="44.824801545749786" lon="4.799913915708872"><ele>96.0</ele><time>2026-04-25T08:13:37.009Z</time></trkpt><trkpt lat="44.8247575972986" lon="4.799833374224118"><ele>96.0</ele><time>2026-04-25T08:13:39.009Z</time></trkpt><trkpt lat="44.82471472785995" lon="4.799744964488693"><ele>96.0</ele><time>2026-04-25T08:13:41.009Z</time></trkpt><trkpt lat="44.824669745603245" lon="4.799655465910765"><ele>96.0</ele><time>2026-04-25T08:13:43.009Z</time></trkpt><trkpt lat="44.82461843705419" lon="4.799552937653614"><ele>96.0</ele><time>2026-04-25T08:13:45.009Z</time></trkpt><trkpt lat="44.824569210296424" lon="4.799453136103818"><ele>96.0</ele><time>2026-04-25T08:13:47.009Z</time></trkpt><trkpt lat="44.82451970127306" lon="4.7993472384984095"><ele>96.0</ele><time>2026-04-25T08:13:49.009Z</time></trkpt><trkpt lat="44.82447252027773" lon="4.7992364043628655"><ele>95.8</ele><time>2026-04-25T08:13:51.009Z</time></trkpt><trkpt lat="44.824414822727846" lon="4.799129530174828"><ele>95.6</ele><time>2026-04-25T08:13:53.009Z</time></trkpt><trkpt lat="44.82436588277522" lon="4.799022082502003"><ele>95.4</ele><time>2026-04-25T08:13:55.009Z</time></trkpt><trkpt lat="44.82431426684782" lon="4.798918370860185"><ele>95.2</ele><time>2026-04-25T08:13:57.009Z</time></trkpt><trkpt lat="44.824260862246156" lon="4.7988100257551976"><ele>95.0</ele><time>2026-04-25T08:13:59.009Z</time></trkpt><trkpt lat="44.82420580984781" lon="4.798693343444095"><ele>94.4</ele><time>2026-04-25T08:14:01.009Z</time></trkpt><trkpt lat="44.8241481099678" lon="4.798574544010436"><ele>93.8</ele><time>2026-04-25T08:14:03.009Z</time></trkpt><trkpt lat="44.824086239961375" lon="4.798464655551714"><ele>93.19999999999999</ele><time>2026-04-25T08:14:05.009Z</time></trkpt><trkpt lat="44.82402915723692" lon="4.79835047880903"><ele>92.6</ele><time>2026-04-25T08:14:07.01Z</time></trkpt><trkpt lat="44.82396866046721" lon="4.79823483911718"><ele>92.0</ele><time>2026-04-25T08:14:09.01Z</time></trkpt><trkpt lat="44.82391592642576" lon="4.798129513633571"><ele>93.0</ele><time>2026-04-25T08:14:11.01Z</time></trkpt><trkpt lat="44.82386423775109" lon="4.79804080509773"><ele>94.0</ele><time>2026-04-25T08:14:13.01Z</time></trkpt><trkpt lat="44.8237977003441" lon="4.798038954157464"><ele>95.0</ele><time>2026-04-25T08:14:15.01Z</time></trkpt><trkpt lat="44.823750457762486" lon="4.798153411436605"><ele>96.0</ele><time>2026-04-25T08:14:17.01Z</time></trkpt><trkpt lat="44.82372918506962" lon="4.798272239038144"><ele>96.99999999999999</ele><time>2026-04-25T08:14:19.01Z</time></trkpt><trkpt lat="44.82368941696002" lon="4.798383319776773"><ele>98.0</ele><time>2026-04-25T08:14:21.01Z</time></trkpt><trkpt lat="44.82364295246996" lon="4.798494772409784"><ele>97.83333333333333</ele><time>2026-04-25T08:14:23.01Z</time></trkpt><trkpt lat="44.823585283841915" lon="4.798619302351818"><ele>97.66666666666666</ele><time>2026-04-25T08:14:25.01Z</time></trkpt><trkpt lat="44.82354098620141" lon="4.798704642179207"><ele>97.5</ele><time>2026-04-25T08:14:26.01Z</time></trkpt><trkpt lat="44.82349767983733" lon="4.798800139844202"><ele>97.33333333333334</ele><time>2026-04-25T08:14:27.01Z</time></trkpt><trkpt lat="44.82344958459217" lon="4.7989081002078"><ele>97.16666666666667</ele><time>2026-04-25T08:14:28.01Z</time></trkpt><trkpt lat="44.82339860109945" lon="4.799014156474388"><ele>97.0</ele><time>2026-04-25T08:14:29.01Z</time></trkpt><trkpt lat="44.82334244620442" lon="4.799107489521063"><ele>97.00000000000001</ele><time>2026-04-25T08:14:30.01Z</time></trkpt><trkpt lat="44.82327760572638" lon="4.799186459065819"><ele>97.0</ele><time>2026-04-25T08:14:31.01Z</time></trkpt><trkpt lat="44.823211594534435" lon="4.79925545830687"><ele>97.0</ele><time>2026-04-25T08:14:32.01Z</time></trkpt><trkpt lat="44.823146838953235" lon="4.799306595179487"><ele>97.0</ele><time>2026-04-25T08:14:33.01Z</time></trkpt><trkpt lat="44.82307242934724" lon="4.799367790308181"><ele>97.00000000000001</ele><time>2026-04-25T08:14:34.01Z</time></trkpt><trkpt lat="44.82300769229246" lon="4.799415756439948"><ele>97.0</ele><time>2026-04-25T08:14:35.01Z</time></trkpt><trkpt lat="44.82295878861151" lon="4.799486054895025"><ele>97.14285714285714</ele><time>2026-04-25T08:14:36.01Z</time></trkpt><trkpt lat="44.82290406844798" lon="4.799543989773409"><ele>97.28571428571429</ele><time>2026-04-25T08:14:37.01Z</time></trkpt><trkpt lat="44.822840020055025" lon="4.79958686363782"><ele>97.42857142857143</ele><time>2026-04-25T08:14:38.01Z</time></trkpt><trkpt lat="44.82276861626067" lon="4.799612854766694"><ele>97.57142857142857</ele><time>2026-04-25T08:14:39.01Z</time></trkpt><trkpt lat="44.822704654502665" lon="4.799627838819776"><ele>97.71428571428572</ele><time>2026-04-25T08:14:40.01Z</time></trkpt><trkpt lat="44.82264000170844" lon="4.799650947915013"><ele>97.85714285714286</ele><time>2026-04-25T08:14:41.01Z</time></trkpt><trkpt lat="44.822580639140455" lon="4.79968780604592"><ele>98.0</ele><time>2026-04-25T08:14:42.01Z</time></trkpt><trkpt lat="44.822522794237614" lon="4.799723331256802"><ele>98.0</ele><time>2026-04-25T08:14:43.01Z</time></trkpt><trkpt lat="44.82241026095728" lon="4.799788841409629"><ele>98.0</ele><time>2026-04-25T08:14:45.01Z</time></trkpt><trkpt lat="44.82229933279503" lon="4.799860982034536"><ele>98.0</ele><time>2026-04-25T08:14:47.01Z</time></trkpt><trkpt lat="44.82219310910295" lon="4.79993560416998"><ele>98.0</ele><time>2026-04-25T08:14:49.01Z</time></trkpt><trkpt lat="44.82209676018083" lon="4.8000317779415544"><ele>98.0</ele><time>2026-04-25T08:14:51.01Z</time></trkpt><trkpt lat="44.82202974589988" lon="4.8001639397845155"><ele>98.0</ele><time>2026-04-25T08:14:53.01Z</time></trkpt><trkpt lat="44.82197249433375" lon="4.800316174849588"><ele>98.0</ele><time>2026-04-25T08:14:55.01Z</time></trkpt><trkpt lat="44.8219048297716" lon="4.800453997448069"><ele>98.0</ele><time>2026-04-25T08:14:57.01Z</time></trkpt><trkpt lat="44.82181021153" lon="4.800556331299241"><ele>97.0</ele><time>2026-04-25T08:14:59.01Z</time></trkpt><trkpt lat="44.821706729548275" lon="4.800619540207377"><ele>96.0</ele><time>2026-04-25T08:15:01.011Z</time></trkpt><trkpt lat="44.821592099690044" lon="4.800693069955346"><ele>95.0</ele><time>2026-04-25T08:15:03.011Z</time></trkpt><trkpt lat="44.82147458156406" lon="4.800757503168993"><ele>94.0</ele><time>2026-04-25T08:15:05.011Z</time></trkpt><trkpt lat="44.82136506412755" lon="4.800823426551593"><ele>94.0</ele><time>2026-04-25T08:15:07.011Z</time></trkpt><trkpt lat="44.821252678722466" lon="4.800881021097376"><ele>94.0</ele><time>2026-04-25T08:15:09.011Z</time></trkpt><trkpt lat="44.82113357554162" lon="4.800928787406289"><ele>94.0</ele><time>2026-04-25T08:15:11.011Z</time></trkpt><trkpt lat="44.82100922141188" lon="4.800965131285145"><ele>94.0</ele><time>2026-04-25T08:15:13.011Z</time></trkpt><trkpt lat="44.82094458683763" lon="4.800984638591296"><ele>94.0</ele><time>2026-04-25T08:15:14.011Z</time></trkpt><trkpt lat="44.82087902806903" lon="4.800978720624818"><ele>93.6</ele><time>2026-04-25T08:15:15.011Z</time></trkpt><trkpt lat="44.82076116577268" lon="4.801008062576642"><ele>93.2</ele><time>2026-04-25T08:15:17.011Z</time></trkpt><trkpt lat="44.820663789340266" lon="4.8010185810464066"><ele>92.8</ele><time>2026-04-25T08:15:19.011Z</time></trkpt><trkpt lat="44.820553805298694" lon="4.801053836990857"><ele>92.39999999999999</ele><time>2026-04-25T08:15:21.011Z</time></trkpt><trkpt lat="44.82044704490332" lon="4.801065731758671"><ele>92.0</ele><time>2026-04-25T08:15:23.011Z</time></trkpt><trkpt lat="44.82038462159173" lon="4.801080857503422"><ele>92.0</ele><time>2026-04-25T08:15:24.011Z</time></trkpt><trkpt lat="44.820293617207305" lon="4.801095046118295"><ele>92.0</ele><time>2026-04-25T08:15:26.011Z</time></trkpt><trkpt lat="44.82018837816461" lon="4.801102226872789"><ele>92.0</ele><time>2026-04-25T08:15:28.011Z</time></trkpt><trkpt lat="44.82008219645727" lon="4.801124085130945"><ele>92.0</ele><time>2026-04-25T08:15:30.011Z</time></trkpt><trkpt lat="44.819967566944214" lon="4.801132011834994"><ele>92.0</ele><time>2026-04-25T08:15:32.011Z</time></trkpt><trkpt lat="44.819849831632645" lon="4.801139289053384"><ele>92.75</ele><time>2026-04-25T08:15:34.011Z</time></trkpt><trkpt lat="44.819738535613304" lon="4.801146849952963"><ele>93.5</ele><time>2026-04-25T08:15:36.011Z</time></trkpt><trkpt lat="44.819615643940644" lon="4.801145265185967"><ele>94.25</ele><time>2026-04-25T08:15:38.011Z</time></trkpt><trkpt lat="44.81949383846277" lon="4.801167497949505"><ele>95.0</ele><time>2026-04-25T08:15:40.011Z</time></trkpt><trkpt lat="44.819393338136706" lon="4.8011799955769225"><ele>95.2</ele><time>2026-04-25T08:15:42.011Z</time></trkpt><trkpt lat="44.819282333367426" lon="4.801202196500137"><ele>95.4</ele><time>2026-04-25T08:15:44.011Z</time></trkpt><trkpt lat="44.819172625315964" lon="4.801225962855363"><ele>95.6</ele><time>2026-04-25T08:15:46.011Z</time></trkpt><trkpt lat="44.81905800041699" lon="4.801247716787211"><ele>95.8</ele><time>2026-04-25T08:15:48.011Z</time></trkpt><trkpt lat="44.81895233546113" lon="4.801260558528463"><ele>96.0</ele><time>2026-04-25T08:15:50.011Z</time></trkpt><trkpt lat="44.818831336110065" lon="4.801273196107509"><ele>96.0</ele><time>2026-04-25T08:15:52.011Z</time></trkpt><trkpt lat="44.81872787523008" lon="4.801289422306158"><ele>96.0</ele><time>2026-04-25T08:15:54.011Z</time></trkpt><trkpt lat="44.818658690095255" lon="4.8013011405126464"><ele>96.0</ele><time>2026-04-25T08:15:55.012Z</time></trkpt><trkpt lat="44.81855349543314" lon="4.8013114927684235"><ele>96.0</ele><time>2026-04-25T08:15:57.012Z</time></trkpt><trkpt lat="44.818489537700415" lon="4.801324397139233"><ele>96.0</ele><time>2026-04-25T08:15:58.012Z</time></trkpt><trkpt lat="44.81838825540741" lon="4.801338070919556"><ele>96.0</ele><time>2026-04-25T08:16:00.012Z</time></trkpt><trkpt lat="44.81832109565706" lon="4.801349640790109"><ele>95.6</ele><time>2026-04-25T08:16:01.012Z</time></trkpt><trkpt lat="44.8182071000573" lon="4.801366249429197"><ele>95.19999999999999</ele><time>2026-04-25T08:16:03.012Z</time></trkpt><trkpt lat="44.81809765627056" lon="4.801380438249877"><ele>94.80000000000001</ele><time>2026-04-25T08:16:05.012Z</time></trkpt><trkpt lat="44.817988610844914" lon="4.801398062696056"><ele>94.4</ele><time>2026-04-25T08:16:07.012Z</time></trkpt><trkpt lat="44.81787385270247" lon="4.801412950805846"><ele>94.0</ele><time>2026-04-25T08:16:09.012Z</time></trkpt><trkpt lat="44.817776596975065" lon="4.801419450491421"><ele>94.0</ele><time>2026-04-25T08:16:11.012Z</time></trkpt><trkpt lat="44.817671640268955" lon="4.801429533417888"><ele>94.0</ele><time>2026-04-25T08:16:13.012Z</time></trkpt><trkpt lat="44.81755819317703" lon="4.801445250904451"><ele>94.0</ele><time>2026-04-25T08:16:15.012Z</time></trkpt><trkpt lat="44.81744929909012" lon="4.801447238464288"><ele>94.0</ele><time>2026-04-25T08:16:17.012Z</time></trkpt><trkpt lat="44.81734646577118" lon="4.801460065181773"><ele>94.0</ele><time>2026-04-25T08:16:19.012Z</time></trkpt><trkpt lat="44.81723999622494" lon="4.801473458379986"><ele>94.0</ele><time>2026-04-25T08:16:21.012Z</time></trkpt><trkpt lat="44.817128094059186" lon="4.801469901004883"><ele>94.0</ele><time>2026-04-25T08:16:23.012Z</time></trkpt><trkpt lat="44.81702639936651" lon="4.801470149720088"><ele>94.0</ele><time>2026-04-25T08:16:25.012Z</time></trkpt><trkpt lat="44.8169211477166" lon="4.801476562802709"><ele>94.0</ele><time>2026-04-25T08:16:27.012Z</time></trkpt><trkpt lat="44.81681482183806" lon="4.801463077133749"><ele>94.0</ele><time>2026-04-25T08:16:29.012Z</time></trkpt><trkpt lat="44.816733929931054" lon="4.801406914277162"><ele>94.0</ele><time>2026-04-25T08:16:31.012Z</time></trkpt><trkpt lat="44.81665318216582" lon="4.801302635750731"><ele>94.0</ele><time>2026-04-25T08:16:33.012Z</time></trkpt><trkpt lat="44.81656965696123" lon="4.801200672712321"><ele>94.0</ele><time>2026-04-25T08:16:35.012Z</time></trkpt><trkpt lat="44.81648449290237" lon="4.801098046642868"><ele>94.0</ele><time>2026-04-25T08:16:37.012Z</time></trkpt><trkpt lat="44.81642553575516" lon="4.800974553836014"><ele>94.0</ele><time>2026-04-25T08:16:39.012Z</time></trkpt><trkpt lat="44.816356799372535" lon="4.8008481343926315"><ele>94.0</ele><time>2026-04-25T08:16:41.012Z</time></trkpt><trkpt lat="44.81628832475449" lon="4.800738610070465"><ele>94.0</ele><time>2026-04-25T08:16:43.012Z</time></trkpt><trkpt lat="44.81621653451346" lon="4.800609925046919"><ele>94.0</ele><time>2026-04-25T08:16:45.012Z</time></trkpt><trkpt lat="44.81614868573389" lon="4.800483786089646"><ele>94.0</ele><time>2026-04-25T08:16:47.012Z</time></trkpt><trkpt lat="44.81608080690792" lon="4.8003747025377095"><ele>94.0</ele><time>2026-04-25T08:16:49.013Z</time></trkpt><trkpt lat="44.8160358061891" lon="4.800310757892995"><ele>94.0</ele><time>2026-04-25T08:16:50.013Z</time></trkpt><trkpt lat="44.815963942820176" lon="4.800196545192756"><ele>94.0</ele><time>2026-04-25T08:16:52.013Z</time></trkpt><trkpt lat="44.81589167146607" lon="4.800083928990581"><ele>94.0</ele><time>2026-04-25T08:16:54.013Z</time></trkpt><trkpt lat="44.815824934690774" lon="4.799956398317543"><ele>94.0</ele><time>2026-04-25T08:16:56.013Z</time></trkpt><trkpt lat="44.815748071971065" lon="4.799852797174716"><ele>94.0</ele><time>2026-04-25T08:16:58.013Z</time></trkpt><trkpt lat="44.81567703810205" lon="4.799742410376535"><ele>94.0</ele><time>2026-04-25T08:17:00.013Z</time></trkpt><trkpt lat="44.815606634367555" lon="4.799611572578082"><ele>94.0</ele><time>2026-04-25T08:17:02.013Z</time></trkpt><trkpt lat="44.815536599849885" lon="4.799512487708551"><ele>94.0</ele><time>2026-04-25T08:17:04.013Z</time></trkpt><trkpt lat="44.815475426335766" lon="4.799381854153093"><ele>94.0</ele><time>2026-04-25T08:17:06.013Z</time></trkpt><trkpt lat="44.81548455964425" lon="4.79922334729332"><ele>94.0</ele><time>2026-04-25T08:17:08.013Z</time></trkpt><trkpt lat="44.815573441130844" lon="4.7991489148513535"><ele>94.0</ele><time>2026-04-25T08:17:10.013Z</time></trkpt><trkpt lat="44.81565477901817" lon="4.799123995929681"><ele>94.0</ele><time>2026-04-25T08:17:12.013Z</time></trkpt><trkpt lat="44.81574189845049" lon="4.7990687319350585"><ele>94.0</ele><time>2026-04-25T08:17:15.013Z</time></trkpt><trkpt lat="44.81579025711327" lon="4.798985540385495"><ele>94.0</ele><time>2026-04-25T08:17:17.013Z</time></trkpt><trkpt lat="44.81571549942404" lon="4.798962210226855"><ele>94.0</ele><time>2026-04-25T08:17:20.013Z</time></trkpt><trkpt lat="44.81562959953507" lon="4.798992090174918"><ele>94.0</ele><time>2026-04-25T08:17:23.013Z</time></trkpt><trkpt lat="44.8155628071489" lon="4.799003591279771"><ele>94.0</ele><time>2026-04-25T08:17:25.013Z</time></trkpt><trkpt lat="44.81549954339947" lon="4.7990073424578155"><ele>94.0</ele><time>2026-04-25T08:17:27.013Z</time></trkpt><trkpt lat="44.815432284378474" lon="4.799009603020325"><ele>94.0</ele><time>2026-04-25T08:17:29.013Z</time></trkpt><trkpt lat="44.81536372051527" lon="4.799024432535575"><ele>94.0</ele><time>2026-04-25T08:17:31.013Z</time></trkpt><trkpt lat="44.815297459131536" lon="4.799022781479565"><ele>94.0</ele><time>2026-04-25T08:17:33.013Z</time></trkpt><trkpt lat="44.81522676413049" lon="4.799022334181336"><ele>94.0</ele><time>2026-04-25T08:17:35.013Z</time></trkpt><trkpt lat="44.8151567809544" lon="4.798992129544034"><ele>94.0</ele><time>2026-04-25T08:17:37.013Z</time></trkpt><trkpt lat="44.81508171817634" lon="4.798989092521854"><ele>94.83333333333333</ele><time>2026-04-25T08:17:39.013Z</time></trkpt><trkpt lat="44.815016215291024" lon="4.798987015313297"><ele>95.66666666666666</ele><time>2026-04-25T08:17:41.013Z</time></trkpt><trkpt lat="44.81494732748144" lon="4.798969285583689"><ele>96.5</ele><time>2026-04-25T08:17:43.014Z</time></trkpt><trkpt lat="44.8148736452422" lon="4.79894832051609"><ele>97.33333333333333</ele><time>2026-04-25T08:17:45.014Z</time></trkpt><trkpt lat="44.81478631897221" lon="4.79891923117856"><ele>98.16666666666667</ele><time>2026-04-25T08:17:47.014Z</time></trkpt><trkpt lat="44.814702873073436" lon="4.798887881781819"><ele>99.0</ele><time>2026-04-25T08:17:49.014Z</time></trkpt><trkpt lat="44.814614773331996" lon="4.798852360582077"><ele>99.0</ele><time>2026-04-25T08:17:51.014Z</time></trkpt><trkpt lat="44.814533949533214" lon="4.798831777572177"><ele>99.0</ele><time>2026-04-25T08:17:53.014Z</time></trkpt><trkpt lat="44.81445504724081" lon="4.798803682060532"><ele>99.0</ele><time>2026-04-25T08:17:55.014Z</time></trkpt><trkpt lat="44.814375307928664" lon="4.798802741943705"><ele>99.0</ele><time>2026-04-25T08:17:57.014Z</time></trkpt><trkpt lat="44.81428455504465" lon="4.798779893212597"><ele>99.0</ele><time>2026-04-25T08:17:59.014Z</time></trkpt><trkpt lat="44.814198012293154" lon="4.798752906006867"><ele>99.0</ele><time>2026-04-25T08:18:01.014Z</time></trkpt><trkpt lat="44.814114723504396" lon="4.79871193279627"><ele>98.66666666666667</ele><time>2026-04-25T08:18:03.014Z</time></trkpt><trkpt lat="44.81402789568235" lon="4.798685320134268"><ele>98.33333333333334</ele><time>2026-04-25T08:18:05.014Z</time></trkpt><trkpt lat="44.81394013897905" lon="4.798669954175057"><ele>98.0</ele><time>2026-04-25T08:18:07.014Z</time></trkpt><trkpt lat="44.81385427657041" lon="4.798640781864642"><ele>97.66666666666667</ele><time>2026-04-25T08:18:09.014Z</time></trkpt><trkpt lat="44.813755707226086" lon="4.798610756088037"><ele>97.33333333333334</ele><time>2026-04-25T08:18:11.014Z</time></trkpt><trkpt lat="44.81367850958191" lon="4.798581867497463"><ele>97.0</ele><time>2026-04-25T08:18:13.014Z</time></trkpt><trkpt lat="44.81358836357736" lon="4.798544668887843"><ele>97.0</ele><time>2026-04-25T08:18:15.014Z</time></trkpt><trkpt lat="44.813515081363704" lon="4.79851767000324"><ele>97.0</ele><time>2026-04-25T08:18:17.014Z</time></trkpt><trkpt lat="44.813450445759095" lon="4.798485880843981"><ele>97.0</ele><time>2026-04-25T08:18:19.014Z</time></trkpt><trkpt lat="44.81344565055566" lon="4.798379009154287"><ele>97.0</ele><time>2026-04-25T08:18:23.014Z</time></trkpt><trkpt lat="44.81349285234842" lon="4.798295544658733"><ele>97.0</ele><time>2026-04-25T08:18:26.014Z</time></trkpt><trkpt lat="44.8135337400409" lon="4.798201712845575"><ele>97.0</ele><time>2026-04-25T08:18:30.014Z</time></trkpt><trkpt lat="44.8135623203291" lon="4.798117869238209"><ele>97.0</ele><time>2026-04-25T08:18:34.014Z</time></trkpt><trkpt lat="44.81362428180681" lon="4.798084841360917"><ele>97.33333333333334</ele><time>2026-04-25T08:18:37.015Z</time></trkpt><trkpt lat="44.813710701593536" lon="4.798052542183531"><ele>97.66666666666667</ele><time>2026-04-25T08:18:41.015Z</time></trkpt><trkpt lat="44.81377112875861" lon="4.797986343430796"><ele>98.0</ele><time>2026-04-25T08:18:44.015Z</time></trkpt><trkpt lat="44.813808612777365" lon="4.797880922639203"><ele>98.33333333333334</ele><time>2026-04-25T08:18:47.015Z</time></trkpt><trkpt lat="44.8138266992578" lon="4.797776012369886"><ele>98.66666666666667</ele><time>2026-04-25T08:18:50.015Z</time></trkpt><trkpt lat="44.81384820437467" lon="4.7976813559604485"><ele>99.0</ele><time>2026-04-25T08:18:53.015Z</time></trkpt><trkpt lat="44.81386584009467" lon="4.797565832168742"><ele>100.5</ele><time>2026-04-25T08:18:56.015Z</time></trkpt><trkpt lat="44.813832840702595" lon="4.797473709648034"><ele>102.0</ele><time>2026-04-25T08:18:59.015Z</time></trkpt><trkpt lat="44.81378093940723" lon="4.79739972702075"><ele>103.5</ele><time>2026-04-25T08:19:02.015Z</time></trkpt><trkpt lat="44.81372583785775" lon="4.797332560530266"><ele>105.0</ele><time>2026-04-25T08:19:05.015Z</time></trkpt><trkpt lat="44.813665519042424" lon="4.797255011245532"><ele>106.5</ele><time>2026-04-25T08:19:08.015Z</time></trkpt><trkpt lat="44.813607102603015" lon="4.797179503504398"><ele>108.0</ele><time>2026-04-25T08:19:11.015Z</time></trkpt><trkpt lat="44.81354791486907" lon="4.797122343516434"><ele>108.0</ele><time>2026-04-25T08:19:14.015Z</time></trkpt><trkpt lat="44.81348996107807" lon="4.797056584782717"><ele>108.0</ele><time>2026-04-25T08:19:17.015Z</time></trkpt><trkpt lat="44.813419536032896" lon="4.79701125478844"><ele>108.0</ele><time>2026-04-25T08:19:20.015Z</time></trkpt><trkpt lat="44.81333896546538" lon="4.7969560014696695"><ele>108.0</ele><time>2026-04-25T08:19:23.015Z</time></trkpt><trkpt lat="44.813247612666686" lon="4.796904540285276"><ele>108.0</ele><time>2026-04-25T08:19:26.015Z</time></trkpt><trkpt lat="44.81319195174842" lon="4.7968355934470015"><ele>108.0</ele><time>2026-04-25T08:19:28.015Z</time></trkpt><trkpt lat="44.813129615389904" lon="4.7967718185826635"><ele>108.83333333333333</ele><time>2026-04-25T08:19:30.015Z</time></trkpt><trkpt lat="44.81306828198036" lon="4.796698701405585"><ele>109.66666666666666</ele><time>2026-04-25T08:19:32.016Z</time></trkpt><trkpt lat="44.81299962698278" lon="4.796627059587578"><ele>110.5</ele><time>2026-04-25T08:19:34.016Z</time></trkpt><trkpt lat="44.81293314136829" lon="4.796543783302813"><ele>111.33333333333333</ele><time>2026-04-25T08:19:36.016Z</time></trkpt><trkpt lat="44.812872848513514" lon="4.7964638537398105"><ele>112.16666666666666</ele><time>2026-04-25T08:19:38.016Z</time></trkpt><trkpt lat="44.81280330321159" lon="4.796382562004608"><ele>113.0</ele><time>2026-04-25T08:19:40.016Z</time></trkpt><trkpt lat="44.8127368149488" lon="4.796289712523188"><ele>112.2</ele><time>2026-04-25T08:19:42.016Z</time></trkpt><trkpt lat="44.812648414078744" lon="4.79619862629335"><ele>111.4</ele><time>2026-04-25T08:19:44.016Z</time></trkpt><trkpt lat="44.812559725524686" lon="4.796100843163408"><ele>110.60000000000001</ele><time>2026-04-25T08:19:46.016Z</time></trkpt><trkpt lat="44.81247539751724" lon="4.796002869098118"><ele>109.80000000000001</ele><time>2026-04-25T08:19:48.016Z</time></trkpt><trkpt lat="44.81237665662798" lon="4.795917464211813"><ele>109.0</ele><time>2026-04-25T08:19:50.016Z</time></trkpt><trkpt lat="44.81232518138724" lon="4.7957808927053645"><ele>109.0</ele><time>2026-04-25T08:19:52.016Z</time></trkpt><trkpt lat="44.81234948196819" lon="4.795623094993404"><ele>109.0</ele><time>2026-04-25T08:19:54.016Z</time></trkpt><trkpt lat="44.812402024357944" lon="4.795510512422809"><ele>109.0</ele><time>2026-04-25T08:19:56.016Z</time></trkpt><trkpt lat="44.81244068863773" lon="4.795392593102302"><ele>109.0</ele><time>2026-04-25T08:19:58.016Z</time></trkpt><trkpt lat="44.81247387589819" lon="4.795277204044379"><ele>109.0</ele><time>2026-04-25T08:20:00.016Z</time></trkpt><trkpt lat="44.81251226204058" lon="4.795155696925582"><ele>109.33333333333334</ele><time>2026-04-25T08:20:02.016Z</time></trkpt><trkpt lat="44.81254234772842" lon="4.795038981131096"><ele>109.66666666666667</ele><time>2026-04-25T08:20:04.016Z</time></trkpt><trkpt lat="44.812559841959036" lon="4.794920043480641"><ele>110.0</ele><time>2026-04-25T08:20:06.016Z</time></trkpt><trkpt lat="44.81257869154989" lon="4.794809145528393"><ele>110.33333333333334</ele><time>2026-04-25T08:20:08.016Z</time></trkpt><trkpt lat="44.812630145414374" lon="4.794721896472249"><ele>110.66666666666667</ele><time>2026-04-25T08:20:10.016Z</time></trkpt><trkpt lat="44.812701663996265" lon="4.7946563277967424"><ele>111.0</ele><time>2026-04-25T08:20:12.016Z</time></trkpt><trkpt lat="44.812780299077104" lon="4.794610723161764"><ele>112.16666666666667</ele><time>2026-04-25T08:20:14.016Z</time></trkpt><trkpt lat="44.81285497905067" lon="4.79458014062746"><ele>113.33333333333334</ele><time>2026-04-25T08:20:16.016Z</time></trkpt><trkpt lat="44.812935667053644" lon="4.794542492021146"><ele>114.5</ele><time>2026-04-25T08:20:18.016Z</time></trkpt><trkpt lat="44.81301846561572" lon="4.794506328158768"><ele>115.66666666666667</ele><time>2026-04-25T08:20:20.016Z</time></trkpt><trkpt lat="44.813115048751115" lon="4.794489506403837"><ele>116.83333333333334</ele><time>2026-04-25T08:20:22.016Z</time></trkpt><trkpt lat="44.81320437360496" lon="4.7944639841995595"><ele>118.0</ele><time>2026-04-25T08:20:24.016Z</time></trkpt><trkpt lat="44.81330350186351" lon="4.79444609383609"><ele>118.00000000000001</ele><time>2026-04-25T08:20:26.017Z</time></trkpt><trkpt lat="44.8133817880867" lon="4.794449004748905"><ele>118.0</ele><time>2026-04-25T08:20:28.017Z</time></trkpt><trkpt lat="44.81346281655093" lon="4.794431142624552"><ele>118.0</ele><time>2026-04-25T08:20:30.017Z</time></trkpt><trkpt lat="44.81354057761822" lon="4.794433773078699"><ele>118.0</ele><time>2026-04-25T08:20:32.017Z</time></trkpt><trkpt lat="44.81362066207093" lon="4.794413969953887"><ele>118.00000000000001</ele><time>2026-04-25T08:20:34.017Z</time></trkpt><trkpt lat="44.81371338671206" lon="4.7944352384408875"><ele>118.0</ele><time>2026-04-25T08:20:36.017Z</time></trkpt><trkpt lat="44.813796014253974" lon="4.794434348760956"><ele>118.66666666666667</ele><time>2026-04-25T08:20:38.017Z</time></trkpt><trkpt lat="44.81388800177858" lon="4.7944402791469045"><ele>119.33333333333334</ele><time>2026-04-25T08:20:40.017Z</time></trkpt><trkpt lat="44.8139594452772" lon="4.794409421823145"><ele>120.0</ele><time>2026-04-25T08:20:42.017Z</time></trkpt><trkpt lat="44.81403840505882" lon="4.794393527236285"><ele>120.66666666666666</ele><time>2026-04-25T08:20:44.017Z</time></trkpt><trkpt lat="44.81413409897255" lon="4.794385280103702"><ele>121.33333333333333</ele><time>2026-04-25T08:20:46.017Z</time></trkpt><trkpt lat="44.81422304972221" lon="4.794337175187403"><ele>122.0</ele><time>2026-04-25T08:20:48.017Z</time></trkpt><trkpt lat="44.814298195176065" lon="4.794277518378769"><ele>121.83333333333333</ele><time>2026-04-25T08:20:50.017Z</time></trkpt><trkpt lat="44.81437135931937" lon="4.7942254507084"><ele>121.66666666666666</ele><time>2026-04-25T08:20:52.017Z</time></trkpt><trkpt lat="44.81444996602125" lon="4.794180562878938"><ele>121.5</ele><time>2026-04-25T08:20:54.017Z</time></trkpt><trkpt lat="44.81451573658704" lon="4.794102246464938"><ele>121.33333333333334</ele><time>2026-04-25T08:20:56.017Z</time></trkpt><trkpt lat="44.81456990283999" lon="4.794026385855729"><ele>121.16666666666667</ele><time>2026-04-25T08:20:58.017Z</time></trkpt><trkpt lat="44.814630590999876" lon="4.793952785400139"><ele>121.0</ele><time>2026-04-25T08:21:00.017Z</time></trkpt><trkpt lat="44.814678119605816" lon="4.793860527237798"><ele>121.00000000000001</ele><time>2026-04-25T08:21:02.017Z</time></trkpt><trkpt lat="44.81472107404854" lon="4.79376765502074"><ele>121.0</ele><time>2026-04-25T08:21:04.017Z</time></trkpt><trkpt lat="44.81475785766674" lon="4.793672002523528"><ele>121.0</ele><time>2026-04-25T08:21:06.017Z</time></trkpt><trkpt lat="44.81478465138633" lon="4.793574461375001"><ele>121.0</ele><time>2026-04-25T08:21:08.017Z</time></trkpt><trkpt lat="44.81481780154367" lon="4.7934787895925695"><ele>121.00000000000001</ele><time>2026-04-25T08:21:10.017Z</time></trkpt><trkpt lat="44.81483308604144" lon="4.793368308879177"><ele>121.0</ele><time>2026-04-25T08:21:12.017Z</time></trkpt><trkpt lat="44.81483941371272" lon="4.793270286918877"><ele>120.16666666666667</ele><time>2026-04-25T08:21:14.017Z</time></trkpt><trkpt lat="44.814833574349606" lon="4.793170494392263"><ele>119.33333333333334</ele><time>2026-04-25T08:21:16.017Z</time></trkpt><trkpt lat="44.81483617217147" lon="4.793051632590347"><ele>118.5</ele><time>2026-04-25T08:21:18.017Z</time></trkpt><trkpt lat="44.814830073337376" lon="4.792932589565821"><ele>117.66666666666666</ele><time>2026-04-25T08:21:20.018Z</time></trkpt><trkpt lat="44.81483357284788" lon="4.792819513593514"><ele>116.83333333333333</ele><time>2026-04-25T08:21:22.018Z</time></trkpt><trkpt lat="44.8148164215717" lon="4.792713931142512"><ele>116.0</ele><time>2026-04-25T08:21:24.018Z</time></trkpt><trkpt lat="44.8148050601223" lon="4.7926153939064156"><ele>115.66666666666666</ele><time>2026-04-25T08:21:26.018Z</time></trkpt><trkpt lat="44.814805217629704" lon="4.792500585598317"><ele>115.33333333333333</ele><time>2026-04-25T08:21:28.018Z</time></trkpt><trkpt lat="44.814805313339434" lon="4.792391612943285"><ele>115.0</ele><time>2026-04-25T08:21:30.018Z</time></trkpt><trkpt lat="44.814800737266715" lon="4.792302778249681"><ele>114.66666666666666</ele><time>2026-04-25T08:21:32.018Z</time></trkpt><trkpt lat="44.814815196685615" lon="4.792169864357341"><ele>114.33333333333333</ele><time>2026-04-25T08:21:35.018Z</time></trkpt><trkpt lat="44.81482148755113" lon="4.792074642240243"><ele>114.0</ele><time>2026-04-25T08:21:37.018Z</time></trkpt><trkpt lat="44.81482686175995" lon="4.791969018042421"><ele>114.0</ele><time>2026-04-25T08:21:39.018Z</time></trkpt><trkpt lat="44.81484264098162" lon="4.791837564293105"><ele>114.0</ele><time>2026-04-25T08:21:41.018Z</time></trkpt><trkpt lat="44.81487934813282" lon="4.791707067236355"><ele>114.0</ele><time>2026-04-25T08:21:43.018Z</time></trkpt><trkpt lat="44.81491885998489" lon="4.791570431453017"><ele>114.0</ele><time>2026-04-25T08:21:45.018Z</time></trkpt><trkpt lat="44.81496791624592" lon="4.791419293304882"><ele>114.0</ele><time>2026-04-25T08:21:47.018Z</time></trkpt><trkpt lat="44.81503184825391" lon="4.79127314046729"><ele>114.0</ele><time>2026-04-25T08:21:49.018Z</time></trkpt><trkpt lat="44.81508799024259" lon="4.791125804617124"><ele>114.0</ele><time>2026-04-25T08:21:51.018Z</time></trkpt><trkpt lat="44.81514951674605" lon="4.790999853527825"><ele>114.0</ele><time>2026-04-25T08:21:53.018Z</time></trkpt><trkpt lat="44.815227939110066" lon="4.790880436565445"><ele>114.0</ele><time>2026-04-25T08:21:55.018Z</time></trkpt><trkpt lat="44.815305449290186" lon="4.790752467990463"><ele>112.75</ele><time>2026-04-25T08:21:57.018Z</time></trkpt><trkpt lat="44.8153789843208" lon="4.790618950866696"><ele>111.5</ele><time>2026-04-25T08:21:59.018Z</time></trkpt><trkpt lat="44.81545286954426" lon="4.790487933345119"><ele>110.25</ele><time>2026-04-25T08:22:01.018Z</time></trkpt><trkpt lat="44.81552504009199" lon="4.790355639516225"><ele>109.0</ele><time>2026-04-25T08:22:03.018Z</time></trkpt><trkpt lat="44.81559195218958" lon="4.790225123422793"><ele>109.6</ele><time>2026-04-25T08:22:05.018Z</time></trkpt><trkpt lat="44.81564638236725" lon="4.790079947766084"><ele>110.2</ele><time>2026-04-25T08:22:07.018Z</time></trkpt><trkpt lat="44.81570170195328" lon="4.789950056096638"><ele>110.79999999999998</ele><time>2026-04-25T08:22:09.018Z</time></trkpt><trkpt lat="44.81574084610207" lon="4.789853477691323"><ele>111.39999999999999</ele><time>2026-04-25T08:22:11.018Z</time></trkpt><trkpt lat="44.81577685085251" lon="4.78975538851075"><ele>112.0</ele><time>2026-04-25T08:22:14.018Z</time></trkpt><trkpt lat="44.81583113959053" lon="4.78965336590368"><ele>112.0</ele><time>2026-04-25T08:22:16.019Z</time></trkpt><trkpt lat="44.81588272473097" lon="4.7895109533447915"><ele>112.0</ele><time>2026-04-25T08:22:18.019Z</time></trkpt><trkpt lat="44.81592821327094" lon="4.7893725169895704"><ele>112.0</ele><time>2026-04-25T08:22:20.019Z</time></trkpt><trkpt lat="44.81598865129107" lon="4.789227251548459"><ele>112.0</ele><time>2026-04-25T08:22:22.019Z</time></trkpt><trkpt lat="44.81604283136311" lon="4.789078365903936"><ele>111.39999999999999</ele><time>2026-04-25T08:22:24.019Z</time></trkpt><trkpt lat="44.81607756460403" lon="4.789001453841545"><ele>110.79999999999998</ele><time>2026-04-25T08:22:25.019Z</time></trkpt><trkpt lat="44.816131917019284" lon="4.7888513966647475"><ele>110.2</ele><time>2026-04-25T08:22:27.019Z</time></trkpt><trkpt lat="44.816186162966424" lon="4.788716558550096"><ele>109.6</ele><time>2026-04-25T08:22:29.019Z</time></trkpt><trkpt lat="44.81625389917938" lon="4.788588088332566"><ele>109.0</ele><time>2026-04-25T08:22:31.019Z</time></trkpt><trkpt lat="44.81630372516297" lon="4.7884421600078095"><ele>109.0</ele><time>2026-04-25T08:22:33.019Z</time></trkpt><trkpt lat="44.81635592295348" lon="4.788308453122615"><ele>109.0</ele><time>2026-04-25T08:22:35.019Z</time></trkpt><trkpt lat="44.81642475269193" lon="4.788164949512419"><ele>109.0</ele><time>2026-04-25T08:22:37.019Z</time></trkpt><trkpt lat="44.816482936659256" lon="4.788033687893546"><ele>109.0</ele><time>2026-04-25T08:22:39.019Z</time></trkpt><trkpt lat="44.8165089147315" lon="4.787951181028416"><ele>109.0</ele><time>2026-04-25T08:22:40.019Z</time></trkpt><trkpt lat="44.81656507002201" lon="4.787812848795164"><ele>109.0</ele><time>2026-04-25T08:22:42.019Z</time></trkpt><trkpt lat="44.81664295550817" lon="4.787680514210542"><ele>109.0</ele><time>2026-04-25T08:22:44.019Z</time></trkpt><trkpt lat="44.81671483791366" lon="4.787557172526063"><ele>109.0</ele><time>2026-04-25T08:22:46.019Z</time></trkpt><trkpt lat="44.81679076681861" lon="4.787428286107265"><ele>109.0</ele><time>2026-04-25T08:22:48.019Z</time></trkpt><trkpt lat="44.81686550988089" lon="4.787305855169772"><ele>109.0</ele><time>2026-04-25T08:22:50.019Z</time></trkpt><trkpt lat="44.816944562278564" lon="4.787185552488938"><ele>109.0</ele><time>2026-04-25T08:22:52.019Z</time></trkpt><trkpt lat="44.8170242825638" lon="4.787086340340565"><ele>109.0</ele><time>2026-04-25T08:22:54.019Z</time></trkpt><trkpt lat="44.81708841182289" lon="4.787025404663135"><ele>109.0</ele><time>2026-04-25T08:22:56.019Z</time></trkpt><trkpt lat="44.8171586779382" lon="4.786972107423735"><ele>109.0</ele><time>2026-04-25T08:22:59.019Z</time></trkpt><trkpt lat="44.81724851214157" lon="4.786929439365462"><ele>108.66666666666667</ele><time>2026-04-25T08:23:02.019Z</time></trkpt><trkpt lat="44.817323265915384" lon="4.786843556257103"><ele>108.33333333333334</ele><time>2026-04-25T08:23:05.019Z</time></trkpt><trkpt lat="44.8173852477242" lon="4.786784049439183"><ele>108.0</ele><time>2026-04-25T08:23:07.019Z</time></trkpt><trkpt lat="44.817444427532" lon="4.7867338811216715"><ele>107.66666666666666</ele><time>2026-04-25T08:23:09.02Z</time></trkpt><trkpt lat="44.8175256136982" lon="4.786667283964871"><ele>107.33333333333333</ele><time>2026-04-25T08:23:11.02Z</time></trkpt><trkpt lat="44.81758270280299" lon="4.786608566478278"><ele>107.0</ele><time>2026-04-25T08:23:13.02Z</time></trkpt><trkpt lat="44.81766309638917" lon="4.786543163651968"><ele>107.0</ele><time>2026-04-25T08:23:15.02Z</time></trkpt><trkpt lat="44.817724583981324" lon="4.786465349365049"><ele>106.99999999999999</ele><time>2026-04-25T08:23:17.02Z</time></trkpt><trkpt lat="44.8178000910745" lon="4.786384306518861"><ele>106.99999999999999</ele><time>2026-04-25T08:23:19.02Z</time></trkpt><trkpt lat="44.81786966096371" lon="4.7862922701046795"><ele>107.0</ele><time>2026-04-25T08:23:21.02Z</time></trkpt><trkpt lat="44.817958060404564" lon="4.786225496153336"><ele>107.0</ele><time>2026-04-25T08:23:23.02Z</time></trkpt><trkpt lat="44.81802745374144" lon="4.786130933659659"><ele>107.0</ele><time>2026-04-25T08:23:25.02Z</time></trkpt><trkpt lat="44.81809397860744" lon="4.78603266930213"><ele>106.99999999999999</ele><time>2026-04-25T08:23:27.02Z</time></trkpt><trkpt lat="44.81817550953903" lon="4.785938546519794"><ele>106.99999999999999</ele><time>2026-04-25T08:23:29.02Z</time></trkpt><trkpt lat="44.818247859026464" lon="4.785850753983056"><ele>107.0</ele><time>2026-04-25T08:23:31.02Z</time></trkpt><trkpt lat="44.81832780067116" lon="4.785753235472488"><ele>107.0</ele><time>2026-04-25T08:23:33.02Z</time></trkpt><trkpt lat="44.818413032720336" lon="4.785655526291294"><ele>107.0</ele><time>2026-04-25T08:23:35.02Z</time></trkpt><trkpt lat="44.818494796175045" lon="4.785541325898124"><ele>107.0</ele><time>2026-04-25T08:23:37.02Z</time></trkpt><trkpt lat="44.818581147968885" lon="4.7854492912446425"><ele>107.0</ele><time>2026-04-25T08:23:39.02Z</time></trkpt><trkpt lat="44.818673990231396" lon="4.785347919954402"><ele>107.0</ele><time>2026-04-25T08:23:41.02Z</time></trkpt><trkpt lat="44.81876009636079" lon="4.785248099384591"><ele>108.19999999999999</ele><time>2026-04-25T08:23:43.02Z</time></trkpt><trkpt lat="44.81884816335462" lon="4.785158517743139"><ele>109.39999999999999</ele><time>2026-04-25T08:23:45.02Z</time></trkpt><trkpt lat="44.81892030792683" lon="4.785084138523148"><ele>110.60000000000001</ele><time>2026-04-25T08:23:47.02Z</time></trkpt><trkpt lat="44.81899672123108" lon="4.784987490623808"><ele>111.80000000000001</ele><time>2026-04-25T08:23:49.02Z</time></trkpt><trkpt lat="44.81908539601798" lon="4.784895138543155"><ele>113.0</ele><time>2026-04-25T08:23:51.02Z</time></trkpt><trkpt lat="44.819153200934984" lon="4.784780179090005"><ele>113.0</ele><time>2026-04-25T08:23:53.02Z</time></trkpt><trkpt lat="44.819232341712194" lon="4.784688565079556"><ele>113.00000000000001</ele><time>2026-04-25T08:23:55.02Z</time></trkpt><trkpt lat="44.819311348236724" lon="4.784592575832019"><ele>113.00000000000001</ele><time>2026-04-25T08:23:57.02Z</time></trkpt><trkpt lat="44.81938469417578" lon="4.784517037597787"><ele>113.0</ele><time>2026-04-25T08:23:59.02Z</time></trkpt><trkpt lat="44.819464672663614" lon="4.784415755611303"><ele>113.0</ele><time>2026-04-25T08:24:01.02Z</time></trkpt><trkpt lat="44.819545210748124" lon="4.784316528428355"><ele>113.2</ele><time>2026-04-25T08:24:03.021Z</time></trkpt><trkpt lat="44.819630866692826" lon="4.784231541321057"><ele>113.4</ele><time>2026-04-25T08:24:05.021Z</time></trkpt><trkpt lat="44.81972204368976" lon="4.784126467618463"><ele>113.60000000000001</ele><time>2026-04-25T08:24:07.021Z</time></trkpt><trkpt lat="44.819803907030305" lon="4.784042186960614"><ele>113.80000000000001</ele><time>2026-04-25T08:24:09.021Z</time></trkpt><trkpt lat="44.819884599306405" lon="4.783945586326804"><ele>114.0</ele><time>2026-04-25T08:24:11.021Z</time></trkpt><trkpt lat="44.819961614037" lon="4.783845717978594"><ele>114.0</ele><time>2026-04-25T08:24:13.021Z</time></trkpt><trkpt lat="44.8200354037965" lon="4.783759442583151"><ele>114.0</ele><time>2026-04-25T08:24:15.021Z</time></trkpt><trkpt lat="44.82010515620862" lon="4.783656984087741"><ele>114.0</ele><time>2026-04-25T08:24:17.021Z</time></trkpt><trkpt lat="44.820184814399475" lon="4.783548059584706"><ele>114.0</ele><time>2026-04-25T08:24:19.021Z</time></trkpt><trkpt lat="44.82027341901683" lon="4.7834655391599865"><ele>114.0</ele><time>2026-04-25T08:24:21.021Z</time></trkpt><trkpt lat="44.820346177482975" lon="4.78338684135219"><ele>114.2</ele><time>2026-04-25T08:24:23.021Z</time></trkpt><trkpt lat="44.82043707423817" lon="4.783308659927667"><ele>114.4</ele><time>2026-04-25T08:24:25.021Z</time></trkpt><trkpt lat="44.82052241005009" lon="4.783243810207567"><ele>114.6</ele><time>2026-04-25T08:24:27.021Z</time></trkpt><trkpt lat="44.8205927726623" lon="4.783165096233997"><ele>114.8</ele><time>2026-04-25T08:24:29.021Z</time></trkpt><trkpt lat="44.820688230983215" lon="4.783105750327923"><ele>115.0</ele><time>2026-04-25T08:24:31.021Z</time></trkpt><trkpt lat="44.82075752881261" lon="4.7830879240772655"><ele>115.0</ele><time>2026-04-25T08:24:32.021Z</time></trkpt><trkpt lat="44.820868413504535" lon="4.783024780831371"><ele>115.0</ele><time>2026-04-25T08:24:34.021Z</time></trkpt><trkpt lat="44.820959778229266" lon="4.782950255270871"><ele>115.0</ele><time>2026-04-25T08:24:36.021Z</time></trkpt><trkpt lat="44.82104884581398" lon="4.782877665379072"><ele>115.0</ele><time>2026-04-25T08:24:38.021Z</time></trkpt><trkpt lat="44.821132289647764" lon="4.78281017184519"><ele>115.0</ele><time>2026-04-25T08:24:40.021Z</time></trkpt><trkpt lat="44.82122315948097" lon="4.782710176211625"><ele>114.8</ele><time>2026-04-25T08:24:42.021Z</time></trkpt><trkpt lat="44.82129808468857" lon="4.782617982640412"><ele>114.6</ele><time>2026-04-25T08:24:44.021Z</time></trkpt><trkpt lat="44.82139134761451" lon="4.782519275233017"><ele>114.4</ele><time>2026-04-25T08:24:46.021Z</time></trkpt><trkpt lat="44.82146602762614" lon="4.78240815351799"><ele>114.2</ele><time>2026-04-25T08:24:48.021Z</time></trkpt><trkpt lat="44.821545989125944" lon="4.782287584164925"><ele>114.0</ele><time>2026-04-25T08:24:50.021Z</time></trkpt><trkpt lat="44.82161286740186" lon="4.782181546392774"><ele>114.0</ele><time>2026-04-25T08:24:52.021Z</time></trkpt><trkpt lat="44.821674010661745" lon="4.782068229711464"><ele>114.0</ele><time>2026-04-25T08:24:54.021Z</time></trkpt><trkpt lat="44.821707017911436" lon="4.781991652123058"><ele>114.0</ele><time>2026-04-25T08:24:55.021Z</time></trkpt><trkpt lat="44.82174951114493" lon="4.781873756541458"><ele>114.0</ele><time>2026-04-25T08:24:57.022Z</time></trkpt><trkpt lat="44.821798771965035" lon="4.781816491920216"><ele>114.0</ele><time>2026-04-25T08:24:58.022Z</time></trkpt><trkpt lat="44.82184340261872" lon="4.781685428602486"><ele>114.0</ele><time>2026-04-25T08:25:00.022Z</time></trkpt><trkpt lat="44.82188587090188" lon="4.781559439116223"><ele>112.6</ele><time>2026-04-25T08:25:02.022Z</time></trkpt><trkpt lat="44.82191635913664" lon="4.781427658687588"><ele>111.2</ele><time>2026-04-25T08:25:04.022Z</time></trkpt><trkpt lat="44.821956380243094" lon="4.78129357829645"><ele>109.79999999999998</ele><time>2026-04-25T08:25:06.022Z</time></trkpt><trkpt lat="44.821993823556376" lon="4.78116693500751"><ele>108.39999999999999</ele><time>2026-04-25T08:25:08.022Z</time></trkpt><trkpt lat="44.82202207910921" lon="4.781047192646624"><ele>107.0</ele><time>2026-04-25T08:25:10.022Z</time></trkpt><trkpt lat="44.82204343298347" lon="4.780897926848383"><ele>107.0</ele><time>2026-04-25T08:25:12.022Z</time></trkpt><trkpt lat="44.8220709846575" lon="4.780778124369397"><ele>106.99999999999999</ele><time>2026-04-25T08:25:14.022Z</time></trkpt><trkpt lat="44.822098671387124" lon="4.780638223101305"><ele>106.99999999999999</ele><time>2026-04-25T08:25:16.022Z</time></trkpt><trkpt lat="44.82213183914736" lon="4.780510322245663"><ele>107.0</ele><time>2026-04-25T08:25:18.022Z</time></trkpt><trkpt lat="44.82215144540911" lon="4.780381855555871"><ele>107.0</ele><time>2026-04-25T08:25:20.022Z</time></trkpt><trkpt lat="44.82218206709882" lon="4.780253400877687"><ele>107.6</ele><time>2026-04-25T08:25:22.022Z</time></trkpt><trkpt lat="44.82218395907548" lon="4.780121688185654"><ele>108.19999999999999</ele><time>2026-04-25T08:25:24.024Z</time></trkpt><trkpt lat="44.82219096567219" lon="4.77998737161589"><ele>108.8</ele><time>2026-04-25T08:25:26.024Z</time></trkpt><trkpt lat="44.82219548230446" lon="4.779849416242514"><ele>109.4</ele><time>2026-04-25T08:25:28.024Z</time></trkpt><trkpt lat="44.82218505862244" lon="4.77972587009226"><ele>110.0</ele><time>2026-04-25T08:25:30.024Z</time></trkpt><trkpt lat="44.82218339572769" lon="4.77958036630716"><ele>109.99999999999999</ele><time>2026-04-25T08:25:32.024Z</time></trkpt><trkpt lat="44.82217241165056" lon="4.779455482691832"><ele>110.0</ele><time>2026-04-25T08:25:34.024Z</time></trkpt><trkpt lat="44.822161164642075" lon="4.779329857473871"><ele>110.0</ele><time>2026-04-25T08:25:36.024Z</time></trkpt><trkpt lat="44.822155904656896" lon="4.779213418706291"><ele>110.0</ele><time>2026-04-25T08:25:38.024Z</time></trkpt><trkpt lat="44.82214674085193" lon="4.7790771253239805"><ele>109.99999999999999</ele><time>2026-04-25T08:25:40.024Z</time></trkpt><trkpt lat="44.822143880399445" lon="4.778965386946989"><ele>110.0</ele><time>2026-04-25T08:25:42.025Z</time></trkpt><trkpt lat="44.82213046650422" lon="4.778824644022678"><ele>110.0</ele><time>2026-04-25T08:25:44.025Z</time></trkpt><trkpt lat="44.82211801325574" lon="4.778718472707749"><ele>110.0</ele><time>2026-04-25T08:25:46.025Z</time></trkpt><trkpt lat="44.822118442848854" lon="4.7785884008105945"><ele>110.0</ele><time>2026-04-25T08:25:48.025Z</time></trkpt><trkpt lat="44.82210730523241" lon="4.778468006729862"><ele>110.0</ele><time>2026-04-25T08:25:50.025Z</time></trkpt><trkpt lat="44.82209409555842" lon="4.778311007377885"><ele>110.0</ele><time>2026-04-25T08:25:52.025Z</time></trkpt><trkpt lat="44.822082668866805" lon="4.77817228794218"><ele>110.0</ele><time>2026-04-25T08:25:54.025Z</time></trkpt><trkpt lat="44.822064491092966" lon="4.778042309182367"><ele>110.0</ele><time>2026-04-25T08:25:56.025Z</time></trkpt><trkpt lat="44.82204552433068" lon="4.777910534878816"><ele>110.0</ele><time>2026-04-25T08:25:58.025Z</time></trkpt><trkpt lat="44.822014186901434" lon="4.777788400177452"><ele>110.0</ele><time>2026-04-25T08:26:00.025Z</time></trkpt><trkpt lat="44.82199758114976" lon="4.777651989852352"><ele>110.0</ele><time>2026-04-25T08:26:02.025Z</time></trkpt><trkpt lat="44.82196784587971" lon="4.777503466289733"><ele>109.8</ele><time>2026-04-25T08:26:04.025Z</time></trkpt><trkpt lat="44.82193998257369" lon="4.777375190326805"><ele>109.6</ele><time>2026-04-25T08:26:06.025Z</time></trkpt><trkpt lat="44.82190088725712" lon="4.777248863572525"><ele>109.4</ele><time>2026-04-25T08:26:08.025Z</time></trkpt><trkpt lat="44.82186265282366" lon="4.7771310346393525"><ele>109.2</ele><time>2026-04-25T08:26:10.025Z</time></trkpt><trkpt lat="44.8218455547647" lon="4.777012201207117"><ele>109.0</ele><time>2026-04-25T08:26:12.025Z</time></trkpt><trkpt lat="44.821820524790056" lon="4.776881588682694"><ele>113.80000000000001</ele><time>2026-04-25T08:26:14.025Z</time></trkpt><trkpt lat="44.821789561822584" lon="4.776747915123621"><ele>118.60000000000001</ele><time>2026-04-25T08:26:16.025Z</time></trkpt><trkpt lat="44.82179876471276" lon="4.776599995901765"><ele>123.4</ele><time>2026-04-25T08:26:18.025Z</time></trkpt><trkpt lat="44.82177798932443" lon="4.776512952517352"><ele>128.20000000000002</ele><time>2026-04-25T08:26:19.025Z</time></trkpt><trkpt lat="44.8217734775067" lon="4.776361846191568"><ele>133.0</ele><time>2026-04-25T08:26:21.025Z</time></trkpt><trkpt lat="44.82176580627074" lon="4.776207652011513"><ele>133.0</ele><time>2026-04-25T08:26:23.026Z</time></trkpt><trkpt lat="44.821760908733886" lon="4.776040708582367"><ele>133.0</ele><time>2026-04-25T08:26:25.025Z</time></trkpt><trkpt lat="44.82173930041623" lon="4.775900938262547"><ele>133.0</ele><time>2026-04-25T08:26:27.025Z</time></trkpt><trkpt lat="44.82171107654864" lon="4.7757569298295675"><ele>133.0</ele><time>2026-04-25T08:26:29.025Z</time></trkpt><trkpt lat="44.821689250463436" lon="4.775614937354189"><ele>133.0</ele><time>2026-04-25T08:26:31.025Z</time></trkpt><trkpt lat="44.821659268414564" lon="4.775473060708144"><ele>133.4</ele><time>2026-04-25T08:26:33.025Z</time></trkpt><trkpt lat="44.82163883978164" lon="4.775336529242058"><ele>133.8</ele><time>2026-04-25T08:26:35.025Z</time></trkpt><trkpt lat="44.82161165746896" lon="4.775202807924964"><ele>134.2</ele><time>2026-04-25T08:26:37.025Z</time></trkpt><trkpt lat="44.82158792646152" lon="4.775091694005587"><ele>134.6</ele><time>2026-04-25T08:26:39.025Z</time></trkpt><trkpt lat="44.82155997284079" lon="4.774932641158409"><ele>135.0</ele><time>2026-04-25T08:26:41.025Z</time></trkpt><trkpt lat="44.82156627481352" lon="4.774781712543329"><ele>133.8</ele><time>2026-04-25T08:26:43.025Z</time></trkpt><trkpt lat="44.82156269671713" lon="4.774669097029057"><ele>132.6</ele><time>2026-04-25T08:26:45.025Z</time></trkpt><trkpt lat="44.821559270639334" lon="4.774575842975502"><ele>131.4</ele><time>2026-04-25T08:26:46.025Z</time></trkpt><trkpt lat="44.82157273023658" lon="4.774421477587425"><ele>130.2</ele><time>2026-04-25T08:26:48.026Z</time></trkpt><trkpt lat="44.821554553917544" lon="4.774285951968461"><ele>129.0</ele><time>2026-04-25T08:26:50.026Z</time></trkpt><trkpt lat="44.821552404758634" lon="4.774137767582339"><ele>128.2</ele><time>2026-04-25T08:26:52.026Z</time></trkpt><trkpt lat="44.8215552267741" lon="4.773975532129586"><ele>127.4</ele><time>2026-04-25T08:26:54.026Z</time></trkpt><trkpt lat="44.82154787283225" lon="4.773817511534067"><ele>126.6</ele><time>2026-04-25T08:26:56.026Z</time></trkpt><trkpt lat="44.821558243459144" lon="4.773674072553782"><ele>125.8</ele><time>2026-04-25T08:26:58.026Z</time></trkpt><trkpt lat="44.821556990075656" lon="4.7735357167088255"><ele>125.0</ele><time>2026-04-25T08:27:00.026Z</time></trkpt><trkpt lat="44.82155426262993" lon="4.773384325575443"><ele>125.0</ele><time>2026-04-25T08:27:02.026Z</time></trkpt><trkpt lat="44.82154507308735" lon="4.773228729677675"><ele>125.0</ele><time>2026-04-25T08:27:04.026Z</time></trkpt><trkpt lat="44.82154068585449" lon="4.773065682956521"><ele>125.0</ele><time>2026-04-25T08:27:06.026Z</time></trkpt><trkpt lat="44.821537029578195" lon="4.772920577626967"><ele>125.0</ele><time>2026-04-25T08:27:08.026Z</time></trkpt><trkpt lat="44.821541889168635" lon="4.7727804063780175"><ele>125.0</ele><time>2026-04-25T08:27:10.026Z</time></trkpt><trkpt lat="44.821528237141614" lon="4.772662823352624"><ele>124.6</ele><time>2026-04-25T08:27:12.026Z</time></trkpt><trkpt lat="44.82153391298887" lon="4.772518456300492"><ele>124.2</ele><time>2026-04-25T08:27:14.026Z</time></trkpt><trkpt lat="44.82152038220662" lon="4.7723929892116"><ele>123.80000000000001</ele><time>2026-04-25T08:27:16.026Z</time></trkpt><trkpt lat="44.82149851970777" lon="4.772254994141597"><ele>123.4</ele><time>2026-04-25T08:27:18.026Z</time></trkpt><trkpt lat="44.821472595723726" lon="4.772130143673254"><ele>123.0</ele><time>2026-04-25T08:27:20.026Z</time></trkpt><trkpt lat="44.82146421464366" lon="4.771991149313091"><ele>122.0</ele><time>2026-04-25T08:27:22.026Z</time></trkpt><trkpt lat="44.821443813753504" lon="4.771835259456852"><ele>121.00000000000001</ele><time>2026-04-25T08:27:24.026Z</time></trkpt><trkpt lat="44.821429705921986" lon="4.7717041350272416"><ele>120.00000000000001</ele><time>2026-04-25T08:27:26.026Z</time></trkpt><trkpt lat="44.821400865753155" lon="4.771569107096055"><ele>119.0</ele><time>2026-04-25T08:27:28.026Z</time></trkpt><trkpt lat="44.82137040371214" lon="4.771441685674835"><ele>118.0</ele><time>2026-04-25T08:27:30.026Z</time></trkpt><trkpt lat="44.82134344123928" lon="4.7713212545742545"><ele>118.00000000000001</ele><time>2026-04-25T08:27:32.026Z</time></trkpt><trkpt lat="44.821332104537646" lon="4.771232596743048"><ele>118.0</ele><time>2026-04-25T08:27:33.026Z</time></trkpt><trkpt lat="44.82130491572996" lon="4.7711199629164485"><ele>118.0</ele><time>2026-04-25T08:27:35.026Z</time></trkpt><trkpt lat="44.82126739962213" lon="4.7709954772211765"><ele>118.0</ele><time>2026-04-25T08:27:37.026Z</time></trkpt><trkpt lat="44.82126616323348" lon="4.770883927661329"><ele>118.00000000000001</ele><time>2026-04-25T08:27:39.026Z</time></trkpt><trkpt lat="44.82122710957652" lon="4.770763803351303"><ele>118.0</ele><time>2026-04-25T08:27:41.026Z</time></trkpt><trkpt lat="44.821199365271205" lon="4.770649039492469"><ele>117.0</ele><time>2026-04-25T08:27:43.027Z</time></trkpt><trkpt lat="44.82115872389713" lon="4.770521331741863"><ele>116.00000000000001</ele><time>2026-04-25T08:27:45.027Z</time></trkpt><trkpt lat="44.821126887113564" lon="4.770384992468195"><ele>115.00000000000001</ele><time>2026-04-25T08:27:47.027Z</time></trkpt><trkpt lat="44.821086620139376" lon="4.770259062969158"><ele>114.0</ele><time>2026-04-25T08:27:49.027Z</time></trkpt><trkpt lat="44.82105684060989" lon="4.770113320715782"><ele>113.0</ele><time>2026-04-25T08:27:51.027Z</time></trkpt><trkpt lat="44.82102358883663" lon="4.76998656360631"><ele>111.66666666666666</ele><time>2026-04-25T08:27:53.027Z</time></trkpt><trkpt lat="44.82099112038678" lon="4.76985847553151"><ele>110.33333333333333</ele><time>2026-04-25T08:27:55.027Z</time></trkpt><trkpt lat="44.82096674052651" lon="4.769745640988098"><ele>109.0</ele><time>2026-04-25T08:27:57.027Z</time></trkpt><trkpt lat="44.820938225570366" lon="4.7696401148993335"><ele>107.66666666666666</ele><time>2026-04-25T08:27:59.027Z</time></trkpt><trkpt lat="44.820897755898216" lon="4.769527060990351"><ele>106.33333333333333</ele><time>2026-04-25T08:28:01.027Z</time></trkpt><trkpt lat="44.820868091461655" lon="4.769394325604679"><ele>105.0</ele><time>2026-04-25T08:28:03.027Z</time></trkpt><trkpt lat="44.82084103274664" lon="4.769277743265714"><ele>110.0</ele><time>2026-04-25T08:28:05.027Z</time></trkpt><trkpt lat="44.82079569075016" lon="4.769147710595647"><ele>115.0</ele><time>2026-04-25T08:28:07.027Z</time></trkpt><trkpt lat="44.82076215132715" lon="4.76903504301614"><ele>120.0</ele><time>2026-04-25T08:28:09.027Z</time></trkpt><trkpt lat="44.82073452002646" lon="4.768915973065968"><ele>125.0</ele><time>2026-04-25T08:28:11.027Z</time></trkpt><trkpt lat="44.820695295575675" lon="4.768802102962814"><ele>130.0</ele><time>2026-04-25T08:28:13.027Z</time></trkpt><trkpt lat="44.82065542423048" lon="4.768686070491867"><ele>130.0</ele><time>2026-04-25T08:28:15.027Z</time></trkpt><trkpt lat="44.82060677895199" lon="4.76856433266586"><ele>130.0</ele><time>2026-04-25T08:28:17.028Z</time></trkpt><trkpt lat="44.82057877076483" lon="4.768422839632607"><ele>130.0</ele><time>2026-04-25T08:28:19.028Z</time></trkpt><trkpt lat="44.82057332131496" lon="4.768298433591359"><ele>130.0</ele><time>2026-04-25T08:28:21.027Z</time></trkpt><trkpt lat="44.82054647275191" lon="4.768184281123104"><ele>130.0</ele><time>2026-04-25T08:28:23.028Z</time></trkpt><trkpt lat="44.8205515637464" lon="4.7680498053375615"><ele>128.4</ele><time>2026-04-25T08:28:25.027Z</time></trkpt><trkpt lat="44.82055592048181" lon="4.76789587987749"><ele>126.8</ele><time>2026-04-25T08:28:27.028Z</time></trkpt><trkpt lat="44.82054921800361" lon="4.767762967482795"><ele>125.19999999999999</ele><time>2026-04-25T08:28:29.027Z</time></trkpt><trkpt lat="44.82053387235457" lon="4.7676340784748925"><ele>123.6</ele><time>2026-04-25T08:28:31.028Z</time></trkpt><trkpt lat="44.82054468791513" lon="4.767486546804528"><ele>122.0</ele><time>2026-04-25T08:28:33.028Z</time></trkpt><trkpt lat="44.820526215521205" lon="4.767339303202276"><ele>120.8</ele><time>2026-04-25T08:28:35.028Z</time></trkpt><trkpt lat="44.82051493740549" lon="4.76721943908413"><ele>119.6</ele><time>2026-04-25T08:28:37.028Z</time></trkpt><trkpt lat="44.820496390457926" lon="4.767097740933643"><ele>118.39999999999999</ele><time>2026-04-25T08:28:39.028Z</time></trkpt><trkpt lat="44.82045894098075" lon="4.766953641634021"><ele>117.19999999999999</ele><time>2026-04-25T08:28:41.028Z</time></trkpt><trkpt lat="44.82043318968156" lon="4.766825534672798"><ele>116.0</ele><time>2026-04-25T08:28:43.028Z</time></trkpt><trkpt lat="44.82040011214665" lon="4.7666931698862225"><ele>115.0</ele><time>2026-04-25T08:28:45.028Z</time></trkpt><trkpt lat="44.82035773405955" lon="4.766570014746317"><ele>114.0</ele><time>2026-04-25T08:28:47.028Z</time></trkpt><trkpt lat="44.820316691452135" lon="4.766420767617989"><ele>113.0</ele><time>2026-04-25T08:28:49.028Z</time></trkpt><trkpt lat="44.82027793756154" lon="4.766298805081441"><ele>112.0</ele><time>2026-04-25T08:28:51.028Z</time></trkpt><trkpt lat="44.82024735683027" lon="4.766159159825888"><ele>111.0</ele><time>2026-04-25T08:28:53.028Z</time></trkpt><trkpt lat="44.820221754886816" lon="4.766044588282618"><ele>110.0</ele><time>2026-04-25T08:28:55.028Z</time></trkpt><trkpt lat="44.82020093984883" lon="4.7658973334921"><ele>109.0</ele><time>2026-04-25T08:28:57.028Z</time></trkpt><trkpt lat="44.820173011136255" lon="4.765747860385308"><ele>108.0</ele><time>2026-04-25T08:28:59.028Z</time></trkpt><trkpt lat="44.820155478819046" lon="4.7656082029755895"><ele>107.0</ele><time>2026-04-25T08:29:01.028Z</time></trkpt><trkpt lat="44.8201333122109" lon="4.765475993168733"><ele>106.0</ele><time>2026-04-25T08:29:03.028Z</time></trkpt><trkpt lat="44.820111460723965" lon="4.765342233677541"><ele>112.0</ele><time>2026-04-25T08:29:05.028Z</time></trkpt><trkpt lat="44.82009437656783" lon="4.765210859286233"><ele>118.0</ele><time>2026-04-25T08:29:07.028Z</time></trkpt><trkpt lat="44.820087329092374" lon="4.765063409026973"><ele>124.0</ele><time>2026-04-25T08:29:09.028Z</time></trkpt><trkpt lat="44.820072342082156" lon="4.76492233269113"><ele>130.0</ele><time>2026-04-25T08:29:11.028Z</time></trkpt><trkpt lat="44.82007799702853" lon="4.764766432611137"><ele>136.0</ele><time>2026-04-25T08:29:13.028Z</time></trkpt><trkpt lat="44.820077508028966" lon="4.76462721439417"><ele>136.0</ele><time>2026-04-25T08:29:15.028Z</time></trkpt><trkpt lat="44.82007838310867" lon="4.764491330891523"><ele>136.0</ele><time>2026-04-25T08:29:17.028Z</time></trkpt><trkpt lat="44.820073755620975" lon="4.764355561306767"><ele>136.0</ele><time>2026-04-25T08:29:19.028Z</time></trkpt><trkpt lat="44.820072690283006" lon="4.764205394766253"><ele>136.0</ele><time>2026-04-25T08:29:21.028Z</time></trkpt><trkpt lat="44.820060116971476" lon="4.7640655063695965"><ele>136.0</ele><time>2026-04-25T08:29:23.029Z</time></trkpt><trkpt lat="44.82004561661404" lon="4.76392364707715"><ele>136.0</ele><time>2026-04-25T08:29:25.029Z</time></trkpt><trkpt lat="44.820048735431186" lon="4.763748702359463"><ele>136.0</ele><time>2026-04-25T08:29:27.029Z</time></trkpt><trkpt lat="44.82003717216808" lon="4.763598581072093"><ele>136.0</ele><time>2026-04-25T08:29:29.029Z</time></trkpt><trkpt lat="44.820015864405576" lon="4.7634525316209535"><ele>136.0</ele><time>2026-04-25T08:29:31.029Z</time></trkpt><trkpt lat="44.82000173115922" lon="4.763303377687871"><ele>136.0</ele><time>2026-04-25T08:29:33.029Z</time></trkpt><trkpt lat="44.819981343366514" lon="4.763170701619051"><ele>135.0</ele><time>2026-04-25T08:29:35.029Z</time></trkpt><trkpt lat="44.819951284177066" lon="4.763024027235143"><ele>134.0</ele><time>2026-04-25T08:29:37.029Z</time></trkpt><trkpt lat="44.81992942503476" lon="4.762884063732658"><ele>133.0</ele><time>2026-04-25T08:29:39.029Z</time></trkpt><trkpt lat="44.819901951944075" lon="4.762736443247691"><ele>132.0</ele><time>2026-04-25T08:29:41.029Z</time></trkpt><trkpt lat="44.819857748214915" lon="4.762606496472631"><ele>131.0</ele><time>2026-04-25T08:29:43.029Z</time></trkpt><trkpt lat="44.81982838826738" lon="4.762460538849765"><ele>129.6</ele><time>2026-04-25T08:29:45.029Z</time></trkpt><trkpt lat="44.81979086387728" lon="4.762337618130293"><ele>128.2</ele><time>2026-04-25T08:29:47.029Z</time></trkpt><trkpt lat="44.819761274012066" lon="4.762184545992185"><ele>126.80000000000001</ele><time>2026-04-25T08:29:49.029Z</time></trkpt><trkpt lat="44.81973193191846" lon="4.762037308765723"><ele>125.4</ele><time>2026-04-25T08:29:51.029Z</time></trkpt><trkpt lat="44.81970261363152" lon="4.761901316326871"><ele>124.0</ele><time>2026-04-25T08:29:53.029Z</time></trkpt><trkpt lat="44.81967229774015" lon="4.761764581096996"><ele>122.4</ele><time>2026-04-25T08:29:55.029Z</time></trkpt><trkpt lat="44.81964790464932" lon="4.761616766971781"><ele>120.80000000000001</ele><time>2026-04-25T08:29:57.029Z</time></trkpt><trkpt lat="44.81962250947699" lon="4.761509948134142"><ele>119.19999999999999</ele><time>2026-04-25T08:29:59.029Z</time></trkpt><trkpt lat="44.81958439589471" lon="4.761363294573845"><ele>117.6</ele><time>2026-04-25T08:30:01.029Z</time></trkpt><trkpt lat="44.81957085701138" lon="4.7612350560347405"><ele>116.0</ele><time>2026-04-25T08:30:03.029Z</time></trkpt><trkpt lat="44.81955853627139" lon="4.761080344744171"><ele>114.99999999999999</ele><time>2026-04-25T08:30:05.029Z</time></trkpt><trkpt lat="44.81955366629299" lon="4.760964724266327"><ele>114.0</ele><time>2026-04-25T08:30:07.029Z</time></trkpt><trkpt lat="44.819554259822574" lon="4.76086200315049"><ele>113.0</ele><time>2026-04-25T08:30:09.029Z</time></trkpt><trkpt lat="44.8195568054436" lon="4.760750343576889"><ele>112.0</ele><time>2026-04-25T08:30:11.029Z</time></trkpt><trkpt lat="44.81956017501071" lon="4.760610438915106"><ele>110.99999999999999</ele><time>2026-04-25T08:30:13.029Z</time></trkpt><trkpt lat="44.8195607220924" lon="4.760484748062612"><ele>110.0</ele><time>2026-04-25T08:30:15.029Z</time></trkpt><trkpt lat="44.8195604651986" lon="4.7603431364578785"><ele>110.0</ele><time>2026-04-25T08:30:17.029Z</time></trkpt><trkpt lat="44.8195531470386" lon="4.7601981829158895"><ele>110.0</ele><time>2026-04-25T08:30:19.03Z</time></trkpt><trkpt lat="44.81955536141862" lon="4.760046041741578"><ele>110.0</ele><time>2026-04-25T08:30:21.03Z</time></trkpt><trkpt lat="44.81955099193409" lon="4.759893916469912"><ele>110.0</ele><time>2026-04-25T08:30:23.03Z</time></trkpt><trkpt lat="44.819546862020694" lon="4.759742632993689"><ele>110.0</ele><time>2026-04-25T08:30:25.03Z</time></trkpt><trkpt lat="44.81952270751374" lon="4.759613034353064"><ele>110.0</ele><time>2026-04-25T08:30:27.03Z</time></trkpt><trkpt lat="44.819508076140856" lon="4.759459804470903"><ele>110.0</ele><time>2026-04-25T08:30:29.031Z</time></trkpt><trkpt lat="44.81948432222559" lon="4.759314057087286"><ele>110.0</ele><time>2026-04-25T08:30:31.03Z</time></trkpt><trkpt lat="44.81944805372373" lon="4.759157482188973"><ele>110.0</ele><time>2026-04-25T08:30:33.03Z</time></trkpt><trkpt lat="44.81940234050032" lon="4.759011357534379"><ele>110.0</ele><time>2026-04-25T08:30:35.031Z</time></trkpt><trkpt lat="44.81935894844868" lon="4.758862887981824"><ele>115.6</ele><time>2026-04-25T08:30:37.031Z</time></trkpt><trkpt lat="44.81931202030457" lon="4.7587164719141555"><ele>121.2</ele><time>2026-04-25T08:30:39.031Z</time></trkpt><trkpt lat="44.819267052448275" lon="4.758574962787805"><ele>126.80000000000001</ele><time>2026-04-25T08:30:41.031Z</time></trkpt><trkpt lat="44.81923007887249" lon="4.7584249473237445"><ele>132.4</ele><time>2026-04-25T08:30:43.031Z</time></trkpt><trkpt lat="44.81920711608524" lon="4.758286792042834"><ele>138.0</ele><time>2026-04-25T08:30:45.031Z</time></trkpt><trkpt lat="44.81919530490626" lon="4.758115188254407"><ele>138.0</ele><time>2026-04-25T08:30:47.031Z</time></trkpt><trkpt lat="44.81919307010075" lon="4.758026212177527"><ele>138.0</ele><time>2026-04-25T08:30:48.031Z</time></trkpt><trkpt lat="44.819178134234846" lon="4.757865129966467"><ele>138.0</ele><time>2026-04-25T08:30:50.031Z</time></trkpt><trkpt lat="44.81918283795613" lon="4.757703580934191"><ele>138.0</ele><time>2026-04-25T08:30:52.031Z</time></trkpt><trkpt lat="44.819199843035115" lon="4.757616860328248"><ele>138.0</ele><time>2026-04-25T08:30:53.031Z</time></trkpt><trkpt lat="44.819195959118865" lon="4.757521055777075"><ele>138.0</ele><time>2026-04-25T08:30:54.031Z</time></trkpt><trkpt lat="44.81919989055266" lon="4.7573624005071355"><ele>137.5</ele><time>2026-04-25T08:30:56.031Z</time></trkpt><trkpt lat="44.81919831150121" lon="4.757202727133633"><ele>137.0</ele><time>2026-04-25T08:30:58.031Z</time></trkpt><trkpt lat="44.819196352799445" lon="4.757031791889612"><ele>136.5</ele><time>2026-04-25T08:31:00.031Z</time></trkpt><trkpt lat="44.81919383795879" lon="4.756855867874211"><ele>136.0</ele><time>2026-04-25T08:31:02.031Z</time></trkpt><trkpt lat="44.819172611796546" lon="4.756685440441609"><ele>135.6</ele><time>2026-04-25T08:31:04.031Z</time></trkpt><trkpt lat="44.81914332523565" lon="4.7565202976964835"><ele>135.2</ele><time>2026-04-25T08:31:06.031Z</time></trkpt><trkpt lat="44.81911922412706" lon="4.756361187791455"><ele>134.8</ele><time>2026-04-25T08:31:08.031Z</time></trkpt><trkpt lat="44.81909433157379" lon="4.756228420525207"><ele>134.4</ele><time>2026-04-25T08:31:10.031Z</time></trkpt><trkpt lat="44.81905646098396" lon="4.756083257159535"><ele>134.0</ele><time>2026-04-25T08:31:12.031Z</time></trkpt><trkpt lat="44.81901481518769" lon="4.755945042120752"><ele>132.6</ele><time>2026-04-25T08:31:14.031Z</time></trkpt><trkpt lat="44.81898756074766" lon="4.755794643927093"><ele>131.2</ele><time>2026-04-25T08:31:16.031Z</time></trkpt><trkpt lat="44.818960275104864" lon="4.755647328177568"><ele>129.79999999999998</ele><time>2026-04-25T08:31:18.031Z</time></trkpt><trkpt lat="44.818936577619944" lon="4.755561532827753"><ele>128.4</ele><time>2026-04-25T08:31:19.031Z</time></trkpt><trkpt lat="44.818920205486464" lon="4.755469313133686"><ele>127.0</ele><time>2026-04-25T08:31:20.031Z</time></trkpt><trkpt lat="44.818899156434284" lon="4.755309944150414"><ele>124.5</ele><time>2026-04-25T08:31:22.031Z</time></trkpt><trkpt lat="44.818872645230115" lon="4.755144467027059"><ele>122.0</ele><time>2026-04-25T08:31:24.031Z</time></trkpt><trkpt lat="44.818851183634344" lon="4.754966442333262"><ele>119.5</ele><time>2026-04-25T08:31:26.031Z</time></trkpt><trkpt lat="44.81882214217784" lon="4.754807457212293"><ele>117.0</ele><time>2026-04-25T08:31:28.031Z</time></trkpt><trkpt lat="44.81879274434586" lon="4.754653334381637"><ele>117.0</ele><time>2026-04-25T08:31:30.032Z</time></trkpt><trkpt lat="44.81875773701324" lon="4.7544917011752394"><ele>117.0</ele><time>2026-04-25T08:31:32.032Z</time></trkpt><trkpt lat="44.818702530534964" lon="4.75437264799416"><ele>117.0</ele><time>2026-04-25T08:31:34.032Z</time></trkpt><trkpt lat="44.81864101039016" lon="4.7542154928740175"><ele>117.0</ele><time>2026-04-25T08:31:36.032Z</time></trkpt><trkpt lat="44.81858950381473" lon="4.754082628618063"><ele>118.6</ele><time>2026-04-25T08:31:38.032Z</time></trkpt><trkpt lat="44.81853093207908" lon="4.7539461756483465"><ele>120.19999999999999</ele><time>2026-04-25T08:31:40.032Z</time></trkpt><trkpt lat="44.81847812480084" lon="4.753811365949997"><ele>121.8</ele><time>2026-04-25T08:31:42.032Z</time></trkpt><trkpt lat="44.81842372011014" lon="4.753682774763517"><ele>123.4</ele><time>2026-04-25T08:31:44.032Z</time></trkpt><trkpt lat="44.8183629138063" lon="4.753562959127564"><ele>125.0</ele><time>2026-04-25T08:31:46.032Z</time></trkpt><trkpt lat="44.81830477463565" lon="4.753433797429119"><ele>125.0</ele><time>2026-04-25T08:31:48.032Z</time></trkpt><trkpt lat="44.81824726650822" lon="4.753311420947826"><ele>125.0</ele><time>2026-04-25T08:31:50.032Z</time></trkpt><trkpt lat="44.81819232852489" lon="4.753191082029861"><ele>125.0</ele><time>2026-04-25T08:31:52.032Z</time></trkpt><trkpt lat="44.81814097208279" lon="4.753072891787975"><ele>125.0</ele><time>2026-04-25T08:31:54.032Z</time></trkpt><trkpt lat="44.81808615483227" lon="4.75293767473575"><ele>125.0</ele><time>2026-04-25T08:31:56.032Z</time></trkpt><trkpt lat="44.81802776323831" lon="4.752817385542157"><ele>123.0</ele><time>2026-04-25T08:31:58.032Z</time></trkpt><trkpt lat="44.81797002738527" lon="4.752697752043257"><ele>121.0</ele><time>2026-04-25T08:32:00.032Z</time></trkpt><trkpt lat="44.8179143173381" lon="4.752568460920632"><ele>119.0</ele><time>2026-04-25T08:32:02.032Z</time></trkpt><trkpt lat="44.81785966471224" lon="4.752445894534815"><ele>117.0</ele><time>2026-04-25T08:32:04.032Z</time></trkpt><trkpt lat="44.817800861798965" lon="4.752325579666225"><ele>115.0</ele><time>2026-04-25T08:32:06.032Z</time></trkpt><trkpt lat="44.81774467070693" lon="4.752207688795013"><ele>115.0</ele><time>2026-04-25T08:32:08.032Z</time></trkpt><trkpt lat="44.81769069102638" lon="4.752087741600349"><ele>115.0</ele><time>2026-04-25T08:32:10.032Z</time></trkpt><trkpt lat="44.81764486053198" lon="4.751967632388945"><ele>115.0</ele><time>2026-04-25T08:32:12.032Z</time></trkpt><trkpt lat="44.8175806785343" lon="4.751856004540529"><ele>115.0</ele><time>2026-04-25T08:32:14.032Z</time></trkpt><trkpt lat="44.817533305479884" lon="4.751732892477375"><ele>115.0</ele><time>2026-04-25T08:32:16.032Z</time></trkpt><trkpt lat="44.81747701368054" lon="4.751615628242285"><ele>118.2</ele><time>2026-04-25T08:32:18.032Z</time></trkpt><trkpt lat="44.817413728013" lon="4.751488224600709"><ele>121.4</ele><time>2026-04-25T08:32:20.032Z</time></trkpt><trkpt lat="44.8173519342308" lon="4.751380546476623"><ele>124.6</ele><time>2026-04-25T08:32:22.032Z</time></trkpt><trkpt lat="44.81727571609515" lon="4.751265279955932"><ele>127.8</ele><time>2026-04-25T08:32:24.032Z</time></trkpt><trkpt lat="44.81719921528737" lon="4.751148780664959"><ele>131.0</ele><time>2026-04-25T08:32:26.033Z</time></trkpt><trkpt lat="44.81712710239735" lon="4.751043722954002"><ele>128.2</ele><time>2026-04-25T08:32:28.033Z</time></trkpt><trkpt lat="44.8170530522776" lon="4.750949522475184"><ele>125.39999999999999</ele><time>2026-04-25T08:32:30.033Z</time></trkpt><trkpt lat="44.81697894064887" lon="4.750849561157293"><ele>122.6</ele><time>2026-04-25T08:32:32.033Z</time></trkpt><trkpt lat="44.81691101641462" lon="4.750745752710094"><ele>119.8</ele><time>2026-04-25T08:32:34.033Z</time></trkpt><trkpt lat="44.816860140998045" lon="4.750668064745963"><ele>117.0</ele><time>2026-04-25T08:32:36.033Z</time></trkpt><trkpt lat="44.81679835286097" lon="4.750568277169252"><ele>120.39999999999999</ele><time>2026-04-25T08:32:38.033Z</time></trkpt><trkpt lat="44.81674764398508" lon="4.750434225831915"><ele>123.79999999999998</ele><time>2026-04-25T08:32:40.033Z</time></trkpt><trkpt lat="44.81669879036456" lon="4.750322295739086"><ele>127.2</ele><time>2026-04-25T08:32:42.032Z</time></trkpt><trkpt lat="44.81665639205337" lon="4.750194362916655"><ele>130.6</ele><time>2026-04-25T08:32:44.032Z</time></trkpt><trkpt lat="44.8166255475963" lon="4.750076531797187"><ele>134.0</ele><time>2026-04-25T08:32:46.032Z</time></trkpt><trkpt lat="44.816592697961944" lon="4.749930677738517"><ele>134.0</ele><time>2026-04-25T08:32:48.032Z</time></trkpt><trkpt lat="44.816577864963804" lon="4.749824592253674"><ele>134.0</ele><time>2026-04-25T08:32:50.033Z</time></trkpt><trkpt lat="44.81657833488702" lon="4.74971834564416"><ele>134.0</ele><time>2026-04-25T08:32:52.033Z</time></trkpt><trkpt lat="44.81657287413803" lon="4.749628056390945"><ele>134.0</ele><time>2026-04-25T08:32:59.033Z</time></trkpt><trkpt lat="44.81659254073101" lon="4.749495535546282"><ele>134.0</ele><time>2026-04-25T08:34:11.034Z</time></trkpt><trkpt lat="44.816578661912715" lon="4.749392974420372"><ele>134.0</ele><time>2026-04-25T08:34:14.034Z</time></trkpt><trkpt lat="44.81656047197634" lon="4.7492944219363125"><ele>133.33333333333331</ele><time>2026-04-25T08:34:16.034Z</time></trkpt><trkpt lat="44.81655116662687" lon="4.7491720554501615"><ele>132.66666666666666</ele><time>2026-04-25T08:34:19.034Z</time></trkpt><trkpt lat="44.816537871765426" lon="4.749042931807937"><ele>132.0</ele><time>2026-04-25T08:34:22.034Z</time></trkpt><trkpt lat="44.81652131367945" lon="4.748951527283163"><ele>131.33333333333334</ele><time>2026-04-25T08:34:24.034Z</time></trkpt><trkpt lat="44.81651196500821" lon="4.748850865451379"><ele>130.66666666666669</ele><time>2026-04-25T08:34:26.034Z</time></trkpt><trkpt lat="44.81650355593794" lon="4.748740675714987"><ele>130.0</ele><time>2026-04-25T08:34:28.034Z</time></trkpt><trkpt lat="44.81648792560488" lon="4.748609288017179"><ele>129.0</ele><time>2026-04-25T08:34:30.034Z</time></trkpt><trkpt lat="44.816468156931236" lon="4.748466491522625"><ele>128.0</ele><time>2026-04-25T08:34:32.034Z</time></trkpt><trkpt lat="44.81644571771158" lon="4.748333616084977"><ele>127.0</ele><time>2026-04-25T08:34:34.034Z</time></trkpt><trkpt lat="44.81642602260097" lon="4.748208100245922"><ele>126.0</ele><time>2026-04-25T08:34:36.035Z</time></trkpt><trkpt lat="44.81639155857918" lon="4.748078634651166"><ele>125.0</ele><time>2026-04-25T08:34:38.035Z</time></trkpt><trkpt lat="44.81636522778941" lon="4.747942788327497"><ele>125.0</ele><time>2026-04-25T08:34:40.035Z</time></trkpt><trkpt lat="44.81632326651449" lon="4.747819501845504"><ele>125.0</ele><time>2026-04-25T08:34:42.035Z</time></trkpt><trkpt lat="44.81628562128577" lon="4.747674687616842"><ele>125.0</ele><time>2026-04-25T08:34:44.036Z</time></trkpt><trkpt lat="44.816255212837746" lon="4.747527061777058"><ele>125.0</ele><time>2026-04-25T08:34:46.035Z</time></trkpt><trkpt lat="44.816219541091044" lon="4.747387005344753"><ele>125.0</ele><time>2026-04-25T08:34:48.035Z</time></trkpt><trkpt lat="44.8161830807917" lon="4.747252287532665"><ele>123.2</ele><time>2026-04-25T08:34:50.035Z</time></trkpt><trkpt lat="44.816149850661304" lon="4.747125085415887"><ele>121.4</ele><time>2026-04-25T08:34:52.035Z</time></trkpt><trkpt lat="44.81612402055918" lon="4.746992961737735"><ele>119.6</ele><time>2026-04-25T08:34:54.035Z</time></trkpt><trkpt lat="44.816094914273364" lon="4.746850567446179"><ele>117.8</ele><time>2026-04-25T08:34:56.035Z</time></trkpt><trkpt lat="44.81608043476887" lon="4.746719067619924"><ele>116.0</ele><time>2026-04-25T08:34:58.035Z</time></trkpt><trkpt lat="44.81605568502353" lon="4.746586476008901"><ele>116.0</ele><time>2026-04-25T08:35:00.035Z</time></trkpt><trkpt lat="44.81602757846602" lon="4.746447628338577"><ele>116.0</ele><time>2026-04-25T08:35:02.035Z</time></trkpt><trkpt lat="44.81602889611629" lon="4.746296736231502"><ele>116.0</ele><time>2026-04-25T08:35:04.035Z</time></trkpt><trkpt lat="44.81603986872225" lon="4.746148212069688"><ele>116.0</ele><time>2026-04-25T08:35:06.035Z</time></trkpt><trkpt lat="44.81605406198318" lon="4.746003228494776"><ele>116.0</ele><time>2026-04-25T08:35:08.035Z</time></trkpt><trkpt lat="44.816079165787826" lon="4.745842533921136"><ele>115.8</ele><time>2026-04-25T08:35:10.035Z</time></trkpt><trkpt lat="44.81609876335712" lon="4.7456982744300165"><ele>115.6</ele><time>2026-04-25T08:35:12.035Z</time></trkpt><trkpt lat="44.816130422469044" lon="4.745542620570572"><ele>115.4</ele><time>2026-04-25T08:35:14.035Z</time></trkpt><trkpt lat="44.81616340046979" lon="4.745402187678113"><ele>115.2</ele><time>2026-04-25T08:35:16.035Z</time></trkpt><trkpt lat="44.81617945870879" lon="4.745258099483177"><ele>115.0</ele><time>2026-04-25T08:35:18.035Z</time></trkpt><trkpt lat="44.81620250332038" lon="4.7451214191419275"><ele>116.0</ele><time>2026-04-25T08:35:20.035Z</time></trkpt><trkpt lat="44.81623207080457" lon="4.744956448061756"><ele>117.0</ele><time>2026-04-25T08:35:22.036Z</time></trkpt><trkpt lat="44.816262687339425" lon="4.744803796412487"><ele>118.0</ele><time>2026-04-25T08:35:24.036Z</time></trkpt><trkpt lat="44.81628840735637" lon="4.7446585260092125"><ele>119.0</ele><time>2026-04-25T08:35:26.036Z</time></trkpt><trkpt lat="44.81630315306246" lon="4.744515310519834"><ele>120.0</ele><time>2026-04-25T08:35:28.036Z</time></trkpt><trkpt lat="44.81633757641509" lon="4.744362992991619"><ele>121.2</ele><time>2026-04-25T08:35:30.036Z</time></trkpt><trkpt lat="44.81637107006985" lon="4.74421264073435"><ele>122.4</ele><time>2026-04-25T08:35:32.036Z</time></trkpt><trkpt lat="44.81638209942702" lon="4.744069626439431"><ele>123.6</ele><time>2026-04-25T08:35:34.036Z</time></trkpt><trkpt lat="44.81639669399359" lon="4.743916939215887"><ele>124.8</ele><time>2026-04-25T08:35:36.036Z</time></trkpt><trkpt lat="44.816407697150076" lon="4.7437642652577905"><ele>126.0</ele><time>2026-04-25T08:35:38.036Z</time></trkpt><trkpt lat="44.81639641949503" lon="4.743617787391035"><ele>126.4</ele><time>2026-04-25T08:35:40.036Z</time></trkpt><trkpt lat="44.8163762812177" lon="4.7434831895451035"><ele>126.8</ele><time>2026-04-25T08:35:42.036Z</time></trkpt><trkpt lat="44.81638492855896" lon="4.743330156319822"><ele>127.20000000000002</ele><time>2026-04-25T08:35:44.036Z</time></trkpt><trkpt lat="44.816365964307835" lon="4.743198023717217"><ele>127.60000000000001</ele><time>2026-04-25T08:35:46.036Z</time></trkpt><trkpt lat="44.816362204967916" lon="4.743041656415144"><ele>128.0</ele><time>2026-04-25T08:35:48.036Z</time></trkpt><trkpt lat="44.81635870205167" lon="4.7429052975285675"><ele>128.0</ele><time>2026-04-25T08:35:50.036Z</time></trkpt><trkpt lat="44.8163544492201" lon="4.742737808772135"><ele>128.0</ele><time>2026-04-25T08:35:52.036Z</time></trkpt><trkpt lat="44.81634683707524" lon="4.742570604033076"><ele>128.0</ele><time>2026-04-25T08:35:54.036Z</time></trkpt><trkpt lat="44.81633591591065" lon="4.742413219622151"><ele>128.0</ele><time>2026-04-25T08:35:56.036Z</time></trkpt><trkpt lat="44.81633660959313" lon="4.742245475384476"><ele>128.0</ele><time>2026-04-25T08:35:58.036Z</time></trkpt><trkpt lat="44.816343073752655" lon="4.7420761891015735"><ele>128.0</ele><time>2026-04-25T08:36:00.036Z</time></trkpt><trkpt lat="44.81637345995677" lon="4.741901570421628"><ele>128.0</ele><time>2026-04-25T08:36:02.036Z</time></trkpt><trkpt lat="44.81638818077179" lon="4.741733915156462"><ele>128.0</ele><time>2026-04-25T08:36:04.036Z</time></trkpt><trkpt lat="44.81641435116448" lon="4.741637665247136"><ele>128.0</ele><time>2026-04-25T08:36:05.036Z</time></trkpt><trkpt lat="44.816459536461274" lon="4.741476402975182"><ele>128.0</ele><time>2026-04-25T08:36:07.036Z</time></trkpt><trkpt lat="44.81648344928555" lon="4.741381126598472"><ele>128.0</ele><time>2026-04-25T08:36:08.036Z</time></trkpt><trkpt lat="44.81650813137096" lon="4.7412862661614525"><ele>128.0</ele><time>2026-04-25T08:36:09.036Z</time></trkpt><trkpt lat="44.81655665104601" lon="4.741119318023974"><ele>128.0</ele><time>2026-04-25T08:36:11.036Z</time></trkpt><trkpt lat="44.81659451117638" lon="4.741029832140658"><ele>128.0</ele><time>2026-04-25T08:36:12.036Z</time></trkpt><trkpt lat="44.81665255320379" lon="4.740860814988076"><ele>127.14285714285714</ele><time>2026-04-25T08:36:14.036Z</time></trkpt><trkpt lat="44.81668739276142" lon="4.740761412283374"><ele>126.28571428571428</ele><time>2026-04-25T08:36:15.036Z</time></trkpt><trkpt lat="44.81671636435722" lon="4.740681213977089"><ele>125.42857142857142</ele><time>2026-04-25T08:36:16.037Z</time></trkpt><trkpt lat="44.816743715393834" lon="4.740592063382811"><ele>124.57142857142856</ele><time>2026-04-25T08:36:17.037Z</time></trkpt><trkpt lat="44.81677649207409" lon="4.740507073215577"><ele>123.71428571428571</ele><time>2026-04-25T08:36:18.037Z</time></trkpt><trkpt lat="44.81681035701973" lon="4.740425996281676"><ele>122.85714285714283</ele><time>2026-04-25T08:36:19.037Z</time></trkpt><trkpt lat="44.81684820138146" lon="4.740341493953687"><ele>121.99999999999999</ele><time>2026-04-25T08:36:20.037Z</time></trkpt><trkpt lat="44.816893284073984" lon="4.7402093686715645"><ele>121.99999999999999</ele><time>2026-04-25T08:36:22.037Z</time></trkpt><trkpt lat="44.816949345071485" lon="4.74010595963748"><ele>122.0</ele><time>2026-04-25T08:36:24.037Z</time></trkpt><trkpt lat="44.817007107441306" lon="4.740027018178245"><ele>122.0</ele><time>2026-04-25T08:36:26.037Z</time></trkpt><trkpt lat="44.817063383258336" lon="4.739981815224787"><ele>122.0</ele><time>2026-04-25T08:36:27.037Z</time></trkpt><trkpt lat="44.817124489500586" lon="4.739948220386359"><ele>121.99999999999999</ele><time>2026-04-25T08:36:28.037Z</time></trkpt><trkpt lat="44.81717604617727" lon="4.739894035236287"><ele>122.0</ele><time>2026-04-25T08:36:29.037Z</time></trkpt><trkpt lat="44.81725205832759" lon="4.739763925253091"><ele>121.99999999999999</ele><time>2026-04-25T08:36:31.037Z</time></trkpt><trkpt lat="44.8173381768344" lon="4.739663037493141"><ele>122.0</ele><time>2026-04-25T08:36:33.037Z</time></trkpt><trkpt lat="44.81737492630932" lon="4.739590097918454"><ele>122.0</ele><time>2026-04-25T08:36:34.037Z</time></trkpt><trkpt lat="44.81742505344217" lon="4.739519915007994"><ele>122.0</ele><time>2026-04-25T08:36:35.037Z</time></trkpt><trkpt lat="44.81747148142777" lon="4.739459448593273"><ele>121.99999999999999</ele><time>2026-04-25T08:36:36.037Z</time></trkpt><trkpt lat="44.817515683591466" lon="4.739391245799996"><ele>122.0</ele><time>2026-04-25T08:36:37.037Z</time></trkpt><trkpt lat="44.817601220753446" lon="4.739264702631092"><ele>121.25</ele><time>2026-04-25T08:36:39.037Z</time></trkpt><trkpt lat="44.81767353928631" lon="4.739123362187697"><ele>120.5</ele><time>2026-04-25T08:36:41.038Z</time></trkpt><trkpt lat="44.81772552578409" lon="4.738981766466606"><ele>119.75</ele><time>2026-04-25T08:36:43.038Z</time></trkpt><trkpt lat="44.817767576628775" lon="4.7388246870742785"><ele>119.0</ele><time>2026-04-25T08:36:45.038Z</time></trkpt><trkpt lat="44.817779117460184" lon="4.738657824376527"><ele>119.0</ele><time>2026-04-25T08:36:47.038Z</time></trkpt><trkpt lat="44.81777203872836" lon="4.738488635176969"><ele>119.0</ele><time>2026-04-25T08:36:49.038Z</time></trkpt><trkpt lat="44.81775773559436" lon="4.738329003268876"><ele>119.0</ele><time>2026-04-25T08:36:51.038Z</time></trkpt><trkpt lat="44.817739119797956" lon="4.738174933391198"><ele>119.0</ele><time>2026-04-25T08:36:53.038Z</time></trkpt><trkpt lat="44.81772005701179" lon="4.738089067357534"><ele>119.0</ele><time>2026-04-25T08:36:54.038Z</time></trkpt><trkpt lat="44.81768353182046" lon="4.737958357263437"><ele>119.0</ele><time>2026-04-25T08:36:56.038Z</time></trkpt><trkpt lat="44.817653228625495" lon="4.73782011816144"><ele>119.0</ele><time>2026-04-25T08:36:58.038Z</time></trkpt><trkpt lat="44.8176222669789" lon="4.737666229861721"><ele>119.0</ele><time>2026-04-25T08:37:00.038Z</time></trkpt><trkpt lat="44.8176020091524" lon="4.737497583002297"><ele>119.0</ele><time>2026-04-25T08:37:02.038Z</time></trkpt><trkpt lat="44.817587243923604" lon="4.73733652429675"><ele>121.6</ele><time>2026-04-25T08:37:04.038Z</time></trkpt><trkpt lat="44.817580360922925" lon="4.737179279455223"><ele>124.2</ele><time>2026-04-25T08:37:06.038Z</time></trkpt><trkpt lat="44.81757519341162" lon="4.737018875872026"><ele>126.79999999999998</ele><time>2026-04-25T08:37:08.038Z</time></trkpt><trkpt lat="44.81757162377006" lon="4.736864284463542"><ele>129.4</ele><time>2026-04-25T08:37:10.038Z</time></trkpt><trkpt lat="44.81757594495108" lon="4.736720496268333"><ele>132.0</ele><time>2026-04-25T08:37:12.038Z</time></trkpt><trkpt lat="44.817595757069284" lon="4.736570568914833"><ele>133.0</ele><time>2026-04-25T08:37:14.038Z</time></trkpt><trkpt lat="44.81762336701784" lon="4.736414285183478"><ele>134.0</ele><time>2026-04-25T08:37:16.038Z</time></trkpt><trkpt lat="44.81766490369704" lon="4.736262662774527"><ele>135.0</ele><time>2026-04-25T08:37:18.038Z</time></trkpt><trkpt lat="44.81769351284681" lon="4.736114694441364"><ele>136.0</ele><time>2026-04-25T08:37:20.038Z</time></trkpt><trkpt lat="44.81773729414899" lon="4.735973999050704"><ele>137.0</ele><time>2026-04-25T08:37:22.039Z</time></trkpt><trkpt lat="44.81776766674857" lon="4.735851134779442"><ele>134.5</ele><time>2026-04-25T08:37:24.039Z</time></trkpt><trkpt lat="44.817796565685306" lon="4.735724296966144"><ele>132.0</ele><time>2026-04-25T08:37:26.039Z</time></trkpt><trkpt lat="44.817824320875594" lon="4.735640957105202"><ele>129.5</ele><time>2026-04-25T08:37:28.039Z</time></trkpt><trkpt lat="44.81783554566626" lon="4.735520823474036"><ele>127.0</ele><time>2026-04-25T08:37:32.039Z</time></trkpt><trkpt lat="44.817887065333025" lon="4.7354104485127255"><ele>124.49999999999999</ele><time>2026-04-25T08:37:34.039Z</time></trkpt><trkpt lat="44.81793042533874" lon="4.7352785210328205"><ele>122.0</ele><time>2026-04-25T08:37:36.039Z</time></trkpt><trkpt lat="44.8179529772833" lon="4.7351651316458625"><ele>122.0</ele><time>2026-04-25T08:37:38.039Z</time></trkpt><trkpt lat="44.8179726422204" lon="4.73502174869371"><ele>121.99999999999999</ele><time>2026-04-25T08:37:40.039Z</time></trkpt><trkpt lat="44.817993680416606" lon="4.734890978314302"><ele>121.99999999999999</ele><time>2026-04-25T08:37:42.039Z</time></trkpt><trkpt lat="44.81800342206976" lon="4.7347510676023905"><ele>122.0</ele><time>2026-04-25T08:37:44.039Z</time></trkpt><trkpt lat="44.81801527299065" lon="4.734608579118649"><ele>122.0</ele><time>2026-04-25T08:37:46.039Z</time></trkpt><trkpt lat="44.818009316051295" lon="4.734476143460403"><ele>122.0</ele><time>2026-04-25T08:37:48.039Z</time></trkpt><trkpt lat="44.81800489032441" lon="4.734330781370005"><ele>121.99999999999999</ele><time>2026-04-25T08:37:50.039Z</time></trkpt><trkpt lat="44.81799093997618" lon="4.7341942448791166"><ele>121.99999999999999</ele><time>2026-04-25T08:37:52.039Z</time></trkpt><trkpt lat="44.817986142440276" lon="4.734057350635668"><ele>122.0</ele><time>2026-04-25T08:37:54.039Z</time></trkpt><trkpt lat="44.817975619867624" lon="4.733920479298896"><ele>122.0</ele><time>2026-04-25T08:37:56.039Z</time></trkpt><trkpt lat="44.817966784995086" lon="4.7337777806014"><ele>122.0</ele><time>2026-04-25T08:37:58.039Z</time></trkpt><trkpt lat="44.81796514800499" lon="4.733641230075014"><ele>121.99999999999999</ele><time>2026-04-25T08:38:00.039Z</time></trkpt><trkpt lat="44.81795579777109" lon="4.733509880454688"><ele>121.99999999999999</ele><time>2026-04-25T08:38:02.039Z</time></trkpt><trkpt lat="44.817942939328674" lon="4.73337183005578"><ele>122.0</ele><time>2026-04-25T08:38:04.039Z</time></trkpt><trkpt lat="44.817937270620504" lon="4.7332297512993815"><ele>122.0</ele><time>2026-04-25T08:38:06.039Z</time></trkpt><trkpt lat="44.81793160336695" lon="4.733101241725215"><ele>122.6</ele><time>2026-04-25T08:38:08.039Z</time></trkpt><trkpt lat="44.81793198725682" lon="4.732975127342607"><ele>123.19999999999999</ele><time>2026-04-25T08:38:10.039Z</time></trkpt><trkpt lat="44.8179223418436" lon="4.732846510244975"><ele>123.8</ele><time>2026-04-25T08:38:12.039Z</time></trkpt><trkpt lat="44.81791804137173" lon="4.732699307402709"><ele>124.4</ele><time>2026-04-25T08:38:14.039Z</time></trkpt><trkpt lat="44.81790456885795" lon="4.732569766695663"><ele>125.0</ele><time>2026-04-25T08:38:16.04Z</time></trkpt><trkpt lat="44.817896598260916" lon="4.7324563899413805"><ele>125.0</ele><time>2026-04-25T08:38:18.04Z</time></trkpt><trkpt lat="44.81789259584292" lon="4.732316934578986"><ele>125.0</ele><time>2026-04-25T08:38:20.04Z</time></trkpt><trkpt lat="44.81786404727266" lon="4.73219215404147"><ele>125.0</ele><time>2026-04-25T08:38:22.04Z</time></trkpt><trkpt lat="44.81786148670603" lon="4.73208343115332"><ele>125.0</ele><time>2026-04-25T08:38:24.04Z</time></trkpt><trkpt lat="44.817838737115004" lon="4.731930472277509"><ele>125.0</ele><time>2026-04-25T08:38:26.04Z</time></trkpt><trkpt lat="44.81782133375025" lon="4.7317931963799635"><ele>125.2</ele><time>2026-04-25T08:38:28.04Z</time></trkpt><trkpt lat="44.817809073108926" lon="4.731649444346998"><ele>125.4</ele><time>2026-04-25T08:38:30.04Z</time></trkpt><trkpt lat="44.8177958371208" lon="4.731500199416841"><ele>125.6</ele><time>2026-04-25T08:38:32.04Z</time></trkpt><trkpt lat="44.817800057307394" lon="4.7313696484585925"><ele>125.8</ele><time>2026-04-25T08:38:34.04Z</time></trkpt><trkpt lat="44.8177884078693" lon="4.731224243502925"><ele>126.0</ele><time>2026-04-25T08:38:36.04Z</time></trkpt><trkpt lat="44.81776956429965" lon="4.731084065370218"><ele>125.6</ele><time>2026-04-25T08:38:38.04Z</time></trkpt><trkpt lat="44.81776715298996" lon="4.730930439632114"><ele>125.19999999999999</ele><time>2026-04-25T08:38:40.04Z</time></trkpt><trkpt lat="44.81774919563068" lon="4.730803023673227"><ele>124.80000000000001</ele><time>2026-04-25T08:38:42.04Z</time></trkpt><trkpt lat="44.81775114860254" lon="4.73065031876753"><ele>124.4</ele><time>2026-04-25T08:38:44.04Z</time></trkpt><trkpt lat="44.81774035196312" lon="4.730501347995714"><ele>124.0</ele><time>2026-04-25T08:38:46.041Z</time></trkpt><trkpt lat="44.8177316294934" lon="4.730378029659123"><ele>123.0</ele><time>2026-04-25T08:38:48.041Z</time></trkpt><trkpt lat="44.81771618304604" lon="4.730224202472605"><ele>122.0</ele><time>2026-04-25T08:38:50.041Z</time></trkpt><trkpt lat="44.81771021244008" lon="4.730088282384692"><ele>121.0</ele><time>2026-04-25T08:38:52.041Z</time></trkpt><trkpt lat="44.81768683815586" lon="4.729946410987693"><ele>120.0</ele><time>2026-04-25T08:38:54.04Z</time></trkpt><trkpt lat="44.81767742299386" lon="4.7298103275450565"><ele>119.0</ele><time>2026-04-25T08:38:56.04Z</time></trkpt><trkpt lat="44.81766832635608" lon="4.729673337480122"><ele>119.0</ele><time>2026-04-25T08:38:58.04Z</time></trkpt><trkpt lat="44.817669110520605" lon="4.729535366025088"><ele>119.0</ele><time>2026-04-25T08:39:00.04Z</time></trkpt><trkpt lat="44.81765251873155" lon="4.729388799076842"><ele>119.0</ele><time>2026-04-25T08:39:02.04Z</time></trkpt><trkpt lat="44.81762256559615" lon="4.7292605208380625"><ele>119.0</ele><time>2026-04-25T08:39:04.04Z</time></trkpt><trkpt lat="44.81761860760293" lon="4.729114592394353"><ele>119.0</ele><time>2026-04-25T08:39:06.04Z</time></trkpt><trkpt lat="44.81759583695338" lon="4.728970130953902"><ele>123.0</ele><time>2026-04-25T08:39:08.041Z</time></trkpt><trkpt lat="44.817570976548176" lon="4.728845375258176"><ele>127.0</ele><time>2026-04-25T08:39:10.041Z</time></trkpt><trkpt lat="44.81754727554658" lon="4.7286891157732684"><ele>131.0</ele><time>2026-04-25T08:39:12.041Z</time></trkpt><trkpt lat="44.817517331962456" lon="4.72854327588104"><ele>135.0</ele><time>2026-04-25T08:39:14.041Z</time></trkpt><trkpt lat="44.81747840796082" lon="4.728412384047133"><ele>139.0</ele><time>2026-04-25T08:39:16.041Z</time></trkpt><trkpt lat="44.817424938156684" lon="4.72829352306034"><ele>139.0</ele><time>2026-04-25T08:39:18.041Z</time></trkpt><trkpt lat="44.817386023057566" lon="4.728185020950402"><ele>139.0</ele><time>2026-04-25T08:39:20.041Z</time></trkpt><trkpt lat="44.81733776102476" lon="4.7280489965545005"><ele>139.0</ele><time>2026-04-25T08:39:22.041Z</time></trkpt><trkpt lat="44.81729230452491" lon="4.727909744611055"><ele>139.0</ele><time>2026-04-25T08:39:24.041Z</time></trkpt><trkpt lat="44.8172418490195" lon="4.727779869439109"><ele>139.0</ele><time>2026-04-25T08:39:26.041Z</time></trkpt><trkpt lat="44.81717889486982" lon="4.727656086629211"><ele>136.0</ele><time>2026-04-25T08:39:28.041Z</time></trkpt><trkpt lat="44.817118175632146" lon="4.727548016548679"><ele>133.0</ele><time>2026-04-25T08:39:30.041Z</time></trkpt><trkpt lat="44.8170625864422" lon="4.727441332949066"><ele>130.0</ele><time>2026-04-25T08:39:32.041Z</time></trkpt><trkpt lat="44.816991523705624" lon="4.727363878034202"><ele>127.0</ele><time>2026-04-25T08:39:34.041Z</time></trkpt><trkpt lat="44.81690780607578" lon="4.727273877582109"><ele>124.0</ele><time>2026-04-25T08:39:36.041Z</time></trkpt><trkpt lat="44.816824553234326" lon="4.727192460569106"><ele>124.80000000000001</ele><time>2026-04-25T08:39:38.041Z</time></trkpt><trkpt lat="44.816746659448036" lon="4.727108425049597"><ele>125.60000000000001</ele><time>2026-04-25T08:39:40.041Z</time></trkpt><trkpt lat="44.81666124155652" lon="4.727041572102546"><ele>126.4</ele><time>2026-04-25T08:39:42.041Z</time></trkpt><trkpt lat="44.81658436191645" lon="4.726971578587247"><ele>127.2</ele><time>2026-04-25T08:39:44.041Z</time></trkpt><trkpt lat="44.81650568759611" lon="4.726895169389825"><ele>128.0</ele><time>2026-04-25T08:39:46.041Z</time></trkpt><trkpt lat="44.81642902181086" lon="4.726809411377906"><ele>128.0</ele><time>2026-04-25T08:39:48.041Z</time></trkpt><trkpt lat="44.81636189171306" lon="4.726715485410467"><ele>128.0</ele><time>2026-04-25T08:39:50.041Z</time></trkpt><trkpt lat="44.81629870171484" lon="4.726599268055322"><ele>128.0</ele><time>2026-04-25T08:39:52.041Z</time></trkpt><trkpt lat="44.81624529403066" lon="4.726484286494854"><ele>128.0</ele><time>2026-04-25T08:39:54.041Z</time></trkpt><trkpt lat="44.816198563451366" lon="4.726362722580817"><ele>128.0</ele><time>2026-04-25T08:39:56.041Z</time></trkpt><trkpt lat="44.816150988077325" lon="4.726244961559279"><ele>127.99999999999999</ele><time>2026-04-25T08:39:58.041Z</time></trkpt><trkpt lat="44.81612777211925" lon="4.726132649374538"><ele>128.0</ele><time>2026-04-25T08:40:00.041Z</time></trkpt><trkpt lat="44.816106577798315" lon="4.726002219762171"><ele>128.0</ele><time>2026-04-25T08:40:02.042Z</time></trkpt><trkpt lat="44.816080707714185" lon="4.725878255614566"><ele>128.0</ele><time>2026-04-25T08:40:04.042Z</time></trkpt><trkpt lat="44.81607204263128" lon="4.725768460257623"><ele>127.99999999999999</ele><time>2026-04-25T08:40:06.042Z</time></trkpt><trkpt lat="44.81605461879569" lon="4.725640211783181"><ele>128.0</ele><time>2026-04-25T08:40:08.042Z</time></trkpt><trkpt lat="44.81603594871558" lon="4.725511053441133"><ele>125.60000000000001</ele><time>2026-04-25T08:40:10.042Z</time></trkpt><trkpt lat="44.8160156373599" lon="4.725384074339568"><ele>123.20000000000002</ele><time>2026-04-25T08:40:12.042Z</time></trkpt><trkpt lat="44.8159948145853" lon="4.725249318500794"><ele>120.8</ele><time>2026-04-25T08:40:14.042Z</time></trkpt><trkpt lat="44.815994515671136" lon="4.725102264330465"><ele>118.4</ele><time>2026-04-25T08:40:16.042Z</time></trkpt><trkpt lat="44.81598425671439" lon="4.724950074455064"><ele>116.0</ele><time>2026-04-25T08:40:18.042Z</time></trkpt><trkpt lat="44.815958219758464" lon="4.724817579718539"><ele>121.19999999999999</ele><time>2026-04-25T08:40:20.042Z</time></trkpt><trkpt lat="44.81595676843976" lon="4.724671037206888"><ele>126.39999999999999</ele><time>2026-04-25T08:40:22.042Z</time></trkpt><trkpt lat="44.81593627763031" lon="4.72452380813811"><ele>131.6</ele><time>2026-04-25T08:40:24.042Z</time></trkpt><trkpt lat="44.81592193456924" lon="4.724392085731419"><ele>136.79999999999998</ele><time>2026-04-25T08:40:26.042Z</time></trkpt><trkpt lat="44.81590605090565" lon="4.72427417968359"><ele>142.0</ele><time>2026-04-25T08:40:28.042Z</time></trkpt><trkpt lat="44.815885188859326" lon="4.724146337450866"><ele>142.0</ele><time>2026-04-25T08:40:30.042Z</time></trkpt><trkpt lat="44.81586966002662" lon="4.724019629684047"><ele>142.0</ele><time>2026-04-25T08:40:32.042Z</time></trkpt><trkpt lat="44.81585390570759" lon="4.723888504445799"><ele>142.0</ele><time>2026-04-25T08:40:34.042Z</time></trkpt><trkpt lat="44.815843978551115" lon="4.723737843413013"><ele>142.0</ele><time>2026-04-25T08:40:36.042Z</time></trkpt><trkpt lat="44.81582424052249" lon="4.723582515981579"><ele>142.0</ele><time>2026-04-25T08:40:38.042Z</time></trkpt><trkpt lat="44.81580415575912" lon="4.723448729496587"><ele>140.6</ele><time>2026-04-25T08:40:40.042Z</time></trkpt><trkpt lat="44.81579242827619" lon="4.723309572243487"><ele>139.2</ele><time>2026-04-25T08:40:42.042Z</time></trkpt><trkpt lat="44.81577129983488" lon="4.723185088371154"><ele>137.8</ele><time>2026-04-25T08:40:44.042Z</time></trkpt><trkpt lat="44.81573447226397" lon="4.723058545232228"><ele>136.4</ele><time>2026-04-25T08:40:46.042Z</time></trkpt><trkpt lat="44.81571222400512" lon="4.722926036436945"><ele>135.0</ele><time>2026-04-25T08:40:48.042Z</time></trkpt><trkpt lat="44.81568515613249" lon="4.722805368001865"><ele>136.0</ele><time>2026-04-25T08:40:50.042Z</time></trkpt><trkpt lat="44.81567402460706" lon="4.722674008663472"><ele>137.0</ele><time>2026-04-25T08:40:52.043Z</time></trkpt><trkpt lat="44.815656745331246" lon="4.722551313752271"><ele>138.0</ele><time>2026-04-25T08:40:54.043Z</time></trkpt><trkpt lat="44.81563888799273" lon="4.7224150770093445"><ele>139.0</ele><time>2026-04-25T08:40:56.043Z</time></trkpt><trkpt lat="44.81563197723278" lon="4.722279409596137"><ele>140.0</ele><time>2026-04-25T08:40:58.043Z</time></trkpt><trkpt lat="44.8156359622112" lon="4.722126937319838"><ele>140.0</ele><time>2026-04-25T08:41:00.043Z</time></trkpt><trkpt lat="44.8156256985108" lon="4.721983204827159"><ele>140.0</ele><time>2026-04-25T08:41:02.043Z</time></trkpt><trkpt lat="44.81562672399424" lon="4.721825008160871"><ele>140.0</ele><time>2026-04-25T08:41:04.044Z</time></trkpt><trkpt lat="44.81563752662068" lon="4.7216932195186505"><ele>140.0</ele><time>2026-04-25T08:41:06.043Z</time></trkpt><trkpt lat="44.81566071504487" lon="4.72153550808409"><ele>140.0</ele><time>2026-04-25T08:41:08.043Z</time></trkpt><trkpt lat="44.815677560556914" lon="4.72144806524507"><ele>140.0</ele><time>2026-04-25T08:41:09.043Z</time></trkpt><trkpt lat="44.81571093608732" lon="4.7212930770277275"><ele>140.0</ele><time>2026-04-25T08:41:11.043Z</time></trkpt><trkpt lat="44.8157327312858" lon="4.721155207755721"><ele>140.0</ele><time>2026-04-25T08:41:13.043Z</time></trkpt><trkpt lat="44.815757373071385" lon="4.721016935883119"><ele>140.0</ele><time>2026-04-25T08:41:15.043Z</time></trkpt><trkpt lat="44.81579223871205" lon="4.720873037974049"><ele>140.0</ele><time>2026-04-25T08:41:17.044Z</time></trkpt><trkpt lat="44.81582415907986" lon="4.720724093298139"><ele>140.4</ele><time>2026-04-25T08:41:19.044Z</time></trkpt><trkpt lat="44.81585690683925" lon="4.720601743195466"><ele>140.8</ele><time>2026-04-25T08:41:21.044Z</time></trkpt><trkpt lat="44.815879179627395" lon="4.720457893078741"><ele>141.2</ele><time>2026-04-25T08:41:23.044Z</time></trkpt><trkpt lat="44.815892704345664" lon="4.7203195656304855"><ele>141.6</ele><time>2026-04-25T08:41:25.044Z</time></trkpt><trkpt lat="44.815912276356066" lon="4.720181464828362"><ele>142.0</ele><time>2026-04-25T08:41:27.044Z</time></trkpt><trkpt lat="44.81594108768636" lon="4.720041348529227"><ele>142.2</ele><time>2026-04-25T08:41:29.044Z</time></trkpt><trkpt lat="44.81595519477996" lon="4.719913246500706"><ele>142.39999999999998</ele><time>2026-04-25T08:41:31.044Z</time></trkpt><trkpt lat="44.81597459805538" lon="4.719774580481637"><ele>142.60000000000002</ele><time>2026-04-25T08:41:33.044Z</time></trkpt><trkpt lat="44.81599999132384" lon="4.719627629941753"><ele>142.8</ele><time>2026-04-25T08:41:35.044Z</time></trkpt><trkpt lat="44.81602924369889" lon="4.719487926604989"><ele>143.0</ele><time>2026-04-25T08:41:37.044Z</time></trkpt><trkpt lat="44.816044924903814" lon="4.719363532120767"><ele>140.5</ele><time>2026-04-25T08:41:39.044Z</time></trkpt><trkpt lat="44.81606898393388" lon="4.719222677599023"><ele>138.0</ele><time>2026-04-25T08:41:41.044Z</time></trkpt><trkpt lat="44.816091254015724" lon="4.719108281355921"><ele>135.5</ele><time>2026-04-25T08:41:43.044Z</time></trkpt><trkpt lat="44.816099464542795" lon="4.7189905352254335"><ele>133.0</ele><time>2026-04-25T08:41:45.044Z</time></trkpt><trkpt lat="44.81611276660578" lon="4.718883685359354"><ele>130.5</ele><time>2026-04-25T08:41:47.044Z</time></trkpt><trkpt lat="44.8161340133057" lon="4.718774810619774"><ele>128.0</ele><time>2026-04-25T08:41:49.044Z</time></trkpt><trkpt lat="44.816148831392496" lon="4.718673561178931"><ele>127.99999999999999</ele><time>2026-04-25T08:41:51.044Z</time></trkpt><trkpt lat="44.816171625962646" lon="4.718572057063493"><ele>128.0</ele><time>2026-04-25T08:41:53.044Z</time></trkpt><trkpt lat="44.81618987326294" lon="4.71847464139372"><ele>128.0</ele><time>2026-04-25T08:41:55.044Z</time></trkpt><trkpt lat="44.816199229885505" lon="4.718355950168047"><ele>128.0</ele><time>2026-04-25T08:41:58.044Z</time></trkpt><trkpt lat="44.81622230130563" lon="4.718245446324892"><ele>127.99999999999999</ele><time>2026-04-25T08:42:01.044Z</time></trkpt><trkpt lat="44.81623928283651" lon="4.7181375567772506"><ele>128.0</ele><time>2026-04-25T08:42:04.044Z</time></trkpt><trkpt lat="44.8162483106451" lon="4.71801449317279"><ele>129.83333333333331</ele><time>2026-04-25T08:42:07.044Z</time></trkpt><trkpt lat="44.81624993273773" lon="4.717909615111902"><ele>131.66666666666666</ele><time>2026-04-25T08:42:09.044Z</time></trkpt><trkpt lat="44.81622454910017" lon="4.7178197518723195"><ele>133.5</ele><time>2026-04-25T08:42:11.045Z</time></trkpt><trkpt lat="44.81618590783337" lon="4.717698924698207"><ele>135.33333333333334</ele><time>2026-04-25T08:42:13.045Z</time></trkpt><trkpt lat="44.81615239282303" lon="4.717574432773101"><ele>137.16666666666669</ele><time>2026-04-25T08:42:15.045Z</time></trkpt><trkpt lat="44.81610790158535" lon="4.717453614355728"><ele>139.0</ele><time>2026-04-25T08:42:17.045Z</time></trkpt><trkpt lat="44.8160454614655" lon="4.717341454389189"><ele>139.0</ele><time>2026-04-25T08:42:19.045Z</time></trkpt><trkpt lat="44.81599035563509" lon="4.717229551992656"><ele>139.0</ele><time>2026-04-25T08:42:21.045Z</time></trkpt><trkpt lat="44.81591328138616" lon="4.7171063771412465"><ele>139.0</ele><time>2026-04-25T08:42:23.045Z</time></trkpt><trkpt lat="44.81584155118462" lon="4.71701399453396"><ele>139.0</ele><time>2026-04-25T08:42:25.045Z</time></trkpt><trkpt lat="44.81576504292068" lon="4.7169209167516035"><ele>139.0</ele><time>2026-04-25T08:42:27.045Z</time></trkpt><trkpt lat="44.815687486101424" lon="4.716819680659916"><ele>138.4</ele><time>2026-04-25T08:42:29.045Z</time></trkpt><trkpt lat="44.81561270031068" lon="4.7167487927007"><ele>137.8</ele><time>2026-04-25T08:42:31.045Z</time></trkpt><trkpt lat="44.81552970166878" lon="4.716657855877355"><ele>137.2</ele><time>2026-04-25T08:42:33.045Z</time></trkpt><trkpt lat="44.81546125205955" lon="4.716563943764026"><ele>136.6</ele><time>2026-04-25T08:42:35.045Z</time></trkpt><trkpt lat="44.81539593145119" lon="4.716455008015525"><ele>136.0</ele><time>2026-04-25T08:42:37.045Z</time></trkpt><trkpt lat="44.815342476442886" lon="4.716333237203786"><ele>136.0</ele><time>2026-04-25T08:42:39.045Z</time></trkpt><trkpt lat="44.8152872583366" lon="4.716215052841524"><ele>136.0</ele><time>2026-04-25T08:42:41.045Z</time></trkpt><trkpt lat="44.81525421487554" lon="4.716104699289588"><ele>136.0</ele><time>2026-04-25T08:42:43.045Z</time></trkpt><trkpt lat="44.81523049611069" lon="4.715961674886169"><ele>136.0</ele><time>2026-04-25T08:42:45.045Z</time></trkpt><trkpt lat="44.81520849346522" lon="4.715805049704639"><ele>136.0</ele><time>2026-04-25T08:42:47.045Z</time></trkpt><trkpt lat="44.815193795874855" lon="4.715681394375631"><ele>134.2</ele><time>2026-04-25T08:42:49.045Z</time></trkpt><trkpt lat="44.81517980687177" lon="4.71553944907899"><ele>132.39999999999998</ele><time>2026-04-25T08:42:51.045Z</time></trkpt><trkpt lat="44.815167726642436" lon="4.715397539144231"><ele>130.6</ele><time>2026-04-25T08:42:53.045Z</time></trkpt><trkpt lat="44.815153069839596" lon="4.7152443710699705"><ele>128.79999999999998</ele><time>2026-04-25T08:42:55.045Z</time></trkpt><trkpt lat="44.81514790793697" lon="4.715102840941898"><ele>127.0</ele><time>2026-04-25T08:42:57.045Z</time></trkpt><trkpt lat="44.81512963229545" lon="4.71495612545716"><ele>128.6</ele><time>2026-04-25T08:42:59.046Z</time></trkpt><trkpt lat="44.815089790019435" lon="4.714817730607865"><ele>130.2</ele><time>2026-04-25T08:43:01.046Z</time></trkpt><trkpt lat="44.81503945488552" lon="4.714682046006121"><ele>131.8</ele><time>2026-04-25T08:43:03.046Z</time></trkpt><trkpt lat="44.81497556451121" lon="4.71455126781011"><ele>133.4</ele><time>2026-04-25T08:43:05.046Z</time></trkpt><trkpt lat="44.81491904275181" lon="4.714421517170015"><ele>135.0</ele><time>2026-04-25T08:43:07.046Z</time></trkpt><trkpt lat="44.81485466210449" lon="4.714295273868133"><ele>135.0</ele><time>2026-04-25T08:43:09.045Z</time></trkpt><trkpt lat="44.81478380530766" lon="4.714177465380744"><ele>135.0</ele><time>2026-04-25T08:43:11.046Z</time></trkpt><trkpt lat="44.814712760377446" lon="4.714067520578739"><ele>135.0</ele><time>2026-04-25T08:43:13.046Z</time></trkpt><trkpt lat="44.81463815956834" lon="4.713951080071885"><ele>135.0</ele><time>2026-04-25T08:43:15.046Z</time></trkpt><trkpt lat="44.81456513150751" lon="4.713852142078337"><ele>135.0</ele><time>2026-04-25T08:43:17.046Z</time></trkpt><trkpt lat="44.81448770605487" lon="4.713764619325167"><ele>135.0</ele><time>2026-04-25T08:43:19.046Z</time></trkpt><trkpt lat="44.81439195328044" lon="4.713680416369939"><ele>135.0</ele><time>2026-04-25T08:43:21.046Z</time></trkpt><trkpt lat="44.81430656771363" lon="4.713603696746749"><ele>135.0</ele><time>2026-04-25T08:43:23.046Z</time></trkpt><trkpt lat="44.81422438528042" lon="4.713524183214541"><ele>135.0</ele><time>2026-04-25T08:43:25.046Z</time></trkpt><trkpt lat="44.814138322329" lon="4.713430238302525"><ele>135.0</ele><time>2026-04-25T08:43:27.046Z</time></trkpt><trkpt lat="44.814062737771586" lon="4.7133242308939"><ele>134.4</ele><time>2026-04-25T08:43:29.046Z</time></trkpt><trkpt lat="44.81400388266771" lon="4.713219980796875"><ele>133.8</ele><time>2026-04-25T08:43:31.046Z</time></trkpt><trkpt lat="44.81394700519772" lon="4.713099703086135"><ele>133.2</ele><time>2026-04-25T08:43:33.046Z</time></trkpt><trkpt lat="44.81389721628838" lon="4.7129687255839325"><ele>132.6</ele><time>2026-04-25T08:43:35.047Z</time></trkpt><trkpt lat="44.813858056097004" lon="4.712838172765198"><ele>132.0</ele><time>2026-04-25T08:43:37.047Z</time></trkpt><trkpt lat="44.81382221188157" lon="4.71270717829429"><ele>132.0</ele><time>2026-04-25T08:43:39.047Z</time></trkpt><trkpt lat="44.81379882185993" lon="4.712564088937024"><ele>132.0</ele><time>2026-04-25T08:43:41.047Z</time></trkpt><trkpt lat="44.81377701546708" lon="4.712413069326207"><ele>132.0</ele><time>2026-04-25T08:43:43.047Z</time></trkpt><trkpt lat="44.81375658865406" lon="4.712260543419617"><ele>132.0</ele><time>2026-04-25T08:43:45.047Z</time></trkpt><trkpt lat="44.81374074447514" lon="4.712117450079299"><ele>132.0</ele><time>2026-04-25T08:43:47.047Z</time></trkpt><trkpt lat="44.813722725043746" lon="4.711976136661438"><ele>132.0</ele><time>2026-04-25T08:43:49.047Z</time></trkpt><trkpt lat="44.81371651285696" lon="4.7118328283344235"><ele>132.0</ele><time>2026-04-25T08:43:51.047Z</time></trkpt><trkpt lat="44.813699547859834" lon="4.711693926045576"><ele>132.0</ele><time>2026-04-25T08:43:53.047Z</time></trkpt><trkpt lat="44.813715868622985" lon="4.711539573043659"><ele>132.0</ele><time>2026-04-25T08:43:55.047Z</time></trkpt><trkpt lat="44.81374365673781" lon="4.711392719583974"><ele>132.0</ele><time>2026-04-25T08:43:57.047Z</time></trkpt><trkpt lat="44.81377803803732" lon="4.711247654533473"><ele>132.0</ele><time>2026-04-25T08:43:59.047Z</time></trkpt><trkpt lat="44.813813720580626" lon="4.711086637178123"><ele>132.0</ele><time>2026-04-25T08:44:01.047Z</time></trkpt><trkpt lat="44.81382760405205" lon="4.710957953949321"><ele>132.0</ele><time>2026-04-25T08:44:03.047Z</time></trkpt><trkpt lat="44.81385581008899" lon="4.710807034554614"><ele>132.0</ele><time>2026-04-25T08:44:05.047Z</time></trkpt><trkpt lat="44.81388319165896" lon="4.710665174308311"><ele>132.0</ele><time>2026-04-25T08:44:07.047Z</time></trkpt><trkpt lat="44.813891197902564" lon="4.710516935116623"><ele>132.2</ele><time>2026-04-25T08:44:09.047Z</time></trkpt><trkpt lat="44.81388966859658" lon="4.710370194835705"><ele>132.39999999999998</ele><time>2026-04-25T08:44:11.047Z</time></trkpt><trkpt lat="44.81387624171992" lon="4.710215603468876"><ele>132.60000000000002</ele><time>2026-04-25T08:44:13.047Z</time></trkpt><trkpt lat="44.81386017961927" lon="4.710126985312424"><ele>132.8</ele><time>2026-04-25T08:44:14.047Z</time></trkpt><trkpt lat="44.81382105187173" lon="4.709997794711288"><ele>133.0</ele><time>2026-04-25T08:44:16.047Z</time></trkpt><trkpt lat="44.813773545356796" lon="4.709872594412462"><ele>132.0</ele><time>2026-04-25T08:44:18.047Z</time></trkpt><trkpt lat="44.81371975277318" lon="4.709718128700811"><ele>131.0</ele><time>2026-04-25T08:44:20.047Z</time></trkpt><trkpt lat="44.81367011503807" lon="4.709597659826375"><ele>130.0</ele><time>2026-04-25T08:44:22.047Z</time></trkpt><trkpt lat="44.813612952738595" lon="4.709472714770553"><ele>129.0</ele><time>2026-04-25T08:44:24.047Z</time></trkpt><trkpt lat="44.81356507443844" lon="4.709319153266125"><ele>128.0</ele><time>2026-04-25T08:44:26.047Z</time></trkpt><trkpt lat="44.813516038076614" lon="4.709182297276608"><ele>131.6</ele><time>2026-04-25T08:44:28.048Z</time></trkpt><trkpt lat="44.81346264832484" lon="4.709048797002306"><ele>135.20000000000002</ele><time>2026-04-25T08:44:30.048Z</time></trkpt><trkpt lat="44.81340849245014" lon="4.708915724143925"><ele>138.8</ele><time>2026-04-25T08:44:32.048Z</time></trkpt><trkpt lat="44.81335967652695" lon="4.708774845380655"><ele>142.4</ele><time>2026-04-25T08:44:34.048Z</time></trkpt><trkpt lat="44.81330557484895" lon="4.708632821671002"><ele>146.0</ele><time>2026-04-25T08:44:36.048Z</time></trkpt><trkpt lat="44.813252504074434" lon="4.708507423562631"><ele>146.0</ele><time>2026-04-25T08:44:38.048Z</time></trkpt><trkpt lat="44.81320675978766" lon="4.708362472375209"><ele>146.0</ele><time>2026-04-25T08:44:40.048Z</time></trkpt><trkpt lat="44.81315541029397" lon="4.708218941911406"><ele>146.0</ele><time>2026-04-25T08:44:42.048Z</time></trkpt><trkpt lat="44.813138697354994" lon="4.708047161889915"><ele>146.0</ele><time>2026-04-25T08:44:44.048Z</time></trkpt><trkpt lat="44.813114132490014" lon="4.707899495135103"><ele>146.0</ele><time>2026-04-25T08:44:46.048Z</time></trkpt><trkpt lat="44.81311943751322" lon="4.707806890387451"><ele>146.0</ele><time>2026-04-25T08:44:47.048Z</time></trkpt><trkpt lat="44.81312375204469" lon="4.70771715748711"><ele>146.0</ele><time>2026-04-25T08:44:48.048Z</time></trkpt><trkpt lat="44.81315937404525" lon="4.707544440857447"><ele>146.0</ele><time>2026-04-25T08:44:50.048Z</time></trkpt><trkpt lat="44.81317651879749" lon="4.707385291543538"><ele>146.0</ele><time>2026-04-25T08:44:52.048Z</time></trkpt><trkpt lat="44.81322219546432" lon="4.707219440137958"><ele>146.0</ele><time>2026-04-25T08:44:54.048Z</time></trkpt><trkpt lat="44.813254394298724" lon="4.707136582648172"><ele>146.0</ele><time>2026-04-25T08:44:55.048Z</time></trkpt><trkpt lat="44.81328535559109" lon="4.7070546373665385"><ele>146.0</ele><time>2026-04-25T08:44:56.048Z</time></trkpt><trkpt lat="44.81331533939607" lon="4.706976421789533"><ele>146.0</ele><time>2026-04-25T08:44:57.048Z</time></trkpt><trkpt lat="44.813395419496686" lon="4.7068418924936655"><ele>146.0</ele><time>2026-04-25T08:44:59.048Z</time></trkpt><trkpt lat="44.813450519043556" lon="4.706695192927195"><ele>146.0</ele><time>2026-04-25T08:45:01.048Z</time></trkpt><trkpt lat="44.81348564614665" lon="4.706621241091221"><ele>142.75</ele><time>2026-04-25T08:45:02.048Z</time></trkpt><trkpt lat="44.81355179251675" lon="4.7065005005215355"><ele>139.5</ele><time>2026-04-25T08:45:04.049Z</time></trkpt><trkpt lat="44.813625290841806" lon="4.70638117205375"><ele>136.25</ele><time>2026-04-25T08:45:06.048Z</time></trkpt><trkpt lat="44.81371560344571" lon="4.706277882404415"><ele>133.0</ele><time>2026-04-25T08:45:08.049Z</time></trkpt><trkpt lat="44.81381275834634" lon="4.7061898032080824"><ele>133.0</ele><time>2026-04-25T08:45:10.049Z</time></trkpt><trkpt lat="44.813902645201566" lon="4.706110569780174"><ele>133.0</ele><time>2026-04-25T08:45:12.048Z</time></trkpt><trkpt lat="44.81400404416976" lon="4.706060678521839"><ele>133.0</ele><time>2026-04-25T08:45:14.048Z</time></trkpt><trkpt lat="44.81411190417651" lon="4.706018852729667"><ele>133.0</ele><time>2026-04-25T08:45:16.049Z</time></trkpt><trkpt lat="44.81417173334648" lon="4.70599094978699"><ele>133.0</ele><time>2026-04-25T08:45:17.049Z</time></trkpt><trkpt lat="44.814286893624804" lon="4.7059717896576965"><ele>132.8</ele><time>2026-04-25T08:45:19.049Z</time></trkpt><trkpt lat="44.814353835540814" lon="4.7059653082756325"><ele>132.60000000000002</ele><time>2026-04-25T08:45:20.049Z</time></trkpt><trkpt lat="44.81441766779989" lon="4.705968361932785"><ele>132.39999999999998</ele><time>2026-04-25T08:45:21.049Z</time></trkpt><trkpt lat="44.81453520048767" lon="4.706008661828146"><ele>132.2</ele><time>2026-04-25T08:45:23.049Z</time></trkpt><trkpt lat="44.81464078433336" lon="4.706054144093482"><ele>132.0</ele><time>2026-04-25T08:45:25.049Z</time></trkpt><trkpt lat="44.814730639625694" lon="4.706097066252822"><ele>132.0</ele><time>2026-04-25T08:45:27.049Z</time></trkpt><trkpt lat="44.8148407029633" lon="4.706158124722402"><ele>132.0</ele><time>2026-04-25T08:45:29.049Z</time></trkpt><trkpt lat="44.81494149039529" lon="4.70621204202895"><ele>132.0</ele><time>2026-04-25T08:45:31.049Z</time></trkpt><trkpt lat="44.815042883697764" lon="4.706260594835116"><ele>132.0</ele><time>2026-04-25T08:45:33.049Z</time></trkpt><trkpt lat="44.81515546941894" lon="4.706304190671942"><ele>132.0</ele><time>2026-04-25T08:45:35.049Z</time></trkpt><trkpt lat="44.815260557032744" lon="4.706333082802272"><ele>132.0</ele><time>2026-04-25T08:45:37.049Z</time></trkpt><trkpt lat="44.81537288627956" lon="4.70634492278819"><ele>132.0</ele><time>2026-04-25T08:45:39.049Z</time></trkpt><trkpt lat="44.81543762110443" lon="4.7063485498860675"><ele>132.0</ele><time>2026-04-25T08:45:40.049Z</time></trkpt><trkpt lat="44.8155531926787" lon="4.706333777973782"><ele>132.0</ele><time>2026-04-25T08:45:42.049Z</time></trkpt><trkpt lat="44.81566922454868" lon="4.706316658206971"><ele>132.0</ele><time>2026-04-25T08:45:44.049Z</time></trkpt><trkpt lat="44.81577367086689" lon="4.706277360125494"><ele>132.0</ele><time>2026-04-25T08:45:46.049Z</time></trkpt><trkpt lat="44.815872707441414" lon="4.706224000915239"><ele>132.0</ele><time>2026-04-25T08:45:48.049Z</time></trkpt><trkpt lat="44.81595418251767" lon="4.706129589317397"><ele>132.0</ele><time>2026-04-25T08:45:50.049Z</time></trkpt><trkpt lat="44.8160358486382" lon="4.706034893490483"><ele>132.0</ele><time>2026-04-25T08:45:52.049Z</time></trkpt><trkpt lat="44.81611502412037" lon="4.705937463276824"><ele>132.0</ele><time>2026-04-25T08:45:54.049Z</time></trkpt><trkpt lat="44.81617689278903" lon="4.705821161243663"><ele>132.0</ele><time>2026-04-25T08:45:56.049Z</time></trkpt><trkpt lat="44.81622914758309" lon="4.705695974476962"><ele>132.0</ele><time>2026-04-25T08:45:58.049Z</time></trkpt><trkpt lat="44.816274642831196" lon="4.705562156726936"><ele>132.0</ele><time>2026-04-25T08:46:00.049Z</time></trkpt><trkpt lat="44.816299791965044" lon="4.705431718827315"><ele>132.0</ele><time>2026-04-25T08:46:02.049Z</time></trkpt><trkpt lat="44.81632221181426" lon="4.705286630116573"><ele>132.6</ele><time>2026-04-25T08:46:04.049Z</time></trkpt><trkpt lat="44.816349524186904" lon="4.705136628062255"><ele>133.2</ele><time>2026-04-25T08:46:06.049Z</time></trkpt><trkpt lat="44.816361520034434" lon="4.704983785110692"><ele>133.8</ele><time>2026-04-25T08:46:08.049Z</time></trkpt><trkpt lat="44.81638840264706" lon="4.704826306366928"><ele>134.4</ele><time>2026-04-25T08:46:10.05Z</time></trkpt><trkpt lat="44.81640164851014" lon="4.704676050195134"><ele>135.0</ele><time>2026-04-25T08:46:12.05Z</time></trkpt><trkpt lat="44.816431268544825" lon="4.704536525745069"><ele>136.2</ele><time>2026-04-25T08:46:14.05Z</time></trkpt><trkpt lat="44.8164456924051" lon="4.704391367834605"><ele>137.4</ele><time>2026-04-25T08:46:16.05Z</time></trkpt><trkpt lat="44.81646828332163" lon="4.704265971433309"><ele>138.6</ele><time>2026-04-25T08:46:18.05Z</time></trkpt><trkpt lat="44.816488384734306" lon="4.7041220842853635"><ele>139.8</ele><time>2026-04-25T08:46:20.05Z</time></trkpt><trkpt lat="44.81649896004104" lon="4.703994046145643"><ele>141.0</ele><time>2026-04-25T08:46:22.05Z</time></trkpt><trkpt lat="44.81651865497718" lon="4.703859996157511"><ele>141.0</ele><time>2026-04-25T08:46:24.05Z</time></trkpt><trkpt lat="44.8165374013271" lon="4.703732460118746"><ele>141.0</ele><time>2026-04-25T08:46:26.05Z</time></trkpt><trkpt lat="44.816588834570126" lon="4.7036013533912815"><ele>141.0</ele><time>2026-04-25T08:46:28.05Z</time></trkpt><trkpt lat="44.81661768577025" lon="4.703450467179446"><ele>141.0</ele><time>2026-04-25T08:46:30.05Z</time></trkpt><trkpt lat="44.81664466963787" lon="4.703307501941668"><ele>141.0</ele><time>2026-04-25T08:46:32.05Z</time></trkpt><trkpt lat="44.816660322878214" lon="4.703185317732772"><ele>142.2</ele><time>2026-04-25T08:46:34.05Z</time></trkpt><trkpt lat="44.81667994001438" lon="4.703066343222955"><ele>143.39999999999998</ele><time>2026-04-25T08:46:36.05Z</time></trkpt><trkpt lat="44.816691268943515" lon="4.702936111394165"><ele>144.6</ele><time>2026-04-25T08:46:38.05Z</time></trkpt><trkpt lat="44.81668664607746" lon="4.702787862804369"><ele>145.79999999999998</ele><time>2026-04-25T08:46:40.05Z</time></trkpt><trkpt lat="44.81668389387994" lon="4.702636866658159"><ele>147.0</ele><time>2026-04-25T08:46:42.05Z</time></trkpt><trkpt lat="44.816663859467425" lon="4.702492778587498"><ele>147.0</ele><time>2026-04-25T08:46:44.05Z</time></trkpt><trkpt lat="44.816642627273595" lon="4.702358120680922"><ele>147.0</ele><time>2026-04-25T08:46:46.05Z</time></trkpt><trkpt lat="44.816616035899386" lon="4.702207943653808"><ele>147.0</ele><time>2026-04-25T08:46:48.05Z</time></trkpt><trkpt lat="44.81659459072905" lon="4.7020650058279205"><ele>147.0</ele><time>2026-04-25T08:46:50.05Z</time></trkpt><trkpt lat="44.81656042787732" lon="4.701925704877768"><ele>147.0</ele><time>2026-04-25T08:46:52.05Z</time></trkpt><trkpt lat="44.81654437673232" lon="4.701783337181386"><ele>147.0</ele><time>2026-04-25T08:46:54.05Z</time></trkpt><trkpt lat="44.8165237389589" lon="4.7016613275202355"><ele>147.0</ele><time>2026-04-25T08:46:56.05Z</time></trkpt><trkpt lat="44.81649317931875" lon="4.701520220865361"><ele>147.0</ele><time>2026-04-25T08:46:58.05Z</time></trkpt><trkpt lat="44.816481597729094" lon="4.701377791144064"><ele>147.0</ele><time>2026-04-25T08:47:00.05Z</time></trkpt><trkpt lat="44.816466574357264" lon="4.701229694131997"><ele>147.0</ele><time>2026-04-25T08:47:02.05Z</time></trkpt><trkpt lat="44.81647390156574" lon="4.7010865408716"><ele>146.4</ele><time>2026-04-25T08:47:04.051Z</time></trkpt><trkpt lat="44.81650111232875" lon="4.70093496419806"><ele>145.79999999999998</ele><time>2026-04-25T08:47:06.051Z</time></trkpt><trkpt lat="44.816512455091946" lon="4.700803293432824"><ele>145.2</ele><time>2026-04-25T08:47:08.051Z</time></trkpt><trkpt lat="44.81654724024694" lon="4.7006424641749565"><ele>144.6</ele><time>2026-04-25T08:47:10.051Z</time></trkpt><trkpt lat="44.81657993998659" lon="4.7005010100282085"><ele>144.0</ele><time>2026-04-25T08:47:12.051Z</time></trkpt><trkpt lat="44.816601927017295" lon="4.700345612237388"><ele>144.8</ele><time>2026-04-25T08:47:14.051Z</time></trkpt><trkpt lat="44.81663883366575" lon="4.700198986495459"><ele>145.60000000000002</ele><time>2026-04-25T08:47:16.051Z</time></trkpt><trkpt lat="44.81666413346396" lon="4.700045719383026"><ele>146.4</ele><time>2026-04-25T08:47:18.051Z</time></trkpt><trkpt lat="44.81668693609325" lon="4.699901355431953"><ele>147.20000000000002</ele><time>2026-04-25T08:47:20.052Z</time></trkpt><trkpt lat="44.816696017783215" lon="4.6997579423732905"><ele>148.0</ele><time>2026-04-25T08:47:22.05Z</time></trkpt><trkpt lat="44.81669380729908" lon="4.6996212337767425"><ele>148.0</ele><time>2026-04-25T08:47:24.048Z</time></trkpt><trkpt lat="44.81669327334708" lon="4.69946850786503"><ele>148.0</ele><time>2026-04-25T08:47:26.047Z</time></trkpt><trkpt lat="44.81668722772995" lon="4.699317459084442"><ele>148.0</ele><time>2026-04-25T08:47:28.046Z</time></trkpt><trkpt lat="44.816670873179994" lon="4.699172139864661"><ele>148.0</ele><time>2026-04-25T08:47:30.045Z</time></trkpt><trkpt lat="44.81665196785545" lon="4.69902066363808"><ele>148.0</ele><time>2026-04-25T08:47:32.044Z</time></trkpt><trkpt lat="44.81661854645004" lon="4.698878177908253"><ele>148.20000000000002</ele><time>2026-04-25T08:47:34.043Z</time></trkpt><trkpt lat="44.81657231084363" lon="4.698738907561369"><ele>148.4</ele><time>2026-04-25T08:47:36.043Z</time></trkpt><trkpt lat="44.81653402383666" lon="4.698605914811263"><ele>148.60000000000002</ele><time>2026-04-25T08:47:38.042Z</time></trkpt><trkpt lat="44.81648735029416" lon="4.6984571627605325"><ele>148.8</ele><time>2026-04-25T08:47:40.041Z</time></trkpt><trkpt lat="44.81645027257836" lon="4.698327525152949"><ele>149.0</ele><time>2026-04-25T08:47:42.041Z</time></trkpt><trkpt lat="44.816407321041545" lon="4.698203378332128"><ele>149.0</ele><time>2026-04-25T08:47:44.041Z</time></trkpt><trkpt lat="44.81636922814298" lon="4.69805917392703"><ele>149.0</ele><time>2026-04-25T08:47:46.04Z</time></trkpt><trkpt lat="44.816341814460486" lon="4.6979099902473935"><ele>149.0</ele><time>2026-04-25T08:47:48.04Z</time></trkpt><trkpt lat="44.81632423829038" lon="4.697769345143395"><ele>149.0</ele><time>2026-04-25T08:47:50.04Z</time></trkpt><trkpt lat="44.81632292591907" lon="4.697623245718206"><ele>149.0</ele><time>2026-04-25T08:47:52.039Z</time></trkpt><trkpt lat="44.81632678327961" lon="4.697476276784323"><ele>145.75</ele><time>2026-04-25T08:47:54.039Z</time></trkpt><trkpt lat="44.816354081880746" lon="4.697313023070262"><ele>142.5</ele><time>2026-04-25T08:47:56.039Z</time></trkpt><trkpt lat="44.816393905613396" lon="4.697164767483874"><ele>139.25</ele><time>2026-04-25T08:47:58.039Z</time></trkpt><trkpt lat="44.81644945041571" lon="4.697011726223319"><ele>136.0</ele><time>2026-04-25T08:48:00.039Z</time></trkpt><trkpt lat="44.81651322582703" lon="4.696863983489201"><ele>136.0</ele><time>2026-04-25T08:48:02.039Z</time></trkpt><trkpt lat="44.81656997234548" lon="4.696717298360276"><ele>136.0</ele><time>2026-04-25T08:48:04.039Z</time></trkpt><trkpt lat="44.81662343567355" lon="4.696578118441189"><ele>136.0</ele><time>2026-04-25T08:48:06.039Z</time></trkpt><trkpt lat="44.81669313470379" lon="4.696429775430265"><ele>136.0</ele><time>2026-04-25T08:48:08.038Z</time></trkpt><trkpt lat="44.81672135226977" lon="4.69626451209874"><ele>136.0</ele><time>2026-04-25T08:48:10.038Z</time></trkpt><trkpt lat="44.81675239005091" lon="4.696107406156215"><ele>136.0</ele><time>2026-04-25T08:48:12.038Z</time></trkpt><trkpt lat="44.8167581287348" lon="4.696018646117583"><ele>136.0</ele><time>2026-04-25T08:48:13.038Z</time></trkpt><trkpt lat="44.81675409371697" lon="4.695877236133222"><ele>136.0</ele><time>2026-04-25T08:48:15.038Z</time></trkpt><trkpt lat="44.816770821691556" lon="4.695709657410406"><ele>136.0</ele><time>2026-04-25T08:48:17.038Z</time></trkpt><trkpt lat="44.8167899876697" lon="4.695541651865005"><ele>136.25</ele><time>2026-04-25T08:48:19.038Z</time></trkpt><trkpt lat="44.816828104209215" lon="4.695396837116113"><ele>136.5</ele><time>2026-04-25T08:48:21.038Z</time></trkpt><trkpt lat="44.81688250101584" lon="4.695251675058891"><ele>136.75</ele><time>2026-04-25T08:48:23.038Z</time></trkpt><trkpt lat="44.81693156611193" lon="4.695108162681683"><ele>137.0</ele><time>2026-04-25T08:48:25.038Z</time></trkpt><trkpt lat="44.81700270562509" lon="4.694961253496813"><ele>137.0</ele><time>2026-04-25T08:48:27.038Z</time></trkpt><trkpt lat="44.817043892079504" lon="4.694893347903423"><ele>137.0</ele><time>2026-04-25T08:48:28.038Z</time></trkpt><trkpt lat="44.81713673804091" lon="4.694780386622939"><ele>137.0</ele><time>2026-04-25T08:48:30.038Z</time></trkpt><trkpt lat="44.81723772087437" lon="4.6946856633090475"><ele>137.0</ele><time>2026-04-25T08:48:32.038Z</time></trkpt><trkpt lat="44.81734846865447" lon="4.6946087242280035"><ele>137.0</ele><time>2026-04-25T08:48:34.038Z</time></trkpt><trkpt lat="44.81745424801657" lon="4.694550282926583"><ele>137.0</ele><time>2026-04-25T08:48:36.038Z</time></trkpt><trkpt lat="44.81756878227047" lon="4.694497462108254"><ele>137.0</ele><time>2026-04-25T08:48:38.038Z</time></trkpt><trkpt lat="44.81767187661663" lon="4.694460679794711"><ele>137.0</ele><time>2026-04-25T08:48:40.038Z</time></trkpt><trkpt lat="44.81775548892739" lon="4.6944192270179474"><ele>137.0</ele><time>2026-04-25T08:48:42.038Z</time></trkpt><trkpt lat="44.817873625665726" lon="4.694384734327099"><ele>137.0</ele><time>2026-04-25T08:48:44.038Z</time></trkpt><trkpt lat="44.81798398580608" lon="4.694353251021338"><ele>138.4</ele><time>2026-04-25T08:48:46.038Z</time></trkpt><trkpt lat="44.81809958818566" lon="4.694323295928463"><ele>139.79999999999998</ele><time>2026-04-25T08:48:48.038Z</time></trkpt><trkpt lat="44.818212875722836" lon="4.69428497427025"><ele>141.2</ele><time>2026-04-25T08:48:50.038Z</time></trkpt><trkpt lat="44.81831261679576" lon="4.694251063953703"><ele>142.6</ele><time>2026-04-25T08:48:52.038Z</time></trkpt><trkpt lat="44.818410532993006" lon="4.694212152359658"><ele>144.0</ele><time>2026-04-25T08:48:54.038Z</time></trkpt><trkpt lat="44.81851532016047" lon="4.694184937882246"><ele>144.0</ele><time>2026-04-25T08:48:56.038Z</time></trkpt><trkpt lat="44.81861227224483" lon="4.694155591200989"><ele>144.0</ele><time>2026-04-25T08:48:58.038Z</time></trkpt><trkpt lat="44.818711142314605" lon="4.694129235194137"><ele>144.0</ele><time>2026-04-25T08:49:00.038Z</time></trkpt><trkpt lat="44.81880948288479" lon="4.6941042158562585"><ele>144.0</ele><time>2026-04-25T08:49:02.038Z</time></trkpt><trkpt lat="44.81891456872333" lon="4.69409532547917"><ele>144.0</ele><time>2026-04-25T08:49:04.039Z</time></trkpt><trkpt lat="44.81902232912057" lon="4.694091162013475"><ele>144.0</ele><time>2026-04-25T08:49:06.039Z</time></trkpt><trkpt lat="44.819116324178424" lon="4.694089692276672"><ele>144.0</ele><time>2026-04-25T08:49:08.039Z</time></trkpt><trkpt lat="44.819214617386805" lon="4.69410447442253"><ele>144.0</ele><time>2026-04-25T08:49:10.039Z</time></trkpt><trkpt lat="44.819316536092046" lon="4.6941074628128225"><ele>144.0</ele><time>2026-04-25T08:49:12.039Z</time></trkpt><trkpt lat="44.819408046433" lon="4.694136025648997"><ele>144.0</ele><time>2026-04-25T08:49:14.039Z</time></trkpt><trkpt lat="44.819512695693305" lon="4.694166375526839"><ele>144.8</ele><time>2026-04-25T08:49:16.039Z</time></trkpt><trkpt lat="44.81960895818126" lon="4.694211247206759"><ele>145.60000000000002</ele><time>2026-04-25T08:49:18.039Z</time></trkpt><trkpt lat="44.819702544984736" lon="4.694262248134587"><ele>146.4</ele><time>2026-04-25T08:49:20.039Z</time></trkpt><trkpt lat="44.8197889868776" lon="4.694319250237051"><ele>147.20000000000002</ele><time>2026-04-25T08:49:22.039Z</time></trkpt><trkpt lat="44.81987889029072" lon="4.694373422306705"><ele>148.0</ele><time>2026-04-25T08:49:24.039Z</time></trkpt><trkpt lat="44.819969137304895" lon="4.694437103439479"><ele>147.4</ele><time>2026-04-25T08:49:26.039Z</time></trkpt><trkpt lat="44.820061496730055" lon="4.69451019770799"><ele>146.8</ele><time>2026-04-25T08:49:28.039Z</time></trkpt><trkpt lat="44.82014645685556" lon="4.694600554318464"><ele>146.2</ele><time>2026-04-25T08:49:30.039Z</time></trkpt><trkpt lat="44.820228836866306" lon="4.69467785460066"><ele>145.6</ele><time>2026-04-25T08:49:32.039Z</time></trkpt><trkpt lat="44.82031653588262" lon="4.694766565059534"><ele>145.0</ele><time>2026-04-25T08:49:34.039Z</time></trkpt><trkpt lat="44.82039638870526" lon="4.69485562903372"><ele>145.0</ele><time>2026-04-25T08:49:36.039Z</time></trkpt><trkpt lat="44.82047608182109" lon="4.694935196408593"><ele>145.0</ele><time>2026-04-25T08:49:38.039Z</time></trkpt><trkpt lat="44.82056553037702" lon="4.6950198340482165"><ele>145.0</ele><time>2026-04-25T08:49:40.04Z</time></trkpt><trkpt lat="44.820647722771255" lon="4.6950946393290725"><ele>145.0</ele><time>2026-04-25T08:49:42.04Z</time></trkpt><trkpt lat="44.82071790360903" lon="4.6951748127367825"><ele>145.0</ele><time>2026-04-25T08:49:44.04Z</time></trkpt><trkpt lat="44.820806421075524" lon="4.695250153817718"><ele>145.4</ele><time>2026-04-25T08:49:46.04Z</time></trkpt><trkpt lat="44.82089125384848" lon="4.695331406603022"><ele>145.8</ele><time>2026-04-25T08:49:48.04Z</time></trkpt><trkpt lat="44.8209728497299" lon="4.695418807172274"><ele>146.2</ele><time>2026-04-25T08:49:50.04Z</time></trkpt><trkpt lat="44.8210574548938" lon="4.695505254420613"><ele>146.6</ele><time>2026-04-25T08:49:52.04Z</time></trkpt><trkpt lat="44.821145603403814" lon="4.695582522695273"><ele>147.0</ele><time>2026-04-25T08:49:54.04Z</time></trkpt><trkpt lat="44.82122904924009" lon="4.695651144886437"><ele>147.0</ele><time>2026-04-25T08:49:56.04Z</time></trkpt><trkpt lat="44.82132337394423" lon="4.695697512003836"><ele>147.0</ele><time>2026-04-25T08:49:58.04Z</time></trkpt><trkpt lat="44.821422857385464" lon="4.695743501435659"><ele>147.0</ele><time>2026-04-25T08:50:00.04Z</time></trkpt><trkpt lat="44.82152279339458" lon="4.695770414077926"><ele>147.0</ele><time>2026-04-25T08:50:02.04Z</time></trkpt><trkpt lat="44.82160390714541" lon="4.695785747504178"><ele>147.0</ele><time>2026-04-25T08:50:04.04Z</time></trkpt><trkpt lat="44.821702343946164" lon="4.69576402388974"><ele>147.0</ele><time>2026-04-25T08:50:06.04Z</time></trkpt><trkpt lat="44.821803745539434" lon="4.695767307906479"><ele>147.0</ele><time>2026-04-25T08:50:08.04Z</time></trkpt><trkpt lat="44.82191377494578" lon="4.695753757998735"><ele>147.0</ele><time>2026-04-25T08:50:10.04Z</time></trkpt><trkpt lat="44.821974038087944" lon="4.695722081564166"><ele>147.0</ele><time>2026-04-25T08:50:11.04Z</time></trkpt><trkpt lat="44.82208252303565" lon="4.695671572824467"><ele>147.0</ele><time>2026-04-25T08:50:13.04Z</time></trkpt><trkpt lat="44.82214315577363" lon="4.695640160970402"><ele>145.79999999999998</ele><time>2026-04-25T08:50:14.04Z</time></trkpt><trkpt lat="44.82223990970409" lon="4.695560358745404"><ele>144.6</ele><time>2026-04-25T08:50:16.04Z</time></trkpt><trkpt lat="44.82232961035095" lon="4.695481729783155"><ele>143.39999999999998</ele><time>2026-04-25T08:50:18.04Z</time></trkpt><trkpt lat="44.82240781446146" lon="4.695397805041149"><ele>142.2</ele><time>2026-04-25T08:50:20.04Z</time></trkpt><trkpt lat="44.82249168779021" lon="4.695316688683081"><ele>141.0</ele><time>2026-04-25T08:50:22.04Z</time></trkpt><trkpt lat="44.82257310175961" lon="4.695237692405607"><ele>141.0</ele><time>2026-04-25T08:50:24.04Z</time></trkpt><trkpt lat="44.822648059395604" lon="4.695169823960066"><ele>141.0</ele><time>2026-04-25T08:50:26.04Z</time></trkpt><trkpt lat="44.822735063551136" lon="4.695099552668083"><ele>141.0</ele><time>2026-04-25T08:50:28.04Z</time></trkpt><trkpt lat="44.82282632283591" lon="4.695023166566278"><ele>141.0</ele><time>2026-04-25T08:50:30.04Z</time></trkpt><trkpt lat="44.82291748631049" lon="4.694962472204456"><ele>141.0</ele><time>2026-04-25T08:50:32.04Z</time></trkpt><trkpt lat="44.82299995805007" lon="4.694867028684619"><ele>141.0</ele><time>2026-04-25T08:50:34.04Z</time></trkpt><trkpt lat="44.82307443837887" lon="4.694784620775751"><ele>141.0</ele><time>2026-04-25T08:50:36.04Z</time></trkpt><trkpt lat="44.823141325469194" lon="4.694680798693435"><ele>141.0</ele><time>2026-04-25T08:50:38.04Z</time></trkpt><trkpt lat="44.82321740544747" lon="4.694570507044037"><ele>141.0</ele><time>2026-04-25T08:50:40.04Z</time></trkpt><trkpt lat="44.82329197682797" lon="4.6944641976769255"><ele>141.0</ele><time>2026-04-25T08:50:42.04Z</time></trkpt><trkpt lat="44.823351423103865" lon="4.69435277773266"><ele>140.2</ele><time>2026-04-25T08:50:44.04Z</time></trkpt><trkpt lat="44.82342406956323" lon="4.6942285977688964"><ele>139.39999999999998</ele><time>2026-04-25T08:50:46.04Z</time></trkpt><trkpt lat="44.82349529780309" lon="4.69412605887724"><ele>138.6</ele><time>2026-04-25T08:50:48.04Z</time></trkpt><trkpt lat="44.82356241691269" lon="4.6940182612928965"><ele>137.79999999999998</ele><time>2026-04-25T08:50:50.04Z</time></trkpt><trkpt lat="44.82361773502383" lon="4.6939045308347005"><ele>137.0</ele><time>2026-04-25T08:50:52.04Z</time></trkpt><trkpt lat="44.82367181230166" lon="4.693786023376896"><ele>137.0</ele><time>2026-04-25T08:50:54.04Z</time></trkpt><trkpt lat="44.82373061479409" lon="4.6936661256130865"><ele>137.0</ele><time>2026-04-25T08:50:56.04Z</time></trkpt><trkpt lat="44.82379383811273" lon="4.693549763066483"><ele>137.0</ele><time>2026-04-25T08:50:58.04Z</time></trkpt><trkpt lat="44.8238506268885" lon="4.69343745484927"><ele>137.0</ele><time>2026-04-25T08:51:00.04Z</time></trkpt><trkpt lat="44.82389859041857" lon="4.6933086124482095"><ele>137.0</ele><time>2026-04-25T08:51:02.04Z</time></trkpt><trkpt lat="44.82395037740391" lon="4.693172118944859"><ele>138.6</ele><time>2026-04-25T08:51:04.041Z</time></trkpt><trkpt lat="44.82399137936331" lon="4.693038297668895"><ele>140.2</ele><time>2026-04-25T08:51:06.041Z</time></trkpt><trkpt lat="44.824037660190214" lon="4.69290476178024"><ele>141.8</ele><time>2026-04-25T08:51:08.041Z</time></trkpt><trkpt lat="44.82408065547665" lon="4.692772884318229"><ele>143.4</ele><time>2026-04-25T08:51:10.041Z</time></trkpt><trkpt lat="44.824119747488155" lon="4.692652698094843"><ele>145.0</ele><time>2026-04-25T08:51:12.041Z</time></trkpt><trkpt lat="44.82416111997654" lon="4.692524090454357"><ele>145.4</ele><time>2026-04-25T08:51:14.041Z</time></trkpt><trkpt lat="44.82419797657561" lon="4.692393034872853"><ele>145.8</ele><time>2026-04-25T08:51:16.041Z</time></trkpt><trkpt lat="44.82424623777993" lon="4.692262818328888"><ele>146.2</ele><time>2026-04-25T08:51:18.041Z</time></trkpt><trkpt lat="44.8242891052527" lon="4.692132654266266"><ele>146.6</ele><time>2026-04-25T08:51:20.041Z</time></trkpt><trkpt lat="44.82433411783593" lon="4.692001629970533"><ele>147.0</ele><time>2026-04-25T08:51:22.041Z</time></trkpt><trkpt lat="44.82437680142816" lon="4.691864433724523"><ele>145.79999999999998</ele><time>2026-04-25T08:51:24.041Z</time></trkpt><trkpt lat="44.824416953367034" lon="4.691727104467231"><ele>144.6</ele><time>2026-04-25T08:51:26.04Z</time></trkpt><trkpt lat="44.82445915560707" lon="4.69159134328756"><ele>143.39999999999998</ele><time>2026-04-25T08:51:28.04Z</time></trkpt><trkpt lat="44.82450325591418" lon="4.6914560563453165"><ele>142.2</ele><time>2026-04-25T08:51:30.041Z</time></trkpt><trkpt lat="44.82454472663222" lon="4.69132173903258"><ele>141.0</ele><time>2026-04-25T08:51:32.041Z</time></trkpt><trkpt lat="44.82458530208394" lon="4.691192478468737"><ele>142.4</ele><time>2026-04-25T08:51:34.041Z</time></trkpt><trkpt lat="44.824621531459975" lon="4.691058761307119"><ele>143.8</ele><time>2026-04-25T08:51:36.041Z</time></trkpt><trkpt lat="44.82467565424012" lon="4.690942558811207"><ele>145.20000000000002</ele><time>2026-04-25T08:51:38.041Z</time></trkpt><trkpt lat="44.82473891466342" lon="4.690822488322841"><ele>146.6</ele><time>2026-04-25T08:51:40.041Z</time></trkpt><trkpt lat="44.82480419023194" lon="4.690707147964693"><ele>148.0</ele><time>2026-04-25T08:51:42.042Z</time></trkpt><trkpt lat="44.8248733088227" lon="4.690598194903513"><ele>148.0</ele><time>2026-04-25T08:51:44.042Z</time></trkpt><trkpt lat="44.824946299724076" lon="4.690481835962495"><ele>148.0</ele><time>2026-04-25T08:51:46.042Z</time></trkpt><trkpt lat="44.82502289199218" lon="4.69037042233699"><ele>148.0</ele><time>2026-04-25T08:51:48.042Z</time></trkpt><trkpt lat="44.82509189423846" lon="4.690261352302468"><ele>148.0</ele><time>2026-04-25T08:51:50.042Z</time></trkpt><trkpt lat="44.82516813397657" lon="4.690146542377837"><ele>148.0</ele><time>2026-04-25T08:51:52.042Z</time></trkpt><trkpt lat="44.82523344929373" lon="4.690023794547684"><ele>145.25</ele><time>2026-04-25T08:51:54.042Z</time></trkpt><trkpt lat="44.82528915547256" lon="4.689890225905478"><ele>142.5</ele><time>2026-04-25T08:51:56.042Z</time></trkpt><trkpt lat="44.8253249484423" lon="4.689748366437648"><ele>139.75</ele><time>2026-04-25T08:51:58.042Z</time></trkpt><trkpt lat="44.8253652439322" lon="4.689576794034309"><ele>137.0</ele><time>2026-04-25T08:52:00.042Z</time></trkpt><trkpt lat="44.825384667408436" lon="4.68942897741095"><ele>137.0</ele><time>2026-04-25T08:52:02.042Z</time></trkpt><trkpt lat="44.825392456238255" lon="4.6892613564394425"><ele>137.0</ele><time>2026-04-25T08:52:04.042Z</time></trkpt><trkpt lat="44.82538410283284" lon="4.6891073104237115"><ele>137.0</ele><time>2026-04-25T08:52:06.042Z</time></trkpt><trkpt lat="44.82537720530229" lon="4.6889652715363175"><ele>137.0</ele><time>2026-04-25T08:52:08.042Z</time></trkpt><trkpt lat="44.8253458133376" lon="4.688811656019549"><ele>137.0</ele><time>2026-04-25T08:52:10.042Z</time></trkpt><trkpt lat="44.82531192556383" lon="4.688660431972921"><ele>136.79999999999998</ele><time>2026-04-25T08:52:12.042Z</time></trkpt><trkpt lat="44.82529532632711" lon="4.688513266578756"><ele>136.6</ele><time>2026-04-25T08:52:14.042Z</time></trkpt><trkpt lat="44.82526095493883" lon="4.688381336612275"><ele>136.39999999999998</ele><time>2026-04-25T08:52:16.042Z</time></trkpt><trkpt lat="44.82523197489736" lon="4.688222204383324"><ele>136.2</ele><time>2026-04-25T08:52:18.042Z</time></trkpt><trkpt lat="44.825205605085195" lon="4.688066707779576"><ele>136.0</ele><time>2026-04-25T08:52:20.042Z</time></trkpt><trkpt lat="44.825180565285116" lon="4.687898962867084"><ele>135.6</ele><time>2026-04-25T08:52:22.042Z</time></trkpt><trkpt lat="44.82519809851802" lon="4.687743227215483"><ele>135.2</ele><time>2026-04-25T08:52:24.042Z</time></trkpt><trkpt lat="44.82520319549296" lon="4.6876544462430205"><ele>134.8</ele><time>2026-04-25T08:52:25.042Z</time></trkpt><trkpt lat="44.825224023953524" lon="4.687491987669258"><ele>134.4</ele><time>2026-04-25T08:52:27.042Z</time></trkpt><trkpt lat="44.82524676440477" lon="4.687338303995264"><ele>134.0</ele><time>2026-04-25T08:52:29.042Z</time></trkpt><trkpt lat="44.825256631244585" lon="4.687173179458452"><ele>134.0</ele><time>2026-04-25T08:52:31.042Z</time></trkpt><trkpt lat="44.82527876278173" lon="4.687010610773297"><ele>134.0</ele><time>2026-04-25T08:52:33.042Z</time></trkpt><trkpt lat="44.825289101171265" lon="4.686841426867506"><ele>134.0</ele><time>2026-04-25T08:52:35.042Z</time></trkpt><trkpt lat="44.825286262559175" lon="4.686681790878686"><ele>134.0</ele><time>2026-04-25T08:52:37.042Z</time></trkpt><trkpt lat="44.82527863813397" lon="4.686540924466253"><ele>133.8</ele><time>2026-04-25T08:52:39.042Z</time></trkpt><trkpt lat="44.825233324691524" lon="4.686402022358048"><ele>133.60000000000002</ele><time>2026-04-25T08:52:41.042Z</time></trkpt><trkpt lat="44.8251958876404" lon="4.686262285006503"><ele>133.4</ele><time>2026-04-25T08:52:43.042Z</time></trkpt><trkpt lat="44.82515521648082" lon="4.686117530985337"><ele>133.20000000000002</ele><time>2026-04-25T08:52:45.042Z</time></trkpt><trkpt lat="44.8251072724137" lon="4.685973173835588"><ele>133.0</ele><time>2026-04-25T08:52:47.042Z</time></trkpt><trkpt lat="44.8250588295559" lon="4.68583831226499"><ele>138.20000000000002</ele><time>2026-04-25T08:52:49.042Z</time></trkpt><trkpt lat="44.82501159733953" lon="4.685695895032242"><ele>143.4</ele><time>2026-04-25T08:52:51.042Z</time></trkpt><trkpt lat="44.82497501493455" lon="4.685553590206087"><ele>148.60000000000002</ele><time>2026-04-25T08:52:53.042Z</time></trkpt><trkpt lat="44.82495846637448" lon="4.685397757708841"><ele>153.8</ele><time>2026-04-25T08:52:55.042Z</time></trkpt><trkpt lat="44.82494367206353" lon="4.685241868106749"><ele>159.0</ele><time>2026-04-25T08:52:57.042Z</time></trkpt><trkpt lat="44.82495195149522" lon="4.6850941349313775"><ele>159.0</ele><time>2026-04-25T08:52:59.042Z</time></trkpt><trkpt lat="44.824971781180594" lon="4.68493018158846"><ele>159.0</ele><time>2026-04-25T08:53:01.042Z</time></trkpt><trkpt lat="44.825024903683826" lon="4.6847871328793875"><ele>159.0</ele><time>2026-04-25T08:53:03.042Z</time></trkpt><trkpt lat="44.82505789004679" lon="4.684637529000358"><ele>159.0</ele><time>2026-04-25T08:53:05.043Z</time></trkpt><trkpt lat="44.82511745632996" lon="4.684498224310679"><ele>153.5</ele><time>2026-04-25T08:53:07.043Z</time></trkpt><trkpt lat="44.82519846383325" lon="4.684363195792129"><ele>148.0</ele><time>2026-04-25T08:53:09.043Z</time></trkpt><trkpt lat="44.8252723376292" lon="4.68422722869943"><ele>142.5</ele><time>2026-04-25T08:53:11.043Z</time></trkpt><trkpt lat="44.82534300064777" lon="4.684105266875813"><ele>137.0</ele><time>2026-04-25T08:53:13.043Z</time></trkpt><trkpt lat="44.82541095750622" lon="4.68398115108372"><ele>137.0</ele><time>2026-04-25T08:53:15.043Z</time></trkpt><trkpt lat="44.825485859632614" lon="4.6838676728773825"><ele>137.0</ele><time>2026-04-25T08:53:17.043Z</time></trkpt><trkpt lat="44.82554947284689" lon="4.6837323788449"><ele>137.0</ele><time>2026-04-25T08:53:19.043Z</time></trkpt><trkpt lat="44.82562038908787" lon="4.683599153876088"><ele>137.0</ele><time>2026-04-25T08:53:21.043Z</time></trkpt><trkpt lat="44.82568908834074" lon="4.683470621335094"><ele>139.25</ele><time>2026-04-25T08:53:23.043Z</time></trkpt><trkpt lat="44.82576263065451" lon="4.683342006415999"><ele>141.5</ele><time>2026-04-25T08:53:25.043Z</time></trkpt><trkpt lat="44.8258198840313" lon="4.683197993095239"><ele>143.75</ele><time>2026-04-25T08:53:27.043Z</time></trkpt><trkpt lat="44.825879438238445" lon="4.68305532876576"><ele>146.0</ele><time>2026-04-25T08:53:29.043Z</time></trkpt><trkpt lat="44.82593118718755" lon="4.682916861310993"><ele>145.8</ele><time>2026-04-25T08:53:31.043Z</time></trkpt><trkpt lat="44.825985330008905" lon="4.682781420336543"><ele>145.6</ele><time>2026-04-25T08:53:33.043Z</time></trkpt><trkpt lat="44.826039439613524" lon="4.682639615367564"><ele>145.4</ele><time>2026-04-25T08:53:35.043Z</time></trkpt><trkpt lat="44.826091747541525" lon="4.682500198881314"><ele>145.2</ele><time>2026-04-25T08:53:37.043Z</time></trkpt><trkpt lat="44.826135517142056" lon="4.682355850732279"><ele>145.0</ele><time>2026-04-25T08:53:39.043Z</time></trkpt><trkpt lat="44.82617635298433" lon="4.682203988735473"><ele>145.0</ele><time>2026-04-25T08:53:41.043Z</time></trkpt><trkpt lat="44.82622302856624" lon="4.682066536084272"><ele>145.0</ele><time>2026-04-25T08:53:43.043Z</time></trkpt><trkpt lat="44.82626072047567" lon="4.681920700379403"><ele>145.0</ele><time>2026-04-25T08:53:45.043Z</time></trkpt><trkpt lat="44.826303882199966" lon="4.68178101724302"><ele>145.0</ele><time>2026-04-25T08:53:47.043Z</time></trkpt><trkpt lat="44.82633913598853" lon="4.681645783334642"><ele>145.0</ele><time>2026-04-25T08:53:49.043Z</time></trkpt><trkpt lat="44.82636656300075" lon="4.681514162081878"><ele>145.4</ele><time>2026-04-25T08:53:51.043Z</time></trkpt><trkpt lat="44.82639104563066" lon="4.681369466329834"><ele>145.8</ele><time>2026-04-25T08:53:53.043Z</time></trkpt><trkpt lat="44.826390622875486" lon="4.681226927995218"><ele>146.2</ele><time>2026-04-25T08:53:55.043Z</time></trkpt><trkpt lat="44.82636798106704" lon="4.681089771738795"><ele>146.6</ele><time>2026-04-25T08:53:57.043Z</time></trkpt><trkpt lat="44.8263134144554" lon="4.680972667064373"><ele>147.0</ele><time>2026-04-25T08:53:59.043Z</time></trkpt><trkpt lat="44.826264147643656" lon="4.680877559244645"><ele>147.0</ele><time>2026-04-25T08:54:01.043Z</time></trkpt><trkpt lat="44.82622108621424" lon="4.680772355669233"><ele>147.0</ele><time>2026-04-25T08:54:03.043Z</time></trkpt><trkpt lat="44.82616044489451" lon="4.680669767511272"><ele>147.0</ele><time>2026-04-25T08:54:05.043Z</time></trkpt><trkpt lat="44.826106710021755" lon="4.68057231436498"><ele>147.0</ele><time>2026-04-25T08:54:07.043Z</time></trkpt><trkpt lat="44.826051395065285" lon="4.680476697233439"><ele>147.0</ele><time>2026-04-25T08:54:09.043Z</time></trkpt><trkpt lat="44.82599894723214" lon="4.680389923730423"><ele>147.0</ele><time>2026-04-25T08:54:11.043Z</time></trkpt><trkpt lat="44.825974512418654" lon="4.680293861529813"><ele>146.66666666666666</ele><time>2026-04-25T08:54:13.043Z</time></trkpt><trkpt lat="44.82599047737549" lon="4.680183020637437"><ele>146.33333333333334</ele><time>2026-04-25T08:54:15.043Z</time></trkpt><trkpt lat="44.82607340569738" lon="4.680102600320404"><ele>146.0</ele><time>2026-04-25T08:54:17.043Z</time></trkpt><trkpt lat="44.82615341666642" lon="4.680037320948709"><ele>145.66666666666669</ele><time>2026-04-25T08:54:19.043Z</time></trkpt><trkpt lat="44.826205582017764" lon="4.679961005888844"><ele>145.33333333333334</ele><time>2026-04-25T08:54:21.043Z</time></trkpt><trkpt lat="44.82620980182494" lon="4.6798587198379495"><ele>145.0</ele><time>2026-04-25T08:54:23.043Z</time></trkpt><trkpt lat="44.82623307521176" lon="4.679751815599675"><ele>145.0</ele><time>2026-04-25T08:54:26.043Z</time></trkpt><trkpt lat="44.826235149989635" lon="4.679633743196678"><ele>145.0</ele><time>2026-04-25T08:54:29.043Z</time></trkpt><trkpt lat="44.826241678829184" lon="4.679539418204454"><ele>145.0</ele><time>2026-04-25T08:54:31.043Z</time></trkpt><trkpt lat="44.826246183013836" lon="4.679420675195974"><ele>145.0</ele><time>2026-04-25T08:54:33.043Z</time></trkpt><trkpt lat="44.82625689137709" lon="4.6793016467652695"><ele>145.0</ele><time>2026-04-25T08:54:35.043Z</time></trkpt><trkpt lat="44.82626760473181" lon="4.679179003935624"><ele>145.0</ele><time>2026-04-25T08:54:37.043Z</time></trkpt><trkpt lat="44.82626221159767" lon="4.679063197565679"><ele>145.2</ele><time>2026-04-25T08:54:39.043Z</time></trkpt><trkpt lat="44.82627050913899" lon="4.6789386689309085"><ele>145.4</ele><time>2026-04-25T08:54:41.044Z</time></trkpt><trkpt lat="44.82625678784881" lon="4.678815670280884"><ele>145.6</ele><time>2026-04-25T08:54:43.044Z</time></trkpt><trkpt lat="44.82626289172158" lon="4.678686464601846"><ele>145.8</ele><time>2026-04-25T08:54:45.044Z</time></trkpt><trkpt lat="44.826264976168574" lon="4.678556125647039"><ele>146.0</ele><time>2026-04-25T08:54:47.044Z</time></trkpt><trkpt lat="44.8262634553892" lon="4.678430591794455"><ele>146.0</ele><time>2026-04-25T08:54:49.044Z</time></trkpt><trkpt lat="44.82626853786207" lon="4.678286619789204"><ele>146.0</ele><time>2026-04-25T08:54:51.044Z</time></trkpt><trkpt lat="44.82627057008383" lon="4.678148818099239"><ele>146.0</ele><time>2026-04-25T08:54:53.044Z</time></trkpt><trkpt lat="44.82627261388768" lon="4.678040802553921"><ele>146.0</ele><time>2026-04-25T08:54:55.044Z</time></trkpt><trkpt lat="44.82628024166594" lon="4.677952402572985"><ele>146.0</ele><time>2026-04-25T08:54:57.044Z</time></trkpt><trkpt lat="44.82629379661636" lon="4.677855584213024"><ele>146.0</ele><time>2026-04-25T08:55:00.044Z</time></trkpt><trkpt lat="44.826296653825715" lon="4.67773097451755"><ele>145.33333333333331</ele><time>2026-04-25T08:55:03.044Z</time></trkpt><trkpt lat="44.82629380041543" lon="4.677636645783515"><ele>144.66666666666666</ele><time>2026-04-25T08:55:05.044Z</time></trkpt><trkpt lat="44.82627347513288" lon="4.677519747163656"><ele>144.0</ele><time>2026-04-25T08:55:07.044Z</time></trkpt><trkpt lat="44.82625818443767" lon="4.677382461167276"><ele>143.33333333333334</ele><time>2026-04-25T08:55:09.044Z</time></trkpt><trkpt lat="44.8262409466285" lon="4.67726078019029"><ele>142.66666666666669</ele><time>2026-04-25T08:55:11.044Z</time></trkpt><trkpt lat="44.82622388328465" lon="4.677124779386675"><ele>142.0</ele><time>2026-04-25T08:55:13.044Z</time></trkpt><trkpt lat="44.8262087802167" lon="4.6769804653082705"><ele>141.79999999999998</ele><time>2026-04-25T08:55:15.044Z</time></trkpt><trkpt lat="44.82618060872223" lon="4.676836583836932"><ele>141.6</ele><time>2026-04-25T08:55:17.044Z</time></trkpt><trkpt lat="44.82616246846866" lon="4.6766973659627755"><ele>141.39999999999998</ele><time>2026-04-25T08:55:19.044Z</time></trkpt><trkpt lat="44.82615020330689" lon="4.676549880290544"><ele>141.2</ele><time>2026-04-25T08:55:21.044Z</time></trkpt><trkpt lat="44.82613968125862" lon="4.676405351627969"><ele>141.0</ele><time>2026-04-25T08:55:23.044Z</time></trkpt><trkpt lat="44.82612911936485" lon="4.676265070643151"><ele>141.0</ele><time>2026-04-25T08:55:25.044Z</time></trkpt><trkpt lat="44.82611197968264" lon="4.676123065770946"><ele>141.0</ele><time>2026-04-25T08:55:27.044Z</time></trkpt><trkpt lat="44.82608994198234" lon="4.675964320705993"><ele>141.0</ele><time>2026-04-25T08:55:29.044Z</time></trkpt><trkpt lat="44.8260665979268" lon="4.67581697757296"><ele>141.0</ele><time>2026-04-25T08:55:31.044Z</time></trkpt><trkpt lat="44.82603699655266" lon="4.675667425231943"><ele>141.0</ele><time>2026-04-25T08:55:33.045Z</time></trkpt><trkpt lat="44.82601798944869" lon="4.6755169512425425"><ele>144.0</ele><time>2026-04-25T08:55:35.045Z</time></trkpt><trkpt lat="44.8259710325861" lon="4.675388407636292"><ele>147.0</ele><time>2026-04-25T08:55:37.044Z</time></trkpt><trkpt lat="44.825935642599966" lon="4.675239805116875"><ele>150.0</ele><time>2026-04-25T08:55:39.044Z</time></trkpt><trkpt lat="44.82589625567279" lon="4.675098077405449"><ele>153.0</ele><time>2026-04-25T08:55:41.044Z</time></trkpt><trkpt lat="44.82586357913282" lon="4.674951654285866"><ele>156.0</ele><time>2026-04-25T08:55:43.044Z</time></trkpt><trkpt lat="44.82581923135605" lon="4.674792360324932"><ele>156.0</ele><time>2026-04-25T08:55:45.045Z</time></trkpt><trkpt lat="44.82578726813722" lon="4.674654274042617"><ele>156.0</ele><time>2026-04-25T08:55:47.045Z</time></trkpt><trkpt lat="44.82575573767403" lon="4.674488758525236"><ele>156.0</ele><time>2026-04-25T08:55:49.045Z</time></trkpt><trkpt lat="44.8257214322723" lon="4.674342388580356"><ele>156.0</ele><time>2026-04-25T08:55:51.045Z</time></trkpt><trkpt lat="44.82568299351672" lon="4.674183014487335"><ele>154.25</ele><time>2026-04-25T08:55:53.045Z</time></trkpt><trkpt lat="44.82563901911496" lon="4.674036805349238"><ele>152.5</ele><time>2026-04-25T08:55:55.045Z</time></trkpt><trkpt lat="44.82558201275078" lon="4.6738983182326965"><ele>150.75</ele><time>2026-04-25T08:55:57.045Z</time></trkpt><trkpt lat="44.82552056403299" lon="4.673768967828721"><ele>149.0</ele><time>2026-04-25T08:55:59.045Z</time></trkpt><trkpt lat="44.82544245583233" lon="4.673643944071366"><ele>147.2</ele><time>2026-04-25T08:56:01.045Z</time></trkpt><trkpt lat="44.8253593405214" lon="4.673528243099349"><ele>145.4</ele><time>2026-04-25T08:56:03.045Z</time></trkpt><trkpt lat="44.82527768063072" lon="4.673421194602302"><ele>143.6</ele><time>2026-04-25T08:56:05.045Z</time></trkpt><trkpt lat="44.82519324674927" lon="4.673322353153587"><ele>141.8</ele><time>2026-04-25T08:56:07.045Z</time></trkpt><trkpt lat="44.82511095748016" lon="4.673217126752211"><ele>140.0</ele><time>2026-04-25T08:56:09.045Z</time></trkpt><trkpt lat="44.825032980647855" lon="4.6731105207476915"><ele>141.6</ele><time>2026-04-25T08:56:11.045Z</time></trkpt><trkpt lat="44.82496717920189" lon="4.67299901055581"><ele>143.2</ele><time>2026-04-25T08:56:13.045Z</time></trkpt><trkpt lat="44.824900769274954" lon="4.672878876978997"><ele>144.8</ele><time>2026-04-25T08:56:15.045Z</time></trkpt><trkpt lat="44.82484660003264" lon="4.672755073364014"><ele>146.4</ele><time>2026-04-25T08:56:17.045Z</time></trkpt><trkpt lat="44.824792135980424" lon="4.672625035027163"><ele>148.0</ele><time>2026-04-25T08:56:19.045Z</time></trkpt><trkpt lat="44.82473770925027" lon="4.67249473273319"><ele>148.0</ele><time>2026-04-25T08:56:21.045Z</time></trkpt><trkpt lat="44.8246803349219" lon="4.672378290157395"><ele>148.0</ele><time>2026-04-25T08:56:23.045Z</time></trkpt><trkpt lat="44.824619759912245" lon="4.672254101113545"><ele>148.0</ele><time>2026-04-25T08:56:25.045Z</time></trkpt><trkpt lat="44.82457053140907" lon="4.672134439770633"><ele>148.0</ele><time>2026-04-25T08:56:27.045Z</time></trkpt><trkpt lat="44.82453669074406" lon="4.67205769406727"><ele>148.0</ele><time>2026-04-25T08:56:28.045Z</time></trkpt><trkpt lat="44.82448481368744" lon="4.67193131785608"><ele>146.8</ele><time>2026-04-25T08:56:30.045Z</time></trkpt><trkpt lat="44.82442934898667" lon="4.671797422838451"><ele>145.60000000000002</ele><time>2026-04-25T08:56:32.045Z</time></trkpt><trkpt lat="44.82437919316956" lon="4.671669743462595"><ele>144.39999999999998</ele><time>2026-04-25T08:56:34.045Z</time></trkpt><trkpt lat="44.824325671235584" lon="4.671536188011009"><ele>143.2</ele><time>2026-04-25T08:56:36.045Z</time></trkpt><trkpt lat="44.82427291996124" lon="4.6714078789497915"><ele>142.0</ele><time>2026-04-25T08:56:38.045Z</time></trkpt><trkpt lat="44.82421650016603" lon="4.671277816127093"><ele>143.4</ele><time>2026-04-25T08:56:40.045Z</time></trkpt><trkpt lat="44.82416542941061" lon="4.671149676958965"><ele>144.79999999999998</ele><time>2026-04-25T08:56:42.045Z</time></trkpt><trkpt lat="44.82411240750737" lon="4.67100905237977"><ele>146.2</ele><time>2026-04-25T08:56:44.045Z</time></trkpt><trkpt lat="44.82405143008401" lon="4.67088653410028"><ele>147.6</ele><time>2026-04-25T08:56:46.045Z</time></trkpt><trkpt lat="44.82399491358379" lon="4.670751888955188"><ele>149.0</ele><time>2026-04-25T08:56:48.045Z</time></trkpt><trkpt lat="44.82393727512883" lon="4.670624950435979"><ele>149.0</ele><time>2026-04-25T08:56:50.045Z</time></trkpt><trkpt lat="44.82388509520431" lon="4.670511085136995"><ele>149.0</ele><time>2026-04-25T08:56:52.046Z</time></trkpt><trkpt lat="44.82382622840523" lon="4.670388038939502"><ele>149.0</ele><time>2026-04-25T08:56:54.046Z</time></trkpt><trkpt lat="44.82376987956982" lon="4.670298943785709"><ele>149.0</ele><time>2026-04-25T08:56:56.046Z</time></trkpt><trkpt lat="44.82372663155612" lon="4.670217115545121"><ele>149.0</ele><time>2026-04-25T08:56:58.046Z</time></trkpt><trkpt lat="44.82367359804332" lon="4.670122177751626"><ele>149.0</ele><time>2026-04-25T08:57:00.046Z</time></trkpt><trkpt lat="44.82372755852186" lon="4.670208315270378"><ele>149.0</ele><time>2026-04-25T08:57:11.046Z</time></trkpt><trkpt lat="44.823779395826826" lon="4.670278180621652"><ele>149.0</ele><time>2026-04-25T09:05:43.052Z</time></trkpt><trkpt lat="44.82382151911723" lon="4.670347347740786"><ele>149.0</ele><time>2026-04-25T09:05:46.052Z</time></trkpt><trkpt lat="44.82385365971739" lon="4.670442335625654"><ele>149.0</ele><time>2026-04-25T09:05:49.052Z</time></trkpt><trkpt lat="44.82388066591918" lon="4.670526492937625"><ele>149.0</ele><time>2026-04-25T09:05:51.052Z</time></trkpt><trkpt lat="44.82390841658511" lon="4.670615575816202"><ele>149.0</ele><time>2026-04-25T09:05:53.052Z</time></trkpt><trkpt lat="44.82395149077578" lon="4.670727628552304"><ele>149.0</ele><time>2026-04-25T09:05:55.052Z</time></trkpt><trkpt lat="44.82400390701188" lon="4.670841435904002"><ele>149.0</ele><time>2026-04-25T09:05:57.052Z</time></trkpt><trkpt lat="44.824051730044545" lon="4.6709387438944985"><ele>149.0</ele><time>2026-04-25T09:05:59.052Z</time></trkpt><trkpt lat="44.82410249750025" lon="4.6710582508519485"><ele>149.0</ele><time>2026-04-25T09:06:01.052Z</time></trkpt><trkpt lat="44.82415707507862" lon="4.671172784432087"><ele>149.0</ele><time>2026-04-25T09:06:03.052Z</time></trkpt><trkpt lat="44.824198092081495" lon="4.671274229489729"><ele>149.0</ele><time>2026-04-25T09:06:05.053Z</time></trkpt><trkpt lat="44.82423077855772" lon="4.671355592119067"><ele>149.0</ele><time>2026-04-25T09:06:08.052Z</time></trkpt><trkpt lat="44.824272966822114" lon="4.671434713358582"><ele>148.83333333333331</ele><time>2026-04-25T09:06:11.052Z</time></trkpt><trkpt lat="44.82431180572959" lon="4.671515704367071"><ele>148.66666666666666</ele><time>2026-04-25T09:06:23.053Z</time></trkpt><trkpt lat="44.824367140345466" lon="4.671627053631301"><ele>148.5</ele><time>2026-04-25T09:06:26.053Z</time></trkpt><trkpt lat="44.824407449388566" lon="4.671713665100268"><ele>148.33333333333334</ele><time>2026-04-25T09:06:28.053Z</time></trkpt><trkpt lat="44.82445357665579" lon="4.671808711393291"><ele>148.16666666666669</ele><time>2026-04-25T09:06:30.053Z</time></trkpt><trkpt lat="44.82450039381513" lon="4.671925721133373"><ele>148.0</ele><time>2026-04-25T09:06:32.053Z</time></trkpt><trkpt lat="44.8245437556725" lon="4.672045280713605"><ele>148.0</ele><time>2026-04-25T09:06:34.053Z</time></trkpt><trkpt lat="44.82459525807841" lon="4.672160601199606"><ele>148.0</ele><time>2026-04-25T09:06:36.053Z</time></trkpt><trkpt lat="44.82464520291988" lon="4.672266676000475"><ele>148.0</ele><time>2026-04-25T09:06:38.053Z</time></trkpt><trkpt lat="44.82469492479619" lon="4.672388237952259"><ele>148.0</ele><time>2026-04-25T09:06:40.053Z</time></trkpt><trkpt lat="44.8247496284256" lon="4.672502903040631"><ele>148.0</ele><time>2026-04-25T09:06:42.053Z</time></trkpt><trkpt lat="44.82480841224798" lon="4.6726205040812125"><ele>148.0</ele><time>2026-04-25T09:06:44.053Z</time></trkpt><trkpt lat="44.8248513112036" lon="4.672738574742424"><ele>148.0</ele><time>2026-04-25T09:06:46.053Z</time></trkpt><trkpt lat="44.82490804122094" lon="4.672867949003681"><ele>148.0</ele><time>2026-04-25T09:06:48.053Z</time></trkpt><trkpt lat="44.82496823568505" lon="4.672986456907686"><ele>148.0</ele><time>2026-04-25T09:06:50.053Z</time></trkpt><trkpt lat="44.82503916536013" lon="4.673092100626622"><ele>148.0</ele><time>2026-04-25T09:06:52.053Z</time></trkpt><trkpt lat="44.825106461009355" lon="4.6731961035560765"><ele>148.20000000000002</ele><time>2026-04-25T09:06:54.053Z</time></trkpt><trkpt lat="44.82518133507616" lon="4.673292807919103"><ele>148.4</ele><time>2026-04-25T09:06:56.053Z</time></trkpt><trkpt lat="44.825263959391265" lon="4.673384623244942"><ele>148.60000000000002</ele><time>2026-04-25T09:06:58.053Z</time></trkpt><trkpt lat="44.82535811431524" lon="4.673478507812651"><ele>148.8</ele><time>2026-04-25T09:07:00.053Z</time></trkpt><trkpt lat="44.825431721928275" lon="4.673596240367381"><ele>149.0</ele><time>2026-04-25T09:07:02.053Z</time></trkpt><trkpt lat="44.82551436306518" lon="4.673723695515032"><ele>149.0</ele><time>2026-04-25T09:07:04.053Z</time></trkpt><trkpt lat="44.825579296925575" lon="4.6738512026101775"><ele>149.0</ele><time>2026-04-25T09:07:06.053Z</time></trkpt><trkpt lat="44.82563548044162" lon="4.673991364681835"><ele>149.0</ele><time>2026-04-25T09:07:08.053Z</time></trkpt><trkpt lat="44.825685273130325" lon="4.674142492687453"><ele>149.0</ele><time>2026-04-25T09:07:10.053Z</time></trkpt><trkpt lat="44.8257097777479" lon="4.674225866493209"><ele>149.0</ele><time>2026-04-25T09:07:11.053Z</time></trkpt><trkpt lat="44.825745725725184" lon="4.674368038342776"><ele>150.4</ele><time>2026-04-25T09:07:13.053Z</time></trkpt><trkpt lat="44.82578368959097" lon="4.6745161579250025"><ele>151.8</ele><time>2026-04-25T09:07:15.053Z</time></trkpt><trkpt lat="44.82580745669284" lon="4.674667870487573"><ele>153.2</ele><time>2026-04-25T09:07:17.053Z</time></trkpt><trkpt lat="44.82583013710864" lon="4.6747525301824675"><ele>154.6</ele><time>2026-04-25T09:07:18.053Z</time></trkpt><trkpt lat="44.82586663906575" lon="4.674901215937151"><ele>156.0</ele><time>2026-04-25T09:07:20.053Z</time></trkpt><trkpt lat="44.82590161320872" lon="4.675062577601656"><ele>156.0</ele><time>2026-04-25T09:07:22.053Z</time></trkpt><trkpt lat="44.825928627086014" lon="4.675205878529677"><ele>156.0</ele><time>2026-04-25T09:07:24.053Z</time></trkpt><trkpt lat="44.825966443028676" lon="4.675360321353027"><ele>156.0</ele><time>2026-04-25T09:07:26.053Z</time></trkpt><trkpt lat="44.826000899695174" lon="4.675510845146471"><ele>156.0</ele><time>2026-04-25T09:07:28.053Z</time></trkpt><trkpt lat="44.82604560479844" lon="4.675665699050161"><ele>152.25</ele><time>2026-04-25T09:07:30.053Z</time></trkpt><trkpt lat="44.82608022535822" lon="4.675820067580765"><ele>148.5</ele><time>2026-04-25T09:07:32.053Z</time></trkpt><trkpt lat="44.82610118591916" lon="4.675971748175635"><ele>144.75</ele><time>2026-04-25T09:07:34.053Z</time></trkpt><trkpt lat="44.82613850738863" lon="4.6761432008548285"><ele>141.0</ele><time>2026-04-25T09:07:36.053Z</time></trkpt><trkpt lat="44.826158792285916" lon="4.676285644557445"><ele>141.0</ele><time>2026-04-25T09:07:38.054Z</time></trkpt><trkpt lat="44.82615921973489" lon="4.6763797938299385"><ele>141.0</ele><time>2026-04-25T09:07:39.054Z</time></trkpt><trkpt lat="44.826165637272354" lon="4.676539707472848"><ele>141.0</ele><time>2026-04-25T09:07:41.054Z</time></trkpt><trkpt lat="44.82618102061023" lon="4.676691598041521"><ele>141.0</ele><time>2026-04-25T09:07:43.054Z</time></trkpt><trkpt lat="44.82618726030954" lon="4.676847465020677"><ele>141.0</ele><time>2026-04-25T09:07:45.054Z</time></trkpt><trkpt lat="44.82620460619775" lon="4.676995103115709"><ele>141.16666666666666</ele><time>2026-04-25T09:07:47.054Z</time></trkpt><trkpt lat="44.82622143154631" lon="4.6771349948641685"><ele>141.33333333333334</ele><time>2026-04-25T09:07:49.054Z</time></trkpt><trkpt lat="44.826240343794254" lon="4.677269008733268"><ele>141.5</ele><time>2026-04-25T09:07:51.054Z</time></trkpt><trkpt lat="44.82625798041475" lon="4.677394401712794"><ele>141.66666666666669</ele><time>2026-04-25T09:07:53.054Z</time></trkpt><trkpt lat="44.82627650330922" lon="4.677504640257586"><ele>141.83333333333334</ele><time>2026-04-25T09:07:55.054Z</time></trkpt><trkpt lat="44.826295634953055" lon="4.677600596286728"><ele>142.0</ele><time>2026-04-25T09:07:58.054Z</time></trkpt><trkpt lat="44.8262919400311" lon="4.677747197617096"><ele>142.79999999999998</ele><time>2026-04-25T09:08:01.054Z</time></trkpt><trkpt lat="44.82629842663581" lon="4.677878198928252"><ele>143.6</ele><time>2026-04-25T09:08:03.054Z</time></trkpt><trkpt lat="44.82629662196079" lon="4.678033059798883"><ele>144.39999999999998</ele><time>2026-04-25T09:08:05.054Z</time></trkpt><trkpt lat="44.82629966195676" lon="4.678178339668652"><ele>145.2</ele><time>2026-04-25T09:08:07.054Z</time></trkpt><trkpt lat="44.82628606582925" lon="4.678326941927921"><ele>146.0</ele><time>2026-04-25T09:08:09.054Z</time></trkpt><trkpt lat="44.82628437579752" lon="4.67847119848111"><ele>146.0</ele><time>2026-04-25T09:08:11.054Z</time></trkpt><trkpt lat="44.82628235873166" lon="4.678611324179308"><ele>146.0</ele><time>2026-04-25T09:08:13.054Z</time></trkpt><trkpt lat="44.82627755337027" lon="4.6787589438168515"><ele>146.0</ele><time>2026-04-25T09:08:15.054Z</time></trkpt><trkpt lat="44.826284824601196" lon="4.678908795712178"><ele>146.0</ele><time>2026-04-25T09:08:17.054Z</time></trkpt><trkpt lat="44.82627658622884" lon="4.679052169299105"><ele>146.0</ele><time>2026-04-25T09:08:19.054Z</time></trkpt><trkpt lat="44.826287965718784" lon="4.679200554375937"><ele>146.0</ele><time>2026-04-25T09:08:21.054Z</time></trkpt><trkpt lat="44.826291355539674" lon="4.679324984092679"><ele>146.0</ele><time>2026-04-25T09:08:23.054Z</time></trkpt><trkpt lat="44.82627668047253" lon="4.679462169332253"><ele>146.0</ele><time>2026-04-25T09:08:25.054Z</time></trkpt><trkpt lat="44.826264768276694" lon="4.679591991791917"><ele>146.0</ele><time>2026-04-25T09:08:27.054Z</time></trkpt><trkpt lat="44.82625266652483" lon="4.679729747398482"><ele>146.0</ele><time>2026-04-25T09:08:29.054Z</time></trkpt><trkpt lat="44.82623553418769" lon="4.6798599096412525"><ele>145.8</ele><time>2026-04-25T09:08:31.054Z</time></trkpt><trkpt lat="44.82618861068213" lon="4.679983776702085"><ele>145.6</ele><time>2026-04-25T09:08:33.054Z</time></trkpt><trkpt lat="44.82610886544757" lon="4.680042742250941"><ele>145.4</ele><time>2026-04-25T09:08:35.054Z</time></trkpt><trkpt lat="44.82601474509817" lon="4.680083005233387"><ele>145.2</ele><time>2026-04-25T09:08:37.054Z</time></trkpt><trkpt lat="44.82597970922513" lon="4.680193286838026"><ele>145.0</ele><time>2026-04-25T09:08:39.054Z</time></trkpt><trkpt lat="44.8259871590245" lon="4.680310459973156"><ele>145.4</ele><time>2026-04-25T09:08:41.054Z</time></trkpt><trkpt lat="44.82602956727961" lon="4.680421487944595"><ele>145.8</ele><time>2026-04-25T09:08:43.054Z</time></trkpt><trkpt lat="44.826087788029504" lon="4.680534898856945"><ele>146.2</ele><time>2026-04-25T09:08:45.054Z</time></trkpt><trkpt lat="44.82614006497831" lon="4.680628677353513"><ele>146.6</ele><time>2026-04-25T09:08:47.054Z</time></trkpt><trkpt lat="44.826205394256206" lon="4.680738777611662"><ele>147.0</ele><time>2026-04-25T09:08:49.054Z</time></trkpt><trkpt lat="44.82626510791112" lon="4.680858817420233"><ele>147.0</ele><time>2026-04-25T09:08:51.054Z</time></trkpt><trkpt lat="44.826329863591816" lon="4.6809751252509155"><ele>147.0</ele><time>2026-04-25T09:08:53.054Z</time></trkpt><trkpt lat="44.82636944293929" lon="4.68112202743268"><ele>147.0</ele><time>2026-04-25T09:08:55.054Z</time></trkpt><trkpt lat="44.82639669751818" lon="4.681270684405415"><ele>147.0</ele><time>2026-04-25T09:08:57.054Z</time></trkpt><trkpt lat="44.826388815687324" lon="4.681421966472183"><ele>147.0</ele><time>2026-04-25T09:08:59.054Z</time></trkpt><trkpt lat="44.826365557879804" lon="4.681565518798017"><ele>147.2</ele><time>2026-04-25T09:09:01.054Z</time></trkpt><trkpt lat="44.82630755272113" lon="4.681691936398364"><ele>147.39999999999998</ele><time>2026-04-25T09:09:03.054Z</time></trkpt><trkpt lat="44.82628085809387" lon="4.6818399341776"><ele>147.60000000000002</ele><time>2026-04-25T09:09:05.054Z</time></trkpt><trkpt lat="44.82624558162547" lon="4.681983376862077"><ele>147.8</ele><time>2026-04-25T09:09:07.054Z</time></trkpt><trkpt lat="44.826203609691106" lon="4.682123256549545"><ele>148.0</ele><time>2026-04-25T09:09:09.054Z</time></trkpt><trkpt lat="44.82616332455338" lon="4.682262666474379"><ele>147.5</ele><time>2026-04-25T09:09:11.054Z</time></trkpt><trkpt lat="44.826114759362476" lon="4.682402738755854"><ele>147.0</ele><time>2026-04-25T09:09:13.054Z</time></trkpt><trkpt lat="44.82606745748236" lon="4.68255505847285"><ele>146.5</ele><time>2026-04-25T09:09:15.054Z</time></trkpt><trkpt lat="44.826010184464735" lon="4.682694368922578"><ele>146.0</ele><time>2026-04-25T09:09:17.054Z</time></trkpt><trkpt lat="44.82595138310436" lon="4.6828383986907784"><ele>146.0</ele><time>2026-04-25T09:09:19.054Z</time></trkpt><trkpt lat="44.825890359773574" lon="4.682960322095574"><ele>146.0</ele><time>2026-04-25T09:09:21.054Z</time></trkpt><trkpt lat="44.825837669024146" lon="4.683106518194343"><ele>146.0</ele><time>2026-04-25T09:09:23.054Z</time></trkpt><trkpt lat="44.82577783553658" lon="4.683231596442116"><ele>146.0</ele><time>2026-04-25T09:09:25.054Z</time></trkpt><trkpt lat="44.825705251062" lon="4.683349390619224"><ele>146.0</ele><time>2026-04-25T09:09:27.054Z</time></trkpt><trkpt lat="44.82565830836057" lon="4.683475199913346"><ele>143.75</ele><time>2026-04-25T09:09:29.054Z</time></trkpt><trkpt lat="44.82558994928034" lon="4.683614579009315"><ele>141.5</ele><time>2026-04-25T09:09:31.054Z</time></trkpt><trkpt lat="44.82552065872593" lon="4.683734093686512"><ele>139.25</ele><time>2026-04-25T09:09:33.055Z</time></trkpt><trkpt lat="44.82545435612859" lon="4.683878705792978"><ele>137.0</ele><time>2026-04-25T09:09:35.055Z</time></trkpt><trkpt lat="44.82538391655066" lon="4.683994089362908"><ele>137.0</ele><time>2026-04-25T09:09:37.055Z</time></trkpt><trkpt lat="44.82532258879196" lon="4.684122841096879"><ele>137.0</ele><time>2026-04-25T09:09:39.055Z</time></trkpt><trkpt lat="44.82527762412751" lon="4.684185218627498"><ele>137.0</ele><time>2026-04-25T09:09:40.055Z</time></trkpt><trkpt lat="44.82519694679638" lon="4.6843131548625685"><ele>137.0</ele><time>2026-04-25T09:09:42.055Z</time></trkpt><trkpt lat="44.82513428325739" lon="4.68444102904585"><ele>137.0</ele><time>2026-04-25T09:09:44.055Z</time></trkpt><trkpt lat="44.82508920104386" lon="4.684571197147613"><ele>142.5</ele><time>2026-04-25T09:09:46.055Z</time></trkpt><trkpt lat="44.82503999866539" lon="4.684714887209206"><ele>148.0</ele><time>2026-04-25T09:09:48.055Z</time></trkpt><trkpt lat="44.825008622243956" lon="4.684869748394928"><ele>153.5</ele><time>2026-04-25T09:09:50.055Z</time></trkpt><trkpt lat="44.82497420098379" lon="4.685030252750652"><ele>159.0</ele><time>2026-04-25T09:09:52.055Z</time></trkpt><trkpt lat="44.82497085157226" lon="4.685198536359238"><ele>160.4</ele><time>2026-04-25T09:09:54.055Z</time></trkpt><trkpt lat="44.824985571275334" lon="4.685366484882385"><ele>161.8</ele><time>2026-04-25T09:09:56.055Z</time></trkpt><trkpt lat="44.825009100565474" lon="4.68552171620289"><ele>163.20000000000002</ele><time>2026-04-25T09:09:58.055Z</time></trkpt><trkpt lat="44.82503047639156" lon="4.685671502391528"><ele>164.60000000000002</ele><time>2026-04-25T09:10:00.055Z</time></trkpt><trkpt lat="44.82507245303042" lon="4.685812004606986"><ele>166.0</ele><time>2026-04-25T09:10:02.055Z</time></trkpt><trkpt lat="44.82512709687654" lon="4.685955556367641"><ele>157.75</ele><time>2026-04-25T09:10:04.055Z</time></trkpt><trkpt lat="44.825184400299364" lon="4.6861091218797535"><ele>149.5</ele><time>2026-04-25T09:10:06.055Z</time></trkpt><trkpt lat="44.8252254826567" lon="4.6862565868587645"><ele>141.25</ele><time>2026-04-25T09:10:08.055Z</time></trkpt><trkpt lat="44.82526314267072" lon="4.686409581363794"><ele>133.0</ele><time>2026-04-25T09:10:10.055Z</time></trkpt><trkpt lat="44.82529343552264" lon="4.686561325340509"><ele>133.0</ele><time>2026-04-25T09:10:12.055Z</time></trkpt><trkpt lat="44.8252961967961" lon="4.686727398603108"><ele>133.0</ele><time>2026-04-25T09:10:14.056Z</time></trkpt><trkpt lat="44.82528575702833" lon="4.686894773298285"><ele>133.0</ele><time>2026-04-25T09:10:16.055Z</time></trkpt><trkpt lat="44.8252693568637" lon="4.687059250316865"><ele>133.0</ele><time>2026-04-25T09:10:18.055Z</time></trkpt><trkpt lat="44.82525365693355" lon="4.687213723526107"><ele>133.20000000000002</ele><time>2026-04-25T09:10:20.056Z</time></trkpt><trkpt lat="44.825235131256335" lon="4.6873677357429475"><ele>133.4</ele><time>2026-04-25T09:10:22.056Z</time></trkpt><trkpt lat="44.825207304973695" lon="4.687515968329577"><ele>133.60000000000002</ele><time>2026-04-25T09:10:24.055Z</time></trkpt><trkpt lat="44.825190509009914" lon="4.687669758653112"><ele>133.8</ele><time>2026-04-25T09:10:26.056Z</time></trkpt><trkpt lat="44.82518574230706" lon="4.687824075656447"><ele>134.0</ele><time>2026-04-25T09:10:28.055Z</time></trkpt><trkpt lat="44.82520195619164" lon="4.6879881391257845"><ele>134.4</ele><time>2026-04-25T09:10:30.055Z</time></trkpt><trkpt lat="44.825216545216854" lon="4.688134339103435"><ele>134.8</ele><time>2026-04-25T09:10:32.055Z</time></trkpt><trkpt lat="44.82525028337198" lon="4.688278664007922"><ele>135.2</ele><time>2026-04-25T09:10:34.055Z</time></trkpt><trkpt lat="44.825273855685325" lon="4.688422782516036"><ele>135.6</ele><time>2026-04-25T09:10:36.055Z</time></trkpt><trkpt lat="44.82530103948653" lon="4.688554224446475"><ele>136.0</ele><time>2026-04-25T09:10:38.055Z</time></trkpt><trkpt lat="44.8253348734046" lon="4.68868953777943"><ele>136.25</ele><time>2026-04-25T09:10:40.055Z</time></trkpt><trkpt lat="44.82535474676743" lon="4.688838486626606"><ele>136.5</ele><time>2026-04-25T09:10:42.056Z</time></trkpt><trkpt lat="44.82537110226815" lon="4.689004457009314"><ele>136.75</ele><time>2026-04-25T09:10:44.056Z</time></trkpt><trkpt lat="44.82536741685492" lon="4.689167180418044"><ele>137.0</ele><time>2026-04-25T09:10:46.056Z</time></trkpt><trkpt lat="44.82536742052405" lon="4.689324679318976"><ele>137.0</ele><time>2026-04-25T09:10:48.056Z</time></trkpt><trkpt lat="44.82537112425098" lon="4.6894146768115395"><ele>137.0</ele><time>2026-04-25T09:10:49.056Z</time></trkpt><trkpt lat="44.82535061742415" lon="4.689573520065678"><ele>137.0</ele><time>2026-04-25T09:10:51.056Z</time></trkpt><trkpt lat="44.82532149090996" lon="4.689709503687897"><ele>137.0</ele><time>2026-04-25T09:10:53.056Z</time></trkpt><trkpt lat="44.82527413204861" lon="4.689847593203148"><ele>137.0</ele><time>2026-04-25T09:10:55.056Z</time></trkpt><trkpt lat="44.825216400508644" lon="4.689984246652563"><ele>137.0</ele><time>2026-04-25T09:10:57.056Z</time></trkpt><trkpt lat="44.825150773955095" lon="4.690113775008644"><ele>137.0</ele><time>2026-04-25T09:10:59.056Z</time></trkpt><trkpt lat="44.825067647744014" lon="4.690228922704672"><ele>137.0</ele><time>2026-04-25T09:11:01.056Z</time></trkpt><trkpt lat="44.825002613337496" lon="4.690366262762967"><ele>137.0</ele><time>2026-04-25T09:11:03.056Z</time></trkpt><trkpt lat="44.8249179766867" lon="4.690483666443639"><ele>137.79999999999998</ele><time>2026-04-25T09:11:05.056Z</time></trkpt><trkpt lat="44.82484536148433" lon="4.690603185158925"><ele>138.6</ele><time>2026-04-25T09:11:07.056Z</time></trkpt><trkpt lat="44.824774192616935" lon="4.690726429501187"><ele>139.39999999999998</ele><time>2026-04-25T09:11:09.056Z</time></trkpt><trkpt lat="44.8247033666979" lon="4.69084066095291"><ele>140.2</ele><time>2026-04-25T09:11:11.056Z</time></trkpt><trkpt lat="44.82464739719197" lon="4.69097126365303"><ele>141.0</ele><time>2026-04-25T09:11:13.056Z</time></trkpt><trkpt lat="44.824596489922" lon="4.691102438034847"><ele>141.0</ele><time>2026-04-25T09:11:15.056Z</time></trkpt><trkpt lat="44.824558887314126" lon="4.691230507011222"><ele>141.0</ele><time>2026-04-25T09:11:17.056Z</time></trkpt><trkpt lat="44.82451368045069" lon="4.691371013983702"><ele>141.0</ele><time>2026-04-25T09:11:19.056Z</time></trkpt><trkpt lat="44.824466218159344" lon="4.691518915041764"><ele>141.0</ele><time>2026-04-25T09:11:21.056Z</time></trkpt><trkpt lat="44.82442966158642" lon="4.691653244399348"><ele>141.0</ele><time>2026-04-25T09:11:23.056Z</time></trkpt><trkpt lat="44.824385940860154" lon="4.691792982375024"><ele>140.6</ele><time>2026-04-25T09:11:25.056Z</time></trkpt><trkpt lat="44.824345345309794" lon="4.691930989886547"><ele>140.2</ele><time>2026-04-25T09:11:27.056Z</time></trkpt><trkpt lat="44.824296631290906" lon="4.69207255914996"><ele>139.8</ele><time>2026-04-25T09:11:29.056Z</time></trkpt><trkpt lat="44.82426033065445" lon="4.69221202613306"><ele>139.4</ele><time>2026-04-25T09:11:31.056Z</time></trkpt><trkpt lat="44.82421652310615" lon="4.692348091573376"><ele>139.0</ele><time>2026-04-25T09:11:33.056Z</time></trkpt><trkpt lat="44.82416979412024" lon="4.692495343109893"><ele>140.2</ele><time>2026-04-25T09:11:35.056Z</time></trkpt><trkpt lat="44.824125107584486" lon="4.692632522157435"><ele>141.4</ele><time>2026-04-25T09:11:37.056Z</time></trkpt><trkpt lat="44.82409113280411" lon="4.692783501255596"><ele>142.6</ele><time>2026-04-25T09:11:39.056Z</time></trkpt><trkpt lat="44.82404411140003" lon="4.692908347938502"><ele>143.8</ele><time>2026-04-25T09:11:41.056Z</time></trkpt><trkpt lat="44.824003576247485" lon="4.693061278528936"><ele>145.0</ele><time>2026-04-25T09:11:43.056Z</time></trkpt><trkpt lat="44.823966251378" lon="4.693205420109176"><ele>145.0</ele><time>2026-04-25T09:11:45.056Z</time></trkpt><trkpt lat="44.823916928720685" lon="4.6933533399466745"><ele>145.0</ele><time>2026-04-25T09:11:47.056Z</time></trkpt><trkpt lat="44.82387160474966" lon="4.693476543220405"><ele>145.0</ele><time>2026-04-25T09:11:49.056Z</time></trkpt><trkpt lat="44.823819892399946" lon="4.693616167789584"><ele>145.0</ele><time>2026-04-25T09:11:51.056Z</time></trkpt><trkpt lat="44.8237566115762" lon="4.693748263306133"><ele>145.0</ele><time>2026-04-25T09:11:53.056Z</time></trkpt><trkpt lat="44.82370523779125" lon="4.693875797662992"><ele>144.2</ele><time>2026-04-25T09:11:55.056Z</time></trkpt><trkpt lat="44.82363704036988" lon="4.694003291689481"><ele>143.4</ele><time>2026-04-25T09:11:57.056Z</time></trkpt><trkpt lat="44.82357238626275" lon="4.694116709699483"><ele>142.6</ele><time>2026-04-25T09:11:59.056Z</time></trkpt><trkpt lat="44.823493301446355" lon="4.694232251280554"><ele>141.8</ele><time>2026-04-25T09:12:01.056Z</time></trkpt><trkpt lat="44.823449840392755" lon="4.694347991146904"><ele>141.0</ele><time>2026-04-25T09:12:03.056Z</time></trkpt><trkpt lat="44.82337183634375" lon="4.694467239745102"><ele>141.0</ele><time>2026-04-25T09:12:05.057Z</time></trkpt><trkpt lat="44.82328869367046" lon="4.6945719817790925"><ele>141.0</ele><time>2026-04-25T09:12:07.057Z</time></trkpt><trkpt lat="44.823203330182274" lon="4.694680296522131"><ele>141.0</ele><time>2026-04-25T09:12:09.057Z</time></trkpt><trkpt lat="44.823112999499536" lon="4.694790149318855"><ele>141.0</ele><time>2026-04-25T09:12:11.057Z</time></trkpt><trkpt lat="44.82303185516253" lon="4.694886316750663"><ele>141.0</ele><time>2026-04-25T09:12:13.057Z</time></trkpt><trkpt lat="44.822975908096076" lon="4.694934902585472"><ele>141.0</ele><time>2026-04-25T09:12:14.057Z</time></trkpt><trkpt lat="44.82287513766624" lon="4.695024044968369"><ele>141.0</ele><time>2026-04-25T09:12:16.057Z</time></trkpt><trkpt lat="44.82278510299977" lon="4.695122134548523"><ele>141.0</ele><time>2026-04-25T09:12:18.057Z</time></trkpt><trkpt lat="44.82268745879077" lon="4.695201181306497"><ele>141.0</ele><time>2026-04-25T09:12:20.057Z</time></trkpt><trkpt lat="44.82258908612257" lon="4.695289176405652"><ele>141.0</ele><time>2026-04-25T09:12:22.057Z</time></trkpt><trkpt lat="44.82248997376012" lon="4.695378502701449"><ele>141.0</ele><time>2026-04-25T09:12:24.056Z</time></trkpt><trkpt lat="44.822392098236215" lon="4.6954566269193645"><ele>141.0</ele><time>2026-04-25T09:12:26.057Z</time></trkpt><trkpt lat="44.82232154729803" lon="4.695523671743866"><ele>141.0</ele><time>2026-04-25T09:12:28.057Z</time></trkpt><trkpt lat="44.822243265661534" lon="4.6955870541393105"><ele>141.0</ele><time>2026-04-25T09:12:30.057Z</time></trkpt><trkpt lat="44.82215450139954" lon="4.695656280812194"><ele>141.0</ele><time>2026-04-25T09:12:32.057Z</time></trkpt><trkpt lat="44.822061239085286" lon="4.6957126682376344"><ele>141.0</ele><time>2026-04-25T09:12:34.057Z</time></trkpt><trkpt lat="44.821980228586376" lon="4.695753911556501"><ele>141.0</ele><time>2026-04-25T09:12:36.057Z</time></trkpt><trkpt lat="44.821898983171664" lon="4.695768739092145"><ele>141.0</ele><time>2026-04-25T09:12:38.057Z</time></trkpt><trkpt lat="44.82182809274677" lon="4.695781272201302"><ele>141.0</ele><time>2026-04-25T09:12:40.057Z</time></trkpt><trkpt lat="44.82175535731251" lon="4.695785379750673"><ele>141.0</ele><time>2026-04-25T09:12:42.057Z</time></trkpt><trkpt lat="44.82168355683004" lon="4.6957850962498116"><ele>142.0</ele><time>2026-04-25T09:12:44.057Z</time></trkpt><trkpt lat="44.821611055856295" lon="4.695779168288455"><ele>143.0</ele><time>2026-04-25T09:12:46.057Z</time></trkpt><trkpt lat="44.82154759120772" lon="4.695772443076776"><ele>144.0</ele><time>2026-04-25T09:12:48.057Z</time></trkpt><trkpt lat="44.821462992710224" lon="4.695754441389872"><ele>145.0</ele><time>2026-04-25T09:12:50.057Z</time></trkpt><trkpt lat="44.82136673744997" lon="4.695730844875141"><ele>146.0</ele><time>2026-04-25T09:12:52.057Z</time></trkpt><trkpt lat="44.82127811731085" lon="4.695689549810767"><ele>147.0</ele><time>2026-04-25T09:12:54.057Z</time></trkpt><trkpt lat="44.82119541793171" lon="4.695628947148123"><ele>147.0</ele><time>2026-04-25T09:12:56.057Z</time></trkpt><trkpt lat="44.82111202487583" lon="4.695546153685744"><ele>147.0</ele><time>2026-04-25T09:12:58.057Z</time></trkpt><trkpt lat="44.82102882821338" lon="4.695456198368769"><ele>147.0</ele><time>2026-04-25T09:13:00.057Z</time></trkpt><trkpt lat="44.820947925864644" lon="4.695368379816535"><ele>147.0</ele><time>2026-04-25T09:13:02.057Z</time></trkpt><trkpt lat="44.820866333385155" lon="4.69529107106482"><ele>147.0</ele><time>2026-04-25T09:13:04.057Z</time></trkpt><trkpt lat="44.82078259806443" lon="4.695207484508772"><ele>146.6</ele><time>2026-04-25T09:13:06.057Z</time></trkpt><trkpt lat="44.820696293074676" lon="4.69512919566066"><ele>146.2</ele><time>2026-04-25T09:13:08.057Z</time></trkpt><trkpt lat="44.82061139097385" lon="4.695040659411866"><ele>145.8</ele><time>2026-04-25T09:13:10.057Z</time></trkpt><trkpt lat="44.82052683076935" lon="4.694952706430465"><ele>145.4</ele><time>2026-04-25T09:13:12.057Z</time></trkpt><trkpt lat="44.82043440802795" lon="4.694863357919423"><ele>145.0</ele><time>2026-04-25T09:13:14.057Z</time></trkpt><trkpt lat="44.82034227425369" lon="4.694771077894736"><ele>145.0</ele><time>2026-04-25T09:13:16.057Z</time></trkpt><trkpt lat="44.820250641374415" lon="4.694672419291217"><ele>145.0</ele><time>2026-04-25T09:13:18.057Z</time></trkpt><trkpt lat="44.820159608111034" lon="4.694580804662615"><ele>145.0</ele><time>2026-04-25T09:13:20.057Z</time></trkpt><trkpt lat="44.82007272914992" lon="4.6944865575272265"><ele>145.0</ele><time>2026-04-25T09:13:22.057Z</time></trkpt><trkpt lat="44.81997008569393" lon="4.694411340815362"><ele>145.6</ele><time>2026-04-25T09:13:24.057Z</time></trkpt><trkpt lat="44.81987412463005" lon="4.694343805730527"><ele>146.2</ele><time>2026-04-25T09:13:26.057Z</time></trkpt><trkpt lat="44.81977470518509" lon="4.6942791392157215"><ele>146.8</ele><time>2026-04-25T09:13:28.058Z</time></trkpt><trkpt lat="44.81968048549466" lon="4.694228122532923"><ele>147.4</ele><time>2026-04-25T09:13:30.058Z</time></trkpt><trkpt lat="44.819585336776946" lon="4.69418969404822"><ele>148.0</ele><time>2026-04-25T09:13:32.058Z</time></trkpt><trkpt lat="44.81948320978379" lon="4.694156915862422"><ele>148.0</ele><time>2026-04-25T09:13:34.058Z</time></trkpt><trkpt lat="44.8193797455825" lon="4.69413425392317"><ele>148.0</ele><time>2026-04-25T09:13:36.058Z</time></trkpt><trkpt lat="44.81927179663696" lon="4.694109470223256"><ele>148.0</ele><time>2026-04-25T09:13:38.058Z</time></trkpt><trkpt lat="44.819168645410485" lon="4.694099970850283"><ele>148.0</ele><time>2026-04-25T09:13:40.058Z</time></trkpt><trkpt lat="44.81907006444154" lon="4.694084049767258"><ele>148.0</ele><time>2026-04-25T09:13:42.058Z</time></trkpt><trkpt lat="44.81897398024238" lon="4.694113522891615"><ele>148.0</ele><time>2026-04-25T09:13:44.058Z</time></trkpt><trkpt lat="44.81886524441113" lon="4.694118460453869"><ele>148.0</ele><time>2026-04-25T09:13:46.058Z</time></trkpt><trkpt lat="44.8187555932306" lon="4.69413818432179"><ele>148.0</ele><time>2026-04-25T09:13:48.058Z</time></trkpt><trkpt lat="44.818647234999254" lon="4.694171303645547"><ele>148.0</ele><time>2026-04-25T09:13:50.058Z</time></trkpt><trkpt lat="44.81853475759618" lon="4.69421179654077"><ele>148.0</ele><time>2026-04-25T09:13:52.058Z</time></trkpt><trkpt lat="44.81843134084608" lon="4.69424853319589"><ele>148.0</ele><time>2026-04-25T09:13:54.058Z</time></trkpt><trkpt lat="44.81832441630183" lon="4.694283389700356"><ele>148.0</ele><time>2026-04-25T09:13:56.058Z</time></trkpt><trkpt lat="44.818214635979864" lon="4.694337380966436"><ele>148.0</ele><time>2026-04-25T09:13:58.058Z</time></trkpt><trkpt lat="44.818106547997736" lon="4.69436425705892"><ele>148.0</ele><time>2026-04-25T09:14:00.058Z</time></trkpt><trkpt lat="44.81799553077599" lon="4.694394762829553"><ele>148.0</ele><time>2026-04-25T09:14:02.058Z</time></trkpt><trkpt lat="44.81788374629499" lon="4.694432397945128"><ele>145.25</ele><time>2026-04-25T09:14:04.058Z</time></trkpt><trkpt lat="44.8177743158093" lon="4.694460442464039"><ele>142.5</ele><time>2026-04-25T09:14:06.058Z</time></trkpt><trkpt lat="44.817662293578536" lon="4.694508334074555"><ele>139.75</ele><time>2026-04-25T09:14:08.058Z</time></trkpt><trkpt lat="44.81756011742346" lon="4.69454358787272"><ele>137.0</ele><time>2026-04-25T09:14:10.058Z</time></trkpt><trkpt lat="44.817439657964144" lon="4.69458079872187"><ele>137.0</ele><time>2026-04-25T09:14:12.058Z</time></trkpt><trkpt lat="44.81734079149437" lon="4.694642093703589"><ele>137.0</ele><time>2026-04-25T09:14:14.058Z</time></trkpt><trkpt lat="44.81724087168461" lon="4.694694276816469"><ele>137.0</ele><time>2026-04-25T09:14:16.058Z</time></trkpt><trkpt lat="44.8171527663826" lon="4.694787375165129"><ele>137.0</ele><time>2026-04-25T09:14:18.058Z</time></trkpt><trkpt lat="44.8170690955534" lon="4.694891320547789"><ele>137.0</ele><time>2026-04-25T09:14:20.058Z</time></trkpt><trkpt lat="44.81699891335891" lon="4.695005539978214"><ele>137.0</ele><time>2026-04-25T09:14:22.058Z</time></trkpt><trkpt lat="44.816938456474105" lon="4.695122092449861"><ele>137.0</ele><time>2026-04-25T09:14:24.058Z</time></trkpt><trkpt lat="44.81689164305553" lon="4.695250410218364"><ele>137.0</ele><time>2026-04-25T09:14:26.058Z</time></trkpt><trkpt lat="44.81686594954599" lon="4.695383801734038"><ele>137.0</ele><time>2026-04-25T09:14:28.058Z</time></trkpt><trkpt lat="44.81683844960089" lon="4.695534967253374"><ele>137.0</ele><time>2026-04-25T09:14:30.059Z</time></trkpt><trkpt lat="44.81682245890308" lon="4.695666946448238"><ele>136.79999999999998</ele><time>2026-04-25T09:14:32.059Z</time></trkpt><trkpt lat="44.81684109890747" lon="4.695756876463668"><ele>136.6</ele><time>2026-04-25T09:14:33.058Z</time></trkpt><trkpt lat="44.816814412077676" lon="4.695899367286428"><ele>136.39999999999998</ele><time>2026-04-25T09:14:35.058Z</time></trkpt><trkpt lat="44.81678954218813" lon="4.696036989775737"><ele>136.2</ele><time>2026-04-25T09:14:37.058Z</time></trkpt><trkpt lat="44.81677713701273" lon="4.696182955710089"><ele>136.0</ele><time>2026-04-25T09:14:39.058Z</time></trkpt><trkpt lat="44.816728085481905" lon="4.6963231496496025"><ele>136.0</ele><time>2026-04-25T09:14:41.058Z</time></trkpt><trkpt lat="44.81668085315718" lon="4.696452680901682"><ele>136.0</ele><time>2026-04-25T09:14:43.058Z</time></trkpt><trkpt lat="44.81663568623282" lon="4.696593687878286"><ele>136.0</ele><time>2026-04-25T09:14:45.058Z</time></trkpt><trkpt lat="44.81658818206221" lon="4.696721027929843"><ele>136.0</ele><time>2026-04-25T09:14:47.058Z</time></trkpt><trkpt lat="44.81653525981726" lon="4.696842763516229"><ele>136.0</ele><time>2026-04-25T09:14:49.058Z</time></trkpt><trkpt lat="44.816483334769" lon="4.696966657822255"><ele>135.6</ele><time>2026-04-25T09:14:51.058Z</time></trkpt><trkpt lat="44.816437327483875" lon="4.697109315014096"><ele>135.2</ele><time>2026-04-25T09:14:53.058Z</time></trkpt><trkpt lat="44.81639152858792" lon="4.697256207341541"><ele>134.8</ele><time>2026-04-25T09:14:55.058Z</time></trkpt><trkpt lat="44.81636959495002" lon="4.6974109341928045"><ele>134.4</ele><time>2026-04-25T09:14:57.059Z</time></trkpt><trkpt lat="44.8163560972536" lon="4.697566795318375"><ele>134.0</ele><time>2026-04-25T09:14:59.059Z</time></trkpt><trkpt lat="44.81635936124607" lon="4.69773005154044"><ele>137.0</ele><time>2026-04-25T09:15:01.059Z</time></trkpt><trkpt lat="44.81637493357933" lon="4.6978874236123245"><ele>140.0</ele><time>2026-04-25T09:15:03.059Z</time></trkpt><trkpt lat="44.816399157024314" lon="4.698035815078505"><ele>143.0</ele><time>2026-04-25T09:15:05Z</time></trkpt><trkpt lat="44.816433494491996" lon="4.698187504553193"><ele>146.0</ele><time>2026-04-25T09:15:07Z</time></trkpt><trkpt lat="44.81647844807328" lon="4.698323144179624"><ele>149.0</ele><time>2026-04-25T09:15:09Z</time></trkpt><trkpt lat="44.81651039310312" lon="4.698480440391778"><ele>150.0</ele><time>2026-04-25T09:15:11Z</time></trkpt><trkpt lat="44.81655438682787" lon="4.698617560314793"><ele>151.0</ele><time>2026-04-25T09:15:13Z</time></trkpt><trkpt lat="44.8165917656223" lon="4.698760851618306"><ele>152.0</ele><time>2026-04-25T09:15:15Z</time></trkpt><trkpt lat="44.816630958542085" lon="4.698907334100901"><ele>153.0</ele><time>2026-04-25T09:15:17Z</time></trkpt><trkpt lat="44.81664924524929" lon="4.699054286742446"><ele>154.0</ele><time>2026-04-25T09:15:19Z</time></trkpt><trkpt lat="44.81666740915526" lon="4.699208085515327"><ele>154.0</ele><time>2026-04-25T09:15:21Z</time></trkpt><trkpt lat="44.816676783208024" lon="4.699362141371521"><ele>154.0</ele><time>2026-04-25T09:15:23Z</time></trkpt><trkpt lat="44.81667989627651" lon="4.699510365292302"><ele>154.0</ele><time>2026-04-25T09:15:25Z</time></trkpt><trkpt lat="44.81667623404306" lon="4.699666788659422"><ele>154.0</ele><time>2026-04-25T09:15:27Z</time></trkpt><trkpt lat="44.81666524439311" lon="4.699819808609061"><ele>154.0</ele><time>2026-04-25T09:15:29Z</time></trkpt><trkpt lat="44.816640851944115" lon="4.699964624580452"><ele>152.8</ele><time>2026-04-25T09:15:31Z</time></trkpt><trkpt lat="44.81661499210373" lon="4.700110741839896"><ele>151.60000000000002</ele><time>2026-04-25T09:15:33Z</time></trkpt><trkpt lat="44.81658342213612" lon="4.700257048573668"><ele>150.4</ele><time>2026-04-25T09:15:35Z</time></trkpt><trkpt lat="44.81656591190795" lon="4.700404177182144"><ele>149.20000000000002</ele><time>2026-04-25T09:15:37Z</time></trkpt><trkpt lat="44.81654865654423" lon="4.700549567089102"><ele>148.0</ele><time>2026-04-25T09:15:39Z</time></trkpt><trkpt lat="44.81653246878563" lon="4.700691443395538"><ele>147.8</ele><time>2026-04-25T09:15:41Z</time></trkpt><trkpt lat="44.81652678895447" lon="4.700838788696519"><ele>147.60000000000002</ele><time>2026-04-25T09:15:43Z</time></trkpt><trkpt lat="44.81652880116193" lon="4.700985798418818"><ele>147.39999999999998</ele><time>2026-04-25T09:15:45Z</time></trkpt><trkpt lat="44.81651046225195" lon="4.701147700762458"><ele>147.2</ele><time>2026-04-25T09:15:47Z</time></trkpt><trkpt lat="44.816526784928335" lon="4.701301771151666"><ele>147.0</ele><time>2026-04-25T09:15:49Z</time></trkpt><trkpt lat="44.816550765077594" lon="4.701462763973694"><ele>147.0</ele><time>2026-04-25T09:15:51Z</time></trkpt><trkpt lat="44.81657373788287" lon="4.701610433107786"><ele>147.0</ele><time>2026-04-25T09:15:53Z</time></trkpt><trkpt lat="44.81660350261189" lon="4.701766847629889"><ele>147.0</ele><time>2026-04-25T09:15:55Z</time></trkpt><trkpt lat="44.81662167168692" lon="4.701914232099137"><ele>147.0</ele><time>2026-04-25T09:15:57Z</time></trkpt><trkpt lat="44.816632348128486" lon="4.7020035056432485"><ele>147.0</ele><time>2026-04-25T09:15:58Z</time></trkpt><trkpt lat="44.816653035740856" lon="4.70213700754569"><ele>147.0</ele><time>2026-04-25T09:16:00Z</time></trkpt><trkpt lat="44.81665854555373" lon="4.702226747387318"><ele>147.0</ele><time>2026-04-25T09:16:01Z</time></trkpt><trkpt lat="44.816683166587985" lon="4.702375627610238"><ele>147.0</ele><time>2026-04-25T09:16:03Z</time></trkpt><trkpt lat="44.8166874616449" lon="4.702519348673015"><ele>147.0</ele><time>2026-04-25T09:16:05Z</time></trkpt><trkpt lat="44.81668350625616" lon="4.702672539112571"><ele>147.0</ele><time>2026-04-25T09:16:07Z</time></trkpt><trkpt lat="44.81668863942893" lon="4.7028288028435465"><ele>147.0</ele><time>2026-04-25T09:16:09Z</time></trkpt><trkpt lat="44.816674558277995" lon="4.702983039605911"><ele>147.0</ele><time>2026-04-25T09:16:11Z</time></trkpt><trkpt lat="44.81665975020998" lon="4.703139708528256"><ele>147.0</ele><time>2026-04-25T09:16:13Z</time></trkpt><trkpt lat="44.81664234009519" lon="4.70329506596499"><ele>147.0</ele><time>2026-04-25T09:16:15Z</time></trkpt><trkpt lat="44.81662909661494" lon="4.703417440561666"><ele>147.0</ele><time>2026-04-25T09:16:17Z</time></trkpt><trkpt lat="44.816606228937005" lon="4.703556629098216"><ele>145.79999999999998</ele><time>2026-04-25T09:16:19Z</time></trkpt><trkpt lat="44.81657995291538" lon="4.703694094188065"><ele>144.6</ele><time>2026-04-25T09:16:21Z</time></trkpt><trkpt lat="44.81656155369008" lon="4.703828265905689"><ele>143.39999999999998</ele><time>2026-04-25T09:16:23Z</time></trkpt><trkpt lat="44.81653571112942" lon="4.703978612928103"><ele>142.2</ele><time>2026-04-25T09:16:25Z</time></trkpt><trkpt lat="44.81652775487254" lon="4.70412858897149"><ele>141.0</ele><time>2026-04-25T09:16:27Z</time></trkpt><trkpt lat="44.816520582124674" lon="4.70429148228975"><ele>139.5</ele><time>2026-04-25T09:16:29Z</time></trkpt><trkpt lat="44.81649315473305" lon="4.704450749227459"><ele>138.0</ele><time>2026-04-25T09:16:31Z</time></trkpt><trkpt lat="44.816455733279895" lon="4.704614357674815"><ele>136.5</ele><time>2026-04-25T09:16:32.999Z</time></trkpt><trkpt lat="44.81643146279703" lon="4.70477615561316"><ele>135.0</ele><time>2026-04-25T09:16:34.999Z</time></trkpt><trkpt lat="44.81640549500292" lon="4.704942003455282"><ele>135.0</ele><time>2026-04-25T09:16:36.999Z</time></trkpt><trkpt lat="44.81637424503601" lon="4.705098138219231"><ele>135.0</ele><time>2026-04-25T09:16:38.999Z</time></trkpt><trkpt lat="44.81633782063548" lon="4.705248106589823"><ele>135.0</ele><time>2026-04-25T09:16:40.999Z</time></trkpt><trkpt lat="44.81631766082812" lon="4.705396044245896"><ele>135.0</ele><time>2026-04-25T09:16:43Z</time></trkpt><trkpt lat="44.81629652474296" lon="4.705520973320517"><ele>135.0</ele><time>2026-04-25T09:16:44.999Z</time></trkpt><trkpt lat="44.816269905833686" lon="4.705655819921941"><ele>134.4</ele><time>2026-04-25T09:16:46.999Z</time></trkpt><trkpt lat="44.81620475897704" lon="4.705776002887723"><ele>133.8</ele><time>2026-04-25T09:16:48.999Z</time></trkpt><trkpt lat="44.81613596549426" lon="4.705885599342668"><ele>133.2</ele><time>2026-04-25T09:16:50.999Z</time></trkpt><trkpt lat="44.81605734208073" lon="4.705997084459628"><ele>132.6</ele><time>2026-04-25T09:16:52.999Z</time></trkpt><trkpt lat="44.81596535738648" lon="4.706109232412204"><ele>132.0</ele><time>2026-04-25T09:16:54.999Z</time></trkpt><trkpt lat="44.815878559422366" lon="4.706206115997627"><ele>132.0</ele><time>2026-04-25T09:16:56.999Z</time></trkpt><trkpt lat="44.81582150224408" lon="4.70625173972127"><ele>132.0</ele><time>2026-04-25T09:16:57.999Z</time></trkpt><trkpt lat="44.81572386412845" lon="4.706304054728795"><ele>132.0</ele><time>2026-04-25T09:16:59.999Z</time></trkpt><trkpt lat="44.81560827166239" lon="4.706338780544803"><ele>132.0</ele><time>2026-04-25T09:17:01.999Z</time></trkpt><trkpt lat="44.81549698714255" lon="4.7063636934813635"><ele>132.0</ele><time>2026-04-25T09:17:03.999Z</time></trkpt><trkpt lat="44.8153796588512" lon="4.706357195821815"><ele>132.0</ele><time>2026-04-25T09:17:05.999Z</time></trkpt><trkpt lat="44.815267665247404" lon="4.706342520774133"><ele>132.0</ele><time>2026-04-25T09:17:07.999Z</time></trkpt><trkpt lat="44.815161632069255" lon="4.7063076680708775"><ele>132.0</ele><time>2026-04-25T09:17:09.999Z</time></trkpt><trkpt lat="44.81505501798124" lon="4.706264004199501"><ele>132.0</ele><time>2026-04-25T09:17:11.999Z</time></trkpt><trkpt lat="44.81495572291335" lon="4.70621195342009"><ele>132.0</ele><time>2026-04-25T09:17:13.999Z</time></trkpt><trkpt lat="44.81486076704666" lon="4.706153083871298"><ele>132.0</ele><time>2026-04-25T09:17:15.999Z</time></trkpt><trkpt lat="44.81475344002746" lon="4.706108071356129"><ele>132.0</ele><time>2026-04-25T09:17:17.999Z</time></trkpt><trkpt lat="44.81463991925914" lon="4.706055000913671"><ele>132.0</ele><time>2026-04-25T09:17:19.999Z</time></trkpt><trkpt lat="44.81454982183352" lon="4.706024086276294"><ele>132.0</ele><time>2026-04-25T09:17:21.999Z</time></trkpt><trkpt lat="44.814437810691324" lon="4.705998770493741"><ele>132.0</ele><time>2026-04-25T09:17:23.999Z</time></trkpt><trkpt lat="44.81431918396891" lon="4.706007880935833"><ele>132.2</ele><time>2026-04-25T09:17:25.999Z</time></trkpt><trkpt lat="44.81422345743211" lon="4.706024857263198"><ele>132.39999999999998</ele><time>2026-04-25T09:17:27.999Z</time></trkpt><trkpt lat="44.8141299189602" lon="4.706040320356805"><ele>132.60000000000002</ele><time>2026-04-25T09:17:29.999Z</time></trkpt><trkpt lat="44.81403477267288" lon="4.706082831827329"><ele>132.8</ele><time>2026-04-25T09:17:31.999Z</time></trkpt><trkpt lat="44.81393919232016" lon="4.706137277964521"><ele>133.0</ele><time>2026-04-25T09:17:33.999Z</time></trkpt><trkpt lat="44.81384671914471" lon="4.706196529409225"><ele>133.0</ele><time>2026-04-25T09:17:35.998Z</time></trkpt><trkpt lat="44.81377009767509" lon="4.706273352092368"><ele>133.0</ele><time>2026-04-25T09:17:37.998Z</time></trkpt><trkpt lat="44.813703422872976" lon="4.706376326387076"><ele>133.0</ele><time>2026-04-25T09:17:39.998Z</time></trkpt><trkpt lat="44.81362406409068" lon="4.706474089554551"><ele>133.0</ele><time>2026-04-25T09:17:41.998Z</time></trkpt><trkpt lat="44.81356417677222" lon="4.706594476091163"><ele>133.0</ele><time>2026-04-25T09:17:43.998Z</time></trkpt><trkpt lat="44.81350181211112" lon="4.706722496599023"><ele>135.0</ele><time>2026-04-25T09:17:45.998Z</time></trkpt><trkpt lat="44.81343950047312" lon="4.706850815261846"><ele>137.0</ele><time>2026-04-25T09:17:47.998Z</time></trkpt><trkpt lat="44.81338684282189" lon="4.70696270236251"><ele>139.0</ele><time>2026-04-25T09:17:49.998Z</time></trkpt><trkpt lat="44.81332968422162" lon="4.707103421607916"><ele>141.0</ele><time>2026-04-25T09:17:51.998Z</time></trkpt><trkpt lat="44.81328322312186" lon="4.7072348315446915"><ele>143.0</ele><time>2026-04-25T09:17:53.998Z</time></trkpt><trkpt lat="44.813246554659955" lon="4.70738281262705"><ele>143.0</ele><time>2026-04-25T09:17:55.998Z</time></trkpt><trkpt lat="44.81323211751214" lon="4.707548251416865"><ele>143.0</ele><time>2026-04-25T09:17:57.998Z</time></trkpt><trkpt lat="44.81321164092601" lon="4.707713666865974"><ele>143.0</ele><time>2026-04-25T09:17:59.998Z</time></trkpt><trkpt lat="44.81319482214245" lon="4.707872535361604"><ele>143.0</ele><time>2026-04-25T09:18:01.998Z</time></trkpt><trkpt lat="44.813204990079726" lon="4.708027194496696"><ele>143.75</ele><time>2026-04-25T09:18:03.998Z</time></trkpt><trkpt lat="44.813232666805995" lon="4.708182060291084"><ele>144.5</ele><time>2026-04-25T09:18:05.998Z</time></trkpt><trkpt lat="44.813260863969425" lon="4.708340376845345"><ele>145.25</ele><time>2026-04-25T09:18:07.998Z</time></trkpt><trkpt lat="44.81329062840946" lon="4.708477777889604"><ele>146.0</ele><time>2026-04-25T09:18:09.998Z</time></trkpt><trkpt lat="44.81336321683238" lon="4.708610293124525"><ele>150.0</ele><time>2026-04-25T09:18:11.998Z</time></trkpt><trkpt lat="44.813425382294746" lon="4.708752480066821"><ele>154.0</ele><time>2026-04-25T09:18:13.998Z</time></trkpt><trkpt lat="44.813468843397715" lon="4.70890719088929"><ele>158.0</ele><time>2026-04-25T09:18:15.998Z</time></trkpt><trkpt lat="44.81352902505711" lon="4.709047744984765"><ele>162.0</ele><time>2026-04-25T09:18:17.998Z</time></trkpt><trkpt lat="44.813568563432305" lon="4.709193030482398"><ele>155.2</ele><time>2026-04-25T09:18:19.998Z</time></trkpt><trkpt lat="44.81361037522933" lon="4.7093442471444105"><ele>148.39999999999998</ele><time>2026-04-25T09:18:21.998Z</time></trkpt><trkpt lat="44.81366673108635" lon="4.709474963698089"><ele>141.60000000000002</ele><time>2026-04-25T09:18:23.998Z</time></trkpt><trkpt lat="44.81372320962792" lon="4.70961137470808"><ele>134.8</ele><time>2026-04-25T09:18:25.998Z</time></trkpt><trkpt lat="44.81377213673485" lon="4.709755347529443"><ele>128.0</ele><time>2026-04-25T09:18:27.998Z</time></trkpt><trkpt lat="44.81381249642351" lon="4.7098965915821545"><ele>128.0</ele><time>2026-04-25T09:18:29.998Z</time></trkpt><trkpt lat="44.81383808182717" lon="4.710039665888294"><ele>128.0</ele><time>2026-04-25T09:18:31.998Z</time></trkpt><trkpt lat="44.813863393616245" lon="4.7101885610652365"><ele>128.0</ele><time>2026-04-25T09:18:33.998Z</time></trkpt><trkpt lat="44.813884398412284" lon="4.710329933779461"><ele>128.0</ele><time>2026-04-25T09:18:35.998Z</time></trkpt><trkpt lat="44.81388074512486" lon="4.7104796930251185"><ele>128.0</ele><time>2026-04-25T09:18:37.999Z</time></trkpt><trkpt lat="44.813869233135534" lon="4.71063174458173"><ele>128.8</ele><time>2026-04-25T09:18:39.998Z</time></trkpt><trkpt lat="44.81384910147577" lon="4.710785877990437"><ele>129.60000000000002</ele><time>2026-04-25T09:18:41.998Z</time></trkpt><trkpt lat="44.813812372585346" lon="4.710929216359353"><ele>130.39999999999998</ele><time>2026-04-25T09:18:43.998Z</time></trkpt><trkpt lat="44.81378745333824" lon="4.7110759557270905"><ele>131.2</ele><time>2026-04-25T09:18:45.998Z</time></trkpt><trkpt lat="44.81376993039007" lon="4.711208126503336"><ele>132.0</ele><time>2026-04-25T09:18:47.998Z</time></trkpt><trkpt lat="44.81375298297055" lon="4.711339960416097"><ele>132.0</ele><time>2026-04-25T09:18:49.998Z</time></trkpt><trkpt lat="44.81373944802103" lon="4.711470061181776"><ele>132.0</ele><time>2026-04-25T09:18:51.997Z</time></trkpt><trkpt lat="44.813724279316624" lon="4.711606873320327"><ele>132.0</ele><time>2026-04-25T09:18:53.997Z</time></trkpt><trkpt lat="44.813734809563215" lon="4.711746910138889"><ele>132.0</ele><time>2026-04-25T09:18:55.997Z</time></trkpt><trkpt lat="44.81374984502506" lon="4.711886790820164"><ele>132.0</ele><time>2026-04-25T09:18:57.997Z</time></trkpt><trkpt lat="44.81374735501896" lon="4.712036609133456"><ele>132.0</ele><time>2026-04-25T09:18:59.997Z</time></trkpt><trkpt lat="44.81376785492266" lon="4.7121517512793885"><ele>132.0</ele><time>2026-04-25T09:19:01.997Z</time></trkpt><trkpt lat="44.8137825298077" lon="4.7122995241285714"><ele>132.0</ele><time>2026-04-25T09:19:03.997Z</time></trkpt><trkpt lat="44.81379904742802" lon="4.7124399518395865"><ele>132.0</ele><time>2026-04-25T09:19:05.997Z</time></trkpt><trkpt lat="44.81380205335606" lon="4.712579624933337"><ele>132.0</ele><time>2026-04-25T09:19:07.997Z</time></trkpt><trkpt lat="44.813830478946294" lon="4.712713758009007"><ele>135.2</ele><time>2026-04-25T09:19:09.997Z</time></trkpt><trkpt lat="44.81385560540164" lon="4.712852339429371"><ele>138.39999999999998</ele><time>2026-04-25T09:19:11.997Z</time></trkpt><trkpt lat="44.81388873691169" lon="4.712983875118894"><ele>141.60000000000002</ele><time>2026-04-25T09:19:13.997Z</time></trkpt><trkpt lat="44.81395751826932" lon="4.713110603870196"><ele>144.8</ele><time>2026-04-25T09:19:15.997Z</time></trkpt><trkpt lat="44.81400534463108" lon="4.713245025651223"><ele>148.0</ele><time>2026-04-25T09:19:17.997Z</time></trkpt><trkpt lat="44.814088200028834" lon="4.71334956974607"><ele>148.0</ele><time>2026-04-25T09:19:19.997Z</time></trkpt><trkpt lat="44.814185593238776" lon="4.713435855661762"><ele>148.0</ele><time>2026-04-25T09:19:21.997Z</time></trkpt><trkpt lat="44.814270508479176" lon="4.713528099350268"><ele>148.0</ele><time>2026-04-25T09:19:23.997Z</time></trkpt><trkpt lat="44.81435140323878" lon="4.713635108672215"><ele>148.0</ele><time>2026-04-25T09:19:25.997Z</time></trkpt><trkpt lat="44.81444188802317" lon="4.71371790230863"><ele>148.0</ele><time>2026-04-25T09:19:27.997Z</time></trkpt><trkpt lat="44.814539653036405" lon="4.713801078422773"><ele>145.4</ele><time>2026-04-25T09:19:29.997Z</time></trkpt><trkpt lat="44.81461931378857" lon="4.713893759170066"><ele>142.8</ele><time>2026-04-25T09:19:31.997Z</time></trkpt><trkpt lat="44.81469105675879" lon="4.714010857077105"><ele>140.2</ele><time>2026-04-25T09:19:33.997Z</time></trkpt><trkpt lat="44.81475311851302" lon="4.714125888461248"><ele>137.6</ele><time>2026-04-25T09:19:35.997Z</time></trkpt><trkpt lat="44.81482121863808" lon="4.714240640583758"><ele>135.0</ele><time>2026-04-25T09:19:37.997Z</time></trkpt><trkpt lat="44.81488377170982" lon="4.714359267671819"><ele>137.0</ele><time>2026-04-25T09:19:39.997Z</time></trkpt><trkpt lat="44.81495595483616" lon="4.714471266983567"><ele>139.0</ele><time>2026-04-25T09:19:41.997Z</time></trkpt><trkpt lat="44.8150033575075" lon="4.714596028367291"><ele>141.0</ele><time>2026-04-25T09:19:43.997Z</time></trkpt><trkpt lat="44.81505084718649" lon="4.714730332469696"><ele>143.0</ele><time>2026-04-25T09:19:45.997Z</time></trkpt><trkpt lat="44.81509279327102" lon="4.714867664049863"><ele>145.0</ele><time>2026-04-25T09:19:47.997Z</time></trkpt><trkpt lat="44.81511437748485" lon="4.715013238356275"><ele>145.0</ele><time>2026-04-25T09:19:49.997Z</time></trkpt><trkpt lat="44.815125515709454" lon="4.715160426078099"><ele>145.0</ele><time>2026-04-25T09:19:51.997Z</time></trkpt><trkpt lat="44.81513180583971" lon="4.715302338001919"><ele>145.0</ele><time>2026-04-25T09:19:53.997Z</time></trkpt><trkpt lat="44.81514493089502" lon="4.715439846215193"><ele>145.0</ele><time>2026-04-25T09:19:55.997Z</time></trkpt><trkpt lat="44.81517242556659" lon="4.715585565504996"><ele>145.0</ele><time>2026-04-25T09:19:57.997Z</time></trkpt><trkpt lat="44.815178904148645" lon="4.71571685203424"><ele>143.2</ele><time>2026-04-25T09:19:59.997Z</time></trkpt><trkpt lat="44.81518904907194" lon="4.715857118281989"><ele>141.4</ele><time>2026-04-25T09:20:01.997Z</time></trkpt><trkpt lat="44.81522377419099" lon="4.715987655950018"><ele>139.6</ele><time>2026-04-25T09:20:03.997Z</time></trkpt><trkpt lat="44.815250821574836" lon="4.716134676982211"><ele>137.8</ele><time>2026-04-25T09:20:05.997Z</time></trkpt><trkpt lat="44.81528568487283" lon="4.716260480024361"><ele>136.0</ele><time>2026-04-25T09:20:07.997Z</time></trkpt><trkpt lat="44.815352984557514" lon="4.7163601640992106"><ele>136.0</ele><time>2026-04-25T09:20:09.997Z</time></trkpt><trkpt lat="44.81540047744474" lon="4.716421158925512"><ele>136.0</ele><time>2026-04-25T09:20:10.997Z</time></trkpt><trkpt lat="44.81548757640168" lon="4.716525377941104"><ele>136.0</ele><time>2026-04-25T09:20:12.997Z</time></trkpt><trkpt lat="44.8155709795748" lon="4.716627781341685"><ele>136.0</ele><time>2026-04-25T09:20:14.997Z</time></trkpt><trkpt lat="44.8156741510089" lon="4.716722470220637"><ele>136.0</ele><time>2026-04-25T09:20:16.997Z</time></trkpt><trkpt lat="44.81575841120061" lon="4.716816700661254"><ele>136.0</ele><time>2026-04-25T09:20:18.997Z</time></trkpt><trkpt lat="44.81585873010636" lon="4.716900147570754"><ele>136.0</ele><time>2026-04-25T09:20:20.997Z</time></trkpt><trkpt lat="44.81593731486312" lon="4.716988954769237"><ele>136.0</ele><time>2026-04-25T09:20:22.997Z</time></trkpt><trkpt lat="44.81600693014522" lon="4.717092913614704"><ele>136.0</ele><time>2026-04-25T09:20:24.997Z</time></trkpt><trkpt lat="44.81607835849439" lon="4.71720818209287"><ele>136.0</ele><time>2026-04-25T09:20:26.997Z</time></trkpt><trkpt lat="44.81612269661743" lon="4.717337305818622"><ele>136.6</ele><time>2026-04-25T09:20:28.997Z</time></trkpt><trkpt lat="44.81616935579836" lon="4.717469520795524"><ele>137.2</ele><time>2026-04-25T09:20:30.997Z</time></trkpt><trkpt lat="44.81620371527475" lon="4.717605960287799"><ele>137.8</ele><time>2026-04-25T09:20:32.997Z</time></trkpt><trkpt lat="44.81622341440523" lon="4.7177421516465845"><ele>138.4</ele><time>2026-04-25T09:20:34.997Z</time></trkpt><trkpt lat="44.816235112924744" lon="4.717867538243914"><ele>139.0</ele><time>2026-04-25T09:20:36.997Z</time></trkpt><trkpt lat="44.81625282272458" lon="4.717974188236596"><ele>139.2</ele><time>2026-04-25T09:20:38.997Z</time></trkpt><trkpt lat="44.8162261035904" lon="4.718090801153253"><ele>139.4</ele><time>2026-04-25T09:20:40.997Z</time></trkpt><trkpt lat="44.81623022037029" lon="4.718217163829982"><ele>139.6</ele><time>2026-04-25T09:20:42.997Z</time></trkpt><trkpt lat="44.81620966168984" lon="4.718376100195256"><ele>139.8</ele><time>2026-04-25T09:20:44.997Z</time></trkpt><trkpt lat="44.816194490666966" lon="4.718531302971558"><ele>140.0</ele><time>2026-04-25T09:20:46.997Z</time></trkpt><trkpt lat="44.816169756760985" lon="4.718667994152138"><ele>137.6</ele><time>2026-04-25T09:20:48.997Z</time></trkpt><trkpt lat="44.816153020987066" lon="4.718810867320485"><ele>135.2</ele><time>2026-04-25T09:20:50.997Z</time></trkpt><trkpt lat="44.816143138195685" lon="4.71895171180631"><ele>132.8</ele><time>2026-04-25T09:20:52.997Z</time></trkpt><trkpt lat="44.81611978857164" lon="4.719095072694164"><ele>130.4</ele><time>2026-04-25T09:20:54.997Z</time></trkpt><trkpt lat="44.816091812609635" lon="4.719253865189202"><ele>128.0</ele><time>2026-04-25T09:20:56.997Z</time></trkpt><trkpt lat="44.81607033945576" lon="4.719408243249854"><ele>126.4</ele><time>2026-04-25T09:20:58.997Z</time></trkpt><trkpt lat="44.816052876014126" lon="4.719493669990038"><ele>124.80000000000001</ele><time>2026-04-25T09:20:59.997Z</time></trkpt><trkpt lat="44.816022934737326" lon="4.719663664752247"><ele>123.2</ele><time>2026-04-25T09:21:01.997Z</time></trkpt><trkpt lat="44.815984846270496" lon="4.719833374517513"><ele>121.6</ele><time>2026-04-25T09:21:03.997Z</time></trkpt><trkpt lat="44.81596756085193" lon="4.719924882455127"><ele>120.0</ele><time>2026-04-25T09:21:04.997Z</time></trkpt><trkpt lat="44.8159482946733" lon="4.720091246926309"><ele>124.4</ele><time>2026-04-25T09:21:06.997Z</time></trkpt><trkpt lat="44.815933301667144" lon="4.720178142214936"><ele>128.8</ele><time>2026-04-25T09:21:07.997Z</time></trkpt><trkpt lat="44.81590126327786" lon="4.720334227236211"><ele>133.2</ele><time>2026-04-25T09:21:09.997Z</time></trkpt><trkpt lat="44.81587239751451" lon="4.720489785225292"><ele>137.6</ele><time>2026-04-25T09:21:11.997Z</time></trkpt><trkpt lat="44.81585080850896" lon="4.720636428003782"><ele>142.0</ele><time>2026-04-25T09:21:13.997Z</time></trkpt><trkpt lat="44.81581410886653" lon="4.720794370091937"><ele>142.0</ele><time>2026-04-25T09:21:15.997Z</time></trkpt><trkpt lat="44.81580324272534" lon="4.7209439579272185"><ele>142.0</ele><time>2026-04-25T09:21:17.997Z</time></trkpt><trkpt lat="44.81577055668199" lon="4.721103619006006"><ele>142.0</ele><time>2026-04-25T09:21:19.997Z</time></trkpt><trkpt lat="44.81575764209649" lon="4.721203636585281"><ele>142.0</ele><time>2026-04-25T09:21:20.997Z</time></trkpt><trkpt lat="44.81573733324051" lon="4.721351442184102"><ele>142.0</ele><time>2026-04-25T09:21:22.997Z</time></trkpt><trkpt lat="44.81572160372879" lon="4.721442209062385"><ele>141.5</ele><time>2026-04-25T09:21:23.997Z</time></trkpt><trkpt lat="44.815693887779325" lon="4.721611472076185"><ele>141.0</ele><time>2026-04-25T09:21:25.997Z</time></trkpt><trkpt lat="44.81567751351233" lon="4.721764067881449"><ele>140.5</ele><time>2026-04-25T09:21:27.997Z</time></trkpt><trkpt lat="44.81568413079033" lon="4.721927340768165"><ele>140.0</ele><time>2026-04-25T09:21:29.997Z</time></trkpt><trkpt lat="44.81568503190759" lon="4.722106689739039"><ele>140.0</ele><time>2026-04-25T09:21:31.997Z</time></trkpt><trkpt lat="44.81569489132629" lon="4.722272485502317"><ele>140.0</ele><time>2026-04-25T09:21:33.997Z</time></trkpt><trkpt lat="44.81570221713204" lon="4.722441251037437"><ele>140.0</ele><time>2026-04-25T09:21:35.997Z</time></trkpt><trkpt lat="44.81571532571709" lon="4.722528533657285"><ele>140.0</ele><time>2026-04-25T09:21:36.997Z</time></trkpt><trkpt lat="44.815737907247126" lon="4.722688827756047"><ele>140.0</ele><time>2026-04-25T09:21:38.997Z</time></trkpt><trkpt lat="44.81574507393511" lon="4.722778042993363"><ele>139.0</ele><time>2026-04-25T09:21:39.997Z</time></trkpt><trkpt lat="44.81575062691469" lon="4.722871237346505"><ele>138.0</ele><time>2026-04-25T09:21:40.997Z</time></trkpt><trkpt lat="44.81577074283971" lon="4.72302253393142"><ele>137.0</ele><time>2026-04-25T09:21:42.997Z</time></trkpt><trkpt lat="44.81578716001361" lon="4.723190467275003"><ele>136.0</ele><time>2026-04-25T09:21:44.997Z</time></trkpt><trkpt lat="44.81581980850635" lon="4.723367050891004"><ele>135.0</ele><time>2026-04-25T09:21:46.997Z</time></trkpt><trkpt lat="44.8158334996498" lon="4.723529670390259"><ele>136.75</ele><time>2026-04-25T09:21:48.997Z</time></trkpt><trkpt lat="44.81586654843234" lon="4.7236904086603815"><ele>138.5</ele><time>2026-04-25T09:21:50.997Z</time></trkpt><trkpt lat="44.81588572612963" lon="4.723846948742723"><ele>140.25</ele><time>2026-04-25T09:21:52.997Z</time></trkpt><trkpt lat="44.81590573484661" lon="4.72400294559767"><ele>142.0</ele><time>2026-04-25T09:21:54.997Z</time></trkpt><trkpt lat="44.81592187836294" lon="4.724155558933116"><ele>142.0</ele><time>2026-04-25T09:21:56.997Z</time></trkpt><trkpt lat="44.815941576356934" lon="4.724312855893133"><ele>142.0</ele><time>2026-04-25T09:21:58.997Z</time></trkpt><trkpt lat="44.81594117458786" lon="4.724412496048091"><ele>142.0</ele><time>2026-04-25T09:21:59.997Z</time></trkpt><trkpt lat="44.815955237363944" lon="4.7245794911178915"><ele>142.0</ele><time>2026-04-25T09:22:01.997Z</time></trkpt><trkpt lat="44.815982137307124" lon="4.724750555671235"><ele>142.0</ele><time>2026-04-25T09:22:03.997Z</time></trkpt><trkpt lat="44.81599714790667" lon="4.724917378830929"><ele>135.5</ele><time>2026-04-25T09:22:05.997Z</time></trkpt><trkpt lat="44.816012648083294" lon="4.725069928717492"><ele>129.0</ele><time>2026-04-25T09:22:07.997Z</time></trkpt><trkpt lat="44.8160225966213" lon="4.725233804093591"><ele>122.5</ele><time>2026-04-25T09:22:09.996Z</time></trkpt><trkpt lat="44.81603754145563" lon="4.725389658993169"><ele>116.0</ele><time>2026-04-25T09:22:11.996Z</time></trkpt><trkpt lat="44.816043036240174" lon="4.725548685556856"><ele>116.0</ele><time>2026-04-25T09:22:13.996Z</time></trkpt><trkpt lat="44.81604764748798" lon="4.725708222217362"><ele>116.0</ele><time>2026-04-25T09:22:15.996Z</time></trkpt><trkpt lat="44.816059320516665" lon="4.725861328588362"><ele>116.0</ele><time>2026-04-25T09:22:17.996Z</time></trkpt><trkpt lat="44.81608729898507" lon="4.726021932493745"><ele>116.0</ele><time>2026-04-25T09:22:19.996Z</time></trkpt><trkpt lat="44.816111732219014" lon="4.726174431709317"><ele>118.4</ele><time>2026-04-25T09:22:21.996Z</time></trkpt><trkpt lat="44.81613924066457" lon="4.726261684439526"><ele>120.8</ele><time>2026-04-25T09:22:22.996Z</time></trkpt><trkpt lat="44.81619270506416" lon="4.72640206782937"><ele>123.20000000000002</ele><time>2026-04-25T09:22:24.996Z</time></trkpt><trkpt lat="44.81625317997368" lon="4.726520683253186"><ele>125.60000000000001</ele><time>2026-04-25T09:22:26.996Z</time></trkpt><trkpt lat="44.81633570490316" lon="4.726646196421968"><ele>128.0</ele><time>2026-04-25T09:22:28.996Z</time></trkpt><trkpt lat="44.81641813445691" lon="4.726758263132673"><ele>128.0</ele><time>2026-04-25T09:22:30.996Z</time></trkpt><trkpt lat="44.81647074731535" lon="4.7268162919539565"><ele>128.0</ele><time>2026-04-25T09:22:31.996Z</time></trkpt><trkpt lat="44.816571086404196" lon="4.726911399895826"><ele>128.0</ele><time>2026-04-25T09:22:33.996Z</time></trkpt><trkpt lat="44.81665798089386" lon="4.727011434212909"><ele>128.0</ele><time>2026-04-25T09:22:35.996Z</time></trkpt><trkpt lat="44.81675595769599" lon="4.727101854477521"><ele>128.0</ele><time>2026-04-25T09:22:37.996Z</time></trkpt><trkpt lat="44.81686839883834" lon="4.727179742273012"><ele>127.2</ele><time>2026-04-25T09:22:39.996Z</time></trkpt><trkpt lat="44.816924207876326" lon="4.727230012313851"><ele>126.4</ele><time>2026-04-25T09:22:40.996Z</time></trkpt><trkpt lat="44.81702329045848" lon="4.72732012219305"><ele>125.60000000000001</ele><time>2026-04-25T09:22:42.996Z</time></trkpt><trkpt lat="44.81707109927533" lon="4.7273790575798"><ele>124.80000000000001</ele><time>2026-04-25T09:22:43.996Z</time></trkpt><trkpt lat="44.81716322558049" lon="4.7274956712418295"><ele>124.0</ele><time>2026-04-25T09:22:45.996Z</time></trkpt><trkpt lat="44.81722682654382" lon="4.727622622032536"><ele>127.75</ele><time>2026-04-25T09:22:47.996Z</time></trkpt><trkpt lat="44.817295022685" lon="4.727766443945356"><ele>131.5</ele><time>2026-04-25T09:22:49.996Z</time></trkpt><trkpt lat="44.8173457139858" lon="4.727919310182338"><ele>135.25</ele><time>2026-04-25T09:22:51.996Z</time></trkpt><trkpt lat="44.81740478382965" lon="4.728056649983459"><ele>139.0</ele><time>2026-04-25T09:22:53.996Z</time></trkpt><trkpt lat="44.817447353864544" lon="4.728205751971175"><ele>139.0</ele><time>2026-04-25T09:22:55.996Z</time></trkpt><trkpt lat="44.817489732155664" lon="4.7283492638838105"><ele>139.0</ele><time>2026-04-25T09:22:57.996Z</time></trkpt><trkpt lat="44.81751763308294" lon="4.728431822825524"><ele>139.0</ele><time>2026-04-25T09:22:58.996Z</time></trkpt><trkpt lat="44.817557746518794" lon="4.7285910125724095"><ele>139.0</ele><time>2026-04-25T09:23:00.995Z</time></trkpt><trkpt lat="44.81758623197435" lon="4.728757137138311"><ele>139.0</ele><time>2026-04-25T09:23:02.995Z</time></trkpt><trkpt lat="44.81760089562649" lon="4.72891102734273"><ele>141.5</ele><time>2026-04-25T09:23:04.995Z</time></trkpt><trkpt lat="44.81762245361999" lon="4.729061347988029"><ele>144.0</ele><time>2026-04-25T09:23:06.995Z</time></trkpt><trkpt lat="44.81763493377841" lon="4.729221154561256"><ele>146.5</ele><time>2026-04-25T09:23:08.995Z</time></trkpt><trkpt lat="44.81765501216601" lon="4.729381956276931"><ele>149.0</ele><time>2026-04-25T09:23:10.995Z</time></trkpt><trkpt lat="44.81767252640322" lon="4.72954785553578"><ele>143.0</ele><time>2026-04-25T09:23:12.995Z</time></trkpt><trkpt lat="44.81768095426945" lon="4.72963621720621"><ele>137.0</ele><time>2026-04-25T09:23:13.995Z</time></trkpt><trkpt lat="44.81769340381566" lon="4.7298023551880926"><ele>131.0</ele><time>2026-04-25T09:23:15.995Z</time></trkpt><trkpt lat="44.8177065182292" lon="4.729890599100786"><ele>125.0</ele><time>2026-04-25T09:23:16.995Z</time></trkpt><trkpt lat="44.817719425742844" lon="4.730042298262574"><ele>119.0</ele><time>2026-04-25T09:23:18.995Z</time></trkpt><trkpt lat="44.817726484457374" lon="4.730206573696996"><ele>120.25</ele><time>2026-04-25T09:23:20.995Z</time></trkpt><trkpt lat="44.81773606341801" lon="4.730376632657313"><ele>121.5</ele><time>2026-04-25T09:23:22.995Z</time></trkpt><trkpt lat="44.81775892061652" lon="4.730537329109822"><ele>122.75</ele><time>2026-04-25T09:23:24.995Z</time></trkpt><trkpt lat="44.81777056255878" lon="4.730690838479528"><ele>124.0</ele><time>2026-04-25T09:23:26.995Z</time></trkpt><trkpt lat="44.81776647547972" lon="4.730853597823762"><ele>124.0</ele><time>2026-04-25T09:23:28.995Z</time></trkpt><trkpt lat="44.81777406449474" lon="4.73102363627357"><ele>124.0</ele><time>2026-04-25T09:23:30.995Z</time></trkpt><trkpt lat="44.817786389617474" lon="4.7311872123028405"><ele>124.0</ele><time>2026-04-25T09:23:32.995Z</time></trkpt><trkpt lat="44.81780480693271" lon="4.7313572339309795"><ele>124.0</ele><time>2026-04-25T09:23:34.995Z</time></trkpt><trkpt lat="44.81781017122658" lon="4.731446245257979"><ele>124.0</ele><time>2026-04-25T09:23:35.995Z</time></trkpt><trkpt lat="44.8178182483028" lon="4.731535219254217"><ele>124.25</ele><time>2026-04-25T09:23:36.995Z</time></trkpt><trkpt lat="44.817832280624344" lon="4.731715217233482"><ele>124.5</ele><time>2026-04-25T09:23:38.995Z</time></trkpt><trkpt lat="44.81785189206071" lon="4.731875897159938"><ele>124.75</ele><time>2026-04-25T09:23:40.995Z</time></trkpt><trkpt lat="44.81785699184231" lon="4.7320236509057745"><ele>125.0</ele><time>2026-04-25T09:23:42.995Z</time></trkpt><trkpt lat="44.817861820664945" lon="4.7322014102601395"><ele>125.0</ele><time>2026-04-25T09:23:44.995Z</time></trkpt><trkpt lat="44.81787544514147" lon="4.73236380615966"><ele>125.0</ele><time>2026-04-25T09:23:46.995Z</time></trkpt><trkpt lat="44.81789469219633" lon="4.732526581301011"><ele>125.0</ele><time>2026-04-25T09:23:48.995Z</time></trkpt><trkpt lat="44.817905933174394" lon="4.7326923172791195"><ele>125.0</ele><time>2026-04-25T09:23:50.995Z</time></trkpt><trkpt lat="44.81791591194655" lon="4.732858931890304"><ele>125.2</ele><time>2026-04-25T09:23:52.995Z</time></trkpt><trkpt lat="44.81793175311539" lon="4.733008798399112"><ele>125.4</ele><time>2026-04-25T09:23:54.995Z</time></trkpt><trkpt lat="44.817937589520966" lon="4.733152792281161"><ele>125.6</ele><time>2026-04-25T09:23:56.995Z</time></trkpt><trkpt lat="44.81795669492223" lon="4.733310576171969"><ele>125.8</ele><time>2026-04-25T09:23:58.995Z</time></trkpt><trkpt lat="44.8179689866899" lon="4.733480585453794"><ele>126.0</ele><time>2026-04-25T09:24:00.995Z</time></trkpt><trkpt lat="44.81797513389581" lon="4.733639601543231"><ele>125.0</ele><time>2026-04-25T09:24:02.995Z</time></trkpt><trkpt lat="44.81797320149825" lon="4.7337924103118185"><ele>124.0</ele><time>2026-04-25T09:24:04.995Z</time></trkpt><trkpt lat="44.81798956257343" lon="4.733955363940266"><ele>123.0</ele><time>2026-04-25T09:24:06.995Z</time></trkpt><trkpt lat="44.81800153451548" lon="4.7341137008305125"><ele>122.0</ele><time>2026-04-25T09:24:08.995Z</time></trkpt><trkpt lat="44.818003434237845" lon="4.734272404670493"><ele>122.0</ele><time>2026-04-25T09:24:10.995Z</time></trkpt><trkpt lat="44.81800622834253" lon="4.73443931193623"><ele>122.0</ele><time>2026-04-25T09:24:12.995Z</time></trkpt><trkpt lat="44.818012213016196" lon="4.7345893772556735"><ele>122.0</ele><time>2026-04-25T09:24:14.995Z</time></trkpt><trkpt lat="44.818009176715954" lon="4.734742985526348"><ele>122.0</ele><time>2026-04-25T09:24:16.995Z</time></trkpt><trkpt lat="44.81798578424067" lon="4.734913864243214"><ele>122.0</ele><time>2026-04-25T09:24:18.995Z</time></trkpt><trkpt lat="44.81795237101692" lon="4.73507426789589"><ele>121.99999999999999</ele><time>2026-04-25T09:24:20.995Z</time></trkpt><trkpt lat="44.81792816796068" lon="4.735208014821894"><ele>121.99999999999999</ele><time>2026-04-25T09:24:22.995Z</time></trkpt><trkpt lat="44.81789299766053" lon="4.7353502691370615"><ele>122.0</ele><time>2026-04-25T09:24:24.995Z</time></trkpt><trkpt lat="44.81785793537228" lon="4.735436689485837"><ele>122.0</ele><time>2026-04-25T09:24:26.995Z</time></trkpt><trkpt lat="44.81784150488381" lon="4.735535945316788"><ele>121.6</ele><time>2026-04-25T09:24:29.995Z</time></trkpt><trkpt lat="44.81782520563357" lon="4.735649697834067"><ele>121.19999999999999</ele><time>2026-04-25T09:24:32.995Z</time></trkpt><trkpt lat="44.81779150887465" lon="4.73575600582423"><ele>120.8</ele><time>2026-04-25T09:24:34.995Z</time></trkpt><trkpt lat="44.81775683966647" lon="4.735887246765272"><ele>120.4</ele><time>2026-04-25T09:24:36.995Z</time></trkpt><trkpt lat="44.81771295821317" lon="4.736017704720924"><ele>120.0</ele><time>2026-04-25T09:24:38.995Z</time></trkpt><trkpt lat="44.817692821229706" lon="4.736133994231699"><ele>120.0</ele><time>2026-04-25T09:24:40.995Z</time></trkpt><trkpt lat="44.81766559330817" lon="4.7362637720635545"><ele>120.0</ele><time>2026-04-25T09:24:42.995Z</time></trkpt><trkpt lat="44.81763808686999" lon="4.736407289393331"><ele>120.0</ele><time>2026-04-25T09:24:44.995Z</time></trkpt><trkpt lat="44.81761566526953" lon="4.736550129471121"><ele>120.0</ele><time>2026-04-25T09:24:46.995Z</time></trkpt><trkpt lat="44.81761451356763" lon="4.736695210826437"><ele>120.0</ele><time>2026-04-25T09:24:48.995Z</time></trkpt><trkpt lat="44.81761035594373" lon="4.736848321638721"><ele>122.4</ele><time>2026-04-25T09:24:50.995Z</time></trkpt><trkpt lat="44.81760237541462" lon="4.7370079006121175"><ele>124.8</ele><time>2026-04-25T09:24:52.995Z</time></trkpt><trkpt lat="44.81760794032131" lon="4.73715929814716"><ele>127.19999999999999</ele><time>2026-04-25T09:24:54.995Z</time></trkpt><trkpt lat="44.817618558746034" lon="4.737249177119001"><ele>129.6</ele><time>2026-04-25T09:24:55.994Z</time></trkpt><trkpt lat="44.81763716246629" lon="4.7374119757589686"><ele>132.0</ele><time>2026-04-25T09:24:57.994Z</time></trkpt><trkpt lat="44.81765069649184" lon="4.737563095717225"><ele>129.4</ele><time>2026-04-25T09:24:59.995Z</time></trkpt><trkpt lat="44.817668402137826" lon="4.737648689586842"><ele>126.79999999999998</ele><time>2026-04-25T09:25:00.995Z</time></trkpt><trkpt lat="44.8176965005852" lon="4.73780021630067"><ele>124.2</ele><time>2026-04-25T09:25:02.994Z</time></trkpt><trkpt lat="44.81770618826427" lon="4.737890725861985"><ele>121.6</ele><time>2026-04-25T09:25:03.994Z</time></trkpt><trkpt lat="44.81773257984614" lon="4.738042720230706"><ele>119.0</ele><time>2026-04-25T09:25:05.994Z</time></trkpt><trkpt lat="44.817767834308725" lon="4.738193843770177"><ele>119.0</ele><time>2026-04-25T09:25:07.995Z</time></trkpt><trkpt lat="44.817783125986345" lon="4.738283290681674"><ele>119.0</ele><time>2026-04-25T09:25:08.995Z</time></trkpt><trkpt lat="44.81779598945949" lon="4.738436300025253"><ele>119.0</ele><time>2026-04-25T09:25:10.995Z</time></trkpt><trkpt lat="44.81779711430146" lon="4.738590876763202"><ele>119.0</ele><time>2026-04-25T09:25:12.995Z</time></trkpt><trkpt lat="44.817784987705686" lon="4.738750856307304"><ele>119.0</ele><time>2026-04-25T09:25:14.995Z</time></trkpt><trkpt lat="44.81775353370653" lon="4.738871354496409"><ele>118.99999999999999</ele><time>2026-04-25T09:25:16.995Z</time></trkpt><trkpt lat="44.81772923087465" lon="4.7389585058750425"><ele>119.0</ele><time>2026-04-25T09:25:19.995Z</time></trkpt><trkpt lat="44.81769337793673" lon="4.739064698339893"><ele>119.0</ele><time>2026-04-25T09:25:27.995Z</time></trkpt><trkpt lat="44.81764670654814" lon="4.739143834313894"><ele>119.0</ele><time>2026-04-25T09:25:29.995Z</time></trkpt><trkpt lat="44.81760880601838" lon="4.739232450430174"><ele>118.99999999999999</ele><time>2026-04-25T09:25:31.994Z</time></trkpt><trkpt lat="44.81754289503674" lon="4.73932777505035"><ele>119.0</ele><time>2026-04-25T09:25:33.994Z</time></trkpt><trkpt lat="44.81747291061253" lon="4.739420550111475"><ele>119.6</ele><time>2026-04-25T09:25:35.994Z</time></trkpt><trkpt lat="44.81741148593991" lon="4.7395013590742305"><ele>120.2</ele><time>2026-04-25T09:25:37.994Z</time></trkpt><trkpt lat="44.81734270127646" lon="4.739586753950503"><ele>120.79999999999998</ele><time>2026-04-25T09:25:39.994Z</time></trkpt><trkpt lat="44.817278556323686" lon="4.739677283472419"><ele>121.39999999999999</ele><time>2026-04-25T09:25:41.994Z</time></trkpt><trkpt lat="44.81720439006211" lon="4.739755640681373"><ele>122.0</ele><time>2026-04-25T09:25:43.994Z</time></trkpt><trkpt lat="44.81714322124899" lon="4.739851452183222"><ele>122.0</ele><time>2026-04-25T09:25:45.994Z</time></trkpt><trkpt lat="44.81707197852065" lon="4.739939477412154"><ele>121.99999999999999</ele><time>2026-04-25T09:25:47.994Z</time></trkpt><trkpt lat="44.817003053498894" lon="4.74002120373684"><ele>121.99999999999999</ele><time>2026-04-25T09:25:49.994Z</time></trkpt><trkpt lat="44.8169539302074" lon="4.740120765224197"><ele>122.0</ele><time>2026-04-25T09:25:51.994Z</time></trkpt><trkpt lat="44.81690337344518" lon="4.740236500790459"><ele>122.0</ele><time>2026-04-25T09:25:53.994Z</time></trkpt><trkpt lat="44.8168474340143" lon="4.7403371633523"><ele>124.8</ele><time>2026-04-25T09:25:55.994Z</time></trkpt><trkpt lat="44.81680135682395" lon="4.740475983084503"><ele>127.6</ele><time>2026-04-25T09:25:57.994Z</time></trkpt><trkpt lat="44.81676405960969" lon="4.740610396014849"><ele>130.39999999999998</ele><time>2026-04-25T09:25:59.994Z</time></trkpt><trkpt lat="44.81671309306847" lon="4.7407261596790615"><ele>133.2</ele><time>2026-04-25T09:26:01.994Z</time></trkpt><trkpt lat="44.81667916077425" lon="4.740851806361715"><ele>136.0</ele><time>2026-04-25T09:26:03.994Z</time></trkpt><trkpt lat="44.816639020524875" lon="4.740972586602558"><ele>134.4</ele><time>2026-04-25T09:26:05.994Z</time></trkpt><trkpt lat="44.81659402211778" lon="4.741093972776864"><ele>132.8</ele><time>2026-04-25T09:26:07.994Z</time></trkpt><trkpt lat="44.816556846617885" lon="4.7412137735152715"><ele>131.20000000000002</ele><time>2026-04-25T09:26:09.994Z</time></trkpt><trkpt lat="44.8165212940901" lon="4.741334637966313"><ele>129.6</ele><time>2026-04-25T09:26:11.994Z</time></trkpt><trkpt lat="44.81648510970506" lon="4.741463504251879"><ele>128.0</ele><time>2026-04-25T09:26:13.994Z</time></trkpt><trkpt lat="44.816464529155105" lon="4.741593472297401"><ele>128.0</ele><time>2026-04-25T09:26:15.994Z</time></trkpt><trkpt lat="44.81644081769116" lon="4.741745631740833"><ele>128.0</ele><time>2026-04-25T09:26:17.994Z</time></trkpt><trkpt lat="44.816430892930526" lon="4.741897059166604"><ele>128.0</ele><time>2026-04-25T09:26:19.994Z</time></trkpt><trkpt lat="44.81643685793787" lon="4.742038998565211"><ele>128.0</ele><time>2026-04-25T09:26:21.994Z</time></trkpt><trkpt lat="44.816429128261376" lon="4.742172700848689"><ele>128.0</ele><time>2026-04-25T09:26:23.994Z</time></trkpt><trkpt lat="44.81643665250572" lon="4.742321417242334"><ele>128.0</ele><time>2026-04-25T09:26:25.994Z</time></trkpt><trkpt lat="44.816434199059074" lon="4.742458026933164"><ele>128.0</ele><time>2026-04-25T09:26:27.994Z</time></trkpt><trkpt lat="44.8164378612408" lon="4.742595532432757"><ele>128.0</ele><time>2026-04-25T09:26:29.994Z</time></trkpt><trkpt lat="44.81644830525934" lon="4.742725331629742"><ele>128.0</ele><time>2026-04-25T09:26:31.994Z</time></trkpt><trkpt lat="44.816442738953675" lon="4.742863076355291"><ele>128.0</ele><time>2026-04-25T09:26:33.994Z</time></trkpt><trkpt lat="44.81645406014984" lon="4.742996925824651"><ele>128.0</ele><time>2026-04-25T09:26:35.994Z</time></trkpt><trkpt lat="44.81644181833279" lon="4.743133440966953"><ele>128.0</ele><time>2026-04-25T09:26:37.994Z</time></trkpt><trkpt lat="44.816455389884744" lon="4.743266731964828"><ele>128.0</ele><time>2026-04-25T09:26:39.994Z</time></trkpt><trkpt lat="44.816456182384854" lon="4.743385270392064"><ele>128.0</ele><time>2026-04-25T09:26:41.994Z</time></trkpt><trkpt lat="44.81645889683384" lon="4.74351392708053"><ele>128.0</ele><time>2026-04-25T09:26:43.994Z</time></trkpt><trkpt lat="44.816463375440584" lon="4.74366925045971"><ele>127.60000000000001</ele><time>2026-04-25T09:26:45.994Z</time></trkpt><trkpt lat="44.81644850941763" lon="4.743807259104743"><ele>127.20000000000002</ele><time>2026-04-25T09:26:47.994Z</time></trkpt><trkpt lat="44.8164366294707" lon="4.7439401850852105"><ele>126.8</ele><time>2026-04-25T09:26:49.994Z</time></trkpt><trkpt lat="44.816426687288875" lon="4.744079278934213"><ele>126.4</ele><time>2026-04-25T09:26:51.994Z</time></trkpt><trkpt lat="44.81639598019427" lon="4.744227315676451"><ele>126.0</ele><time>2026-04-25T09:26:53.994Z</time></trkpt><trkpt lat="44.81637111156132" lon="4.744376082502971"><ele>124.8</ele><time>2026-04-25T09:26:55.994Z</time></trkpt><trkpt lat="44.816338479247946" lon="4.744522973549718"><ele>123.6</ele><time>2026-04-25T09:26:57.994Z</time></trkpt><trkpt lat="44.816314505316576" lon="4.744658347799924"><ele>122.4</ele><time>2026-04-25T09:26:59.994Z</time></trkpt><trkpt lat="44.816284103053" lon="4.744787264157363"><ele>121.2</ele><time>2026-04-25T09:27:01.993Z</time></trkpt><trkpt lat="44.816264943478984" lon="4.744927174248718"><ele>120.0</ele><time>2026-04-25T09:27:03.994Z</time></trkpt><trkpt lat="44.816236027329275" lon="4.745065868886174"><ele>120.0</ele><time>2026-04-25T09:27:05.993Z</time></trkpt><trkpt lat="44.81620395001876" lon="4.745207700202956"><ele>120.0</ele><time>2026-04-25T09:27:07.994Z</time></trkpt><trkpt lat="44.816179256349805" lon="4.745341821192142"><ele>120.0</ele><time>2026-04-25T09:27:09.993Z</time></trkpt><trkpt lat="44.816170487977" lon="4.745459611400091"><ele>120.0</ele><time>2026-04-25T09:27:11.993Z</time></trkpt><trkpt lat="44.81614684736341" lon="4.745589164442366"><ele>120.0</ele><time>2026-04-25T09:27:13.994Z</time></trkpt><trkpt lat="44.81612300698078" lon="4.745671927609601"><ele>120.0</ele><time>2026-04-25T09:27:15.993Z</time></trkpt><trkpt lat="44.81611662669948" lon="4.745760879416351"><ele>119.2</ele><time>2026-04-25T09:28:34.993Z</time></trkpt><trkpt lat="44.81610466493007" lon="4.74586090322152"><ele>118.4</ele><time>2026-04-25T09:28:36.993Z</time></trkpt><trkpt lat="44.81608161014224" lon="4.745999265489677"><ele>117.6</ele><time>2026-04-25T09:28:38.993Z</time></trkpt><trkpt lat="44.816072089687395" lon="4.746134521801063"><ele>116.8</ele><time>2026-04-25T09:28:40.993Z</time></trkpt><trkpt lat="44.81606089973194" lon="4.746280054701745"><ele>116.0</ele><time>2026-04-25T09:28:42.993Z</time></trkpt><trkpt lat="44.81606865313017" lon="4.746434490415016"><ele>116.0</ele><time>2026-04-25T09:28:44.993Z</time></trkpt><trkpt lat="44.8160807035955" lon="4.746568973832846"><ele>116.0</ele><time>2026-04-25T09:28:46.993Z</time></trkpt><trkpt lat="44.81609298450608" lon="4.74671885766152"><ele>116.0</ele><time>2026-04-25T09:28:48.993Z</time></trkpt><trkpt lat="44.816115856857444" lon="4.746868361127045"><ele>116.0</ele><time>2026-04-25T09:28:50.993Z</time></trkpt><trkpt lat="44.81613951874153" lon="4.747024345652177"><ele>116.0</ele><time>2026-04-25T09:28:52.993Z</time></trkpt><trkpt lat="44.81617327178004" lon="4.74718189150141"><ele>116.0</ele><time>2026-04-25T09:28:54.993Z</time></trkpt><trkpt lat="44.816219853235246" lon="4.747334596664285"><ele>116.0</ele><time>2026-04-25T09:28:56.993Z</time></trkpt><trkpt lat="44.816241534380836" lon="4.747420782791211"><ele>116.0</ele><time>2026-04-25T09:28:57.993Z</time></trkpt><trkpt lat="44.81627321152496" lon="4.747499895128172"><ele>116.0</ele><time>2026-04-25T09:28:58.993Z</time></trkpt><trkpt lat="44.81631171001707" lon="4.747667109521244"><ele>116.0</ele><time>2026-04-25T09:29:00.993Z</time></trkpt><trkpt lat="44.816357279635504" lon="4.747826924273811"><ele>117.8</ele><time>2026-04-25T09:29:02.993Z</time></trkpt><trkpt lat="44.81639637460912" lon="4.747981090181203"><ele>119.6</ele><time>2026-04-25T09:29:04.993Z</time></trkpt><trkpt lat="44.816434518389535" lon="4.748136684044122"><ele>121.4</ele><time>2026-04-25T09:29:06.993Z</time></trkpt><trkpt lat="44.81645756595891" lon="4.748304146596178"><ele>123.2</ele><time>2026-04-25T09:29:08.992Z</time></trkpt><trkpt lat="44.8164767930114" lon="4.748389208609765"><ele>125.0</ele><time>2026-04-25T09:29:09.992Z</time></trkpt><trkpt lat="44.81650747849289" lon="4.7485476390871435"><ele>126.0</ele><time>2026-04-25T09:29:11.992Z</time></trkpt><trkpt lat="44.81651639728516" lon="4.748643952801537"><ele>127.0</ele><time>2026-04-25T09:29:12.992Z</time></trkpt><trkpt lat="44.81652648771382" lon="4.748734807817085"><ele>128.0</ele><time>2026-04-25T09:29:13.992Z</time></trkpt><trkpt lat="44.81653551805629" lon="4.748897779115511"><ele>129.0</ele><time>2026-04-25T09:29:15.991Z</time></trkpt><trkpt lat="44.81654901236988" lon="4.749071090733525"><ele>130.0</ele><time>2026-04-25T09:29:17.992Z</time></trkpt><trkpt lat="44.81654712899635" lon="4.749236805913807"><ele>130.8</ele><time>2026-04-25T09:29:19.992Z</time></trkpt><trkpt lat="44.81656952308179" lon="4.749404437197693"><ele>131.6</ele><time>2026-04-25T09:29:21.992Z</time></trkpt><trkpt lat="44.8165830774142" lon="4.749503805579098"><ele>132.4</ele><time>2026-04-25T09:29:22.992Z</time></trkpt><trkpt lat="44.81660352891237" lon="4.749673303158045"><ele>133.2</ele><time>2026-04-25T09:29:24.992Z</time></trkpt><trkpt lat="44.81661295480926" lon="4.749762108047196"><ele>134.0</ele><time>2026-04-25T09:29:25.992Z</time></trkpt><trkpt lat="44.81664608962008" lon="4.749924418871597"><ele>134.0</ele><time>2026-04-25T09:29:27.992Z</time></trkpt><trkpt lat="44.81668107561039" lon="4.750092170603132"><ele>134.0</ele><time>2026-04-25T09:29:29.992Z</time></trkpt><trkpt lat="44.8167144512106" lon="4.750253652560771"><ele>134.0</ele><time>2026-04-25T09:29:31.992Z</time></trkpt><trkpt lat="44.81674989152781" lon="4.750328175782279"><ele>134.0</ele><time>2026-04-25T09:29:32.992Z</time></trkpt><trkpt lat="44.81680348286176" lon="4.750486271176586"><ele>134.0</ele><time>2026-04-25T09:29:34.992Z</time></trkpt><trkpt lat="44.816875918812336" lon="4.750613967531139"><ele>133.5</ele><time>2026-04-25T09:29:36.992Z</time></trkpt><trkpt lat="44.81692009240126" lon="4.750685417882501"><ele>133.0</ele><time>2026-04-25T09:29:37.992Z</time></trkpt><trkpt lat="44.81699157837155" lon="4.750818226478974"><ele>132.5</ele><time>2026-04-25T09:29:39.992Z</time></trkpt><trkpt lat="44.81703642681312" lon="4.750881351442498"><ele>132.0</ele><time>2026-04-25T09:29:40.992Z</time></trkpt><trkpt lat="44.817116939037184" lon="4.751019682576"><ele>131.5</ele><time>2026-04-25T09:29:42.992Z</time></trkpt><trkpt lat="44.81715927323643" lon="4.75109096007293"><ele>131.0</ele><time>2026-04-25T09:29:43.992Z</time></trkpt><trkpt lat="44.81721524305635" lon="4.751154048350747"><ele>131.0</ele><time>2026-04-25T09:29:44.992Z</time></trkpt><trkpt lat="44.81730411460956" lon="4.7512638135252425"><ele>131.0</ele><time>2026-04-25T09:29:46.992Z</time></trkpt><trkpt lat="44.817374234492995" lon="4.7514095284511635"><ele>131.0</ele><time>2026-04-25T09:29:48.992Z</time></trkpt><trkpt lat="44.817444920517524" lon="4.751548892035573"><ele>131.0</ele><time>2026-04-25T09:29:50.992Z</time></trkpt><trkpt lat="44.817475293751805" lon="4.751628133222374"><ele>131.0</ele><time>2026-04-25T09:29:51.992Z</time></trkpt><trkpt lat="44.817505733341726" lon="4.751707178415122"><ele>131.0</ele><time>2026-04-25T09:29:52.992Z</time></trkpt><trkpt lat="44.81756219450014" lon="4.7518504347809225"><ele>131.0</ele><time>2026-04-25T09:29:54.992Z</time></trkpt><trkpt lat="44.8176035104915" lon="4.751928448902387"><ele>131.0</ele><time>2026-04-25T09:29:55.992Z</time></trkpt><trkpt lat="44.81767100695173" lon="4.752082543442886"><ele>131.0</ele><time>2026-04-25T09:29:57.992Z</time></trkpt><trkpt lat="44.8177035855213" lon="4.75215961531473"><ele>131.0</ele><time>2026-04-25T09:29:58.992Z</time></trkpt><trkpt lat="44.817778145250564" lon="4.752307644836914"><ele>129.8</ele><time>2026-04-25T09:30:00.992Z</time></trkpt><trkpt lat="44.81780815441544" lon="4.7523859569904285"><ele>128.6</ele><time>2026-04-25T09:30:01.992Z</time></trkpt><trkpt lat="44.81787116789813" lon="4.752539961861529"><ele>127.4</ele><time>2026-04-25T09:30:03.992Z</time></trkpt><trkpt lat="44.817945392046724" lon="4.7526923415806035"><ele>126.2</ele><time>2026-04-25T09:30:05.992Z</time></trkpt><trkpt lat="44.818018076961444" lon="4.752834699618214"><ele>125.0</ele><time>2026-04-25T09:30:07.992Z</time></trkpt><trkpt lat="44.81807982807552" lon="4.752986323351331"><ele>125.0</ele><time>2026-04-25T09:30:09.992Z</time></trkpt><trkpt lat="44.818137626474225" lon="4.753137772603466"><ele>125.0</ele><time>2026-04-25T09:30:11.992Z</time></trkpt><trkpt lat="44.81819983218685" lon="4.753287696039983"><ele>125.0</ele><time>2026-04-25T09:30:13.992Z</time></trkpt><trkpt lat="44.818235739876606" lon="4.753363345570248"><ele>125.0</ele><time>2026-04-25T09:30:14.992Z</time></trkpt><trkpt lat="44.81829853589369" lon="4.753507078941058"><ele>125.0</ele><time>2026-04-25T09:30:16.992Z</time></trkpt><trkpt lat="44.81837188535117" lon="4.753648564786157"><ele>128.0</ele><time>2026-04-25T09:30:18.992Z</time></trkpt><trkpt lat="44.818413911946074" lon="4.753722049525538"><ele>131.0</ele><time>2026-04-25T09:30:19.992Z</time></trkpt><trkpt lat="44.81844917726761" lon="4.753796379801637"><ele>134.0</ele><time>2026-04-25T09:30:20.991Z</time></trkpt><trkpt lat="44.81851630504203" lon="4.753940569978877"><ele>137.0</ele><time>2026-04-25T09:30:22.991Z</time></trkpt><trkpt lat="44.81857970011442" lon="4.754090196884386"><ele>140.0</ele><time>2026-04-25T09:30:24.991Z</time></trkpt><trkpt lat="44.81864712460384" lon="4.754232015851169"><ele>134.25</ele><time>2026-04-25T09:30:26.991Z</time></trkpt><trkpt lat="44.818704492007925" lon="4.754381564605528"><ele>128.5</ele><time>2026-04-25T09:30:28.991Z</time></trkpt><trkpt lat="44.81875331553356" lon="4.754529251158225"><ele>122.75</ele><time>2026-04-25T09:30:30.991Z</time></trkpt><trkpt lat="44.818787652569334" lon="4.754680171219029"><ele>117.0</ele><time>2026-04-25T09:30:32.991Z</time></trkpt><trkpt lat="44.81882668847089" lon="4.754835861476383"><ele>117.0</ele><time>2026-04-25T09:30:34.991Z</time></trkpt><trkpt lat="44.818862739520945" lon="4.755003716342568"><ele>117.0</ele><time>2026-04-25T09:30:36.991Z</time></trkpt><trkpt lat="44.81890175659999" lon="4.755159867888079"><ele>117.0</ele><time>2026-04-25T09:30:38.991Z</time></trkpt><trkpt lat="44.818941517678844" lon="4.755318486723471"><ele>117.0</ele><time>2026-04-25T09:30:40.991Z</time></trkpt><trkpt lat="44.8189701756538" lon="4.755476353951007"><ele>119.0</ele><time>2026-04-25T09:30:42.991Z</time></trkpt><trkpt lat="44.81899416147566" lon="4.755631187752558"><ele>120.99999999999999</ele><time>2026-04-25T09:30:44.991Z</time></trkpt><trkpt lat="44.819034959382336" lon="4.755774450747066"><ele>122.99999999999999</ele><time>2026-04-25T09:30:46.991Z</time></trkpt><trkpt lat="44.8190569050714" lon="4.75593134234706"><ele>125.0</ele><time>2026-04-25T09:30:48.991Z</time></trkpt><trkpt lat="44.81909311239665" lon="4.756065684300734"><ele>127.0</ele><time>2026-04-25T09:30:50.991Z</time></trkpt><trkpt lat="44.819128680851584" lon="4.756214205646888"><ele>128.4</ele><time>2026-04-25T09:30:52.991Z</time></trkpt><trkpt lat="44.81914993182482" lon="4.756367300086183"><ele>129.79999999999998</ele><time>2026-04-25T09:30:54.991Z</time></trkpt><trkpt lat="44.81916456394681" lon="4.756506027844913"><ele>131.2</ele><time>2026-04-25T09:30:56.991Z</time></trkpt><trkpt lat="44.819188206587164" lon="4.756664741109197"><ele>132.6</ele><time>2026-04-25T09:30:58.991Z</time></trkpt><trkpt lat="44.81919848497198" lon="4.756814414302533"><ele>134.0</ele><time>2026-04-25T09:31:00.991Z</time></trkpt><trkpt lat="44.81920618480049" lon="4.756960533622383"><ele>134.4</ele><time>2026-04-25T09:31:02.991Z</time></trkpt><trkpt lat="44.81919859587927" lon="4.757116835321348"><ele>134.8</ele><time>2026-04-25T09:31:04.991Z</time></trkpt><trkpt lat="44.81919995519985" lon="4.757254492546456"><ele>135.2</ele><time>2026-04-25T09:31:06.991Z</time></trkpt><trkpt lat="44.81919447312721" lon="4.757404795235594"><ele>135.6</ele><time>2026-04-25T09:31:08.991Z</time></trkpt><trkpt lat="44.81919490899388" lon="4.757563762446528"><ele>136.0</ele><time>2026-04-25T09:31:10.991Z</time></trkpt><trkpt lat="44.81917781439085" lon="4.757728472676293"><ele>136.5</ele><time>2026-04-25T09:31:12.991Z</time></trkpt><trkpt lat="44.81918638646132" lon="4.7578877613520705"><ele>137.0</ele><time>2026-04-25T09:31:14.991Z</time></trkpt><trkpt lat="44.819208370785645" lon="4.758039124093947"><ele>137.5</ele><time>2026-04-25T09:31:16.991Z</time></trkpt><trkpt lat="44.819225846232804" lon="4.758203269571052"><ele>138.0</ele><time>2026-04-25T09:31:18.991Z</time></trkpt><trkpt lat="44.81925022955515" lon="4.758364317815474"><ele>138.0</ele><time>2026-04-25T09:31:20.99Z</time></trkpt><trkpt lat="44.81929252321331" lon="4.758519103385464"><ele>138.0</ele><time>2026-04-25T09:31:22.991Z</time></trkpt><trkpt lat="44.8193251297345" lon="4.758663240382006"><ele>138.0</ele><time>2026-04-25T09:31:24.99Z</time></trkpt><trkpt lat="44.81937212664857" lon="4.758808535129026"><ele>138.0</ele><time>2026-04-25T09:31:26.99Z</time></trkpt><trkpt lat="44.81941695027016" lon="4.758945028952413"><ele>138.0</ele><time>2026-04-25T09:31:28.99Z</time></trkpt><trkpt lat="44.819453496621" lon="4.759092573565878"><ele>132.4</ele><time>2026-04-25T09:31:30.99Z</time></trkpt><trkpt lat="44.81949587833992" lon="4.759246635066121"><ele>126.80000000000001</ele><time>2026-04-25T09:31:32.99Z</time></trkpt><trkpt lat="44.819528642605114" lon="4.759391151980999"><ele>121.2</ele><time>2026-04-25T09:31:34.99Z</time></trkpt><trkpt lat="44.81954161151519" lon="4.759548301043204"><ele>115.6</ele><time>2026-04-25T09:31:36.99Z</time></trkpt><trkpt lat="44.819552455975945" lon="4.759698652005855"><ele>110.0</ele><time>2026-04-25T09:31:38.99Z</time></trkpt><trkpt lat="44.8195653342376" lon="4.759850463311945"><ele>110.0</ele><time>2026-04-25T09:31:40.99Z</time></trkpt><trkpt lat="44.81956822997383" lon="4.759991154028711"><ele>110.0</ele><time>2026-04-25T09:31:42.99Z</time></trkpt><trkpt lat="44.81957480064976" lon="4.7601385100368425"><ele>110.0</ele><time>2026-04-25T09:31:44.99Z</time></trkpt><trkpt lat="44.81958323522859" lon="4.760286753346494"><ele>110.0</ele><time>2026-04-25T09:31:46.99Z</time></trkpt><trkpt lat="44.81957633788385" lon="4.760442620240718"><ele>110.0</ele><time>2026-04-25T09:31:48.99Z</time></trkpt><trkpt lat="44.819576436566194" lon="4.760584154497517"><ele>109.99999999999999</ele><time>2026-04-25T09:31:50.99Z</time></trkpt><trkpt lat="44.81957875912345" lon="4.760709061234407"><ele>110.0</ele><time>2026-04-25T09:31:52.99Z</time></trkpt><trkpt lat="44.81957060928839" lon="4.760822936855408"><ele>110.0</ele><time>2026-04-25T09:31:55.99Z</time></trkpt><trkpt lat="44.81956446551255" lon="4.7609284298397645"><ele>110.0</ele><time>2026-04-25T09:31:57.99Z</time></trkpt><trkpt lat="44.81957895322448" lon="4.761029320206184"><ele>109.99999999999999</ele><time>2026-04-25T09:31:59.99Z</time></trkpt><trkpt lat="44.819592580510886" lon="4.761143830367115"><ele>110.0</ele><time>2026-04-25T09:32:01.99Z</time></trkpt><trkpt lat="44.81961552313975" lon="4.761259701332827"><ele>111.2</ele><time>2026-04-25T09:32:03.99Z</time></trkpt><trkpt lat="44.819644794355725" lon="4.7613824890724175"><ele>112.4</ele><time>2026-04-25T09:32:05.99Z</time></trkpt><trkpt lat="44.819674621811345" lon="4.761530896577524"><ele>113.6</ele><time>2026-04-25T09:32:07.99Z</time></trkpt><trkpt lat="44.819709174825796" lon="4.761657792218459"><ele>114.8</ele><time>2026-04-25T09:32:09.99Z</time></trkpt><trkpt lat="44.819739730275906" lon="4.761802158270364"><ele>116.0</ele><time>2026-04-25T09:32:11.99Z</time></trkpt><trkpt lat="44.81976578897995" lon="4.7619442776049485"><ele>117.6</ele><time>2026-04-25T09:32:13.99Z</time></trkpt><trkpt lat="44.81980160068718" lon="4.762086860675736"><ele>119.19999999999999</ele><time>2026-04-25T09:32:15.99Z</time></trkpt><trkpt lat="44.81983125025484" lon="4.762232780291422"><ele>120.80000000000001</ele><time>2026-04-25T09:32:17.99Z</time></trkpt><trkpt lat="44.81986287735499" lon="4.762385762809352"><ele>122.4</ele><time>2026-04-25T09:32:19.99Z</time></trkpt><trkpt lat="44.81989176446875" lon="4.762525750442336"><ele>124.0</ele><time>2026-04-25T09:32:21.99Z</time></trkpt><trkpt lat="44.81992745817517" lon="4.762667126844003"><ele>125.4</ele><time>2026-04-25T09:32:23.99Z</time></trkpt><trkpt lat="44.819952374266094" lon="4.762804737054749"><ele>126.80000000000001</ele><time>2026-04-25T09:32:25.99Z</time></trkpt><trkpt lat="44.819984007963065" lon="4.762935523599898"><ele>128.2</ele><time>2026-04-25T09:32:27.99Z</time></trkpt><trkpt lat="44.820002203056944" lon="4.763094581389268"><ele>129.6</ele><time>2026-04-25T09:32:29.99Z</time></trkpt><trkpt lat="44.82002430819511" lon="4.763230029972129"><ele>131.0</ele><time>2026-04-25T09:32:31.99Z</time></trkpt><trkpt lat="44.820047172180615" lon="4.763382606247057"><ele>131.0</ele><time>2026-04-25T09:32:33.99Z</time></trkpt><trkpt lat="44.8200599627301" lon="4.76352565698315"><ele>131.0</ele><time>2026-04-25T09:32:35.99Z</time></trkpt><trkpt lat="44.82008065337654" lon="4.763671905769746"><ele>131.0</ele><time>2026-04-25T09:32:37.99Z</time></trkpt><trkpt lat="44.82008600927201" lon="4.7638291093467355"><ele>131.0</ele><time>2026-04-25T09:32:39.99Z</time></trkpt><trkpt lat="44.82008821024463" lon="4.76397413977129"><ele>131.0</ele><time>2026-04-25T09:32:41.99Z</time></trkpt><trkpt lat="44.82009540751609" lon="4.7641187390698185"><ele>132.0</ele><time>2026-04-25T09:32:43.99Z</time></trkpt><trkpt lat="44.820085029986146" lon="4.764265759248902"><ele>133.0</ele><time>2026-04-25T09:32:45.99Z</time></trkpt><trkpt lat="44.82008935916042" lon="4.764400946050869"><ele>134.0</ele><time>2026-04-25T09:32:47.99Z</time></trkpt><trkpt lat="44.82009231630372" lon="4.764545696448024"><ele>135.0</ele><time>2026-04-25T09:32:49.99Z</time></trkpt><trkpt lat="44.820096264435534" lon="4.76468453453779"><ele>136.0</ele><time>2026-04-25T09:32:51.99Z</time></trkpt><trkpt lat="44.820094883747196" lon="4.76481994966693"><ele>136.0</ele><time>2026-04-25T09:32:53.99Z</time></trkpt><trkpt lat="44.820093184600964" lon="4.7649609516015525"><ele>136.0</ele><time>2026-04-25T09:32:55.99Z</time></trkpt><trkpt lat="44.82010034125126" lon="4.76510736148224"><ele>136.0</ele><time>2026-04-25T09:32:57.99Z</time></trkpt><trkpt lat="44.820111430686396" lon="4.765249884685361"><ele>136.0</ele><time>2026-04-25T09:32:59.99Z</time></trkpt><trkpt lat="44.820127589551625" lon="4.765396654633014"><ele>136.0</ele><time>2026-04-25T09:33:01.99Z</time></trkpt><trkpt lat="44.82015471970435" lon="4.765542757357107"><ele>131.0</ele><time>2026-04-25T09:33:03.99Z</time></trkpt><trkpt lat="44.82017903190537" lon="4.765673387650334"><ele>126.0</ele><time>2026-04-25T09:33:05.99Z</time></trkpt><trkpt lat="44.82020434102608" lon="4.765807578872808"><ele>121.0</ele><time>2026-04-25T09:33:07.99Z</time></trkpt><trkpt lat="44.820228003449536" lon="4.765948969031761"><ele>116.0</ele><time>2026-04-25T09:33:09.99Z</time></trkpt><trkpt lat="44.82024899505732" lon="4.766079990144066"><ele>111.0</ele><time>2026-04-25T09:33:11.99Z</time></trkpt><trkpt lat="44.820289450020596" lon="4.766211477489634"><ele>111.0</ele><time>2026-04-25T09:33:13.99Z</time></trkpt><trkpt lat="44.82032976568647" lon="4.766357096164309"><ele>111.0</ele><time>2026-04-25T09:33:15.99Z</time></trkpt><trkpt lat="44.82036655704241" lon="4.766493045607347"><ele>111.0</ele><time>2026-04-25T09:33:17.99Z</time></trkpt><trkpt lat="44.82040682949223" lon="4.766622066728834"><ele>111.0</ele><time>2026-04-25T09:33:19.99Z</time></trkpt><trkpt lat="44.82045595340818" lon="4.766751818973474"><ele>111.0</ele><time>2026-04-25T09:33:21.99Z</time></trkpt><trkpt lat="44.82047736016088" lon="4.76689011325452"><ele>112.0</ele><time>2026-04-25T09:33:23.989Z</time></trkpt><trkpt lat="44.820512717739376" lon="4.767027489946096"><ele>113.0</ele><time>2026-04-25T09:33:25.99Z</time></trkpt><trkpt lat="44.82052269871898" lon="4.7671741133781245"><ele>114.0</ele><time>2026-04-25T09:33:27.99Z</time></trkpt><trkpt lat="44.82055184545267" lon="4.767324843426803"><ele>115.0</ele><time>2026-04-25T09:33:29.99Z</time></trkpt><trkpt lat="44.820556208374306" lon="4.767482336062347"><ele>116.0</ele><time>2026-04-25T09:33:31.99Z</time></trkpt><trkpt lat="44.820566155150196" lon="4.767629675186433"><ele>117.5</ele><time>2026-04-25T09:33:33.989Z</time></trkpt><trkpt lat="44.82057708116655" lon="4.767804153098624"><ele>119.0</ele><time>2026-04-25T09:33:35.989Z</time></trkpt><trkpt lat="44.82056877344448" lon="4.767978806755503"><ele>120.5</ele><time>2026-04-25T09:33:37.989Z</time></trkpt><trkpt lat="44.820587255874884" lon="4.768127035137313"><ele>122.0</ele><time>2026-04-25T09:33:39.989Z</time></trkpt><trkpt lat="44.82060703757779" lon="4.768284274172217"><ele>122.0</ele><time>2026-04-25T09:33:41.989Z</time></trkpt><trkpt lat="44.820631477337095" lon="4.76836830530028"><ele>121.99999999999999</ele><time>2026-04-25T09:33:42.989Z</time></trkpt><trkpt lat="44.820680860748574" lon="4.768534510563525"><ele>121.99999999999999</ele><time>2026-04-25T09:33:44.989Z</time></trkpt><trkpt lat="44.820727181007626" lon="4.768681948212048"><ele>122.0</ele><time>2026-04-25T09:33:46.989Z</time></trkpt><trkpt lat="44.82076889651045" lon="4.768845815103064"><ele>122.0</ele><time>2026-04-25T09:33:48.989Z</time></trkpt><trkpt lat="44.8207914958267" lon="4.768938140731517"><ele>123.33333333333333</ele><time>2026-04-25T09:33:49.989Z</time></trkpt><trkpt lat="44.820817547161596" lon="4.769101782297906"><ele>124.66666666666666</ele><time>2026-04-25T09:33:51.989Z</time></trkpt><trkpt lat="44.82086141238355" lon="4.769255586440846"><ele>126.0</ele><time>2026-04-25T09:33:53.989Z</time></trkpt><trkpt lat="44.82088241819913" lon="4.769340715023426"><ele>127.33333333333334</ele><time>2026-04-25T09:33:54.989Z</time></trkpt><trkpt lat="44.820904071834406" lon="4.769424302083345"><ele>128.66666666666669</ele><time>2026-04-25T09:33:55.989Z</time></trkpt><trkpt lat="44.82092456021767" lon="4.7695106534593235"><ele>130.0</ele><time>2026-04-25T09:33:56.989Z</time></trkpt><trkpt lat="44.82094579496432" lon="4.769595632919172"><ele>127.16666666666667</ele><time>2026-04-25T09:33:57.989Z</time></trkpt><trkpt lat="44.820993197931855" lon="4.7697442750993435"><ele>124.33333333333334</ele><time>2026-04-25T09:33:59.989Z</time></trkpt><trkpt lat="44.82101252487597" lon="4.76983645789759"><ele>121.5</ele><time>2026-04-25T09:34:00.989Z</time></trkpt><trkpt lat="44.82104215246027" lon="4.769924348815662"><ele>118.66666666666666</ele><time>2026-04-25T09:34:01.989Z</time></trkpt><trkpt lat="44.821067887240176" lon="4.770006623628087"><ele>115.83333333333333</ele><time>2026-04-25T09:34:02.989Z</time></trkpt><trkpt lat="44.82109379443778" lon="4.770091681400698"><ele>113.0</ele><time>2026-04-25T09:34:03.989Z</time></trkpt><trkpt lat="44.82111821522485" lon="4.770271641677786"><ele>113.0</ele><time>2026-04-25T09:34:05.989Z</time></trkpt><trkpt lat="44.82113730597079" lon="4.770364028506258"><ele>113.00000000000001</ele><time>2026-04-25T09:34:06.989Z</time></trkpt><trkpt lat="44.82115860500184" lon="4.770527071683712"><ele>113.00000000000001</ele><time>2026-04-25T09:34:08.989Z</time></trkpt><trkpt lat="44.821194247721444" lon="4.770677950842948"><ele>113.0</ele><time>2026-04-25T09:34:10.989Z</time></trkpt><trkpt lat="44.821234725837215" lon="4.770823851036184"><ele>113.0</ele><time>2026-04-25T09:34:12.989Z</time></trkpt><trkpt lat="44.82127299929066" lon="4.7709732548735335"><ele>113.83333333333333</ele><time>2026-04-25T09:34:14.989Z</time></trkpt><trkpt lat="44.82130083812479" lon="4.771123207870399"><ele>114.66666666666666</ele><time>2026-04-25T09:34:16.989Z</time></trkpt><trkpt lat="44.821335421146394" lon="4.771201658909781"><ele>115.5</ele><time>2026-04-25T09:34:17.989Z</time></trkpt><trkpt lat="44.82135671616852" lon="4.771292660487596"><ele>116.33333333333334</ele><time>2026-04-25T09:34:18.989Z</time></trkpt><trkpt lat="44.82137562318327" lon="4.771379889834449"><ele>117.16666666666667</ele><time>2026-04-25T09:34:19.989Z</time></trkpt><trkpt lat="44.821415374890975" lon="4.771528214679146"><ele>118.0</ele><time>2026-04-25T09:34:21.989Z</time></trkpt><trkpt lat="44.821446431472324" lon="4.771702318998506"><ele>119.0</ele><time>2026-04-25T09:34:23.989Z</time></trkpt><trkpt lat="44.821471941918425" lon="4.771873356814784"><ele>120.00000000000001</ele><time>2026-04-25T09:34:25.989Z</time></trkpt><trkpt lat="44.82147423588672" lon="4.7719636196389805"><ele>121.00000000000001</ele><time>2026-04-25T09:34:26.989Z</time></trkpt><trkpt lat="44.821474236823526" lon="4.772124575147457"><ele>122.0</ele><time>2026-04-25T09:34:28.989Z</time></trkpt><trkpt lat="44.821469836025074" lon="4.772283622738492"><ele>123.0</ele><time>2026-04-25T09:34:30.989Z</time></trkpt><trkpt lat="44.82146250538796" lon="4.772446856000374"><ele>123.0</ele><time>2026-04-25T09:34:32.989Z</time></trkpt><trkpt lat="44.82147830610756" lon="4.7726127008732755"><ele>123.0</ele><time>2026-04-25T09:34:34.989Z</time></trkpt><trkpt lat="44.82148849423057" lon="4.772787162648723"><ele>123.0</ele><time>2026-04-25T09:34:36.989Z</time></trkpt><trkpt lat="44.82150922860788" lon="4.772963834055322"><ele>123.0</ele><time>2026-04-25T09:34:38.989Z</time></trkpt><trkpt lat="44.82153387146462" lon="4.773123909772372"><ele>123.5</ele><time>2026-04-25T09:34:40.989Z</time></trkpt><trkpt lat="44.82155190457929" lon="4.773288589684207"><ele>124.0</ele><time>2026-04-25T09:34:42.989Z</time></trkpt><trkpt lat="44.82154260315755" lon="4.773455866457183"><ele>124.5</ele><time>2026-04-25T09:34:44.989Z</time></trkpt><trkpt lat="44.821547501956495" lon="4.773614109231681"><ele>125.0</ele><time>2026-04-25T09:34:46.989Z</time></trkpt><trkpt lat="44.821550989834556" lon="4.773766709639943"><ele>125.0</ele><time>2026-04-25T09:34:48.989Z</time></trkpt><trkpt lat="44.8215539716769" lon="4.773930176097728"><ele>125.0</ele><time>2026-04-25T09:34:50.989Z</time></trkpt><trkpt lat="44.821566857307225" lon="4.774073669660157"><ele>125.0</ele><time>2026-04-25T09:34:52.989Z</time></trkpt><trkpt lat="44.82156971466727" lon="4.774229277317682"><ele>125.0</ele><time>2026-04-25T09:34:54.989Z</time></trkpt><trkpt lat="44.821566381013874" lon="4.774396437126191"><ele>125.0</ele><time>2026-04-25T09:34:56.989Z</time></trkpt><trkpt lat="44.82157831100809" lon="4.774546492315475"><ele>125.8</ele><time>2026-04-25T09:34:58.989Z</time></trkpt><trkpt lat="44.82159615228226" lon="4.7746886471503815"><ele>126.6</ele><time>2026-04-25T09:35:00.989Z</time></trkpt><trkpt lat="44.82160686488907" lon="4.774829564728746"><ele>127.4</ele><time>2026-04-25T09:35:02.989Z</time></trkpt><trkpt lat="44.82161663766115" lon="4.774977543260415"><ele>128.2</ele><time>2026-04-25T09:35:04.989Z</time></trkpt><trkpt lat="44.82164368841152" lon="4.775104345226503"><ele>129.0</ele><time>2026-04-25T09:35:06.989Z</time></trkpt><trkpt lat="44.82166764546381" lon="4.775239646652127"><ele>130.2</ele><time>2026-04-25T09:35:08.989Z</time></trkpt><trkpt lat="44.82169915726226" lon="4.77539226533889"><ele>131.4</ele><time>2026-04-25T09:35:10.989Z</time></trkpt><trkpt lat="44.821715883095536" lon="4.7755353235262"><ele>132.6</ele><time>2026-04-25T09:35:12.989Z</time></trkpt><trkpt lat="44.82173075662527" lon="4.775674487015777"><ele>133.8</ele><time>2026-04-25T09:35:14.989Z</time></trkpt><trkpt lat="44.82175060389717" lon="4.775817414930539"><ele>135.0</ele><time>2026-04-25T09:35:16.989Z</time></trkpt><trkpt lat="44.8217575702825" lon="4.775962504824536"><ele>134.6</ele><time>2026-04-25T09:35:18.989Z</time></trkpt><trkpt lat="44.82176787747702" lon="4.776111641397422"><ele>134.2</ele><time>2026-04-25T09:35:20.989Z</time></trkpt><trkpt lat="44.82178133390898" lon="4.776262579579084"><ele>133.8</ele><time>2026-04-25T09:35:22.989Z</time></trkpt><trkpt lat="44.82178604466687" lon="4.776375607924383"><ele>133.4</ele><time>2026-04-25T09:35:24.989Z</time></trkpt><trkpt lat="44.82180250876464" lon="4.776522119936641"><ele>133.0</ele><time>2026-04-25T09:35:26.989Z</time></trkpt><trkpt lat="44.821824225690584" lon="4.776670045298289"><ele>128.20000000000002</ele><time>2026-04-25T09:35:28.989Z</time></trkpt><trkpt lat="44.82185015770198" lon="4.776816832450081"><ele>123.4</ele><time>2026-04-25T09:35:30.989Z</time></trkpt><trkpt lat="44.82187222838742" lon="4.776924042722194"><ele>118.60000000000001</ele><time>2026-04-25T09:35:32.989Z</time></trkpt><trkpt lat="44.82189768089989" lon="4.777012700137244"><ele>113.80000000000001</ele><time>2026-04-25T09:35:33.989Z</time></trkpt><trkpt lat="44.82194473267803" lon="4.777151612924913"><ele>109.0</ele><time>2026-04-25T09:35:35.988Z</time></trkpt><trkpt lat="44.82196466135416" lon="4.777296243703914"><ele>109.0</ele><time>2026-04-25T09:35:37.989Z</time></trkpt><trkpt lat="44.82201484778252" lon="4.777441615606327"><ele>109.0</ele><time>2026-04-25T09:35:39.989Z</time></trkpt><trkpt lat="44.8220544256246" lon="4.777589740492665"><ele>109.0</ele><time>2026-04-25T09:35:41.989Z</time></trkpt><trkpt lat="44.822083165705365" lon="4.777740456938552"><ele>109.0</ele><time>2026-04-25T09:35:43.989Z</time></trkpt><trkpt lat="44.822114480810356" lon="4.777880824865707"><ele>109.0</ele><time>2026-04-25T09:35:45.989Z</time></trkpt><trkpt lat="44.82212618677288" lon="4.778035223529579"><ele>109.2</ele><time>2026-04-25T09:35:47.989Z</time></trkpt><trkpt lat="44.82214209617566" lon="4.778191327225451"><ele>109.4</ele><time>2026-04-25T09:35:49.989Z</time></trkpt><trkpt lat="44.82215528146161" lon="4.778342001028919"><ele>109.6</ele><time>2026-04-25T09:35:51.989Z</time></trkpt><trkpt lat="44.82216975467138" lon="4.778501255767237"><ele>109.8</ele><time>2026-04-25T09:35:53.989Z</time></trkpt><trkpt lat="44.82216146160484" lon="4.77864826259528"><ele>110.0</ele><time>2026-04-25T09:35:55.989Z</time></trkpt><trkpt lat="44.82216729246434" lon="4.778740934962753"><ele>110.0</ele><time>2026-04-25T09:35:56.989Z</time></trkpt><trkpt lat="44.82216637272454" lon="4.778832438977384"><ele>110.0</ele><time>2026-04-25T09:35:57.989Z</time></trkpt><trkpt lat="44.822170662955145" lon="4.778994329694872"><ele>110.0</ele><time>2026-04-25T09:35:59.989Z</time></trkpt><trkpt lat="44.822178483164556" lon="4.779169379654409"><ele>110.0</ele><time>2026-04-25T09:36:01.989Z</time></trkpt><trkpt lat="44.822192788283004" lon="4.779257366363228"><ele>110.0</ele><time>2026-04-25T09:36:02.989Z</time></trkpt><trkpt lat="44.82219898413594" lon="4.779423031353969"><ele>110.0</ele><time>2026-04-25T09:36:04.989Z</time></trkpt><trkpt lat="44.822216467648225" lon="4.779588108463955"><ele>110.0</ele><time>2026-04-25T09:36:06.989Z</time></trkpt><trkpt lat="44.82221134135092" lon="4.779747848190992"><ele>110.0</ele><time>2026-04-25T09:36:08.989Z</time></trkpt><trkpt lat="44.82221663671245" lon="4.779900609149491"><ele>110.0</ele><time>2026-04-25T09:36:10.989Z</time></trkpt><trkpt lat="44.82221034259877" lon="4.780048178792486"><ele>110.0</ele><time>2026-04-25T09:36:12.989Z</time></trkpt><trkpt lat="44.822200896808106" lon="4.780199455048776"><ele>109.4</ele><time>2026-04-25T09:36:14.989Z</time></trkpt><trkpt lat="44.82217714887077" lon="4.780339292237099"><ele>108.8</ele><time>2026-04-25T09:36:16.989Z</time></trkpt><trkpt lat="44.82214040531864" lon="4.780487993729621"><ele>108.19999999999999</ele><time>2026-04-25T09:36:18.989Z</time></trkpt><trkpt lat="44.82209886485316" lon="4.780633521176062"><ele>107.6</ele><time>2026-04-25T09:36:20.989Z</time></trkpt><trkpt lat="44.822066855945835" lon="4.780777478860488"><ele>107.0</ele><time>2026-04-25T09:36:22.989Z</time></trkpt><trkpt lat="44.82202661620042" lon="4.780920235122199"><ele>106.99999999999999</ele><time>2026-04-25T09:36:24.989Z</time></trkpt><trkpt lat="44.82200459723744" lon="4.781010986102988"><ele>107.0</ele><time>2026-04-25T09:36:25.989Z</time></trkpt><trkpt lat="44.8219835306647" lon="4.781176690477374"><ele>107.0</ele><time>2026-04-25T09:36:27.989Z</time></trkpt><trkpt lat="44.82194327253574" lon="4.781338989851182"><ele>107.0</ele><time>2026-04-25T09:36:29.989Z</time></trkpt><trkpt lat="44.82192027011996" lon="4.781422097458112"><ele>106.99999999999999</ele><time>2026-04-25T09:36:30.989Z</time></trkpt><trkpt lat="44.82189762754802" lon="4.7815083747604215"><ele>107.0</ele><time>2026-04-25T09:36:31.989Z</time></trkpt><trkpt lat="44.82184732965258" lon="4.78165657325519"><ele>108.39999999999999</ele><time>2026-04-25T09:36:33.989Z</time></trkpt><trkpt lat="44.821812913960734" lon="4.781742286765707"><ele>109.79999999999998</ele><time>2026-04-25T09:36:34.989Z</time></trkpt><trkpt lat="44.82175339726768" lon="4.78188549962675"><ele>111.2</ele><time>2026-04-25T09:36:36.989Z</time></trkpt><trkpt lat="44.821682975104764" lon="4.782013240749224"><ele>112.6</ele><time>2026-04-25T09:36:38.989Z</time></trkpt><trkpt lat="44.8216102119744" lon="4.782156302216274"><ele>114.0</ele><time>2026-04-25T09:36:40.989Z</time></trkpt><trkpt lat="44.821531691867214" lon="4.7822819453213175"><ele>114.0</ele><time>2026-04-25T09:36:42.989Z</time></trkpt><trkpt lat="44.82146246190607" lon="4.782418439316612"><ele>114.0</ele><time>2026-04-25T09:36:44.988Z</time></trkpt><trkpt lat="44.82137408032955" lon="4.782532101776694"><ele>114.0</ele><time>2026-04-25T09:36:46.988Z</time></trkpt><trkpt lat="44.821277670780084" lon="4.78262119546137"><ele>114.0</ele><time>2026-04-25T09:36:48.988Z</time></trkpt><trkpt lat="44.82117716333556" lon="4.782714633411119"><ele>114.25</ele><time>2026-04-25T09:36:50.988Z</time></trkpt><trkpt lat="44.82109812614833" lon="4.782794162762314"><ele>114.5</ele><time>2026-04-25T09:36:52.988Z</time></trkpt><trkpt lat="44.82098899885556" lon="4.782877897153978"><ele>114.75</ele><time>2026-04-25T09:36:54.988Z</time></trkpt><trkpt lat="44.820892678115015" lon="4.782975108430356"><ele>115.0</ele><time>2026-04-25T09:36:56.988Z</time></trkpt><trkpt lat="44.8207984982795" lon="4.7830671068565636"><ele>115.0</ele><time>2026-04-25T09:36:58.988Z</time></trkpt><trkpt lat="44.82069265662861" lon="4.783128118590138"><ele>115.0</ele><time>2026-04-25T09:37:00.988Z</time></trkpt><trkpt lat="44.82060345139092" lon="4.78321380506656"><ele>115.0</ele><time>2026-04-25T09:37:02.988Z</time></trkpt><trkpt lat="44.82052214492462" lon="4.783289339301232"><ele>115.0</ele><time>2026-04-25T09:37:04.988Z</time></trkpt><trkpt lat="44.8204640534831" lon="4.783326347561519"><ele>115.0</ele><time>2026-04-25T09:37:05.988Z</time></trkpt><trkpt lat="44.82037490098819" lon="4.783427196745857"><ele>114.8</ele><time>2026-04-25T09:37:07.988Z</time></trkpt><trkpt lat="44.82028616184399" lon="4.783531664213427"><ele>114.6</ele><time>2026-04-25T09:37:09.988Z</time></trkpt><trkpt lat="44.820231862161414" lon="4.7835775438866985"><ele>114.4</ele><time>2026-04-25T09:37:10.988Z</time></trkpt><trkpt lat="44.82014989223805" lon="4.7836795586056"><ele>114.2</ele><time>2026-04-25T09:37:12.988Z</time></trkpt><trkpt lat="44.82009430483627" lon="4.783735817364241"><ele>114.0</ele><time>2026-04-25T09:37:13.988Z</time></trkpt><trkpt lat="44.81999717748407" lon="4.7838576182622745"><ele>114.0</ele><time>2026-04-25T09:37:15.988Z</time></trkpt><trkpt lat="44.81991909356032" lon="4.783962759042254"><ele>114.0</ele><time>2026-04-25T09:37:17.988Z</time></trkpt><trkpt lat="44.81983097525181" lon="4.78407558667529"><ele>114.0</ele><time>2026-04-25T09:37:19.988Z</time></trkpt><trkpt lat="44.81978679285335" lon="4.784142807117728"><ele>114.0</ele><time>2026-04-25T09:37:20.988Z</time></trkpt><trkpt lat="44.81969866332164" lon="4.784239665053039"><ele>114.0</ele><time>2026-04-25T09:37:22.988Z</time></trkpt><trkpt lat="44.81960301737111" lon="4.784342337077388"><ele>113.80000000000001</ele><time>2026-04-25T09:37:24.988Z</time></trkpt><trkpt lat="44.81954681419829" lon="4.784397656897265"><ele>113.60000000000001</ele><time>2026-04-25T09:37:25.988Z</time></trkpt><trkpt lat="44.81947564092525" lon="4.7845234172686215"><ele>113.4</ele><time>2026-04-25T09:37:27.988Z</time></trkpt><trkpt lat="44.8193863101099" lon="4.784613703409855"><ele>113.2</ele><time>2026-04-25T09:37:29.988Z</time></trkpt><trkpt lat="44.81933660403871" lon="4.784676428032422"><ele>113.0</ele><time>2026-04-25T09:37:30.988Z</time></trkpt><trkpt lat="44.819261256595745" lon="4.784790225988579"><ele>113.0</ele><time>2026-04-25T09:37:32.987Z</time></trkpt><trkpt lat="44.81921187563688" lon="4.784856059533561"><ele>113.00000000000001</ele><time>2026-04-25T09:37:33.987Z</time></trkpt><trkpt lat="44.81910970369336" lon="4.784954656839969"><ele>113.00000000000001</ele><time>2026-04-25T09:37:35.988Z</time></trkpt><trkpt lat="44.8190390045144" lon="4.785061789663713"><ele>113.0</ele><time>2026-04-25T09:37:37.988Z</time></trkpt><trkpt lat="44.8189386859699" lon="4.7851508188348815"><ele>113.0</ele><time>2026-04-25T09:37:39.987Z</time></trkpt><trkpt lat="44.81888593942103" lon="4.785212509739133"><ele>111.80000000000001</ele><time>2026-04-25T09:37:40.987Z</time></trkpt><trkpt lat="44.81883670863919" lon="4.785270698826061"><ele>110.60000000000001</ele><time>2026-04-25T09:37:41.985Z</time></trkpt><trkpt lat="44.81873965798814" lon="4.785378073924888"><ele>109.39999999999999</ele><time>2026-04-25T09:37:43.981Z</time></trkpt><trkpt lat="44.818651700883535" lon="4.7854909864548"><ele>108.19999999999999</ele><time>2026-04-25T09:37:45.977Z</time></trkpt><trkpt lat="44.81860352697522" lon="4.785550681127602"><ele>107.0</ele><time>2026-04-25T09:37:46.976Z</time></trkpt><trkpt lat="44.818509903546435" lon="4.7856564108481345"><ele>107.0</ele><time>2026-04-25T09:37:48.973Z</time></trkpt><trkpt lat="44.818439184709355" lon="4.78576693487406"><ele>106.99999999999999</ele><time>2026-04-25T09:37:50.971Z</time></trkpt><trkpt lat="44.81835330000436" lon="4.78586812682676"><ele>106.99999999999999</ele><time>2026-04-25T09:37:52.969Z</time></trkpt><trkpt lat="44.81825951503343" lon="4.785970059243434"><ele>107.0</ele><time>2026-04-25T09:37:54.968Z</time></trkpt><trkpt lat="44.81817551731697" lon="4.78606987828234"><ele>107.0</ele><time>2026-04-25T09:37:56.966Z</time></trkpt><trkpt lat="44.8181053646937" lon="4.7861613834220424"><ele>107.0</ele><time>2026-04-25T09:37:58.965Z</time></trkpt><trkpt lat="44.8180174832381" lon="4.786252362666737"><ele>106.99999999999999</ele><time>2026-04-25T09:38:00.964Z</time></trkpt><trkpt lat="44.81793226171505" lon="4.786338602604199"><ele>106.99999999999999</ele><time>2026-04-25T09:38:02.963Z</time></trkpt><trkpt lat="44.8178469533272" lon="4.786450218281439"><ele>107.0</ele><time>2026-04-25T09:38:04.962Z</time></trkpt><trkpt lat="44.817759813728486" lon="4.786536955822459"><ele>107.0</ele><time>2026-04-25T09:38:06.961Z</time></trkpt><trkpt lat="44.817673328748924" lon="4.786614874237748"><ele>107.33333333333333</ele><time>2026-04-25T09:38:08.96Z</time></trkpt><trkpt lat="44.81757019917993" lon="4.786682663942377"><ele>107.66666666666666</ele><time>2026-04-25T09:38:10.959Z</time></trkpt><trkpt lat="44.81749245571123" lon="4.7867307530756555"><ele>108.0</ele><time>2026-04-25T09:38:12.959Z</time></trkpt><trkpt lat="44.81743759554417" lon="4.786775374448381"><ele>108.33333333333334</ele><time>2026-04-25T09:38:13.959Z</time></trkpt><trkpt lat="44.81734940777115" lon="4.786860499494998"><ele>108.66666666666667</ele><time>2026-04-25T09:38:15.958Z</time></trkpt><trkpt lat="44.81728958958503" lon="4.786927652414351"><ele>109.0</ele><time>2026-04-25T09:38:18.958Z</time></trkpt><trkpt lat="44.81722056797113" lon="4.786951650690147"><ele>109.0</ele><time>2026-04-25T09:38:24.957Z</time></trkpt><trkpt lat="44.817133147041034" lon="4.7870027629532474"><ele>109.0</ele><time>2026-04-25T09:38:27.956Z</time></trkpt><trkpt lat="44.81704487366468" lon="4.787077374235528"><ele>109.0</ele><time>2026-04-25T09:38:29.956Z</time></trkpt><trkpt lat="44.8169620921063" lon="4.787174118601162"><ele>109.0</ele><time>2026-04-25T09:38:31.956Z</time></trkpt><trkpt lat="44.816888858673735" lon="4.78726466239691"><ele>109.0</ele><time>2026-04-25T09:38:33.956Z</time></trkpt><trkpt lat="44.8168057163196" lon="4.787364166974879"><ele>109.0</ele><time>2026-04-25T09:38:35.956Z</time></trkpt><trkpt lat="44.81673990775246" lon="4.7874695293998935"><ele>109.0</ele><time>2026-04-25T09:38:37.955Z</time></trkpt><trkpt lat="44.81666242732207" lon="4.787579602186598"><ele>109.0</ele><time>2026-04-25T09:38:39.955Z</time></trkpt><trkpt lat="44.816591636991" lon="4.787699404250601"><ele>109.0</ele><time>2026-04-25T09:38:41.955Z</time></trkpt><trkpt lat="44.81653191536483" lon="4.787824708596162"><ele>109.0</ele><time>2026-04-25T09:38:43.955Z</time></trkpt><trkpt lat="44.81647524622832" lon="4.787949330795116"><ele>109.0</ele><time>2026-04-25T09:38:45.955Z</time></trkpt><trkpt lat="44.81641541904393" lon="4.788081660133162"><ele>109.0</ele><time>2026-04-25T09:38:47.955Z</time></trkpt><trkpt lat="44.816367845660984" lon="4.7882224317263935"><ele>109.0</ele><time>2026-04-25T09:38:49.955Z</time></trkpt><trkpt lat="44.816315805056185" lon="4.788359273120446"><ele>109.0</ele><time>2026-04-25T09:38:51.955Z</time></trkpt><trkpt lat="44.81627317131746" lon="4.788489386337"><ele>109.0</ele><time>2026-04-25T09:38:53.955Z</time></trkpt><trkpt lat="44.81622090899411" lon="4.788625976935204"><ele>108.4</ele><time>2026-04-25T09:38:55.955Z</time></trkpt><trkpt lat="44.81616384699192" lon="4.788755861246964"><ele>107.80000000000001</ele><time>2026-04-25T09:38:57.955Z</time></trkpt><trkpt lat="44.81611228769589" lon="4.788883710653766"><ele>107.19999999999999</ele><time>2026-04-25T09:38:59.955Z</time></trkpt><trkpt lat="44.81605669266643" lon="4.789005995993321"><ele>106.6</ele><time>2026-04-25T09:39:01.955Z</time></trkpt><trkpt lat="44.81600532660743" lon="4.789134547231967"><ele>106.0</ele><time>2026-04-25T09:39:03.954Z</time></trkpt><trkpt lat="44.81595643798545" lon="4.789255961110436"><ele>107.00000000000001</ele><time>2026-04-25T09:39:05.954Z</time></trkpt><trkpt lat="44.81590908601439" lon="4.789364171445668"><ele>108.0</ele><time>2026-04-25T09:39:07.954Z</time></trkpt><trkpt lat="44.81586152086665" lon="4.789474018325204"><ele>109.0</ele><time>2026-04-25T09:39:09.954Z</time></trkpt><trkpt lat="44.81581279930448" lon="4.789576980276525"><ele>110.0</ele><time>2026-04-25T09:39:11.954Z</time></trkpt><trkpt lat="44.81575778257373" lon="4.7896782182249185"><ele>111.00000000000001</ele><time>2026-04-25T09:39:13.954Z</time></trkpt><trkpt lat="44.8157242233031" lon="4.789765703712471"><ele>112.0</ele><time>2026-04-25T09:39:15.954Z</time></trkpt><trkpt lat="44.81569671988202" lon="4.789891902823669"><ele>112.0</ele><time>2026-04-25T09:39:18.954Z</time></trkpt><trkpt lat="44.815660714587224" lon="4.7899931193987095"><ele>111.99999999999999</ele><time>2026-04-25T09:39:20.954Z</time></trkpt><trkpt lat="44.81561234371443" lon="4.790119904629661"><ele>111.99999999999999</ele><time>2026-04-25T09:39:22.954Z</time></trkpt><trkpt lat="44.81557213502223" lon="4.790240379237635"><ele>112.0</ele><time>2026-04-25T09:39:24.954Z</time></trkpt><trkpt lat="44.81552017203643" lon="4.790358007111909"><ele>112.0</ele><time>2026-04-25T09:39:26.954Z</time></trkpt><trkpt lat="44.81545494096029" lon="4.790461103558577"><ele>111.39999999999999</ele><time>2026-04-25T09:39:28.954Z</time></trkpt><trkpt lat="44.81539088106794" lon="4.7905620394493935"><ele>110.79999999999998</ele><time>2026-04-25T09:39:30.954Z</time></trkpt><trkpt lat="44.815328615797334" lon="4.790672083508559"><ele>110.2</ele><time>2026-04-25T09:39:32.954Z</time></trkpt><trkpt lat="44.81527715518129" lon="4.7907829701347"><ele>109.6</ele><time>2026-04-25T09:39:34.954Z</time></trkpt><trkpt lat="44.815235179633426" lon="4.79087888529101"><ele>109.0</ele><time>2026-04-25T09:39:36.954Z</time></trkpt><trkpt lat="44.81518633283537" lon="4.790967839806339"><ele>109.83333333333334</ele><time>2026-04-25T09:39:38.954Z</time></trkpt><trkpt lat="44.81512720109896" lon="4.791069571554949"><ele>110.66666666666667</ele><time>2026-04-25T09:39:40.954Z</time></trkpt><trkpt lat="44.81507037725664" lon="4.791173406713276"><ele>111.5</ele><time>2026-04-25T09:39:42.954Z</time></trkpt><trkpt lat="44.815022261730356" lon="4.791279968016219"><ele>112.33333333333334</ele><time>2026-04-25T09:39:44.954Z</time></trkpt><trkpt lat="44.814981034242386" lon="4.791386260141777"><ele>113.16666666666667</ele><time>2026-04-25T09:39:46.954Z</time></trkpt><trkpt lat="44.814946155834335" lon="4.791486621811688"><ele>114.0</ele><time>2026-04-25T09:39:48.954Z</time></trkpt><trkpt lat="44.81491662526853" lon="4.791601346419056"><ele>114.0</ele><time>2026-04-25T09:39:50.954Z</time></trkpt><trkpt lat="44.8148917426746" lon="4.791715003506471"><ele>114.0</ele><time>2026-04-25T09:39:52.954Z</time></trkpt><trkpt lat="44.814866675302646" lon="4.7918324901163025"><ele>114.0</ele><time>2026-04-25T09:39:54.954Z</time></trkpt><trkpt lat="44.814860241299" lon="4.791936765221833"><ele>114.0</ele><time>2026-04-25T09:39:56.954Z</time></trkpt><trkpt lat="44.81486194853406" lon="4.792058180293071"><ele>114.0</ele><time>2026-04-25T09:39:59.954Z</time></trkpt><trkpt lat="44.81485630112197" lon="4.792147481545053"><ele>114.0</ele><time>2026-04-25T09:40:01.954Z</time></trkpt><trkpt lat="44.81485586979499" lon="4.79224050747624"><ele>114.0</ele><time>2026-04-25T09:40:03.954Z</time></trkpt><trkpt lat="44.8148440080321" lon="4.792363360907776"><ele>114.0</ele><time>2026-04-25T09:40:05.954Z</time></trkpt><trkpt lat="44.81484387887593" lon="4.792489207138804"><ele>114.0</ele><time>2026-04-25T09:40:07.954Z</time></trkpt><trkpt lat="44.81486716751174" lon="4.792627365729455"><ele>114.0</ele><time>2026-04-25T09:40:09.954Z</time></trkpt><trkpt lat="44.81487145980095" lon="4.7927927294677"><ele>114.0</ele><time>2026-04-25T09:40:11.954Z</time></trkpt><trkpt lat="44.81489011456112" lon="4.792969938000572"><ele>114.4</ele><time>2026-04-25T09:40:13.954Z</time></trkpt><trkpt lat="44.81489852312053" lon="4.793060753202927"><ele>114.80000000000001</ele><time>2026-04-25T09:40:14.954Z</time></trkpt><trkpt lat="44.81490497491972" lon="4.793229198638049"><ele>115.19999999999999</ele><time>2026-04-25T09:40:16.954Z</time></trkpt><trkpt lat="44.81490959281359" lon="4.793382335123504"><ele>115.6</ele><time>2026-04-25T09:40:18.954Z</time></trkpt><trkpt lat="44.81485472114482" lon="4.793528561076659"><ele>116.0</ele><time>2026-04-25T09:40:20.954Z</time></trkpt><trkpt lat="44.814814844567174" lon="4.793698628448487"><ele>116.83333333333333</ele><time>2026-04-25T09:40:22.954Z</time></trkpt><trkpt lat="44.814739865193744" lon="4.793844160792046"><ele>117.66666666666666</ele><time>2026-04-25T09:40:24.954Z</time></trkpt><trkpt lat="44.81470098248293" lon="4.793917033219218"><ele>118.5</ele><time>2026-04-25T09:40:25.954Z</time></trkpt><trkpt lat="44.814649491153574" lon="4.793978586895488"><ele>119.33333333333334</ele><time>2026-04-25T09:40:26.954Z</time></trkpt><trkpt lat="44.814604243671944" lon="4.79404147208494"><ele>120.16666666666667</ele><time>2026-04-25T09:40:27.954Z</time></trkpt><trkpt lat="44.81455710863652" lon="4.794109143847097"><ele>121.0</ele><time>2026-04-25T09:40:28.954Z</time></trkpt><trkpt lat="44.81449197145008" lon="4.794231229167302"><ele>121.19999999999999</ele><time>2026-04-25T09:40:30.954Z</time></trkpt><trkpt lat="44.8143822536131" lon="4.7943413842956035"><ele>121.39999999999999</ele><time>2026-04-25T09:40:32.954Z</time></trkpt><trkpt lat="44.8143223070437" lon="4.794373757057705"><ele>121.6</ele><time>2026-04-25T09:40:33.954Z</time></trkpt><trkpt lat="44.814260196720035" lon="4.794400874597706"><ele>121.8</ele><time>2026-04-25T09:40:34.954Z</time></trkpt><trkpt lat="44.81414561064507" lon="4.794446234597793"><ele>122.0</ele><time>2026-04-25T09:40:36.954Z</time></trkpt><trkpt lat="44.81402861265099" lon="4.794452450637603"><ele>121.99999999999999</ele><time>2026-04-25T09:40:38.954Z</time></trkpt><trkpt lat="44.813953615933144" lon="4.794438257325287"><ele>122.0</ele><time>2026-04-25T09:40:39.954Z</time></trkpt><trkpt lat="44.813829164831944" lon="4.794420266111481"><ele>122.0</ele><time>2026-04-25T09:40:41.954Z</time></trkpt><trkpt lat="44.813765379686274" lon="4.794421045802088"><ele>122.0</ele><time>2026-04-25T09:40:42.954Z</time></trkpt><trkpt lat="44.81368847714985" lon="4.794421430834919"><ele>121.99999999999999</ele><time>2026-04-25T09:40:43.954Z</time></trkpt><trkpt lat="44.81361860372337" lon="4.79441451286245"><ele>122.0</ele><time>2026-04-25T09:40:44.954Z</time></trkpt><trkpt lat="44.813551329284834" lon="4.794424407575647"><ele>121.42857142857142</ele><time>2026-04-25T09:40:45.954Z</time></trkpt><trkpt lat="44.81348217097654" lon="4.794432086627588"><ele>120.85714285714286</ele><time>2026-04-25T09:40:46.954Z</time></trkpt><trkpt lat="44.813409544399825" lon="4.7944347536468745"><ele>120.28571428571428</ele><time>2026-04-25T09:40:47.954Z</time></trkpt><trkpt lat="44.81333615473529" lon="4.794451797060984"><ele>119.71428571428571</ele><time>2026-04-25T09:40:48.954Z</time></trkpt><trkpt lat="44.81325797063148" lon="4.794464406877274"><ele>119.14285714285714</ele><time>2026-04-25T09:40:49.954Z</time></trkpt><trkpt lat="44.81318346139444" lon="4.794469178666264"><ele>118.57142857142857</ele><time>2026-04-25T09:40:50.954Z</time></trkpt><trkpt lat="44.81311797544663" lon="4.79448912830416"><ele>118.0</ele><time>2026-04-25T09:40:51.954Z</time></trkpt><trkpt lat="44.813056799427855" lon="4.794519318057471"><ele>118.0</ele><time>2026-04-25T09:40:52.954Z</time></trkpt><trkpt lat="44.812939595203964" lon="4.794560861689771"><ele>118.00000000000001</ele><time>2026-04-25T09:40:54.953Z</time></trkpt><trkpt lat="44.812835193932834" lon="4.794608481409009"><ele>118.00000000000001</ele><time>2026-04-25T09:40:56.953Z</time></trkpt><trkpt lat="44.812739627625255" lon="4.794647829945942"><ele>118.0</ele><time>2026-04-25T09:40:58.953Z</time></trkpt><trkpt lat="44.81264795563592" lon="4.794715952020006"><ele>118.0</ele><time>2026-04-25T09:41:00.953Z</time></trkpt><trkpt lat="44.812596689418754" lon="4.7947756229530825"><ele>116.60000000000001</ele><time>2026-04-25T09:41:03.953Z</time></trkpt><trkpt lat="44.812545478855625" lon="4.794845960457767"><ele>115.20000000000002</ele><time>2026-04-25T09:41:05.953Z</time></trkpt><trkpt lat="44.81252887781511" lon="4.794983631402682"><ele>113.8</ele><time>2026-04-25T09:41:07.953Z</time></trkpt><trkpt lat="44.81250531807265" lon="4.795141498354701"><ele>112.4</ele><time>2026-04-25T09:41:09.953Z</time></trkpt><trkpt lat="44.81244436236598" lon="4.7952966595305435"><ele>111.0</ele><time>2026-04-25T09:41:11.953Z</time></trkpt><trkpt lat="44.81241363744733" lon="4.795379145991238"><ele>110.71428571428571</ele><time>2026-04-25T09:41:12.953Z</time></trkpt><trkpt lat="44.81238460728298" lon="4.795460602419326"><ele>110.42857142857143</ele><time>2026-04-25T09:41:13.953Z</time></trkpt><trkpt lat="44.81235922019969" lon="4.795546457985505"><ele>110.14285714285714</ele><time>2026-04-25T09:41:14.953Z</time></trkpt><trkpt lat="44.812332526697716" lon="4.7956331880783365"><ele>109.85714285714286</ele><time>2026-04-25T09:41:15.953Z</time></trkpt><trkpt lat="44.81230530634937" lon="4.7957196926537495"><ele>109.57142857142858</ele><time>2026-04-25T09:41:16.953Z</time></trkpt><trkpt lat="44.81229730500058" lon="4.79582068247122"><ele>109.28571428571429</ele><time>2026-04-25T09:41:17.953Z</time></trkpt><trkpt lat="44.81232540337691" lon="4.795907554328451"><ele>109.0</ele><time>2026-04-25T09:41:18.953Z</time></trkpt><trkpt lat="44.81238105036805" lon="4.795967334595018"><ele>109.66666666666667</ele><time>2026-04-25T09:41:19.953Z</time></trkpt><trkpt lat="44.81243898018697" lon="4.796009013812441"><ele>110.33333333333334</ele><time>2026-04-25T09:41:20.953Z</time></trkpt><trkpt lat="44.81252957144894" lon="4.796100438387708"><ele>111.0</ele><time>2026-04-25T09:41:22.953Z</time></trkpt><trkpt lat="44.81260659088556" lon="4.796184535024393"><ele>111.66666666666666</ele><time>2026-04-25T09:41:24.953Z</time></trkpt><trkpt lat="44.81267149234893" lon="4.796274710631352"><ele>112.33333333333333</ele><time>2026-04-25T09:41:26.953Z</time></trkpt><trkpt lat="44.81272949982842" lon="4.79635448718767"><ele>113.0</ele><time>2026-04-25T09:41:28.953Z</time></trkpt><trkpt lat="44.812793237264515" lon="4.796440114946066"><ele>112.99999999999999</ele><time>2026-04-25T09:41:30.953Z</time></trkpt><trkpt lat="44.81285259992321" lon="4.79651556232539"><ele>113.0</ele><time>2026-04-25T09:41:32.953Z</time></trkpt><trkpt lat="44.8129189561659" lon="4.796591048980812"><ele>113.0</ele><time>2026-04-25T09:41:34.953Z</time></trkpt><trkpt lat="44.812976922498706" lon="4.796679750556459"><ele>113.0</ele><time>2026-04-25T09:41:36.953Z</time></trkpt><trkpt lat="44.81305803610703" lon="4.796752898464084"><ele>112.99999999999999</ele><time>2026-04-25T09:41:38.953Z</time></trkpt><trkpt lat="44.813136053212745" lon="4.796824418800552"><ele>113.0</ele><time>2026-04-25T09:41:40.953Z</time></trkpt><trkpt lat="44.813213597093466" lon="4.796890040726859"><ele>112.0</ele><time>2026-04-25T09:41:42.953Z</time></trkpt><trkpt lat="44.813291623516" lon="4.796961136850049"><ele>111.00000000000001</ele><time>2026-04-25T09:41:44.952Z</time></trkpt><trkpt lat="44.81337757354625" lon="4.79702660262319"><ele>110.00000000000001</ele><time>2026-04-25T09:41:46.952Z</time></trkpt><trkpt lat="44.813465123426575" lon="4.7971069897105325"><ele>109.0</ele><time>2026-04-25T09:41:48.952Z</time></trkpt><trkpt lat="44.813555179616465" lon="4.797189824996229"><ele>108.0</ele><time>2026-04-25T09:41:50.953Z</time></trkpt><trkpt lat="44.81363888986043" lon="4.797285959189203"><ele>108.0</ele><time>2026-04-25T09:41:52.953Z</time></trkpt><trkpt lat="44.81371316499289" lon="4.797367932444398"><ele>108.00000000000001</ele><time>2026-04-25T09:41:54.952Z</time></trkpt><trkpt lat="44.81378253434257" lon="4.797455617500112"><ele>108.00000000000001</ele><time>2026-04-25T09:41:56.952Z</time></trkpt><trkpt lat="44.81383155403139" lon="4.797578700500291"><ele>108.0</ele><time>2026-04-25T09:41:58.952Z</time></trkpt><trkpt lat="44.81381140458691" lon="4.797740784863979"><ele>108.0</ele><time>2026-04-25T09:42:00.952Z</time></trkpt><trkpt lat="44.813761706398566" lon="4.797892786331659"><ele>106.5</ele><time>2026-04-25T09:42:02.952Z</time></trkpt><trkpt lat="44.81369215804776" lon="4.798017587498633"><ele>105.0</ele><time>2026-04-25T09:42:04.952Z</time></trkpt><trkpt lat="44.813626356956874" lon="4.79803794796398"><ele>103.5</ele><time>2026-04-25T09:42:05.952Z</time></trkpt><trkpt lat="44.813528885539235" lon="4.798069615788978"><ele>102.0</ele><time>2026-04-25T09:42:07.952Z</time></trkpt><trkpt lat="44.8134900413401" lon="4.798185707132354"><ele>100.5</ele><time>2026-04-25T09:42:09.952Z</time></trkpt><trkpt lat="44.81345525668169" lon="4.798267173938589"><ele>99.0</ele><time>2026-04-25T09:42:10.952Z</time></trkpt><trkpt lat="44.81340812215546" lon="4.798374835303352"><ele>98.6</ele><time>2026-04-25T09:42:12.952Z</time></trkpt><trkpt lat="44.81344762138105" lon="4.798469066712444"><ele>98.2</ele><time>2026-04-25T09:42:15.952Z</time></trkpt><trkpt lat="44.813539318752525" lon="4.798511854201289"><ele>97.8</ele><time>2026-04-25T09:42:17.952Z</time></trkpt><trkpt lat="44.81362887754272" lon="4.798563393275781"><ele>97.39999999999999</ele><time>2026-04-25T09:42:19.952Z</time></trkpt><trkpt lat="44.81373163854897" lon="4.798594825999819"><ele>97.0</ele><time>2026-04-25T09:42:21.952Z</time></trkpt><trkpt lat="44.813831461708865" lon="4.798631969638916"><ele>97.0</ele><time>2026-04-25T09:42:23.952Z</time></trkpt><trkpt lat="44.8139253754041" lon="4.798665558764115"><ele>97.0</ele><time>2026-04-25T09:42:25.952Z</time></trkpt><trkpt lat="44.81401794430123" lon="4.798700808730831"><ele>97.0</ele><time>2026-04-25T09:42:27.952Z</time></trkpt><trkpt lat="44.81410882413496" lon="4.7987244563003"><ele>97.0</ele><time>2026-04-25T09:42:29.952Z</time></trkpt><trkpt lat="44.814206847852425" lon="4.79875734982641"><ele>97.0</ele><time>2026-04-25T09:42:31.952Z</time></trkpt><trkpt lat="44.81430902719271" lon="4.798781611650501"><ele>97.39999999999999</ele><time>2026-04-25T09:42:33.952Z</time></trkpt><trkpt lat="44.81441308707771" lon="4.798803006566125"><ele>97.8</ele><time>2026-04-25T09:42:35.952Z</time></trkpt><trkpt lat="44.81451436285842" lon="4.798825616348722"><ele>98.2</ele><time>2026-04-25T09:42:37.952Z</time></trkpt><trkpt lat="44.81462730035365" lon="4.79886660099676"><ele>98.6</ele><time>2026-04-25T09:42:39.952Z</time></trkpt><trkpt lat="44.81473204070073" lon="4.798899986742353"><ele>99.0</ele><time>2026-04-25T09:42:41.952Z</time></trkpt><trkpt lat="44.81484018200683" lon="4.79892968660928"><ele>99.0</ele><time>2026-04-25T09:42:43.952Z</time></trkpt><trkpt lat="44.81490221125711" lon="4.798944845757912"><ele>99.0</ele><time>2026-04-25T09:42:44.952Z</time></trkpt><trkpt lat="44.815007738662146" lon="4.798957807621506"><ele>99.0</ele><time>2026-04-25T09:42:46.952Z</time></trkpt><trkpt lat="44.81512234804514" lon="4.798969859392077"><ele>99.0</ele><time>2026-04-25T09:42:48.952Z</time></trkpt><trkpt lat="44.81522607505892" lon="4.798964228466783"><ele>99.0</ele><time>2026-04-25T09:42:50.952Z</time></trkpt><trkpt lat="44.81533318601144" lon="4.798971225290355"><ele>98.16666666666667</ele><time>2026-04-25T09:42:52.951Z</time></trkpt><trkpt lat="44.81542988003043" lon="4.798949012770482"><ele>97.33333333333333</ele><time>2026-04-25T09:42:54.951Z</time></trkpt><trkpt lat="44.81550457749756" lon="4.798957035710714"><ele>96.5</ele><time>2026-04-25T09:42:56.951Z</time></trkpt><trkpt lat="44.815495990190605" lon="4.79905627515499"><ele>95.66666666666666</ele><time>2026-04-25T09:42:59.951Z</time></trkpt><trkpt lat="44.815430450853356" lon="4.799153787183337"><ele>94.83333333333333</ele><time>2026-04-25T09:43:01.951Z</time></trkpt><trkpt lat="44.81542153660547" lon="4.799277621673966"><ele>94.0</ele><time>2026-04-25T09:43:03.951Z</time></trkpt><trkpt lat="44.81547462045427" lon="4.799387481556625"><ele>94.0</ele><time>2026-04-25T09:43:05.951Z</time></trkpt><trkpt lat="44.81554798665809" lon="4.799474890546665"><ele>94.0</ele><time>2026-04-25T09:43:07.951Z</time></trkpt><trkpt lat="44.81559885785843" lon="4.799566627697722"><ele>94.0</ele><time>2026-04-25T09:43:09.951Z</time></trkpt><trkpt lat="44.815649993398296" lon="4.799673966177131"><ele>94.0</ele><time>2026-04-25T09:43:11.951Z</time></trkpt><trkpt lat="44.81571422756554" lon="4.799764966713202"><ele>94.0</ele><time>2026-04-25T09:43:13.951Z</time></trkpt><trkpt lat="44.815776242851605" lon="4.799869060414478"><ele>94.0</ele><time>2026-04-25T09:43:15.951Z</time></trkpt><trkpt lat="44.815831827538865" lon="4.799973993149296"><ele>94.0</ele><time>2026-04-25T09:43:17.951Z</time></trkpt><trkpt lat="44.815900781418016" lon="4.800076177099737"><ele>94.0</ele><time>2026-04-25T09:43:19.951Z</time></trkpt><trkpt lat="44.81596941555916" lon="4.800176418880105"><ele>94.0</ele><time>2026-04-25T09:43:21.951Z</time></trkpt><trkpt lat="44.816043954676466" lon="4.80029779835421"><ele>94.0</ele><time>2026-04-25T09:43:23.951Z</time></trkpt><trkpt lat="44.81611147640222" lon="4.800403605928784"><ele>94.0</ele><time>2026-04-25T09:43:25.951Z</time></trkpt><trkpt lat="44.816181352695324" lon="4.800530471497647"><ele>94.0</ele><time>2026-04-25T09:43:27.951Z</time></trkpt><trkpt lat="44.81623322664794" lon="4.800651997461545"><ele>94.0</ele><time>2026-04-25T09:43:29.951Z</time></trkpt><trkpt lat="44.81630658725159" lon="4.80075935081059"><ele>94.0</ele><time>2026-04-25T09:43:31.951Z</time></trkpt><trkpt lat="44.81637744301788" lon="4.80087178595546"><ele>94.0</ele><time>2026-04-25T09:43:33.951Z</time></trkpt><trkpt lat="44.816440511045975" lon="4.800986357574785"><ele>94.0</ele><time>2026-04-25T09:43:35.951Z</time></trkpt><trkpt lat="44.81651527015565" lon="4.801111606555094"><ele>94.0</ele><time>2026-04-25T09:43:37.951Z</time></trkpt><trkpt lat="44.816580982120854" lon="4.80121099495304"><ele>94.0</ele><time>2026-04-25T09:43:39.951Z</time></trkpt><trkpt lat="44.8166539774088" lon="4.8013045894551265"><ele>94.0</ele><time>2026-04-25T09:43:41.951Z</time></trkpt><trkpt lat="44.81673203550052" lon="4.801395725064014"><ele>94.0</ele><time>2026-04-25T09:43:43.951Z</time></trkpt><trkpt lat="44.81682685285323" lon="4.801436516679198"><ele>94.2</ele><time>2026-04-25T09:43:45.951Z</time></trkpt><trkpt lat="44.81693551615069" lon="4.801451394664898"><ele>94.4</ele><time>2026-04-25T09:43:47.951Z</time></trkpt><trkpt lat="44.81703990714339" lon="4.801453916349303"><ele>94.6</ele><time>2026-04-25T09:43:49.951Z</time></trkpt><trkpt lat="44.81713999955376" lon="4.80146045404885"><ele>94.8</ele><time>2026-04-25T09:43:51.951Z</time></trkpt><trkpt lat="44.817202993093126" lon="4.801455116421252"><ele>95.0</ele><time>2026-04-25T09:43:52.951Z</time></trkpt><trkpt lat="44.81731003135729" lon="4.801450695038386"><ele>95.0</ele><time>2026-04-25T09:43:54.95Z</time></trkpt><trkpt lat="44.817424520700094" lon="4.801436623190656"><ele>95.0</ele><time>2026-04-25T09:43:56.95Z</time></trkpt><trkpt lat="44.81753409403196" lon="4.801429815471608"><ele>95.0</ele><time>2026-04-25T09:43:58.95Z</time></trkpt><trkpt lat="44.81764751240456" lon="4.801420262053994"><ele>95.0</ele><time>2026-04-25T09:44:00.951Z</time></trkpt><trkpt lat="44.817752773925776" lon="4.801408882857818"><ele>95.0</ele><time>2026-04-25T09:44:02.95Z</time></trkpt><trkpt lat="44.817862276956525" lon="4.801396369193241"><ele>94.8</ele><time>2026-04-25T09:44:04.95Z</time></trkpt><trkpt lat="44.8179819746384" lon="4.801392850752011"><ele>94.6</ele><time>2026-04-25T09:44:06.95Z</time></trkpt><trkpt lat="44.818100292620855" lon="4.80137457931789"><ele>94.4</ele><time>2026-04-25T09:44:08.95Z</time></trkpt><trkpt lat="44.81822069580776" lon="4.801358536174172"><ele>94.2</ele><time>2026-04-25T09:44:10.95Z</time></trkpt><trkpt lat="44.81828760737154" lon="4.8013486594838986"><ele>94.0</ele><time>2026-04-25T09:44:11.95Z</time></trkpt><trkpt lat="44.81840077046555" lon="4.801331169587535"><ele>94.4</ele><time>2026-04-25T09:44:13.95Z</time></trkpt><trkpt lat="44.8185143634351" lon="4.801315907421836"><ele>94.80000000000001</ele><time>2026-04-25T09:44:15.95Z</time></trkpt><trkpt lat="44.81862713730661" lon="4.801305263232916"><ele>95.19999999999999</ele><time>2026-04-25T09:44:17.95Z</time></trkpt><trkpt lat="44.818744619779345" lon="4.801279924844743"><ele>95.6</ele><time>2026-04-25T09:44:19.95Z</time></trkpt><trkpt lat="44.81884191384235" lon="4.801270190427876"><ele>96.0</ele><time>2026-04-25T09:44:21.95Z</time></trkpt><trkpt lat="44.81895630015474" lon="4.801252781422569"><ele>96.0</ele><time>2026-04-25T09:44:23.95Z</time></trkpt><trkpt lat="44.81907518646689" lon="4.8012332015504775"><ele>96.0</ele><time>2026-04-25T09:44:25.95Z</time></trkpt><trkpt lat="44.81917417512939" lon="4.801221411837387"><ele>96.0</ele><time>2026-04-25T09:44:27.95Z</time></trkpt><trkpt lat="44.81928583984965" lon="4.801200198019288"><ele>96.0</ele><time>2026-04-25T09:44:29.95Z</time></trkpt><trkpt lat="44.81940139487375" lon="4.801170473794643"><ele>96.0</ele><time>2026-04-25T09:44:31.95Z</time></trkpt><trkpt lat="44.81949894861391" lon="4.801156377660771"><ele>95.8</ele><time>2026-04-25T09:44:33.95Z</time></trkpt><trkpt lat="44.819609179220095" lon="4.801143005435944"><ele>95.6</ele><time>2026-04-25T09:44:35.95Z</time></trkpt><trkpt lat="44.81972440023454" lon="4.80113793056057"><ele>95.4</ele><time>2026-04-25T09:44:37.95Z</time></trkpt><trkpt lat="44.8198361603506" lon="4.801137217538486"><ele>95.2</ele><time>2026-04-25T09:44:39.95Z</time></trkpt><trkpt lat="44.81993523639577" lon="4.801118270541844"><ele>95.0</ele><time>2026-04-25T09:44:41.95Z</time></trkpt><trkpt lat="44.82005617690847" lon="4.801114024757552"><ele>94.4</ele><time>2026-04-25T09:44:43.95Z</time></trkpt><trkpt lat="44.82016419955345" lon="4.801094374502516"><ele>93.8</ele><time>2026-04-25T09:44:45.95Z</time></trkpt><trkpt lat="44.82027992638446" lon="4.801072554205695"><ele>93.19999999999999</ele><time>2026-04-25T09:44:47.95Z</time></trkpt><trkpt lat="44.820386251579635" lon="4.801060785297032"><ele>92.6</ele><time>2026-04-25T09:44:49.95Z</time></trkpt><trkpt lat="44.820485834520774" lon="4.801051086453589"><ele>92.0</ele><time>2026-04-25T09:44:51.95Z</time></trkpt><trkpt lat="44.82060054223768" lon="4.801025859345188"><ele>92.0</ele><time>2026-04-25T09:44:53.95Z</time></trkpt><trkpt lat="44.820694412767224" lon="4.800999374624925"><ele>92.0</ele><time>2026-04-25T09:44:55.95Z</time></trkpt><trkpt lat="44.82081456839938" lon="4.8009835111711"><ele>92.0</ele><time>2026-04-25T09:44:57.95Z</time></trkpt><trkpt lat="44.82087806419316" lon="4.800966780748799"><ele>92.0</ele><time>2026-04-25T09:44:58.95Z</time></trkpt><trkpt lat="44.820991710553635" lon="4.8009532958964005"><ele>92.0</ele><time>2026-04-25T09:45:00.949Z</time></trkpt><trkpt lat="44.82110260786908" lon="4.8009338440640015"><ele>92.39999999999999</ele><time>2026-04-25T09:45:02.949Z</time></trkpt><trkpt lat="44.821197814392654" lon="4.800895155440724"><ele>92.8</ele><time>2026-04-25T09:45:04.949Z</time></trkpt><trkpt lat="44.82128336166651" lon="4.80085258677569"><ele>93.2</ele><time>2026-04-25T09:45:06.949Z</time></trkpt><trkpt lat="44.82138932820051" lon="4.800807728963592"><ele>93.6</ele><time>2026-04-25T09:45:08.949Z</time></trkpt><trkpt lat="44.82148728483044" lon="4.800746106650999"><ele>94.0</ele><time>2026-04-25T09:45:10.949Z</time></trkpt><trkpt lat="44.821584728952026" lon="4.800672714177131"><ele>94.0</ele><time>2026-04-25T09:45:12.949Z</time></trkpt><trkpt lat="44.821685058480334" lon="4.800616688120765"><ele>94.0</ele><time>2026-04-25T09:45:14.949Z</time></trkpt><trkpt lat="44.82177669218426" lon="4.800544347919699"><ele>94.0</ele><time>2026-04-25T09:45:16.949Z</time></trkpt><trkpt lat="44.82185570170273" lon="4.8004585019797625"><ele>94.0</ele><time>2026-04-25T09:45:18.949Z</time></trkpt><trkpt lat="44.82192755504365" lon="4.800338628919972"><ele>94.0</ele><time>2026-04-25T09:45:20.949Z</time></trkpt><trkpt lat="44.82198387268688" lon="4.800217441463042"><ele>94.80000000000001</ele><time>2026-04-25T09:45:22.949Z</time></trkpt><trkpt lat="44.822040743876094" lon="4.800086339056065"><ele>95.60000000000001</ele><time>2026-04-25T09:45:24.949Z</time></trkpt><trkpt lat="44.82211812079042" lon="4.7999771458613"><ele>96.4</ele><time>2026-04-25T09:45:26.949Z</time></trkpt><trkpt lat="44.82221380501911" lon="4.799907166508162"><ele>97.2</ele><time>2026-04-25T09:45:28.949Z</time></trkpt><trkpt lat="44.822312658244215" lon="4.799839736867808"><ele>98.0</ele><time>2026-04-25T09:45:30.949Z</time></trkpt><trkpt lat="44.82241405064996" lon="4.799777635934"><ele>98.0</ele><time>2026-04-25T09:45:32.949Z</time></trkpt><trkpt lat="44.82251295322039" lon="4.799713646733217"><ele>98.0</ele><time>2026-04-25T09:45:34.949Z</time></trkpt><trkpt lat="44.822617447451144" lon="4.79966131584977"><ele>98.0</ele><time>2026-04-25T09:45:36.949Z</time></trkpt><trkpt lat="44.82272811033288" lon="4.79961921580899"><ele>98.0</ele><time>2026-04-25T09:45:38.949Z</time></trkpt><trkpt lat="44.822837410454134" lon="4.799580857272419"><ele>98.0</ele><time>2026-04-25T09:45:40.949Z</time></trkpt><trkpt lat="44.82293158235147" lon="4.799511499136729"><ele>98.0</ele><time>2026-04-25T09:45:42.949Z</time></trkpt><trkpt lat="44.82301026944939" lon="4.79942180109641"><ele>98.0</ele><time>2026-04-25T09:45:44.949Z</time></trkpt><trkpt lat="44.82309335925707" lon="4.799346027760728"><ele>98.0</ele><time>2026-04-25T09:45:46.949Z</time></trkpt><trkpt lat="44.82317387458746" lon="4.799281299548873"><ele>98.0</ele><time>2026-04-25T09:45:48.949Z</time></trkpt><trkpt lat="44.823250500310095" lon="4.799191021346701"><ele>98.0</ele><time>2026-04-25T09:45:50.949Z</time></trkpt><trkpt lat="44.82333570591249" lon="4.799089880701019"><ele>97.80000000000001</ele><time>2026-04-25T09:45:52.949Z</time></trkpt><trkpt lat="44.823398318714666" lon="4.798966488834958"><ele>97.6</ele><time>2026-04-25T09:45:54.949Z</time></trkpt><trkpt lat="44.823447448781394" lon="4.798866393615669"><ele>97.4</ele><time>2026-04-25T09:45:56.948Z</time></trkpt><trkpt lat="44.82348863134871" lon="4.7987807298056335"><ele>97.19999999999999</ele><time>2026-04-25T09:45:58.948Z</time></trkpt><trkpt lat="44.823544937722865" lon="4.798681043766775"><ele>97.0</ele><time>2026-04-25T09:46:01.948Z</time></trkpt><trkpt lat="44.8235959427119" lon="4.798557441666787"><ele>97.14285714285714</ele><time>2026-04-25T09:46:04.948Z</time></trkpt><trkpt lat="44.82364101313625" lon="4.798482760150413"><ele>97.28571428571429</ele><time>2026-04-25T09:46:06.948Z</time></trkpt><trkpt lat="44.823673966427705" lon="4.798405374810848"><ele>97.42857142857143</ele><time>2026-04-25T09:46:08.949Z</time></trkpt><trkpt lat="44.82370297250439" lon="4.798318991344705"><ele>97.57142857142857</ele><time>2026-04-25T09:46:10.949Z</time></trkpt><trkpt lat="44.823716962462086" lon="4.798218051920417"><ele>97.71428571428572</ele><time>2026-04-25T09:46:12.949Z</time></trkpt><trkpt lat="44.823753216994554" lon="4.798141335804227"><ele>97.85714285714286</ele><time>2026-04-25T09:46:14.949Z</time></trkpt><trkpt lat="44.82379533132467" lon="4.798057316841144"><ele>98.0</ele><time>2026-04-25T09:46:16.948Z</time></trkpt><trkpt lat="44.82385411909904" lon="4.798094196215483"><ele>97.99999999999999</ele><time>2026-04-25T09:46:19.948Z</time></trkpt><trkpt lat="44.823894394473626" lon="4.79816781511307"><ele>98.0</ele><time>2026-04-25T09:46:21.948Z</time></trkpt><trkpt lat="44.82394578950606" lon="4.798253504167326"><ele>98.0</ele><time>2026-04-25T09:46:23.948Z</time></trkpt><trkpt lat="44.82399400740106" lon="4.7983542099027305"><ele>98.0</ele><time>2026-04-25T09:46:25.948Z</time></trkpt><trkpt lat="44.82405109414167" lon="4.79845186295228"><ele>97.99999999999999</ele><time>2026-04-25T09:46:27.948Z</time></trkpt><trkpt lat="44.82410767632232" lon="4.7985426699015274"><ele>98.0</ele><time>2026-04-25T09:46:29.948Z</time></trkpt><trkpt lat="44.82416171395095" lon="4.798643710227874"><ele>97.4</ele><time>2026-04-25T09:46:31.948Z</time></trkpt><trkpt lat="44.82421248020259" lon="4.7987508842715085"><ele>96.80000000000001</ele><time>2026-04-25T09:46:33.948Z</time></trkpt><trkpt lat="44.8242616391355" lon="4.798859256825222"><ele>96.2</ele><time>2026-04-25T09:46:35.948Z</time></trkpt><trkpt lat="44.82432065647991" lon="4.798966490908576"><ele>95.6</ele><time>2026-04-25T09:46:37.948Z</time></trkpt><trkpt lat="44.824369502259586" lon="4.7990761589853355"><ele>95.0</ele><time>2026-04-25T09:46:39.948Z</time></trkpt><trkpt lat="44.8244261515668" lon="4.79918137909704"><ele>95.0</ele><time>2026-04-25T09:46:41.948Z</time></trkpt><trkpt lat="44.82448024620486" lon="4.7992889343671825"><ele>95.0</ele><time>2026-04-25T09:46:43.948Z</time></trkpt><trkpt lat="44.82453619889953" lon="4.799395824239439"><ele>95.0</ele><time>2026-04-25T09:46:45.948Z</time></trkpt><trkpt lat="44.82459056882468" lon="4.799511105412145"><ele>95.0</ele><time>2026-04-25T09:46:47.948Z</time></trkpt><trkpt lat="44.82464902961604" lon="4.799631257254006"><ele>95.0</ele><time>2026-04-25T09:46:49.948Z</time></trkpt><trkpt lat="44.82470241120611" lon="4.799744099637994"><ele>95.16666666666667</ele><time>2026-04-25T09:46:51.948Z</time></trkpt><trkpt lat="44.824763998106114" lon="4.799832098126299"><ele>95.33333333333334</ele><time>2026-04-25T09:46:53.948Z</time></trkpt><trkpt lat="44.82481397513274" lon="4.799936991513132"><ele>95.5</ele><time>2026-04-25T09:46:55.948Z</time></trkpt><trkpt lat="44.82488840872875" lon="4.800033522964322"><ele>95.66666666666667</ele><time>2026-04-25T09:46:57.948Z</time></trkpt><trkpt lat="44.824976407671656" lon="4.800105944364991"><ele>95.83333333333333</ele><time>2026-04-25T09:46:59.948Z</time></trkpt><trkpt lat="44.82501646725181" lon="4.800175125530538"><ele>96.0</ele><time>2026-04-25T09:47:00.948Z</time></trkpt><trkpt lat="44.82505161582715" lon="4.800340856210586"><ele>96.4</ele><time>2026-04-25T09:47:02.948Z</time></trkpt><trkpt lat="44.825107648972605" lon="4.8004970688915085"><ele>96.8</ele><time>2026-04-25T09:47:04.948Z</time></trkpt><trkpt lat="44.82516244927101" lon="4.800650775738407"><ele>97.2</ele><time>2026-04-25T09:47:06.948Z</time></trkpt><trkpt lat="44.8252133925814" lon="4.80071685286617"><ele>97.60000000000001</ele><time>2026-04-25T09:47:07.948Z</time></trkpt><trkpt lat="44.82526005319922" lon="4.8007886312113985"><ele>98.0</ele><time>2026-04-25T09:47:08.948Z</time></trkpt><trkpt lat="44.82529876062278" lon="4.80086402588611"><ele>98.0</ele><time>2026-04-25T09:47:09.948Z</time></trkpt><trkpt lat="44.82534274357791" lon="4.800940940211376"><ele>98.0</ele><time>2026-04-25T09:47:10.948Z</time></trkpt><trkpt lat="44.82541973788281" lon="4.801074103916"><ele>98.0</ele><time>2026-04-25T09:47:12.948Z</time></trkpt><trkpt lat="44.82548482953705" lon="4.801209298009355"><ele>98.0</ele><time>2026-04-25T09:47:14.948Z</time></trkpt><trkpt lat="44.82551679595602" lon="4.801285877873728"><ele>98.0</ele><time>2026-04-25T09:47:15.948Z</time></trkpt><trkpt lat="44.82558444400355" lon="4.8014108290975255"><ele>98.0</ele><time>2026-04-25T09:47:17.948Z</time></trkpt><trkpt lat="44.825658645339594" lon="4.801549456819357"><ele>98.0</ele><time>2026-04-25T09:47:19.948Z</time></trkpt><trkpt lat="44.82570498901838" lon="4.801691078326814"><ele>98.0</ele><time>2026-04-25T09:47:21.948Z</time></trkpt><trkpt lat="44.825771221026685" lon="4.801830850849512"><ele>98.0</ele><time>2026-04-25T09:47:23.948Z</time></trkpt><trkpt lat="44.825815752798476" lon="4.801895956786158"><ele>98.0</ele><time>2026-04-25T09:47:24.948Z</time></trkpt><trkpt lat="44.82589168155171" lon="4.80203185761662"><ele>98.0</ele><time>2026-04-25T09:47:26.947Z</time></trkpt><trkpt lat="44.825967545330336" lon="4.802160245431979"><ele>98.0</ele><time>2026-04-25T09:47:28.947Z</time></trkpt><trkpt lat="44.82604307348433" lon="4.802282307664051"><ele>98.0</ele><time>2026-04-25T09:47:30.947Z</time></trkpt><trkpt lat="44.826108648195536" lon="4.802416196282966"><ele>98.0</ele><time>2026-04-25T09:47:32.947Z</time></trkpt><trkpt lat="44.82615675486028" lon="4.802553867349016"><ele>99.2</ele><time>2026-04-25T09:47:34.947Z</time></trkpt><trkpt lat="44.826184525448966" lon="4.802697428809077"><ele>100.4</ele><time>2026-04-25T09:47:36.947Z</time></trkpt><trkpt lat="44.82624896899055" lon="4.8027522074468365"><ele>101.60000000000001</ele><time>2026-04-25T09:47:37.947Z</time></trkpt><trkpt lat="44.826322761988976" lon="4.802876946094607"><ele>102.80000000000001</ele><time>2026-04-25T09:47:39.947Z</time></trkpt><trkpt lat="44.82638982953335" lon="4.8030046271779945"><ele>104.0</ele><time>2026-04-25T09:47:41.947Z</time></trkpt><trkpt lat="44.826467442042244" lon="4.8031342373331505"><ele>104.0</ele><time>2026-04-25T09:47:43.947Z</time></trkpt><trkpt lat="44.826533879092516" lon="4.80326846790168"><ele>104.0</ele><time>2026-04-25T09:47:45.947Z</time></trkpt><trkpt lat="44.8266169605881" lon="4.803386848207149"><ele>104.0</ele><time>2026-04-25T09:47:47.947Z</time></trkpt><trkpt lat="44.82670020311781" lon="4.803507058967368"><ele>104.0</ele><time>2026-04-25T09:47:49.947Z</time></trkpt><trkpt lat="44.82678696314759" lon="4.803622990536439"><ele>105.2</ele><time>2026-04-25T09:47:51.947Z</time></trkpt><trkpt lat="44.82686623545432" lon="4.803732258084554"><ele>106.4</ele><time>2026-04-25T09:47:53.947Z</time></trkpt><trkpt lat="44.826957083908006" lon="4.803838344607052"><ele>107.6</ele><time>2026-04-25T09:47:55.947Z</time></trkpt><trkpt lat="44.827038516539325" lon="4.803940564636403"><ele>108.8</ele><time>2026-04-25T09:47:57.947Z</time></trkpt><trkpt lat="44.82712096392197" lon="4.804042087875743"><ele>110.0</ele><time>2026-04-25T09:47:59.947Z</time></trkpt><trkpt lat="44.827183869095805" lon="4.804151460511149"><ele>110.0</ele><time>2026-04-25T09:48:01.946Z</time></trkpt><trkpt lat="44.82726043816151" lon="4.804240874368685"><ele>110.0</ele><time>2026-04-25T09:48:03.947Z</time></trkpt><trkpt lat="44.827334233263976" lon="4.804333314276715"><ele>110.0</ele><time>2026-04-25T09:48:05.947Z</time></trkpt><trkpt lat="44.82741999719795" lon="4.804419244760626"><ele>110.0</ele><time>2026-04-25T09:48:07.946Z</time></trkpt><trkpt lat="44.82749941327878" lon="4.804507588235426"><ele>110.0</ele><time>2026-04-25T09:48:09.946Z</time></trkpt><trkpt lat="44.827578247220195" lon="4.8045968407472905"><ele>110.2</ele><time>2026-04-25T09:48:11.946Z</time></trkpt><trkpt lat="44.827660020284064" lon="4.804659068527067"><ele>110.4</ele><time>2026-04-25T09:48:13.946Z</time></trkpt><trkpt lat="44.82774343462311" lon="4.804732990608793"><ele>110.6</ele><time>2026-04-25T09:48:15.946Z</time></trkpt><trkpt lat="44.82783589451009" lon="4.804806860940004"><ele>110.8</ele><time>2026-04-25T09:48:17.946Z</time></trkpt><trkpt lat="44.827926644808834" lon="4.804869463396131"><ele>111.0</ele><time>2026-04-25T09:48:19.946Z</time></trkpt><trkpt lat="44.827999842634505" lon="4.804947933369681"><ele>111.0</ele><time>2026-04-25T09:48:21.946Z</time></trkpt><trkpt lat="44.82808374507378" lon="4.805018572343914"><ele>111.0</ele><time>2026-04-25T09:48:23.946Z</time></trkpt><trkpt lat="44.82815843023431" lon="4.805086638139191"><ele>111.0</ele><time>2026-04-25T09:48:25.946Z</time></trkpt><trkpt lat="44.82825657383709" lon="4.805161133479288"><ele>111.0</ele><time>2026-04-25T09:48:27.946Z</time></trkpt><trkpt lat="44.82834401013501" lon="4.805242257372277"><ele>111.0</ele><time>2026-04-25T09:48:29.946Z</time></trkpt><trkpt lat="44.828422885413495" lon="4.805320555564308"><ele>110.19999999999999</ele><time>2026-04-25T09:48:31.946Z</time></trkpt><trkpt lat="44.828511420786405" lon="4.805384146511933"><ele>109.39999999999999</ele><time>2026-04-25T09:48:33.946Z</time></trkpt><trkpt lat="44.82859143316718" lon="4.805455936778993"><ele>108.6</ele><time>2026-04-25T09:48:35.946Z</time></trkpt><trkpt lat="44.82867721109564" lon="4.805535055233466"><ele>107.8</ele><time>2026-04-25T09:48:37.946Z</time></trkpt><trkpt lat="44.82877151830391" lon="4.805592707741493"><ele>107.0</ele><time>2026-04-25T09:48:39.946Z</time></trkpt><trkpt lat="44.82885712950585" lon="4.805670059872229"><ele>107.0</ele><time>2026-04-25T09:48:41.946Z</time></trkpt><trkpt lat="44.828956362200046" lon="4.805734552514035"><ele>106.99999999999999</ele><time>2026-04-25T09:48:43.946Z</time></trkpt><trkpt lat="44.82904435187103" lon="4.805794707043266"><ele>106.99999999999999</ele><time>2026-04-25T09:48:45.946Z</time></trkpt><trkpt lat="44.829150264510275" lon="4.805880670947768"><ele>107.0</ele><time>2026-04-25T09:48:47.946Z</time></trkpt><trkpt lat="44.82925059177505" lon="4.805930088412152"><ele>107.0</ele><time>2026-04-25T09:48:49.946Z</time></trkpt><trkpt lat="44.829351002199836" lon="4.806006776200911"><ele>105.8</ele><time>2026-04-25T09:48:51.946Z</time></trkpt><trkpt lat="44.829443751366746" lon="4.806075687391684"><ele>104.6</ele><time>2026-04-25T09:48:53.946Z</time></trkpt><trkpt lat="44.8295344657632" lon="4.806137409618629"><ele>103.39999999999999</ele><time>2026-04-25T09:48:55.946Z</time></trkpt><trkpt lat="44.8296213552177" lon="4.806198706468232"><ele>102.19999999999999</ele><time>2026-04-25T09:48:57.946Z</time></trkpt><trkpt lat="44.82969798396697" lon="4.806261685656335"><ele>101.0</ele><time>2026-04-25T09:48:59.945Z</time></trkpt><trkpt lat="44.82978203481516" lon="4.806336998524112"><ele>101.0</ele><time>2026-04-25T09:49:01.945Z</time></trkpt><trkpt lat="44.82987228725751" lon="4.806419026920528"><ele>101.0</ele><time>2026-04-25T09:49:03.945Z</time></trkpt><trkpt lat="44.82995914871148" lon="4.806478520338488"><ele>101.0</ele><time>2026-04-25T09:49:05.945Z</time></trkpt><trkpt lat="44.830050212159684" lon="4.806556031842472"><ele>101.0</ele><time>2026-04-25T09:49:07.945Z</time></trkpt><trkpt lat="44.83013447258549" lon="4.8066261648712345"><ele>101.0</ele><time>2026-04-25T09:49:09.945Z</time></trkpt><trkpt lat="44.83022449679062" lon="4.80669312207511"><ele>100.4</ele><time>2026-04-25T09:49:11.945Z</time></trkpt><trkpt lat="44.8303070836316" lon="4.80676250911839"><ele>99.8</ele><time>2026-04-25T09:49:13.945Z</time></trkpt><trkpt lat="44.83038899388601" lon="4.806833146981861"><ele>99.2</ele><time>2026-04-25T09:49:15.945Z</time></trkpt><trkpt lat="44.830469366568515" lon="4.80689708027513"><ele>98.60000000000001</ele><time>2026-04-25T09:49:17.945Z</time></trkpt><trkpt lat="44.83056222375168" lon="4.806978431209364"><ele>98.0</ele><time>2026-04-25T09:49:19.945Z</time></trkpt><trkpt lat="44.83064670432766" lon="4.807040615173308"><ele>98.0</ele><time>2026-04-25T09:49:21.945Z</time></trkpt><trkpt lat="44.83072548406053" lon="4.807130590285528"><ele>98.0</ele><time>2026-04-25T09:49:23.945Z</time></trkpt><trkpt lat="44.83082177870101" lon="4.807205061150269"><ele>98.0</ele><time>2026-04-25T09:49:25.945Z</time></trkpt><trkpt lat="44.83090036245703" lon="4.8072798153185445"><ele>98.0</ele><time>2026-04-25T09:49:27.945Z</time></trkpt><trkpt lat="44.83098435917782" lon="4.807340628280675"><ele>98.0</ele><time>2026-04-25T09:49:29.945Z</time></trkpt><trkpt lat="44.83107826996138" lon="4.80743329943998"><ele>98.25</ele><time>2026-04-25T09:49:31.945Z</time></trkpt><trkpt lat="44.83118006008271" lon="4.807525284689353"><ele>98.5</ele><time>2026-04-25T09:49:33.945Z</time></trkpt><trkpt lat="44.831273587569996" lon="4.807630199719337"><ele>98.75</ele><time>2026-04-25T09:49:35.945Z</time></trkpt><trkpt lat="44.83137083700871" lon="4.80772668576461"><ele>99.0</ele><time>2026-04-25T09:49:37.945Z</time></trkpt><trkpt lat="44.83144798522747" lon="4.807821372414116"><ele>99.0</ele><time>2026-04-25T09:49:39.945Z</time></trkpt><trkpt lat="44.83152631320905" lon="4.807928256900253"><ele>99.0</ele><time>2026-04-25T09:49:41.945Z</time></trkpt><trkpt lat="44.831590017998124" lon="4.808028026950876"><ele>99.0</ele><time>2026-04-25T09:49:43.945Z</time></trkpt><trkpt lat="44.83164805236566" lon="4.808124983127943"><ele>99.0</ele><time>2026-04-25T09:49:45.945Z</time></trkpt><trkpt lat="44.831696912870065" lon="4.808220323026251"><ele>99.0</ele><time>2026-04-25T09:49:47.945Z</time></trkpt><trkpt lat="44.83173000043422" lon="4.808314570633059"><ele>99.0</ele><time>2026-04-25T09:49:49.945Z</time></trkpt><trkpt lat="44.831692740173345" lon="4.808401590777232"><ele>99.0</ele><time>2026-04-25T09:49:51.945Z</time></trkpt><trkpt lat="44.83158364607453" lon="4.808488776455075"><ele>99.0</ele><time>2026-04-25T09:49:53.945Z</time></trkpt><trkpt lat="44.83152969173079" lon="4.808566266655007"><ele>99.0</ele><time>2026-04-25T09:49:54.945Z</time></trkpt><trkpt lat="44.83147327512301" lon="4.8086236341183435"><ele>99.0</ele><time>2026-04-25T09:49:55.945Z</time></trkpt><trkpt lat="44.83142083769866" lon="4.808679821849942"><ele>99.0</ele><time>2026-04-25T09:49:56.945Z</time></trkpt><trkpt lat="44.831367092270845" lon="4.808738662197038"><ele>98.6</ele><time>2026-04-25T09:49:57.945Z</time></trkpt><trkpt lat="44.83126858317139" lon="4.808828098218127"><ele>98.2</ele><time>2026-04-25T09:49:59.945Z</time></trkpt><trkpt lat="44.83117770838936" lon="4.808938033151942"><ele>97.8</ele><time>2026-04-25T09:50:01.945Z</time></trkpt><trkpt lat="44.831090668444" lon="4.809011601432529"><ele>97.39999999999999</ele><time>2026-04-25T09:50:03.945Z</time></trkpt><trkpt lat="44.830987521700806" lon="4.809023501657381"><ele>97.0</ele><time>2026-04-25T09:50:05.945Z</time></trkpt><trkpt lat="44.83088638211187" lon="4.809086495916183"><ele>97.0</ele><time>2026-04-25T09:50:07.944Z</time></trkpt><trkpt lat="44.83079429550094" lon="4.809169053850011"><ele>97.0</ele><time>2026-04-25T09:50:09.944Z</time></trkpt><trkpt lat="44.83070429882936" lon="4.809244150757614"><ele>97.0</ele><time>2026-04-25T09:50:11.945Z</time></trkpt><trkpt lat="44.830625340339765" lon="4.8093156239515436"><ele>97.0</ele><time>2026-04-25T09:50:13.944Z</time></trkpt><trkpt lat="44.830560003491144" lon="4.809374281026461"><ele>97.0</ele><time>2026-04-25T09:50:15.945Z</time></trkpt><trkpt lat="44.83049455960269" lon="4.8093598590767455"><ele>97.0</ele><time>2026-04-25T09:50:26.944Z</time></trkpt></trkseg></trk></gpx>